GFSNGP_sfc_wetblb_000.txt.gz
Wetbulb
41.31 41.86 41.53 40.48 39.97 40.60 39.19 39.95 35.72 38.91 39.63 43.12 45.04 45.62 46.94 47.85 48.69 48.28 48.06 48.05 47.72 47.49 46.73 46.90 46.42 46.89 47.17 46.20 45.20 45.27 44.36 43.49 42.09 42.28 42.01 41.77 41.44 40.84 40.60 39.89 38.88 38.57 37.87 37.73
36.65 39.92 40.49 38.23 40.57 40.98 41.01 41.31 40.97 40.97 40.06 45.45 46.14 47.21 46.56 46.57 46.40 46.06 46.29 45.96 45.45 43.03 43.18 44.64 45.18 46.26 45.68 44.35 44.49 44.37 43.16 41.14 40.85 41.26 40.86 39.87 39.61 39.24 38.51 37.70 37.41 37.40 36.87 36.67
34.29 37.21 37.31 34.29 38.37 40.25 40.85 42.19 41.62 37.30 42.28 45.16 44.67 45.03 46.16 46.46 46.20 44.87 44.30 43.73 41.54 42.26 44.32 44.91 45.84 46.76 44.73 44.27 44.24 43.29 41.42 40.30 40.42 40.69 38.86 38.53 38.04 37.35 36.84 36.60 36.95 36.20 35.88 35.70
34.94 35.17 30.32 39.05 44.06 43.51 41.27 42.48 43.87 43.41 43.44 44.66 45.83 46.19 47.96 46.20 44.21 41.00 41.21 41.80 42.48 43.69 43.67 45.30 47.24 46.17 44.96 44.31 43.27 42.07 40.86 40.20 40.37 39.01 37.59 37.45 36.83 36.17 36.27 36.36 35.59 35.25 34.93 34.49
31.88 31.94 36.59 39.10 41.28 40.52 39.08 39.47 43.74 42.90 44.42 45.61 46.64 46.34 45.12 42.51 41.22 43.31 42.37 43.54 43.64 44.30 44.70 45.53 46.52 45.16 44.15 43.02 42.30 40.76 40.04 39.14 39.03 38.32 36.96 36.19 35.76 35.52 36.06 35.38 35.01 34.45 33.78 32.96
34.44 29.90 28.67 39.08 42.01 44.11 44.05 36.09 44.28 44.35 43.27 42.39 44.52 38.28 38.67 43.86 42.33 41.55 43.74 44.01 43.33 43.22 44.41 45.56 45.65 44.53 43.62 42.36 41.70 40.12 39.55 39.59 39.33 38.48 36.67 35.54 35.60 35.83 35.95 35.61 34.09 33.59 32.10 32.31
33.60 31.58 35.85 42.87 43.27 44.36 33.80 37.27 44.55 42.01 41.54 41.58 39.23 39.53 41.89 42.34 42.07 43.39 43.16 43.10 42.95 42.45 42.11 43.77 44.89 44.11 42.29 41.27 39.01 39.59 39.99 39.68 39.25 38.27 36.31 36.21 36.26 36.45 35.81 34.62 33.05 31.21 30.64 30.19
33.76 30.55 28.84 43.25 43.13 37.61 43.39 43.61 42.10 42.49 43.30 42.33 42.34 42.11 41.52 41.24 41.20 41.44 41.83 41.94 41.99 40.97 41.07 42.52 43.60 43.06 41.22 39.08 39.72 40.04 40.13 39.37 38.34 37.30 36.34 35.94 36.12 35.94 34.68 33.62 31.00 29.43 30.31 30.14
37.72 39.10 45.81 46.86 44.77 46.29 44.37 42.91 44.68 43.02 43.43 42.55 41.11 40.00 39.67 39.83 40.50 41.20 41.44 41.11 41.12 40.41 40.22 41.46 42.41 42.81 39.61 39.21 39.82 39.25 38.30 37.66 37.35 36.45 36.16 36.23 35.41 34.49 32.87 31.87 28.82 27.84 27.21 27.07
39.89 43.16 44.62 46.53 47.72 46.82 45.38 43.06 42.40 42.63 42.70 40.89 39.57 39.31 39.68 39.97 40.22 40.16 40.10 39.41 40.10 39.15 38.71 39.04 41.20 41.47 39.99 39.56 38.99 37.61 36.67 36.63 36.57 35.84 34.92 35.65 34.95 33.27 32.04 29.54 27.47 26.77 26.19 25.46
39.64 43.45 45.07 45.33 46.05 44.53 43.85 43.42 42.17 43.27 41.58 40.00 39.23 38.99 39.06 38.75 38.68 38.60 38.71 39.13 38.99 38.21 37.97 37.90 39.60 39.07 38.43 37.53 37.11 35.82 35.64 35.33 34.93 34.57 34.44 33.99 33.48 32.34 30.57 29.90 27.05 25.64 25.26 25.07
36.90 43.58 43.40 43.40 43.55 44.58 43.31 43.35 42.04 39.89 39.21 40.09 39.92 39.13 38.92 37.96 38.30 38.16 38.06 38.54 37.95 38.12 37.75 37.66 37.44 36.97 36.82 35.81 34.97 34.02 32.62 33.52 34.21 33.69 34.07 32.66 31.82 31.31 26.60 25.28 24.10 23.59 23.09 23.41
42.89 45.31 45.00 44.23 43.62 44.78 42.58 40.82 40.24 39.60 40.30 39.73 40.69 39.22 38.42 37.75 38.12 37.26 38.49 38.27 37.88 37.48 37.31 37.09 35.95 35.00 34.94 33.93 33.07 31.86 32.09 32.08 33.67 31.74 31.92 31.09 30.35 29.19 27.41 28.53 24.34 22.70 22.17 22.02
43.68 42.68 41.17 42.62 42.08 41.62 40.60 39.82 40.94 41.46 41.21 40.27 39.35 39.16 38.59 37.82 38.13 37.93 37.68 38.68 38.73 37.55 36.89 35.03 34.09 33.95 34.40 33.71 32.64 31.85 32.09 29.39 32.37 32.71 32.18 30.95 29.67 28.25 27.61 25.96 25.09 25.33 24.10 21.35
42.56 44.09 43.28 42.07 41.18 40.22 41.01 41.03 39.23 38.40 38.53 38.68 39.36 38.50 38.40 36.91 36.61 36.90 37.74 37.57 36.87 35.76 35.71 34.97 33.97 33.45 34.11 32.54 31.32 31.00 31.01 31.31 31.43 32.17 30.90 28.77 28.86 27.91 27.21 26.08 25.57 24.29 24.21 23.10
41.38 41.21 40.57 39.03 39.03 39.07 38.98 37.89 36.63 36.54 37.14 36.87 36.73 36.20 36.84 36.84 36.58 35.92 34.45 33.91 32.40 31.62 32.53 31.63 31.46 32.55 31.97 32.64 32.26 31.85 29.81 28.39 28.73 30.47 29.72 28.65 28.04 27.20 26.42 25.77 25.09 24.13 22.72 21.24
37.88 36.39 37.36 36.56 36.19 35.92 36.03 36.79 36.42 35.80 35.78 35.77 34.91 35.07 34.51 33.21 32.21 33.01 33.46 32.59 32.80 30.58 31.04 31.30 31.31 33.52 31.27 32.19 31.93 31.54 30.61 29.43 27.05 29.78 28.87 28.22 27.19 26.28 26.05 25.26 24.40 23.92 22.93 21.54
39.44 38.19 37.25 36.54 35.68 35.38 35.59 35.71 35.33 34.89 34.47 34.87 32.96 31.65 30.62 30.76 31.84 33.21 33.38 33.33 31.88 30.70 32.12 32.12 32.11 31.21 30.72 31.72 30.83 30.15 30.22 30.49 29.96 28.91 28.60 27.55 27.12 26.71 25.90 25.10 24.39 23.51 23.51 22.39
36.97 36.17 36.63 36.02 36.79 35.80 35.16 34.67 34.77 34.21 32.71 32.82 32.10 31.35 31.25 30.82 32.28 33.74 33.38 31.88 30.79 29.80 32.97 32.86 29.82 29.99 30.58 30.24 29.80 30.16 30.28 29.73 29.20 28.27 28.23 26.51 26.69 26.27 25.57 25.44 24.79 24.14 23.67 22.68
36.00 36.82 37.15 36.89 36.44 33.92 33.24 33.89 33.49 33.45 33.75 33.30 31.86 30.91 30.98 31.68 32.57 32.81 33.14 32.18 32.92 33.79 33.86 32.63 31.27 31.08 30.93 30.17 28.96 29.90 29.61 29.86 28.94 28.80 28.01 26.74 26.28 25.95 25.90 24.18 23.98 24.25 24.12 23.48
34.49 35.50 35.17 34.20 33.89 33.85 32.06 32.25 31.40 31.36 32.94 31.95 30.50 30.40 30.74 32.23 33.14 32.96 32.18 31.88 35.11 33.27 32.72 31.23 31.63 32.49 32.03 30.98 30.24 30.80 30.52 29.97 29.73 29.10 28.03 26.89 26.26 26.10 25.84 25.50 25.07 24.57 24.12 23.89
34.84 34.44 33.61 33.18 32.73 32.86 34.11 34.12 33.61 32.17 31.69 31.13 31.17 30.75 31.01 32.23 33.33 33.17 33.51 32.74 35.26 30.80 33.88 34.38 33.83 31.31 31.93 29.21 31.06 31.22 29.47 29.85 29.63 29.80 28.81 27.76 26.46 25.70 25.50 25.49 24.91 24.80 24.54 24.09
33.86 33.80 33.79 33.04 32.22 33.44 33.84 33.03 32.27 32.30 31.37 31.51 31.06 31.24 31.39 32.91 33.02 32.15 31.81 35.24 34.80 33.40 34.26 34.44 31.92 29.64 29.63 31.32 31.50 31.15 30.55 29.61 29.58 29.37 29.28 27.88 26.94 26.19 25.60 25.53 25.39 24.74 24.61 24.32
34.11 34.29 34.15 34.53 33.81 31.85 31.90 34.03 33.73 34.61 32.60 33.20 32.86 32.74 32.35 32.62 33.72 36.20 36.49 33.36 31.01 31.57 33.39 33.66 30.88 29.68 29.14 31.51 31.15 30.93 30.65 30.49 30.10 30.42 29.89 26.98 27.70 26.95 26.28 25.65 25.35 25.43 25.04 23.69
34.29 33.62 33.36 32.56 32.31 34.59 33.76 33.44 32.64 33.59 33.12 33.43 33.15 33.91 35.25 34.81 32.78 33.67 33.51 33.14 31.16 31.97 33.33 30.73 29.30 29.70 30.71 31.33 30.74 30.04 29.04 28.92 29.21 29.39 29.36 29.02 28.43 27.28 26.98 26.48 26.08 25.62 25.33 24.96
34.34 35.10 35.62 34.80 34.49 34.58 34.44 33.69 30.94 32.45 33.42 32.15 32.40 32.79 34.20 33.85 33.87 32.20 32.77 32.15 33.60 32.28 33.33 32.78 31.88 31.69 31.69 31.27 30.32 29.43 28.87 28.45 27.90 27.65 27.44 27.43 27.79 27.40 27.03 26.85 26.55 26.35 26.11 25.66
35.09 32.60 33.77 34.90 36.17 35.77 35.05 33.98 31.90 31.90 32.80 32.19 31.42 32.86 33.31 33.33 32.77 32.47 32.09 32.78 32.24 32.06 32.42 32.42 32.60 31.59 31.97 30.88 29.40 29.50 29.10 28.39 26.88 26.97 26.55 26.36 26.39 26.50 26.44 26.89 26.79 27.10 26.84 26.26

GFSNGP_sfc_wetblb_003.txt.gz
Wetbulb
43.44 43.50 42.94 42.11 41.75 42.33 40.98 41.56 37.74 40.67 41.31 44.22 46.64 47.08 48.20 49.48 48.88 48.72 47.91 48.44 48.03 48.08 48.03 47.03 47.18 47.87 47.89 48.35 48.02 47.83 46.24 45.63 44.10 43.45 43.20 42.72 41.68 41.17 41.06 40.23 39.43 39.19 38.69 38.57
38.88 42.60 41.98 39.96 42.07 42.56 42.48 42.73 42.63 42.69 41.77 47.81 48.69 48.97 48.33 47.26 47.57 46.68 46.92 47.14 46.38 46.65 46.19 46.12 46.07 46.24 47.21 47.64 47.38 47.04 45.68 44.36 43.60 42.76 42.19 41.24 40.51 40.00 39.32 38.77 38.51 38.40 37.80 37.53
35.47 40.85 39.29 35.64 41.16 41.89 42.53 43.92 43.24 39.24 43.58 47.23 46.45 45.92 44.97 45.05 46.98 46.65 45.44 44.38 45.83 45.58 45.48 45.55 45.61 45.96 46.15 46.93 47.00 44.94 44.78 43.91 42.78 41.84 41.01 40.03 39.44 38.67 37.90 37.66 37.93 37.07 36.93 36.74
35.68 35.74 31.38 42.04 46.20 45.59 43.12 43.96 45.49 45.36 45.80 46.65 45.24 46.91 46.56 46.88 45.03 44.59 44.67 44.68 44.98 45.28 44.95 44.74 45.09 45.75 46.87 46.61 45.62 44.72 43.48 42.70 42.16 41.17 40.47 39.77 38.57 37.84 37.61 37.58 36.94 36.22 35.93 35.88
34.28 34.34 38.27 41.25 42.80 42.26 40.90 40.79 46.14 45.26 46.27 46.46 47.47 47.13 45.03 46.89 46.57 45.10 44.92 45.38 45.20 45.05 44.17 43.96 43.89 44.84 45.32 44.74 44.29 43.62 42.46 41.86 41.17 41.15 39.92 38.34 37.44 37.31 37.38 36.85 36.48 35.88 35.57 34.51
36.17 31.03 30.02 40.86 45.13 46.47 46.16 36.88 46.31 46.19 45.00 43.01 44.63 39.05 42.31 45.54 45.70 45.03 45.07 44.64 44.12 44.38 44.02 43.26 43.11 43.71 42.98 42.89 42.59 41.68 41.57 40.89 41.02 40.78 39.38 38.06 37.67 37.17 37.35 36.96 35.92 35.42 34.19 33.19
34.90 32.97 36.90 44.45 45.30 46.94 35.07 38.37 46.92 45.86 44.14 44.04 41.20 42.58 44.82 45.35 44.32 44.29 43.84 43.71 44.09 43.52 42.12 42.28 42.90 42.74 41.65 41.57 40.83 41.61 41.22 40.67 40.55 40.33 39.40 38.53 37.65 37.61 36.76 36.25 35.49 34.04 33.06 32.59
36.28 32.62 30.11 46.06 44.86 39.19 44.96 47.83 46.40 44.57 44.48 43.70 44.08 44.22 43.81 42.86 42.40 42.84 42.70 42.74 42.62 41.31 41.09 41.75 41.97 41.46 40.50 40.01 41.74 41.30 40.57 39.99 39.33 39.30 38.37 37.67 37.23 36.81 36.28 35.16 33.60 32.35 31.75 31.75
40.20 40.16 46.71 47.63 45.23 49.15 48.55 46.18 45.02 44.55 43.87 43.62 43.80 42.33 42.08 41.54 41.94 42.14 41.88 41.39 41.33 40.45 40.16 40.68 41.13 40.85 39.07 40.90 41.40 40.01 38.75 38.38 38.11 38.30 37.63 37.32 36.22 35.35 34.35 34.11 31.78 29.75 28.89 28.75
42.07 44.54 45.48 46.23 48.45 48.31 48.26 46.59 45.37 45.47 45.66 44.66 42.26 41.87 41.24 41.49 41.48 40.84 40.73 40.06 40.35 39.61 39.00 39.00 40.26 40.09 40.06 40.35 39.91 38.85 37.15 37.00 37.21 36.56 35.74 36.35 36.13 35.05 33.71 31.89 29.16 28.45 26.51 25.91
43.41 45.97 46.62 47.52 46.74 47.34 47.36 47.14 46.03 46.25 45.25 43.20 41.90 41.22 41.61 40.99 40.27 40.16 40.11 40.05 39.92 39.41 38.91 38.99 39.89 39.42 39.70 39.19 38.11 36.18 35.52 35.70 35.47 35.64 35.56 34.98 34.83 34.07 32.67 31.68 28.07 26.01 25.31 24.41
41.70 46.09 44.69 44.78 46.66 48.45 46.91 45.78 45.40 43.62 42.52 42.99 42.67 41.61 41.34 40.16 40.33 39.86 39.27 39.62 39.41 39.35 39.32 39.27 39.05 38.56 38.10 38.45 37.04 35.24 33.69 34.17 34.78 34.50 34.63 33.65 33.21 32.60 27.27 26.66 25.21 24.27 22.86 23.47
46.02 47.48 45.63 45.72 45.69 46.64 45.66 44.48 43.54 42.34 42.90 41.97 41.90 41.33 40.65 39.81 39.94 38.52 39.67 39.12 38.83 38.74 39.14 38.74 37.52 36.01 36.51 36.93 35.29 33.41 32.77 32.77 33.68 32.96 32.70 31.87 30.91 29.62 28.23 29.39 26.14 25.01 23.05 22.54
47.29 46.39 42.29 43.94 44.28 45.32 44.04 43.29 42.83 43.62 42.56 41.41 40.83 40.76 39.82 38.99 38.92 38.31 38.07 38.95 39.44 38.88 38.28 37.62 36.63 35.58 36.99 36.65 34.94 33.30 32.83 31.26 31.98 32.21 31.89 31.44 29.85 28.83 28.74 27.35 26.45 27.65 26.23 22.87
44.41 45.15 46.21 46.01 44.76 43.43 43.16 42.63 40.36 39.48 39.72 39.24 39.56 38.50 38.28 37.20 36.96 37.60 38.85 39.03 38.00 36.03 37.15 36.92 35.56 35.64 36.58 35.37 33.11 33.04 31.83 30.63 31.31 31.75 31.06 29.71 29.86 29.37 28.96 27.95 27.23 27.05 26.96 26.49
45.09 44.53 43.59 41.78 41.03 40.58 40.00 39.29 38.17 38.02 38.11 37.62 37.43 37.03 37.49 37.33 37.36 37.23 37.63 37.81 34.19 32.36 33.56 32.46 31.59 34.19 35.76 34.74 34.04 34.28 33.95 29.92 29.73 30.40 30.06 29.87 29.12 28.12 27.42 27.14 26.80 26.55 25.80 25.02
41.69 40.04 40.10 38.65 38.30 38.21 38.00 38.75 38.33 37.35 37.11 36.79 36.16 36.27 35.39 34.23 33.44 34.74 35.17 35.57 35.19 32.99 33.71 31.79 31.96 34.88 34.38 33.95 33.47 33.78 33.04 31.24 29.67 29.66 29.77 28.60 28.32 27.93 27.38 26.80 26.22 25.95 26.26 24.52
43.12 41.28 39.30 38.19 37.70 37.37 37.54 37.83 37.11 36.64 35.84 36.53 34.65 33.17 32.51 32.27 32.25 32.41 32.73 33.75 33.89 33.17 34.07 32.68 32.59 33.47 33.19 33.74 33.10 32.18 30.47 30.60 30.02 29.74 29.20 29.17 28.01 27.51 27.61 26.62 26.57 25.84 25.94 25.77
39.21 38.11 38.19 37.97 38.38 37.92 37.43 36.61 36.37 36.14 34.66 34.71 33.83 32.83 32.94 32.65 33.20 33.56 34.03 32.83 32.80 32.41 34.52 36.18 31.63 30.58 32.17 31.47 30.11 31.18 30.81 29.99 29.78 30.00 29.84 27.88 28.52 28.19 27.56 27.61 26.87 26.64 26.30 25.13
37.47 38.10 38.41 38.08 38.10 36.50 35.58 36.43 35.44 35.67 36.16 35.47 33.89 32.65 32.41 32.57 32.97 33.05 33.35 32.56 33.42 34.09 35.78 35.14 32.73 32.24 32.35 31.70 29.39 31.11 30.86 30.51 29.32 30.15 30.19 28.48 28.03 27.95 27.53 26.96 27.01 26.51 26.81 26.32
35.74 36.69 36.71 37.08 36.48 36.33 34.44 34.49 33.57 33.55 35.04 34.67 32.62 32.04 31.81 32.31 31.88 32.15 32.64 33.63 35.65 34.80 35.54 33.28 33.37 33.67 33.93 32.66 30.94 32.92 32.04 31.32 30.38 30.03 30.09 29.45 28.42 27.74 27.38 27.59 27.99 27.36 27.08 26.58
36.59 35.91 35.30 35.52 35.45 35.27 36.50 36.66 36.03 34.44 33.86 33.27 32.96 32.46 31.59 31.66 32.23 32.99 34.15 33.83 37.04 33.15 35.03 34.60 34.29 32.91 33.47 29.84 32.33 32.81 30.68 30.26 30.56 30.71 30.25 30.16 29.35 27.47 27.03 27.30 27.16 26.98 27.16 27.16
35.54 35.37 35.49 35.46 34.21 35.50 36.77 35.38 34.07 33.53 32.80 32.99 32.61 32.47 33.11 33.55 33.84 32.03 31.91 36.39 35.89 34.59 35.40 35.14 33.31 30.57 29.88 32.43 32.59 32.26 31.66 30.10 29.86 30.27 30.38 30.14 29.34 27.97 27.25 26.76 26.97 26.81 26.26 26.72
35.57 35.82 36.15 36.95 36.31 35.46 33.53 36.24 36.90 36.41 34.07 33.71 33.53 33.35 34.02 32.32 33.66 36.26 35.96 35.15 32.96 32.22 32.79 34.77 32.12 30.15 30.14 32.08 31.72 31.90 31.90 31.72 31.54 31.67 31.16 29.99 30.72 29.11 27.89 27.44 26.70 26.99 27.25 26.91
36.33 35.86 35.60 35.35 34.88 35.92 36.38 37.21 36.89 36.58 35.69 35.54 35.46 35.73 35.44 35.03 33.23 33.38 33.71 33.35 32.47 32.40 33.17 32.26 31.22 30.15 31.28 30.99 31.72 31.90 31.90 31.36 30.16 30.50 30.04 30.59 30.36 29.75 28.76 27.85 27.63 27.48 27.33 27.50
35.82 36.39 36.81 36.99 37.30 37.46 37.45 37.17 36.32 36.53 34.72 34.52 35.45 35.23 35.70 35.52 35.25 33.77 33.89 33.08 33.50 33.30 32.74 32.80 31.90 31.35 31.53 31.72 31.72 31.72 31.39 30.44 29.26 28.39 28.21 28.04 28.13 28.26 28.31 28.10 27.88 27.51 27.63 27.85
36.93 34.22 37.01 37.25 37.96 37.90 37.89 37.12 35.38 34.31 33.37 32.99 32.79 34.77 34.99 34.62 33.68 33.60 33.09 32.99 32.99 32.99 33.17 32.80 32.80 31.99 32.03 31.90 32.08 31.54 31.35 30.86 29.22 28.17 27.75 27.30 27.06 26.68 26.92 26.82 27.06 27.45 27.62 27.66

GFSNGP_sfc_wetblb_006.txt.gz
Wetbulb
42.73 42.77 42.72 41.65 41.31 41.95 40.44 41.19 36.29 39.50 40.07 43.78 45.78 46.47 46.43 47.52 47.91 47.97 47.65 47.60 47.32 46.79 47.02 46.70 46.01 46.47 46.40 46.51 47.60 47.25 45.84 44.98 44.37 43.63 42.38 41.85 40.66 39.82 39.44 38.61 37.86 37.16 36.57 36.18
39.51 42.80 42.02 39.56 41.26 41.59 41.84 42.03 41.87 41.89 41.16 47.25 47.49 47.95 46.57 46.15 46.57 46.20 46.06 45.48 45.57 46.10 45.29 45.33 45.19 44.77 44.46 44.90 46.00 47.46 45.23 44.15 44.82 43.78 42.26 41.00 40.25 39.57 38.27 37.38 36.75 36.04 35.40 35.17
36.12 39.54 38.77 35.83 40.81 41.98 42.40 43.75 42.68 38.51 43.29 46.77 45.38 45.48 45.76 45.77 46.40 44.74 44.26 44.47 44.16 44.46 44.70 44.13 43.07 43.22 42.73 43.60 44.73 45.14 44.22 44.31 43.97 41.56 40.44 40.71 40.00 39.05 37.23 35.53 35.40 34.91 34.53 34.54
35.62 35.91 31.56 41.91 45.96 45.43 42.96 43.89 44.88 44.61 45.59 46.28 45.58 46.29 47.06 46.52 44.66 43.49 43.60 43.65 43.95 43.84 43.38 43.56 43.57 43.02 42.76 42.56 42.40 42.30 42.57 43.20 42.40 41.63 40.60 40.27 39.14 38.14 36.93 35.57 34.44 33.79 33.75 33.37
34.30 33.57 37.22 40.52 43.33 42.17 40.22 39.95 45.44 45.27 45.62 45.73 45.72 45.76 44.17 45.32 45.18 44.16 44.03 43.98 43.22 43.64 43.37 43.12 42.14 42.30 41.57 40.99 41.15 41.30 41.04 41.04 40.76 40.59 39.64 38.75 37.64 36.99 35.70 34.45 33.80 33.29 33.52 32.10
34.47 30.61 28.25 40.93 45.26 47.08 46.05 35.62 46.73 46.04 44.34 43.45 44.04 37.71 40.49 44.99 44.80 44.14 43.62 43.32 42.92 42.89 42.57 41.29 41.29 41.14 40.17 39.47 39.43 39.24 40.17 40.24 39.63 39.64 39.05 38.04 37.45 36.23 34.93 34.28 33.79 32.82 31.53 30.82
34.68 32.37 35.97 43.82 46.17 47.00 34.41 37.60 46.25 46.08 44.61 43.87 41.26 42.26 44.28 45.29 43.68 43.25 42.99 42.75 42.76 41.95 40.60 40.55 40.81 40.48 38.80 38.75 37.94 40.54 40.66 40.13 39.68 39.08 38.02 38.02 36.84 35.47 33.77 32.67 31.54 30.63 29.73 29.72
35.82 32.31 29.69 46.44 45.11 39.02 45.01 47.84 46.89 45.93 45.18 44.29 44.18 44.49 44.12 43.19 41.88 42.00 41.55 41.53 41.36 40.01 39.51 40.20 40.51 39.64 38.42 37.63 39.49 40.04 40.05 39.07 38.40 38.18 37.96 37.37 34.92 33.39 32.87 31.22 29.90 28.37 26.00 27.05
39.76 38.85 47.09 48.36 46.42 48.52 47.60 46.91 45.36 45.25 45.18 44.79 43.96 43.47 42.34 41.20 41.55 41.63 40.88 40.35 40.64 39.51 39.11 39.81 40.33 40.00 38.09 38.56 39.09 38.54 38.22 37.03 37.03 36.82 36.76 35.97 32.60 31.38 30.42 29.97 27.47 26.50 25.87 24.11
43.25 45.09 45.89 47.63 48.76 48.27 48.35 47.02 46.70 46.49 45.68 45.59 42.79 42.22 41.02 41.31 41.23 40.50 40.09 39.51 39.70 38.94 38.34 38.62 39.63 39.97 39.17 39.10 38.78 37.59 35.86 35.26 35.43 34.48 33.76 33.82 33.65 31.95 29.94 28.02 26.40 26.17 24.08 22.31
43.31 45.92 46.97 47.39 47.31 47.71 46.73 47.32 46.42 46.46 45.92 43.57 42.10 41.11 41.26 40.28 39.95 39.92 39.60 39.64 39.38 38.60 38.01 38.03 39.02 39.11 39.06 37.84 37.45 35.75 34.84 34.21 32.77 32.35 32.58 32.27 32.49 29.25 29.03 27.43 25.87 23.81 22.82 21.67
40.45 46.65 46.04 45.82 46.53 46.54 45.48 45.13 45.93 44.72 42.59 42.83 42.53 40.63 40.41 39.21 39.48 39.04 38.01 38.51 38.10 38.28 38.01 38.07 38.33 38.01 38.10 37.61 36.54 33.90 31.76 31.49 31.71 31.09 31.14 30.73 30.25 29.42 28.72 27.17 26.69 25.72 23.98 21.13
45.77 48.29 47.55 47.11 47.12 46.94 45.23 44.57 44.16 42.69 42.42 40.94 40.89 40.03 39.27 37.90 38.21 37.12 37.92 37.93 37.67 37.47 37.82 37.57 37.00 36.90 37.59 35.45 33.80 32.14 30.80 30.63 30.70 29.85 30.84 29.48 28.70 28.07 25.87 28.53 28.05 27.01 25.35 24.67
48.37 47.66 44.68 45.36 44.14 46.40 44.53 43.68 42.81 42.93 41.41 40.57 39.67 39.32 38.24 37.46 37.47 37.03 36.63 37.75 38.01 37.74 37.41 36.15 35.96 35.67 36.92 36.67 33.13 31.53 31.16 29.72 30.75 31.50 30.40 29.25 27.68 28.10 28.02 26.64 24.28 24.97 27.06 25.52
46.12 46.54 46.02 46.38 46.48 44.08 43.46 42.29 39.68 38.38 38.68 38.42 38.49 37.37 37.18 36.00 35.40 35.74 37.01 36.84 37.04 36.36 36.28 35.20 34.35 33.44 34.76 34.68 32.33 31.55 31.46 29.94 29.13 30.55 29.97 29.19 28.80 28.67 28.22 27.49 25.77 24.98 24.32 24.28
45.77 45.68 44.76 42.75 41.85 41.26 40.09 38.91 37.43 37.23 37.59 36.64 36.64 35.67 36.40 35.86 35.48 35.21 35.39 35.62 32.06 31.23 33.47 32.79 31.54 32.41 33.07 34.60 32.75 32.34 31.92 28.40 26.57 29.43 29.82 29.42 28.81 27.66 26.78 26.62 26.14 24.76 23.41 21.53
43.04 40.61 41.21 39.60 39.07 38.07 37.57 38.18 38.00 36.78 36.04 35.94 34.86 34.45 34.59 32.78 32.13 32.60 33.07 32.78 31.28 32.17 33.05 33.07 32.86 33.58 33.24 34.06 32.27 31.84 31.05 30.15 28.76 29.01 28.72 29.06 27.98 27.17 27.34 26.43 25.55 25.43 23.44 19.39
44.99 43.48 40.88 39.05 37.52 37.22 37.77 37.56 36.03 35.46 34.76 35.43 32.05 29.62 28.53 28.26 30.59 31.06 31.40 31.88 31.80 32.12 33.18 33.67 33.38 32.02 32.11 32.86 32.03 30.50 28.90 28.69 29.98 29.68 29.45 28.75 28.46 27.34 26.84 26.64 26.12 25.39 24.18 22.96
41.30 39.27 38.67 38.01 38.27 37.95 36.91 36.05 35.33 34.36 32.04 31.95 31.08 31.48 31.55 31.34 31.62 31.87 31.90 31.05 30.57 30.79 32.83 33.08 32.74 31.54 31.97 30.94 29.68 29.09 28.82 29.69 29.24 29.06 29.46 28.71 27.70 27.58 27.49 27.41 27.07 25.70 24.76 24.39
38.31 38.45 38.16 37.30 36.44 35.08 33.88 34.68 33.15 34.04 34.71 33.16 29.80 30.94 31.29 30.90 29.30 31.57 31.43 30.02 30.96 32.58 34.64 33.86 32.83 31.01 30.16 30.36 27.63 28.74 30.16 30.33 29.08 28.78 29.38 28.99 27.27 27.72 28.24 26.71 26.53 26.29 26.29 25.82
35.36 36.48 34.46 35.33 34.76 33.44 33.04 32.57 31.17 32.17 33.79 30.73 31.10 31.27 30.69 31.69 31.60 31.70 30.72 29.73 32.43 33.77 34.45 34.12 32.98 32.01 32.35 31.65 29.58 29.87 29.73 30.39 29.74 29.23 29.18 29.25 29.05 28.29 27.70 27.45 27.25 27.70 26.77 26.57
36.33 34.15 31.88 32.34 33.07 33.72 34.42 34.59 35.01 32.75 32.39 32.36 30.20 30.86 31.87 30.87 31.68 31.52 32.34 31.67 34.02 34.02 33.83 33.70 33.98 32.22 32.58 26.42 30.43 31.09 29.48 29.65 28.49 29.73 29.32 29.47 29.14 28.76 27.72 26.90 26.79 27.04 27.10 26.76
34.90 34.06 33.42 32.32 31.77 34.22 35.21 34.14 33.04 32.59 32.42 32.42 32.41 31.81 32.41 32.02 32.01 30.70 29.58 33.31 33.16 33.86 32.91 33.41 33.85 32.38 31.21 30.07 30.32 29.75 29.43 29.05 28.85 28.74 29.21 29.65 29.31 28.57 27.81 27.15 26.89 26.69 26.27 25.92
35.06 34.72 34.69 34.50 33.65 33.73 32.94 34.80 34.97 34.80 33.22 32.79 32.51 32.87 33.11 32.39 32.74 33.57 34.03 33.24 32.81 32.92 32.84 33.01 32.93 31.32 30.65 30.23 29.63 29.73 29.26 29.42 29.61 29.73 29.76 29.54 29.53 29.12 27.71 27.75 27.21 27.01 26.76 26.74
34.04 34.52 34.49 33.00 33.59 34.19 35.27 36.06 35.22 34.73 34.15 35.12 34.05 33.92 34.07 34.44 33.13 32.77 33.50 33.41 32.89 32.33 32.45 32.84 31.91 31.50 31.15 30.22 29.76 29.70 30.11 29.91 29.50 28.97 29.49 29.12 28.76 28.66 29.40 29.25 28.09 27.52 27.25 27.24
34.70 34.92 35.63 35.53 35.64 36.31 36.81 36.46 35.37 35.89 35.56 33.82 33.68 33.50 34.10 34.50 34.44 33.92 33.61 33.19 33.19 32.81 32.57 32.69 32.51 32.04 31.60 30.54 30.11 30.33 30.50 30.03 29.17 28.83 28.94 28.12 27.85 27.58 27.48 27.47 27.98 27.62 27.27 27.34
35.61 33.70 35.97 36.35 37.23 36.87 36.77 36.18 35.42 34.88 34.51 33.22 31.78 32.67 33.24 33.19 33.38 33.59 33.31 33.05 32.69 32.82 32.66 32.87 32.69 32.36 31.89 31.50 30.98 30.95 31.25 30.56 29.18 29.17 28.75 27.96 27.41 27.28 26.91 26.61 26.45 26.45 26.47 26.45

GFSNGP_sfc_wetblb_009.txt.gz
Wetbulb
39.42 40.16 40.07 38.65 38.27 38.59 36.87 36.60 29.85 33.59 37.05 40.82 41.67 43.24 43.48 44.11 44.55 44.26 43.09 43.02 42.67 41.75 41.25 41.05 41.05 40.40 39.99 40.09 41.15 41.78 42.78 42.45 41.71 41.36 41.24 39.83 39.39 38.59 38.33 36.78 34.88 34.30 34.00 33.59
32.60 39.81 38.85 35.68 37.80 37.89 38.27 38.92 38.04 38.08 37.28 43.33 43.47 43.85 43.15 43.33 42.90 41.60 41.65 41.86 41.67 42.04 41.44 40.66 39.61 39.10 39.52 39.12 38.84 39.83 39.28 39.84 42.15 40.90 40.43 40.91 40.64 39.51 36.85 35.09 33.42 32.81 32.78 32.57
29.14 35.62 33.96 27.23 35.03 39.22 39.48 40.21 38.67 32.09 38.36 42.52 41.14 41.66 41.06 40.65 41.23 40.46 40.39 40.68 41.01 41.11 40.30 39.38 38.24 38.98 36.93 37.40 38.43 38.13 38.69 40.25 40.67 40.34 39.65 39.53 40.15 38.07 36.10 34.33 32.10 31.61 31.17 31.12
24.40 26.26 19.12 38.13 42.88 42.01 39.88 40.59 40.85 41.76 41.62 41.60 41.00 41.14 40.99 41.11 39.47 39.47 40.16 40.61 40.78 39.99 38.24 38.05 37.30 36.73 36.93 37.07 37.12 37.01 37.77 38.55 39.03 38.71 38.16 39.45 39.06 36.41 34.31 33.69 30.86 29.76 29.35 29.63
26.06 25.17 31.18 37.41 40.85 38.91 36.41 35.67 43.00 41.52 41.62 41.92 42.47 41.92 38.88 41.83 41.13 39.75 39.15 39.53 38.25 37.76 37.54 36.25 35.93 36.17 36.07 35.86 35.62 35.66 37.31 36.98 37.05 36.97 37.54 37.07 37.21 35.85 33.97 31.08 29.21 29.49 29.73 28.94
27.05 18.75 16.69 33.67 42.33 44.64 42.84 28.85 43.45 42.76 41.08 40.33 39.99 29.96 35.69 42.01 41.73 38.92 39.09 38.67 37.65 37.17 36.43 35.26 35.43 35.86 35.36 34.79 34.58 35.82 36.91 36.98 37.34 36.96 36.58 35.91 36.44 35.21 30.66 30.03 29.96 29.54 29.14 28.47
29.00 18.31 28.51 39.82 43.61 44.54 29.19 30.62 42.64 42.71 41.05 40.37 36.93 37.60 40.71 42.72 39.26 38.95 38.48 37.89 38.07 36.42 34.94 34.84 35.68 35.72 34.70 34.26 33.83 36.65 37.78 37.35 36.94 36.51 35.82 35.33 33.74 30.89 29.26 27.90 28.00 25.91 25.42 25.92
29.13 22.67 22.08 43.22 42.09 33.85 38.14 43.19 43.28 41.59 41.64 41.10 41.01 41.42 42.90 39.84 38.67 38.66 37.15 36.53 36.83 34.95 34.66 35.55 36.01 35.47 34.51 33.74 35.57 36.38 36.09 36.05 34.64 34.27 34.17 34.19 30.96 29.45 28.13 26.34 25.58 23.73 16.53 19.13
32.31 30.84 39.71 43.55 42.14 44.25 44.52 43.36 41.69 42.92 43.87 42.05 41.67 42.12 40.19 38.15 38.00 37.90 35.52 34.83 35.73 34.10 34.70 35.44 35.66 35.56 34.14 34.65 35.54 35.28 34.20 33.00 32.64 33.23 33.29 32.42 29.25 26.52 25.96 25.50 22.02 21.92 22.82 16.50
36.09 41.04 42.29 42.74 45.33 45.96 45.13 43.64 43.78 43.78 44.04 44.40 42.41 39.41 38.16 37.86 36.09 35.32 34.30 33.61 34.41 34.44 33.72 33.91 35.39 36.02 35.08 35.21 34.76 33.95 31.98 31.59 30.99 30.46 30.81 30.11 28.92 27.42 25.62 21.04 19.59 23.41 20.61 18.43
35.74 41.17 42.53 43.92 44.40 44.40 44.32 45.19 44.84 45.98 45.34 43.18 39.02 37.87 36.50 35.27 34.68 34.21 33.10 33.98 34.17 33.37 33.89 34.55 34.95 35.06 34.89 35.04 33.78 32.52 31.68 30.92 28.95 28.49 28.27 28.27 27.80 25.50 25.55 23.44 22.27 19.72 18.31 18.02
32.41 42.01 41.55 41.81 43.75 45.87 44.74 44.75 45.58 43.82 39.59 40.10 38.24 35.59 35.32 33.56 33.70 33.49 32.91 33.75 34.12 34.46 34.66 34.40 34.23 34.15 35.24 35.01 33.08 30.73 29.27 28.35 26.51 25.84 24.98 27.07 26.51 25.70 28.73 27.07 27.63 26.66 25.02 16.49
41.14 45.31 44.68 44.34 44.49 45.00 43.63 42.15 41.04 40.04 39.55 36.34 36.16 35.29 34.14 32.96 33.54 33.63 33.76 33.82 33.83 33.93 34.52 34.15 33.03 32.54 34.98 33.30 31.36 29.51 29.16 28.61 26.06 26.20 25.28 24.73 23.55 23.06 18.60 24.59 29.82 29.63 27.04 26.00
45.96 44.68 41.73 43.03 42.32 44.37 42.33 41.11 41.71 40.02 37.32 36.18 34.61 34.60 33.85 33.13 33.19 32.78 32.47 33.45 34.07 33.91 33.13 32.29 32.62 32.57 34.02 33.32 31.80 28.77 28.71 27.07 24.24 23.01 22.08 22.52 22.03 26.66 26.35 22.91 20.61 19.13 25.73 26.81
44.24 44.64 44.20 44.88 44.23 43.00 41.71 38.35 35.89 34.58 34.34 33.64 34.00 33.37 33.04 32.07 31.27 31.66 32.89 33.40 33.04 31.85 31.26 31.62 31.87 33.30 34.50 32.48 31.63 31.30 28.61 24.61 24.31 21.44 19.62 22.59 26.54 25.89 25.50 23.83 24.46 21.10 19.42 21.45
43.82 44.58 44.54 42.76 40.24 38.00 36.41 35.23 33.87 32.96 33.04 32.95 32.47 31.25 33.32 32.74 32.21 31.82 31.94 31.92 28.83 29.55 30.17 27.98 28.98 32.85 33.08 32.86 32.11 31.08 28.02 24.24 23.01 21.90 20.15 26.10 26.62 25.08 24.96 24.64 24.46 22.71 19.77 14.88
41.42 39.54 39.24 37.79 35.16 34.82 34.57 34.65 34.06 32.73 32.78 32.35 30.49 30.98 31.60 30.31 28.62 29.24 29.19 28.29 25.50 27.50 30.41 28.26 31.40 34.22 33.16 32.77 31.83 30.50 25.27 25.22 22.72 23.04 21.63 26.08 25.60 24.42 25.11 24.39 24.09 22.63 18.69 14.88
40.92 39.71 38.40 36.57 34.89 34.08 33.61 32.31 31.66 30.85 30.49 30.69 26.56 21.75 20.25 20.84 26.30 27.74 26.61 29.00 30.85 30.36 31.00 30.71 32.18 33.01 32.18 32.18 31.36 29.13 26.34 23.79 22.38 20.42 24.35 26.00 26.40 25.75 24.14 22.53 23.22 22.23 18.08 16.64
38.34 36.71 36.44 36.31 35.33 32.73 31.66 31.25 31.44 30.93 26.67 24.98 22.79 24.80 23.43 23.67 27.00 27.83 29.67 29.79 29.44 29.00 29.75 31.43 32.06 32.96 32.20 28.98 27.26 22.51 19.06 17.51 24.31 26.32 23.73 20.56 21.04 23.12 24.84 25.00 24.17 23.66 22.30 17.39
35.62 35.78 35.01 34.28 33.66 30.62 29.35 30.71 26.78 30.16 31.10 26.96 20.74 19.84 24.80 21.75 27.74 30.45 30.35 29.24 30.22 30.40 30.96 31.97 33.07 32.53 30.62 28.86 25.08 22.69 17.27 15.67 22.15 23.40 15.36 16.88 21.80 25.08 24.38 25.50 24.42 23.01 18.99 21.60
31.89 32.41 30.69 30.40 29.98 28.44 28.50 28.11 23.86 28.02 29.92 23.65 22.37 25.86 25.00 25.11 23.96 30.11 29.32 28.85 29.43 26.55 30.15 33.30 32.39 32.61 31.79 28.22 23.60 21.06 17.79 15.25 16.87 17.09 17.37 18.56 18.79 23.08 26.03 25.37 25.12 19.98 16.47 20.49
31.70 30.51 27.71 27.05 28.25 29.96 30.06 29.96 30.40 26.81 28.14 30.75 24.30 22.27 19.90 25.26 25.68 28.89 30.96 29.55 30.35 31.46 31.03 32.14 30.56 32.61 32.00 29.30 29.25 26.62 21.93 21.35 22.31 22.34 14.88 18.22 19.52 22.18 23.26 24.19 24.91 24.82 23.11 17.79
31.84 31.35 30.27 27.07 25.31 30.19 30.32 29.41 26.74 28.86 28.87 27.51 26.35 29.32 30.63 28.20 29.25 29.34 28.51 28.25 29.22 31.71 31.51 32.51 31.82 32.48 32.56 31.91 29.28 28.33 27.46 21.48 19.84 20.38 21.89 22.96 26.15 27.05 26.44 25.74 25.47 25.63 25.17 24.98
31.90 31.43 30.93 30.76 26.99 27.57 28.70 31.66 30.81 30.98 28.60 28.14 30.56 32.53 29.28 27.18 28.26 28.92 30.78 31.98 31.70 31.83 32.19 32.93 32.57 31.99 31.89 30.74 29.44 27.72 25.14 26.43 26.17 23.51 21.83 18.79 23.16 24.76 23.65 25.74 26.23 25.58 25.63 25.54
29.98 30.63 30.60 26.79 29.26 30.23 31.13 32.01 31.04 30.00 29.34 29.77 28.79 28.22 26.29 26.41 27.29 31.16 32.64 32.67 31.96 31.62 32.25 32.68 32.35 31.97 31.82 31.31 29.02 28.57 27.47 27.68 27.43 27.17 25.77 25.12 26.29 27.36 24.90 26.04 26.82 27.17 25.97 25.98
31.05 29.94 30.28 31.56 30.81 30.79 30.74 30.30 29.77 29.82 26.08 22.75 22.95 21.53 21.71 22.54 29.88 32.20 32.27 32.55 32.77 32.59 32.21 32.44 32.63 32.45 32.23 31.77 30.32 28.73 28.72 28.70 28.84 28.84 28.83 27.06 27.42 26.87 26.40 26.41 26.47 26.78 26.65 26.30
30.75 27.64 29.26 29.57 29.76 30.14 29.45 27.21 24.17 28.14 28.61 28.37 26.69 23.80 24.68 31.09 31.50 29.24 31.22 32.07 32.26 32.47 32.57 32.45 32.45 32.36 32.20 32.17 31.67 30.65 30.07 29.88 30.01 30.01 28.95 27.83 26.33 25.49 26.37 26.51 26.17 25.60 25.26 24.75

GFSNGP_sfc_wetblb_012.txt.gz
Wetbulb
36.50 37.81 37.57 36.14 35.53 35.64 34.75 34.89 29.58 32.48 34.19 38.61 40.19 40.18 41.28 42.41 41.47 40.88 41.06 40.99 41.13 40.26 39.64 38.68 37.60 37.18 37.15 36.89 37.37 37.68 36.70 36.46 38.57 38.97 38.94 38.62 39.12 38.53 38.48 38.97 38.99 35.74 33.72 33.58
32.32 37.79 37.26 33.23 35.88 36.00 35.76 36.46 35.87 35.59 35.65 41.18 41.61 41.68 40.89 40.43 39.87 40.09 40.63 40.19 39.64 40.04 39.49 38.15 37.12 35.73 36.34 36.25 36.54 36.95 35.98 38.06 39.29 39.24 38.99 38.71 38.58 39.00 37.83 37.73 34.37 34.74 32.69 31.60
26.72 33.01 32.42 26.04 34.16 36.96 37.05 37.95 36.82 31.30 36.74 40.01 39.19 40.09 38.84 38.60 39.03 39.01 38.91 38.71 38.99 38.82 37.73 36.44 35.26 35.76 34.72 35.29 36.17 35.68 36.48 37.91 37.94 38.91 37.54 37.22 38.10 37.91 36.88 35.57 35.56 30.61 29.55 29.22
22.39 23.96 16.68 35.16 40.48 40.09 38.08 38.67 39.76 39.18 39.07 39.46 39.56 39.66 38.99 39.19 38.28 38.35 38.83 39.05 38.00 36.49 35.45 35.10 34.73 34.76 35.05 35.10 34.90 34.59 35.92 36.36 36.45 36.62 35.81 36.32 36.15 35.58 35.63 35.32 30.85 28.79 28.78 28.32
19.92 23.61 28.17 34.69 39.07 37.77 35.54 34.77 41.03 39.67 39.83 40.04 39.78 38.37 36.92 40.02 39.71 38.80 37.92 37.13 36.47 35.64 35.37 34.13 34.11 34.43 34.22 34.10 33.47 34.98 35.44 35.28 35.80 35.76 35.40 35.09 34.80 33.92 33.93 30.94 28.87 29.07 28.83 27.58
26.83 16.86 15.28 30.23 39.94 42.57 40.89 29.45 41.55 41.32 39.82 39.32 38.61 29.96 34.27 40.82 40.37 37.62 36.62 36.92 35.37 34.81 34.39 33.36 34.18 34.25 33.19 32.59 32.50 34.19 35.62 35.64 35.90 35.82 35.26 34.28 33.51 32.91 30.38 28.77 29.57 28.69 27.15 26.05
18.39 16.14 25.92 35.66 41.38 42.50 28.37 29.75 41.68 41.38 39.97 39.33 35.97 35.94 39.04 41.24 38.59 36.71 36.85 35.84 35.63 34.19 33.12 33.58 33.81 33.60 32.70 32.47 32.55 34.78 35.64 35.66 35.06 33.95 32.83 32.60 30.88 29.99 28.74 28.57 27.35 24.12 23.37 24.14
22.99 17.01 21.66 40.06 40.74 33.62 36.31 40.65 42.18 40.91 40.68 39.86 39.90 40.66 41.41 40.81 37.04 36.69 34.62 33.94 34.13 33.31 33.05 33.66 33.90 33.56 32.49 31.97 33.81 34.50 34.29 33.63 32.44 31.92 31.97 31.54 27.99 27.54 27.47 25.47 24.32 22.28 11.45 16.98
31.97 31.00 37.94 40.91 40.51 41.49 43.29 42.02 40.95 40.25 41.30 41.86 40.45 40.80 41.05 37.25 35.19 34.17 32.64 32.22 33.65 31.69 32.50 33.40 33.82 33.47 32.45 33.25 34.07 33.50 32.68 31.17 30.29 30.69 30.86 29.72 26.42 25.14 24.75 24.00 20.54 20.87 22.35 15.04
34.58 39.14 39.96 41.61 42.77 44.06 43.81 42.35 42.64 42.64 42.03 42.64 41.33 40.55 35.67 33.89 33.07 32.22 31.54 31.14 31.88 31.94 31.64 31.89 33.25 34.12 33.66 33.93 34.04 32.09 30.79 29.90 29.56 28.99 28.79 28.30 26.81 26.62 24.35 19.73 18.40 23.01 20.05 17.66
34.18 38.79 40.86 42.55 42.72 43.00 42.40 42.63 42.93 43.95 44.82 43.34 37.73 34.00 33.45 32.51 32.25 31.78 31.16 31.97 32.19 31.63 31.69 32.12 33.10 33.15 33.36 33.52 32.78 31.04 30.74 29.99 28.52 27.27 27.12 27.34 25.64 24.89 24.84 23.32 21.96 19.61 18.51 17.19
33.67 39.67 39.36 40.65 42.73 43.77 42.80 43.29 45.61 43.32 37.52 36.09 34.59 33.11 32.86 31.59 31.88 31.62 31.12 31.71 31.59 31.99 31.85 32.23 32.39 32.13 32.68 33.03 33.17 32.22 29.94 28.92 27.59 25.33 23.87 25.81 25.96 26.24 28.62 27.78 27.19 28.16 26.24 15.96
40.21 44.01 43.98 43.69 43.49 44.62 43.37 42.61 40.95 38.40 35.47 33.31 33.24 32.79 32.20 31.39 31.55 32.13 31.48 31.55 31.52 31.60 32.12 31.50 30.36 30.49 31.91 31.69 31.96 31.51 30.19 29.27 27.72 26.15 24.71 22.85 21.87 22.58 17.17 23.62 28.62 28.70 29.08 26.95
45.09 43.95 40.94 41.81 40.70 43.42 40.83 40.86 38.12 35.74 34.89 33.63 33.02 33.27 31.94 31.32 31.39 31.08 30.53 31.24 31.75 31.66 31.79 30.57 30.17 30.16 31.87 33.80 31.95 31.06 30.11 28.84 26.42 27.54 23.16 23.34 16.34 22.15 25.50 17.38 13.90 16.25 23.66 27.28
44.31 43.26 43.12 43.15 42.67 40.41 39.99 36.65 34.71 33.14 33.02 32.25 32.88 31.60 31.68 30.82 30.10 30.26 31.02 31.13 31.15 30.58 30.63 30.84 30.33 30.01 32.61 33.00 31.57 31.01 31.62 29.56 23.43 20.36 20.35 20.93 17.78 20.76 23.46 22.54 20.73 18.81 15.81 18.91
42.98 42.63 43.11 41.84 39.67 36.63 35.84 35.10 32.89 31.89 31.95 31.58 31.17 30.13 31.13 31.37 30.61 30.40 30.18 30.47 28.14 28.76 29.81 29.72 29.76 29.36 32.44 33.65 32.43 30.99 31.11 27.60 20.51 19.71 22.94 24.15 19.80 19.56 23.82 23.16 21.64 21.52 17.21 13.00
39.40 37.46 35.71 35.26 34.35 34.77 34.47 34.49 33.19 32.27 31.85 31.22 29.96 30.02 30.50 28.42 26.77 29.11 29.06 27.63 27.16 29.11 29.68 30.20 28.41 32.03 32.39 33.62 32.60 31.38 29.32 27.45 26.43 26.06 25.84 25.35 20.69 21.47 21.63 22.67 22.56 18.84 16.50 10.73
40.50 38.49 37.21 36.16 34.95 34.42 32.81 31.90 31.53 31.09 30.75 30.17 26.35 19.56 17.52 16.86 24.60 25.48 25.80 25.29 29.22 29.35 29.65 29.99 30.30 31.38 32.59 33.61 32.40 30.47 27.30 26.37 25.22 26.13 23.93 17.50 21.51 24.71 21.55 19.92 18.00 21.73 20.11 17.34
37.48 36.41 36.31 35.87 34.95 32.11 30.83 30.37 30.67 30.24 25.65 23.58 21.22 21.72 19.97 21.77 25.24 26.73 25.58 23.48 28.54 27.18 28.29 26.60 28.95 30.83 32.54 32.41 31.37 26.66 22.27 16.70 17.37 19.23 20.47 16.34 13.41 17.57 21.95 20.34 20.82 21.27 21.43 16.01
35.71 35.95 34.88 33.55 32.32 30.36 29.29 30.05 26.09 29.11 30.24 25.07 18.15 16.76 22.54 23.64 22.46 23.40 24.07 25.06 28.62 28.95 27.94 28.52 30.82 31.08 30.93 30.61 30.67 25.55 18.82 15.11 17.23 17.79 11.31 11.83 9.06 15.76 25.39 21.29 23.47 21.05 13.80 11.40
31.51 31.34 30.53 29.53 29.17 27.54 25.30 25.09 23.95 26.17 28.91 21.84 20.78 26.61 24.65 24.67 22.84 21.92 22.04 26.31 28.64 24.70 27.63 30.79 29.40 31.51 30.88 31.90 30.60 23.35 17.77 15.98 15.54 17.24 16.71 15.24 11.69 13.54 18.86 26.00 23.59 20.59 14.95 8.34
30.65 29.74 27.32 26.38 26.98 28.33 28.20 27.36 28.88 24.05 23.62 24.97 30.49 26.34 23.89 27.26 24.08 21.02 22.45 26.49 30.38 24.90 29.87 30.43 30.92 31.91 31.92 32.00 30.79 29.66 27.84 26.79 22.48 21.11 19.71 16.68 15.42 15.61 18.03 22.54 19.43 23.75 22.74 18.79
31.08 31.03 29.74 25.33 23.30 29.07 29.07 27.06 24.83 23.61 25.74 26.05 26.09 25.84 24.37 29.15 26.29 25.66 27.65 28.16 26.99 30.63 31.35 31.00 31.32 32.11 32.33 32.07 31.88 30.40 29.10 26.79 25.97 25.60 23.10 21.47 20.06 17.86 21.78 24.96 25.83 24.76 24.17 24.76
31.39 30.96 30.26 29.91 26.21 26.43 26.99 30.54 30.05 30.18 26.45 27.34 26.79 24.56 29.31 29.27 23.89 25.32 27.13 25.90 26.16 31.40 31.82 32.12 32.04 31.72 32.13 31.83 30.58 30.95 29.34 28.20 27.79 26.99 25.40 24.30 23.98 23.11 22.10 22.93 25.00 25.84 24.14 23.14
28.92 29.75 29.67 25.77 28.41 29.34 30.22 30.86 29.55 29.12 28.96 29.40 27.85 27.48 29.18 29.54 27.55 27.57 22.55 28.09 31.08 31.08 30.54 32.22 32.02 31.73 32.24 32.06 31.16 29.59 28.69 28.48 28.40 27.98 27.46 26.51 26.69 26.53 26.43 26.07 25.82 26.31 25.95 25.41
30.61 29.27 29.51 30.67 29.79 29.80 29.91 28.44 27.60 26.73 23.92 21.09 22.49 28.15 30.15 30.24 27.46 28.31 30.94 30.63 30.80 30.67 30.86 30.90 31.62 32.36 31.65 31.23 31.71 31.88 30.98 29.41 28.98 28.63 28.47 28.70 28.37 28.00 28.00 27.26 26.76 26.68 26.67 26.49
29.78 25.54 28.42 28.95 29.66 29.70 28.42 26.41 27.04 30.10 26.56 25.09 27.31 27.82 27.02 28.65 30.18 30.55 28.33 28.15 26.02 27.87 28.78 25.35 26.86 28.75 29.72 30.55 30.76 30.52 30.70 31.38 31.14 30.27 29.97 29.64 29.46 28.92 28.23 26.76 25.75 25.64 26.17 26.04

GFSNGP_sfc_wetblb_015.txt.gz
Wetbulb
34.59 35.70 35.33 34.11 34.20 35.59 34.20 33.19 29.13 31.01 32.35 35.96 39.05 38.69 39.63 40.42 39.73 39.22 38.84 39.27 39.36 38.69 39.49 38.74 36.06 35.20 35.05 35.14 35.64 35.74 35.11 35.80 37.00 37.83 37.53 37.40 37.17 37.05 36.75 37.36 37.27 37.86 33.97 33.91
31.80 35.65 35.31 31.89 34.12 33.79 33.62 34.20 34.46 33.88 33.60 39.76 40.09 40.31 39.86 39.71 38.88 38.23 39.26 39.67 39.24 38.98 38.38 37.00 35.45 34.30 34.83 34.81 35.14 35.43 34.36 36.08 37.27 37.71 37.69 37.22 37.09 37.06 37.01 36.91 36.01 33.28 34.48 30.07
24.37 31.13 30.43 24.33 31.88 35.14 35.37 36.03 35.27 30.54 35.50 38.92 38.31 39.54 38.87 37.87 38.16 38.17 38.45 38.06 37.67 37.62 36.80 35.38 34.23 34.23 33.46 34.08 34.70 34.17 34.05 36.47 36.27 36.49 36.44 35.14 35.91 35.98 35.07 33.53 35.94 31.38 28.13 28.31
21.64 23.42 16.93 32.34 37.72 38.35 36.23 36.85 37.92 37.14 37.87 38.82 38.81 39.02 38.86 38.50 37.83 37.57 37.90 38.16 37.51 35.85 34.53 34.10 33.33 33.19 33.55 33.81 33.40 32.85 33.54 34.90 35.28 34.93 34.66 34.68 34.41 34.22 33.12 32.75 30.87 27.65 27.72 28.07
20.27 22.19 27.44 32.62 37.17 35.84 34.64 33.66 39.09 37.87 37.82 38.12 38.32 37.22 36.19 39.06 38.51 38.14 37.88 36.96 35.56 34.43 33.94 33.06 32.84 33.16 32.50 32.04 31.72 31.86 34.09 34.02 34.54 34.59 34.37 33.73 32.99 32.41 31.98 30.37 28.34 27.90 28.27 27.05
24.01 15.91 15.32 29.69 37.77 40.78 38.96 29.02 39.99 39.48 38.05 37.48 36.77 30.20 34.36 39.09 39.45 39.34 36.69 35.27 33.80 33.14 32.70 32.09 32.30 32.19 31.98 31.62 31.30 32.04 33.90 34.23 34.57 34.36 32.88 31.52 30.56 30.74 28.85 28.94 29.22 28.04 26.12 25.27
14.46 15.56 25.30 33.80 40.09 40.79 28.86 29.21 40.04 40.50 39.56 37.79 35.84 36.23 37.83 40.64 40.39 36.77 34.78 34.07 33.55 32.72 31.76 31.74 32.24 32.46 31.52 31.10 31.23 32.59 33.97 33.87 33.32 31.96 30.82 30.35 28.55 27.87 27.82 27.43 26.36 24.27 23.44 23.81
24.24 17.91 22.17 38.31 38.47 33.71 36.70 37.58 41.65 40.61 40.41 39.95 39.20 39.53 41.06 41.05 35.85 33.98 32.80 32.35 32.32 31.63 31.33 32.19 32.82 31.72 31.02 30.49 32.75 32.81 32.90 32.55 31.32 30.27 30.43 29.81 26.96 26.94 26.88 25.17 24.21 22.12 10.15 16.39
30.45 30.28 36.92 39.03 38.80 40.22 41.18 41.02 40.96 40.82 41.11 41.60 40.24 40.43 41.27 35.56 33.37 32.22 31.12 30.63 31.66 30.77 31.40 32.11 32.11 31.66 31.09 31.95 32.64 32.36 31.46 31.01 29.79 29.91 29.22 28.19 25.82 24.85 24.28 23.50 20.17 20.27 22.06 15.11
33.23 36.98 37.78 39.12 40.54 41.70 42.34 41.93 41.48 41.75 41.72 41.65 40.36 41.10 35.76 33.16 31.28 30.60 29.84 29.94 30.68 30.81 30.19 30.34 31.76 32.32 32.15 32.46 32.46 31.72 30.34 31.10 30.55 29.28 28.93 28.07 26.75 26.37 24.22 20.14 18.84 22.17 19.71 17.98
33.35 37.26 39.29 41.78 42.05 42.92 42.68 42.42 42.24 42.57 43.04 43.01 41.70 34.81 32.65 30.99 30.58 30.26 30.08 30.84 30.75 30.05 30.22 30.40 31.21 31.40 31.06 31.49 31.76 30.70 30.73 31.36 29.86 29.60 27.71 27.33 25.50 24.96 25.83 24.71 23.54 20.09 18.58 17.18
32.70 38.39 39.49 39.38 42.42 42.72 41.55 41.72 42.57 42.13 38.79 37.12 35.53 32.82 31.70 30.28 30.55 30.39 30.03 30.17 29.62 30.44 30.16 30.22 31.05 29.81 30.42 31.49 31.56 31.44 31.19 31.15 30.43 29.34 27.01 26.40 25.02 25.42 28.86 27.93 27.62 28.76 28.27 16.13
39.53 40.94 40.76 41.63 42.48 43.02 42.50 42.80 42.87 36.79 34.64 33.67 33.55 32.28 31.26 30.69 31.01 31.57 30.45 29.78 30.13 30.18 30.24 30.18 29.45 28.78 30.41 30.36 29.57 30.97 30.39 30.88 28.58 29.09 27.26 24.28 23.26 23.16 18.88 23.58 27.82 28.52 28.82 27.94
43.64 42.91 39.56 40.97 41.18 43.21 41.32 38.42 37.80 35.77 35.02 33.96 33.42 32.73 31.74 31.04 31.46 30.73 29.84 29.97 30.58 30.23 30.13 29.26 29.03 30.16 30.94 30.70 31.73 31.11 30.67 29.50 29.75 27.88 28.23 27.62 25.19 20.39 18.40 18.69 13.65 14.81 23.13 26.61
43.04 43.68 42.66 42.75 41.46 38.28 36.26 35.73 33.90 33.22 33.37 32.54 32.79 31.59 31.57 30.56 29.98 29.81 29.95 30.09 29.95 29.33 28.60 29.69 29.54 29.18 30.48 30.66 31.54 31.84 30.98 30.23 28.69 27.16 23.87 22.83 21.71 16.74 19.72 21.41 20.70 15.29 13.97 17.95
42.37 41.71 41.64 40.43 38.32 35.35 35.02 35.00 33.89 32.84 31.95 31.49 31.23 30.50 31.26 30.97 30.18 29.71 29.96 29.72 27.41 26.75 28.84 29.02 28.74 29.29 30.73 31.85 32.51 32.89 31.67 30.32 27.16 25.43 23.91 24.69 24.18 21.31 21.65 20.80 20.84 18.55 13.71 12.03
38.38 37.02 34.84 33.91 34.77 35.56 35.18 35.49 34.76 32.32 31.35 30.78 30.43 30.40 30.43 27.95 26.39 29.03 28.84 26.40 21.45 21.94 26.02 26.02 26.59 31.23 31.04 32.20 32.77 32.44 31.70 29.98 27.03 26.22 23.42 22.11 19.73 19.42 22.21 20.12 23.25 21.58 14.62 9.30
38.15 36.99 36.68 35.81 34.33 33.39 32.94 32.67 31.08 30.89 30.64 30.75 27.14 22.28 21.50 20.86 25.22 25.25 24.33 23.34 21.68 23.35 26.22 27.64 27.03 30.03 30.79 31.81 32.73 31.18 30.28 28.76 27.32 26.38 25.50 17.65 18.33 22.21 23.19 20.50 20.39 16.13 18.65 13.65
36.65 36.57 37.02 36.93 36.94 34.52 31.67 30.49 30.64 30.52 26.75 25.42 24.02 24.56 22.98 22.94 24.02 25.30 23.32 19.42 20.85 22.84 27.57 25.35 27.23 29.29 30.00 29.97 31.37 30.05 29.60 28.17 23.92 20.32 18.71 15.59 12.17 17.60 18.84 19.60 20.80 18.01 19.35 16.97
36.70 37.53 35.70 32.83 31.47 29.82 29.17 29.81 28.12 29.70 30.28 25.63 20.45 17.73 22.61 23.01 20.17 21.10 19.83 22.62 26.51 28.61 28.13 27.61 27.50 29.46 28.41 30.25 30.88 30.58 28.84 25.09 21.24 18.02 9.53 12.54 10.16 14.36 15.06 16.87 22.03 23.56 22.62 14.50
31.21 30.69 30.20 29.83 29.33 28.47 27.47 26.70 25.18 27.04 29.07 21.20 22.27 25.15 26.09 24.73 21.33 18.32 25.01 24.74 27.86 25.00 27.18 26.17 29.98 30.36 30.80 30.87 31.50 31.48 28.63 24.94 19.33 19.06 22.08 21.21 16.43 14.85 15.64 16.65 22.30 24.72 21.68 17.84
30.49 29.74 27.86 27.19 27.45 28.91 28.79 28.23 28.74 24.02 22.38 19.43 20.92 29.08 27.77 26.28 23.17 20.60 21.67 24.70 28.26 23.55 25.49 27.10 29.34 30.59 30.59 30.85 31.53 31.48 30.24 27.42 27.00 27.12 24.67 23.56 21.53 20.84 21.50 20.12 21.68 22.18 22.26 22.61
30.73 30.54 29.57 25.98 25.09 29.25 28.31 26.34 22.87 22.07 21.94 22.97 23.32 24.84 23.68 26.64 24.33 27.27 26.59 26.65 25.42 23.65 25.36 25.91 26.09 28.71 30.83 31.11 31.65 31.09 31.13 30.23 29.21 27.55 26.32 26.44 25.71 24.51 23.85 22.51 22.73 23.74 25.07 24.39
30.99 30.11 29.97 29.61 25.48 25.70 26.56 30.29 29.50 28.91 24.40 26.05 25.44 24.66 24.42 24.84 30.35 28.90 28.38 25.27 20.78 21.73 23.74 29.14 26.56 30.23 31.08 31.66 31.25 30.78 29.88 29.63 29.74 29.14 27.99 27.11 27.25 27.08 25.47 24.72 24.82 25.21 24.60 23.18
28.58 29.57 29.51 25.60 28.39 28.81 29.99 30.37 28.68 28.27 27.66 28.28 26.73 26.72 25.51 30.86 29.85 23.95 21.72 22.08 27.14 27.79 24.28 25.57 29.79 28.95 28.66 30.67 30.83 30.17 29.93 29.43 29.44 29.46 28.85 28.10 27.19 27.12 26.61 26.83 26.51 26.33 26.13 25.66
29.95 28.55 28.55 29.41 28.52 28.50 28.86 28.08 26.98 26.35 24.38 24.70 23.83 23.60 23.92 23.82 24.77 25.45 25.10 25.63 24.18 23.29 22.72 21.97 21.34 24.84 25.61 23.05 21.87 22.33 23.17 25.37 27.00 28.96 29.62 29.17 28.22 28.09 27.86 28.24 27.97 27.66 27.30 26.77
27.32 24.46 26.95 27.05 28.18 28.41 27.83 26.40 26.41 28.16 28.41 28.62 26.97 27.30 24.61 25.90 25.07 23.56 26.91 25.38 21.70 20.71 20.13 17.98 17.99 16.73 14.72 14.32 13.85 13.59 14.03 15.03 15.32 16.51 19.70 23.72 28.63 30.00 29.21 29.12 28.93 28.78 27.74 26.68

GFSNGP_sfc_wetblb_018.txt.gz
Wetbulb
32.68 34.07 33.58 32.24 32.86 34.28 32.52 31.65 28.84 29.86 29.70 33.88 38.74 39.12 39.22 39.83 38.96 38.26 38.26 38.24 37.96 37.74 37.21 37.06 37.48 35.35 34.81 34.26 34.44 34.55 33.99 33.51 34.86 35.80 36.65 36.51 36.33 35.95 36.00 35.89 36.22 38.60 36.24 33.29
31.22 33.73 33.37 31.50 33.29 32.95 33.15 33.01 32.78 32.28 32.43 37.03 37.87 38.85 38.71 39.14 38.50 37.42 37.89 38.02 38.07 38.53 39.11 38.66 35.85 33.92 33.53 33.71 33.92 33.97 33.27 33.21 35.22 35.64 35.91 36.13 35.45 34.82 35.37 34.70 34.04 34.19 31.68 30.01
23.65 29.16 27.92 24.48 30.82 32.71 32.54 33.46 33.55 29.71 34.71 37.83 37.03 38.34 38.57 37.99 38.04 37.59 37.75 38.22 38.71 39.03 38.38 36.16 34.42 33.33 32.68 32.71 33.10 32.74 32.38 32.98 34.92 34.96 34.60 34.73 34.18 34.00 33.64 32.85 32.24 29.62 27.63 27.49
20.78 22.64 16.63 31.49 35.76 35.34 34.66 35.31 35.81 35.61 36.49 37.81 37.12 37.23 38.91 38.98 38.15 37.62 38.08 38.59 38.74 38.28 35.26 33.52 32.68 32.27 32.10 32.07 31.78 31.59 31.49 32.75 33.97 33.75 33.26 33.34 32.91 32.65 32.19 31.32 30.16 27.81 27.36 27.23
19.59 20.99 27.30 31.92 34.34 34.70 33.70 33.52 38.12 36.99 36.88 37.45 37.20 37.68 36.77 39.25 38.70 38.79 39.61 38.86 36.56 34.69 33.14 32.24 31.77 31.54 31.23 31.54 31.18 30.98 31.85 32.75 33.26 33.14 32.64 32.48 31.04 30.27 29.88 29.13 27.59 27.81 27.85 26.08
18.04 16.20 15.10 29.63 34.78 38.50 37.58 28.90 37.75 38.73 37.09 36.75 36.75 31.10 37.76 38.72 38.62 38.11 37.89 35.45 33.79 32.60 32.00 31.28 30.96 31.24 31.40 31.06 30.24 30.56 31.45 32.50 32.97 32.60 31.76 29.92 29.48 28.58 28.91 27.38 27.81 26.93 26.04 24.69
13.42 15.34 24.51 33.04 38.16 39.30 28.36 30.19 37.89 39.16 37.91 36.47 35.69 37.90 38.46 38.97 38.74 39.41 35.94 33.52 33.11 32.48 31.37 31.03 31.40 31.62 30.66 29.94 30.09 31.46 31.86 32.24 31.91 31.45 29.85 29.36 28.01 27.06 26.51 26.51 26.01 24.16 24.27 23.70
21.64 14.66 21.57 36.52 38.58 33.03 36.17 36.13 39.51 39.29 38.63 38.79 38.22 37.76 38.73 39.66 37.02 33.01 32.94 32.88 32.53 31.26 30.95 31.23 31.60 30.80 29.70 29.56 31.29 31.84 31.44 31.30 30.66 29.81 30.45 29.64 27.01 26.55 26.81 24.47 23.52 21.94 10.28 16.47
29.10 29.27 35.47 37.39 37.82 39.20 39.11 38.76 40.08 39.86 40.46 41.50 38.82 38.78 39.93 35.14 32.33 32.20 32.48 31.85 31.18 31.11 31.22 31.76 31.28 30.61 29.71 30.79 31.27 31.08 30.37 29.66 29.39 29.84 30.27 29.09 25.96 25.11 24.14 23.41 19.68 20.24 21.69 15.82
32.13 35.86 36.19 37.47 39.08 39.94 40.31 40.44 41.02 41.61 40.98 41.35 39.85 40.89 36.76 33.92 32.45 31.43 30.56 30.38 30.67 30.90 29.64 29.78 30.57 31.12 30.66 30.10 30.36 30.29 29.72 29.82 29.50 29.03 28.64 28.98 28.20 26.48 24.08 19.26 20.22 22.80 20.59 18.67
32.06 36.55 36.75 39.25 40.45 40.90 40.93 41.94 41.80 42.26 42.24 41.96 41.14 38.31 34.93 33.06 31.44 30.95 30.41 30.81 30.83 29.91 29.55 29.60 30.07 30.91 29.67 29.41 29.97 29.66 29.94 30.28 30.74 29.64 29.63 28.12 26.44 24.88 25.06 24.72 24.52 21.61 20.21 17.58
31.16 37.73 37.50 37.91 40.49 41.98 41.77 41.93 42.49 41.58 40.16 36.55 37.37 34.31 33.78 31.52 30.72 30.72 30.20 29.90 29.86 29.89 29.41 29.61 30.39 29.61 29.27 29.88 29.27 29.06 28.96 30.70 30.80 29.53 28.43 27.55 25.77 24.67 28.69 27.65 28.28 28.99 28.79 17.82
38.57 38.42 39.45 40.04 41.31 41.99 41.98 41.28 40.95 37.39 34.56 33.09 34.75 34.44 33.25 31.09 31.14 31.38 30.77 30.31 30.08 29.99 30.06 29.77 29.25 28.76 28.82 29.01 28.46 28.40 29.88 30.87 30.70 28.08 27.70 25.71 24.20 25.69 20.28 24.04 28.59 29.06 29.42 29.49
42.38 40.87 39.67 40.37 40.93 41.93 41.90 37.12 35.89 34.91 34.93 34.29 34.36 34.10 31.96 30.98 31.54 30.67 30.23 30.41 30.62 30.52 29.84 29.27 28.51 28.10 29.31 28.79 28.46 28.87 30.96 30.15 29.99 29.74 27.88 27.49 25.65 24.30 21.09 18.76 16.47 15.47 22.95 26.41
42.07 42.26 41.44 41.13 39.25 35.26 35.45 34.78 33.29 34.25 35.45 34.69 33.46 31.60 31.21 30.14 29.69 30.44 30.39 30.47 30.40 29.78 29.24 28.34 27.89 27.88 29.04 29.01 28.98 30.78 31.69 31.64 30.30 29.16 26.97 24.97 23.91 23.47 18.83 18.74 20.15 16.86 13.57 18.11
41.62 41.28 40.84 36.58 33.34 33.58 34.51 35.47 35.13 34.35 33.57 32.17 30.89 30.51 31.06 31.32 30.78 30.23 30.55 30.44 28.47 27.62 28.25 23.98 24.59 28.14 29.06 29.59 30.75 31.33 32.35 31.55 29.89 28.04 26.21 24.69 19.05 18.85 21.19 21.26 23.16 22.08 16.11 15.29
36.22 33.93 32.19 32.98 34.52 35.22 35.25 36.04 35.60 34.15 32.05 30.77 30.27 30.54 31.23 29.63 27.51 29.17 29.54 27.54 24.73 23.45 24.20 24.22 25.63 28.35 29.38 29.83 31.08 31.07 31.87 31.60 29.78 26.78 25.11 25.49 23.18 19.17 18.44 20.82 23.28 23.77 18.66 10.00
35.81 35.99 36.59 36.12 35.15 35.08 34.47 33.43 32.10 31.25 30.54 30.92 28.43 25.75 24.38 24.68 26.81 26.62 25.91 24.45 20.57 21.20 24.93 26.89 26.35 28.30 28.72 29.02 28.25 28.77 30.06 29.45 28.87 27.70 26.10 25.36 24.77 20.47 18.08 19.03 20.73 21.38 20.34 14.76
36.39 35.92 36.60 36.67 36.40 34.48 33.26 31.65 30.82 30.46 28.13 27.13 25.87 27.25 26.10 24.64 25.07 25.74 22.92 19.76 20.80 21.79 27.18 26.07 26.95 26.09 28.87 29.69 28.53 28.98 29.97 29.61 28.93 27.00 26.09 19.13 11.54 15.51 15.20 19.67 22.16 21.37 19.07 19.72
34.52 34.87 34.27 33.08 31.79 30.34 29.29 29.92 28.37 29.29 30.03 26.66 24.04 22.84 24.86 26.14 22.04 20.16 17.98 22.26 26.62 27.87 27.61 27.18 25.81 25.71 27.86 29.99 29.19 29.33 29.83 30.14 27.95 25.15 22.34 18.52 14.25 13.29 18.11 20.17 17.33 17.62 19.37 21.28
30.79 30.47 30.16 30.17 29.71 28.40 27.36 27.11 26.47 27.73 28.49 23.86 23.74 24.84 22.88 24.82 22.34 20.20 23.29 25.09 27.68 24.77 26.15 23.74 24.85 26.62 28.30 30.23 29.99 30.46 30.80 30.53 28.20 24.98 23.38 22.79 23.85 22.61 21.43 19.95 19.56 20.85 22.05 23.46
30.11 29.68 26.93 26.65 27.18 28.43 28.62 28.36 28.69 26.29 25.54 22.57 18.42 18.42 26.99 27.28 25.54 21.15 23.28 24.86 27.83 22.50 23.07 22.92 24.95 23.82 25.60 25.04 29.95 30.50 30.85 30.56 29.31 27.56 25.55 25.70 25.52 24.72 24.30 23.90 23.40 23.90 24.47 24.28
30.83 30.98 29.75 25.84 24.26 28.49 28.00 26.31 22.37 21.32 22.66 23.53 23.17 23.54 22.45 26.19 24.26 23.80 27.96 27.03 24.77 22.07 21.84 21.62 21.51 23.37 25.69 29.56 30.03 30.41 29.87 27.20 27.77 29.20 28.93 26.28 26.52 26.51 26.45 26.03 26.21 25.73 25.58 25.21
30.01 29.74 29.63 28.90 24.08 24.88 26.86 29.73 28.87 28.31 22.22 24.64 24.63 23.31 22.66 24.37 24.19 24.90 27.77 31.35 27.31 20.45 24.19 26.58 27.79 27.97 28.71 27.02 28.84 29.72 29.61 29.38 28.86 28.90 27.57 25.42 26.31 26.06 26.66 26.49 25.75 26.48 26.01 26.47
27.81 28.87 28.00 26.40 26.94 27.07 27.88 27.99 26.76 26.78 26.85 27.29 26.09 26.34 24.84 23.34 26.40 28.07 19.12 24.16 22.45 25.55 26.34 24.40 26.57 23.27 23.96 21.49 16.81 16.71 18.01 18.69 17.88 18.37 20.21 21.67 23.98 26.50 27.42 26.82 26.26 26.01 26.32 27.01
27.36 26.52 26.23 27.23 26.55 26.06 25.98 25.59 24.79 26.26 27.02 26.69 28.02 29.39 28.98 25.63 24.27 25.46 28.06 27.86 24.62 24.92 24.60 19.66 18.50 15.08 11.96 11.21 9.56 9.91 10.97 12.27 11.40 12.16 11.83 12.30 14.13 15.80 19.32 23.13 27.99 28.11 27.28 27.32
25.74 24.45 23.65 22.88 23.54 23.25 22.54 22.59 22.95 22.96 24.67 25.95 26.05 28.78 28.89 28.95 29.66 30.00 29.94 28.73 26.96 17.42 21.59 19.21 15.59 12.96 10.92 10.87 9.50 10.17 8.47 8.46 7.46 10.10 10.81 10.77 11.22 12.27 13.63 15.19 20.88 27.24 28.66 29.24

GFSNGP_sfc_wetblb_021.txt.gz
Wetbulb
36.10 36.66 37.00 36.65 37.03 36.93 36.05 36.31 35.19 35.74 34.66 39.01 42.32 44.20 44.30 44.10 43.26 42.79 42.55 42.76 43.10 42.88 42.79 43.17 42.81 40.39 40.15 40.48 40.66 40.98 40.31 39.98 40.02 40.62 41.70 41.97 42.00 41.87 41.11 41.01 41.04 40.69 39.19 37.59
34.29 35.92 35.48 35.30 36.50 36.76 37.16 36.68 36.45 36.17 36.64 42.05 42.77 43.81 42.65 42.55 42.32 42.09 42.07 42.40 42.74 42.28 42.38 42.26 41.53 40.53 39.58 39.56 39.86 39.55 39.17 38.78 39.00 39.79 40.70 40.72 40.98 40.38 40.01 40.07 39.62 39.47 36.87 34.75
29.97 31.69 32.08 29.86 34.82 36.73 36.60 37.85 39.27 35.28 41.00 41.76 41.30 41.40 43.14 43.14 42.97 42.31 42.20 42.69 42.28 42.05 42.63 42.82 42.07 40.07 39.04 39.10 38.82 38.11 37.67 38.00 37.93 39.19 39.16 39.64 39.46 39.05 38.84 38.09 38.53 37.42 34.82 33.31
30.08 27.81 26.50 36.60 39.48 38.78 37.45 38.41 39.04 38.65 40.01 41.55 42.12 42.49 43.08 44.10 43.26 42.22 42.36 42.53 41.97 42.61 42.54 40.71 39.75 38.90 38.39 38.11 37.32 36.89 37.06 37.21 38.16 38.40 38.21 38.56 38.28 38.00 37.38 37.06 37.33 36.29 33.46 32.49
30.09 28.11 31.54 36.02 35.68 36.95 36.69 38.19 40.83 39.86 40.59 40.58 41.00 42.32 42.98 43.39 44.24 44.39 44.22 43.85 42.56 42.26 39.81 38.38 38.02 37.65 37.26 37.15 36.84 36.37 36.31 36.67 37.47 37.77 37.16 37.21 36.58 36.29 36.15 35.91 35.26 34.11 33.26 31.02
26.79 27.58 25.57 34.85 37.50 41.76 41.53 34.68 41.55 41.63 40.44 39.99 41.68 39.63 43.17 43.49 43.43 43.38 44.11 42.13 39.01 37.37 36.20 37.18 36.65 37.03 36.49 36.12 35.43 35.73 36.32 36.29 36.96 37.32 36.30 36.21 35.45 35.26 34.92 34.40 33.70 33.14 30.61 30.13
23.31 29.50 31.08 36.58 39.89 42.19 33.62 36.26 40.11 42.04 41.77 40.51 41.21 44.76 44.25 44.39 42.97 43.36 41.19 38.30 37.07 36.22 36.30 36.59 36.58 36.40 35.48 34.82 35.01 35.82 36.29 36.40 36.62 36.02 35.94 35.50 35.02 34.67 33.87 33.53 32.55 30.88 29.35 29.22
25.36 26.43 28.04 38.78 41.07 37.88 41.97 41.72 41.96 42.76 42.76 42.35 44.41 41.78 41.87 41.47 39.81 37.45 34.40 34.06 34.88 35.22 35.45 35.69 36.27 35.72 34.73 34.13 35.66 35.56 35.35 35.52 34.76 34.90 34.68 34.22 34.39 34.07 32.89 32.35 30.58 28.61 27.25 28.06
33.59 35.07 40.03 40.47 42.78 43.92 42.54 42.23 43.55 43.50 44.26 44.09 42.34 41.77 42.06 39.53 35.48 34.81 35.16 35.50 35.64 35.58 34.93 35.41 35.21 35.13 33.99 35.09 34.19 34.17 34.58 34.50 34.20 34.52 34.45 34.11 33.56 33.14 31.55 30.95 29.74 29.14 28.14 28.61
35.51 39.26 37.98 40.15 42.50 42.58 43.77 43.87 44.41 45.12 45.53 43.96 43.13 42.53 40.21 35.48 34.40 34.61 34.64 32.91 34.57 34.54 33.58 33.66 34.31 33.89 34.79 33.95 33.87 33.75 33.46 34.01 34.65 33.85 33.28 34.14 33.85 32.59 31.11 30.19 29.35 28.57 28.76 28.14
35.47 38.81 40.14 41.49 42.37 44.66 44.83 43.87 43.66 44.80 45.23 44.57 44.03 42.35 35.61 33.81 32.77 32.35 32.25 33.94 33.66 33.19 33.19 32.90 33.24 33.79 34.38 33.54 33.69 32.74 32.92 33.43 33.86 33.63 32.74 32.94 32.77 31.62 30.52 31.03 30.64 30.16 29.86 29.04
37.08 42.10 41.95 42.28 43.42 44.34 44.16 44.51 44.96 44.28 42.19 42.31 41.74 36.84 35.60 33.89 33.72 32.67 33.54 33.10 33.02 32.93 32.65 32.42 32.86 32.71 32.84 33.11 32.56 32.27 31.75 32.48 33.63 33.27 33.39 32.57 31.82 31.00 29.67 29.17 28.74 29.38 29.37 27.98
41.61 42.16 42.31 43.51 43.41 45.01 44.70 44.61 43.53 42.25 39.06 36.23 36.60 36.12 34.74 33.30 32.82 32.45 33.25 32.79 32.69 32.62 32.19 32.35 32.02 31.66 32.44 32.17 31.74 31.13 31.22 32.14 33.25 32.54 32.98 31.92 31.07 30.65 29.79 31.14 29.79 29.83 30.23 30.09
43.85 43.50 42.57 43.28 43.43 43.26 39.53 36.37 36.47 36.13 36.67 36.64 36.29 36.18 33.35 31.97 32.39 32.33 32.28 33.06 32.91 32.38 32.24 32.29 31.37 31.23 32.31 32.23 31.73 31.20 31.51 31.62 33.22 33.42 32.79 32.38 31.74 31.62 31.09 29.52 29.06 29.54 28.23 28.09
41.62 43.71 43.01 39.48 37.13 35.34 36.66 37.85 36.95 36.10 36.09 34.69 34.01 32.42 32.07 31.62 31.48 32.18 32.65 32.46 32.33 32.11 32.23 31.55 30.94 31.44 32.95 32.56 31.24 31.35 32.33 32.23 32.26 32.91 32.48 31.94 31.96 31.18 30.45 29.51 28.61 28.42 28.64 25.56
38.74 35.75 35.62 35.21 35.70 37.03 37.14 36.25 34.17 33.25 33.42 32.18 31.48 32.22 33.34 32.97 32.54 32.82 32.67 32.55 30.39 30.76 31.53 29.89 28.40 30.95 31.93 32.37 32.07 32.85 32.86 31.89 32.02 32.09 32.03 31.54 31.06 30.07 29.59 29.05 28.50 28.44 28.23 28.31
36.76 32.57 34.49 34.92 34.72 34.86 34.56 34.89 34.71 33.55 32.75 32.80 32.79 32.35 32.87 32.02 30.75 30.96 31.78 31.15 29.85 29.73 29.77 29.00 29.29 32.36 31.60 32.30 32.82 32.44 32.30 31.71 31.48 32.34 30.99 30.93 30.56 29.83 29.08 28.96 28.17 28.02 28.27 30.61
37.19 36.87 36.61 35.79 34.33 33.75 33.56 33.81 34.58 34.33 33.17 32.60 31.32 30.10 29.32 28.75 29.89 30.23 30.29 29.67 27.88 27.74 29.47 30.59 30.51 31.04 30.76 32.32 32.41 31.67 30.95 31.15 31.22 31.05 31.27 30.87 30.00 30.32 29.78 28.64 28.27 27.88 28.60 29.17
36.09 35.43 35.51 35.36 35.62 34.94 34.44 33.56 32.59 32.12 30.95 30.46 30.03 30.64 30.33 29.35 28.65 29.39 28.58 27.20 27.58 28.54 31.44 31.29 29.94 30.05 30.61 31.22 30.93 32.07 32.02 31.83 31.21 30.39 31.21 30.13 29.82 29.92 28.96 28.51 27.94 27.82 27.68 27.52
34.75 34.88 33.73 32.92 32.42 31.65 30.73 31.34 30.90 31.46 31.65 29.99 27.94 27.52 28.77 29.50 28.92 27.08 26.55 26.95 30.02 32.26 31.79 31.22 30.81 30.15 30.55 31.31 30.04 32.38 32.04 31.45 30.89 30.22 30.55 29.71 28.98 28.68 28.58 25.68 27.10 27.64 27.98 27.70
31.71 31.82 31.14 31.00 31.08 30.07 29.06 29.11 28.18 30.07 31.08 27.66 27.95 28.70 28.39 28.83 28.40 26.68 28.22 29.48 32.50 31.37 30.70 28.86 29.82 31.46 31.68 30.33 30.85 30.77 30.30 30.59 31.54 31.38 31.15 30.41 29.19 28.26 28.57 28.98 28.72 27.96 28.06 28.30
31.65 30.97 26.87 27.04 28.23 29.27 29.98 30.06 29.61 26.63 27.14 26.05 25.49 24.38 24.10 28.75 29.50 29.83 28.87 29.05 33.09 27.29 30.12 31.22 31.08 29.23 29.46 26.19 29.94 29.93 30.30 31.12 31.93 31.42 31.27 30.87 29.88 29.47 29.68 30.07 29.64 29.97 29.79 29.53
31.76 31.06 30.15 28.27 27.54 29.28 29.56 29.50 27.81 28.26 27.27 27.64 27.22 27.78 28.33 29.14 29.69 28.83 29.64 32.97 30.47 30.70 29.02 30.26 29.09 24.51 25.29 30.95 31.27 30.97 30.71 30.69 30.79 30.37 29.98 30.11 30.32 30.29 30.01 29.85 29.97 30.15 30.11 30.10
30.68 30.12 29.22 28.99 27.03 27.47 26.60 27.68 27.15 27.74 25.36 26.25 27.77 25.64 27.07 27.42 29.05 30.83 31.02 30.70 30.26 31.19 30.74 30.30 30.64 28.90 30.00 30.63 28.90 26.04 24.38 23.38 22.70 21.54 21.52 20.51 21.99 22.38 23.77 26.53 27.65 29.09 29.66 29.48
27.73 27.49 26.88 25.81 24.84 24.36 24.40 24.14 24.84 25.48 26.03 26.23 27.00 27.94 28.95 30.51 28.29 29.91 30.50 30.38 30.34 30.03 28.70 29.73 28.11 25.60 26.24 23.45 21.78 19.89 19.25 18.84 17.63 17.29 16.90 16.94 16.90 17.09 17.71 18.32 19.60 21.36 23.06 28.34
25.18 24.38 24.29 24.08 23.33 22.74 21.02 20.72 20.04 21.48 21.14 21.05 22.43 24.40 25.14 26.99 28.30 29.29 29.64 29.63 30.26 30.15 29.27 26.90 23.57 22.04 19.88 18.93 17.87 16.22 16.14 15.55 14.84 14.59 13.85 14.32 14.14 14.11 14.00 14.33 15.19 16.76 17.53 20.74
22.91 21.26 20.97 20.53 20.77 19.63 17.70 16.61 16.11 15.52 18.57 19.01 17.36 20.82 21.68 22.92 23.79 25.52 26.34 27.18 28.80 29.90 25.92 20.88 19.18 16.82 16.11 14.61 14.54 13.81 13.68 13.32 11.58 11.14 11.06 10.78 10.77 11.21 10.89 11.44 12.91 15.39 16.26 19.10

GFSNGP_sfc_wetblb_024.txt.gz
Wetbulb
42.08 41.96 42.04 42.29 42.74 43.07 41.62 42.69 38.84 41.21 41.04 43.86 46.00 47.38 49.36 51.30 51.89 51.44 50.49 50.85 51.08 50.62 50.61 49.51 48.00 45.55 45.16 45.67 45.94 45.58 44.48 44.07 44.60 44.77 44.67 44.59 44.59 44.42 43.99 43.04 42.64 42.68 42.14 42.02
39.49 40.87 40.72 39.79 42.60 43.21 43.70 43.68 42.85 43.18 42.50 48.18 48.92 48.88 49.09 49.81 49.92 49.55 49.69 49.93 50.45 50.34 49.77 47.95 46.73 45.41 44.71 46.06 44.89 44.74 43.50 43.54 43.58 43.15 43.15 43.08 43.41 42.87 42.15 42.01 42.09 41.72 41.05 40.59
36.37 37.61 38.11 35.65 40.90 42.82 43.12 44.78 44.08 40.79 45.31 48.11 46.20 46.94 48.22 49.23 49.65 49.21 49.64 49.82 49.67 49.28 48.80 47.43 47.36 44.14 45.89 44.96 44.36 43.05 42.96 42.54 41.92 41.93 41.53 41.83 41.89 41.40 41.06 41.14 41.37 40.69 40.63 39.46
37.31 33.82 31.90 41.06 43.66 43.40 43.45 44.66 45.89 45.25 46.29 46.62 47.09 48.59 49.30 50.59 50.73 50.13 50.23 49.80 49.71 49.73 48.18 47.10 47.27 46.41 45.41 43.82 42.70 42.51 41.83 41.03 40.88 40.83 40.40 40.81 40.76 40.49 41.04 40.99 40.09 39.89 39.72 38.42
36.73 34.93 38.48 40.40 40.76 40.41 40.32 41.40 46.25 45.60 46.52 46.90 46.95 47.63 49.40 50.47 51.04 51.38 51.31 50.68 50.98 50.51 47.55 46.52 44.44 44.36 43.16 42.20 42.29 40.97 40.12 39.60 39.99 40.48 39.66 39.52 39.33 39.81 40.44 39.82 39.34 39.02 38.69 37.70
35.03 35.37 33.54 40.62 42.20 45.52 45.43 38.55 45.10 46.24 46.45 45.99 46.55 43.70 45.91 50.81 50.46 50.32 50.89 51.15 49.87 47.80 44.82 42.51 43.23 42.89 41.90 41.16 40.51 39.15 38.98 39.38 39.96 39.92 39.06 38.41 39.22 39.54 39.66 39.57 37.94 37.97 37.18 36.97
36.12 36.62 38.73 43.05 43.11 46.09 36.55 39.26 47.00 46.96 47.73 47.42 46.30 48.50 49.51 50.61 50.19 50.82 50.73 49.09 46.00 43.56 42.85 41.90 40.97 41.27 40.45 39.68 38.03 39.31 39.51 39.45 39.05 39.23 38.78 38.83 39.22 39.27 38.67 38.33 37.65 36.71 34.82 35.15
34.96 34.92 33.25 43.90 44.67 41.09 46.09 48.58 47.77 48.39 49.22 49.03 50.26 49.61 48.30 48.93 49.56 49.09 47.73 44.89 43.45 40.99 40.80 40.05 41.25 40.68 38.77 37.51 39.08 38.99 38.43 38.19 38.28 38.56 38.07 37.77 38.18 38.34 37.56 37.31 36.05 35.13 33.51 33.23
41.04 42.16 44.69 46.43 47.74 49.38 48.63 47.86 48.80 48.75 49.61 49.71 49.24 48.95 48.24 47.22 47.12 44.89 43.22 39.41 39.93 39.49 37.49 38.68 39.43 39.32 37.03 37.21 37.43 37.39 37.41 37.62 38.02 38.05 37.89 37.71 36.96 36.10 35.25 36.15 34.96 34.08 33.16 32.21
40.42 44.50 45.19 46.36 47.69 48.43 49.04 48.66 49.44 50.09 49.62 49.62 48.73 49.56 48.20 46.07 43.71 41.70 41.48 39.36 37.77 36.21 36.83 36.39 37.60 36.65 37.28 37.86 37.30 37.02 36.59 37.15 37.65 37.38 36.63 36.69 36.09 34.49 34.59 34.36 33.83 33.16 32.30 31.15
41.60 44.81 46.13 47.30 48.01 48.32 48.86 49.99 49.88 50.54 50.03 49.40 49.33 49.05 48.52 44.09 41.30 39.14 36.50 36.26 35.87 35.98 37.34 36.31 36.62 36.59 37.77 37.29 37.05 36.12 36.26 36.36 36.22 36.49 36.34 36.34 36.11 34.54 34.45 35.69 34.68 32.91 31.68 31.39
41.89 45.58 45.50 46.56 48.63 49.57 48.30 48.82 49.52 48.83 49.02 47.97 48.32 47.56 44.34 40.94 38.47 36.48 33.53 34.49 35.94 36.20 36.06 35.87 35.53 36.00 36.33 36.53 35.44 34.71 34.35 35.22 35.94 35.36 36.07 34.77 34.48 33.71 31.70 30.34 30.54 30.38 30.39 30.77
44.36 47.50 47.93 48.74 48.82 48.62 47.50 44.59 44.31 43.81 44.14 42.41 42.48 41.90 39.02 33.81 33.39 33.37 34.11 34.54 34.42 34.27 34.95 34.98 34.94 34.67 35.30 35.14 34.60 34.04 34.12 34.22 34.83 34.07 34.11 33.31 32.75 32.40 31.70 32.68 30.80 30.67 30.84 30.86
45.66 46.95 46.80 45.24 43.05 42.96 42.44 42.35 41.95 41.54 40.18 38.19 36.84 35.83 34.38 33.13 33.92 34.45 34.44 34.83 35.12 34.68 34.62 34.71 34.03 33.54 35.29 35.98 35.04 34.24 34.43 32.11 34.55 34.26 33.77 34.11 33.51 33.12 33.35 32.72 31.99 32.00 31.00 30.08
41.78 44.26 43.83 42.31 42.36 41.91 42.63 40.73 37.05 34.97 34.41 33.91 34.10 34.03 34.04 33.71 33.69 35.35 35.17 34.51 34.50 34.34 34.17 34.38 33.79 34.59 36.25 35.66 34.87 35.07 34.79 34.64 34.14 34.66 34.77 33.25 33.27 32.80 32.96 32.84 32.34 30.95 31.95 29.47
40.10 41.68 41.67 40.16 38.11 37.15 36.07 35.09 34.07 34.32 34.97 35.28 35.48 35.81 36.83 37.10 36.61 35.61 35.36 35.16 32.91 33.08 34.71 34.44 33.28 34.17 36.44 36.75 36.16 35.82 35.42 31.93 32.07 33.29 33.40 33.77 33.93 32.34 31.79 32.39 31.51 30.90 29.89 30.28
38.28 35.07 35.23 34.13 34.43 34.73 35.13 35.81 36.45 36.71 37.04 36.76 35.94 36.17 35.84 35.03 34.34 34.09 35.06 35.49 34.55 33.39 34.62 34.23 33.38 36.80 36.65 36.43 35.77 36.27 36.38 35.22 31.93 32.98 32.42 32.46 33.01 32.42 31.86 32.04 31.71 30.55 31.25 33.16
37.51 36.58 36.22 36.23 35.86 35.66 36.33 37.35 37.52 36.49 36.09 35.41 33.77 32.98 32.30 32.12 32.88 33.81 34.83 34.94 33.21 32.66 33.61 34.73 35.39 35.77 35.30 36.62 36.61 36.32 35.34 33.76 33.72 33.66 33.10 32.47 32.53 32.59 32.46 31.97 32.32 31.02 31.65 32.28
38.77 37.76 37.94 37.53 37.82 37.13 36.18 35.08 34.37 33.63 33.25 33.64 32.66 32.66 33.16 32.84 33.29 33.35 33.73 32.10 31.57 32.36 35.18 37.33 33.30 32.16 35.33 34.98 33.28 35.60 34.63 33.48 33.02 33.67 33.28 32.02 31.58 31.71 32.17 32.83 32.50 32.51 31.58 31.48
36.16 36.11 35.89 35.21 35.21 34.30 33.51 34.18 34.24 34.43 34.86 33.62 32.30 32.47 32.95 33.21 33.21 32.30 32.48 31.67 33.74 35.85 36.96 36.29 35.31 35.13 35.38 34.52 31.90 35.02 34.69 32.29 31.81 32.13 32.81 32.69 32.03 31.57 31.85 31.12 31.60 32.12 32.12 32.28
34.77 34.89 33.57 33.04 32.87 33.54 33.01 32.62 32.80 32.61 32.82 32.08 31.14 31.16 30.43 31.39 32.18 32.09 31.64 33.59 36.35 37.63 36.22 33.33 34.70 36.33 36.87 34.99 34.34 36.17 32.52 31.56 31.46 31.86 32.27 32.12 31.94 32.05 31.94 31.76 31.57 31.57 31.57 31.76
35.38 33.04 32.14 32.39 33.10 33.27 33.31 32.31 31.36 31.02 30.31 29.94 30.13 30.12 29.74 30.93 31.09 32.04 33.34 33.19 35.77 32.80 34.14 35.25 35.79 34.79 34.97 30.53 34.00 33.30 31.72 31.80 32.52 32.78 32.10 31.94 31.57 31.39 31.39 31.57 31.53 31.76 31.94 31.94
34.33 33.95 32.73 31.52 31.46 31.71 31.54 29.24 28.76 28.74 27.49 27.76 28.06 28.11 28.05 28.17 28.67 27.17 27.26 32.25 32.69 32.47 31.10 31.57 32.49 31.97 31.05 31.39 32.48 32.12 31.57 31.57 31.20 30.04 29.26 29.01 28.78 28.58 28.75 28.46 28.83 29.92 30.64 30.98
33.30 32.05 31.20 30.25 29.08 27.93 26.48 27.07 27.17 27.64 27.60 27.86 28.19 27.85 27.93 28.58 29.72 30.08 31.41 30.82 30.08 30.52 30.63 32.05 31.72 30.55 30.73 31.76 31.94 31.76 30.67 28.77 27.23 26.72 25.76 23.57 25.15 24.67 24.88 24.44 24.02 25.08 24.97 25.64
29.75 29.03 27.90 27.37 27.09 26.76 25.36 24.88 25.50 25.62 24.54 25.07 25.31 25.65 25.36 26.66 25.62 27.59 28.59 28.93 28.23 28.64 29.73 30.32 30.82 30.74 31.00 30.26 28.46 26.77 25.84 25.30 23.31 22.44 22.20 21.96 21.66 21.20 21.59 21.54 20.75 20.81 20.30 20.97
27.89 27.38 27.11 25.58 25.12 24.51 23.65 23.12 22.21 23.08 22.00 22.08 23.04 23.55 23.85 24.14 24.79 24.97 25.78 25.65 26.19 26.80 28.83 27.31 23.31 25.10 24.44 22.35 22.56 21.08 21.18 20.68 19.87 19.60 17.96 18.42 18.12 17.89 17.86 17.47 17.45 18.18 18.95 19.55
24.65 23.54 24.79 24.62 23.37 22.04 20.73 19.80 19.79 19.23 20.12 20.38 18.77 20.89 21.34 21.63 21.52 21.23 21.35 22.22 22.10 20.80 21.08 20.40 18.87 17.09 16.97 17.11 16.52 16.44 16.44 16.43 14.63 13.76 14.60 14.46 14.20 14.47 13.93 13.88 14.71 15.63 17.04 18.39

GFSNGP_sfc_wetblb_027.txt.gz
Wetbulb
46.31 45.84 45.32 44.92 44.42 45.33 43.84 44.13 41.38 43.14 42.89 44.95 47.03 47.94 49.52 51.00 52.02 52.51 54.22 54.98 55.49 55.34 55.44 54.67 53.71 52.77 50.62 49.34 47.95 46.58 46.24 46.18 46.36 46.79 46.47 45.69 44.96 45.16 45.32 44.60 43.59 43.53 43.02 42.52
42.89 45.80 44.67 42.98 44.89 44.81 44.97 44.77 44.26 44.66 44.14 49.04 49.96 50.21 49.58 49.99 50.99 51.14 52.43 54.09 54.54 55.28 55.17 54.11 53.01 51.48 48.91 48.07 47.21 46.54 46.03 45.80 45.82 45.51 44.82 44.07 43.75 44.05 44.01 43.04 42.77 42.85 42.20 41.57
37.72 41.59 41.71 37.06 42.88 44.65 45.29 46.34 45.84 42.51 46.54 49.02 48.14 48.50 49.20 49.76 50.63 50.84 51.91 53.20 53.76 54.36 54.56 54.30 53.26 51.09 47.89 47.73 47.55 46.24 45.71 45.09 44.66 44.21 43.02 42.52 42.63 42.41 41.92 42.01 42.66 41.80 41.47 40.89
38.97 36.08 30.82 42.55 46.37 45.40 44.51 46.02 47.19 46.71 47.31 48.23 48.24 49.83 51.10 51.71 51.36 51.17 52.18 52.80 53.71 54.26 54.21 54.40 53.22 50.41 48.79 48.02 46.24 45.13 44.36 44.00 43.69 42.60 41.58 41.84 41.55 41.22 41.42 41.98 41.68 41.13 40.64 40.10
37.96 36.63 40.59 42.37 43.74 42.94 42.13 42.46 47.08 45.91 46.74 47.82 49.50 49.86 50.24 52.15 51.87 51.74 52.46 53.60 54.39 54.63 54.19 53.50 51.51 49.23 47.05 45.14 43.76 43.65 42.78 42.73 41.92 41.39 40.59 40.29 40.01 40.22 40.90 41.07 40.59 40.13 39.95 38.89
37.72 34.92 31.89 42.71 44.83 47.26 46.94 39.51 46.77 47.18 46.96 47.37 48.15 44.06 47.09 51.55 51.62 51.70 53.06 53.99 53.76 54.11 53.74 51.62 49.51 48.03 45.19 43.11 43.49 41.65 41.85 40.98 40.96 40.54 39.97 39.59 39.90 39.78 40.64 40.68 39.75 39.52 38.32 38.90
38.41 37.53 41.19 46.00 46.00 47.76 38.10 41.39 48.54 48.57 48.29 48.57 46.96 48.55 52.18 52.74 52.02 53.00 53.17 53.29 53.99 53.42 51.15 49.27 47.18 44.75 42.50 42.33 41.59 42.03 41.01 40.34 39.71 39.95 39.84 40.15 39.72 39.58 39.85 39.27 38.93 38.36 37.05 37.43
40.73 35.09 33.23 46.93 46.65 41.71 47.61 49.40 49.23 49.62 49.86 49.37 50.98 51.57 51.81 51.98 51.48 52.07 51.95 51.93 50.12 47.94 46.79 44.42 42.68 42.54 40.81 39.32 40.68 40.52 39.62 38.38 38.89 39.83 39.80 39.21 38.82 38.99 38.60 38.70 37.50 36.24 35.31 35.09
43.48 43.62 47.98 48.74 47.73 49.73 50.30 49.13 49.45 49.59 50.54 50.90 50.26 50.36 51.24 50.99 51.07 51.13 50.25 48.50 46.70 44.54 41.09 40.20 40.39 40.26 38.42 38.62 39.00 37.99 37.88 37.89 38.51 39.06 39.29 39.50 37.92 36.53 36.67 36.93 35.85 34.90 33.69 33.95
43.30 45.91 46.80 47.87 49.44 49.95 50.46 50.22 51.01 51.54 51.43 51.51 50.37 51.06 51.02 51.43 49.86 48.46 47.18 44.11 42.97 40.77 38.40 36.63 37.84 37.28 38.21 38.51 37.99 37.57 36.87 37.24 37.86 37.92 37.75 37.39 37.49 37.76 35.57 34.19 34.90 33.96 33.30 32.82
44.73 46.98 47.85 48.67 50.01 50.33 50.75 51.58 51.60 52.31 52.13 51.63 50.93 50.79 51.29 50.32 46.42 44.38 41.12 40.50 39.11 36.98 36.54 36.73 38.95 38.21 38.13 37.71 37.64 36.41 36.47 36.76 37.20 36.86 36.62 36.82 37.11 37.12 36.28 36.07 35.59 34.01 34.34 33.83
43.03 47.53 47.24 48.37 50.87 50.81 50.29 49.13 48.88 48.99 49.08 48.40 48.44 48.73 48.03 44.05 41.61 39.78 37.40 36.28 35.64 35.97 36.59 36.68 36.69 37.02 37.36 37.77 37.10 35.59 35.03 35.26 36.10 36.15 35.87 36.08 35.20 34.33 34.47 32.39 32.15 31.90 31.38 31.86
46.34 48.82 49.45 50.11 48.32 47.80 45.95 45.43 45.94 45.03 44.98 42.47 42.50 42.19 40.35 36.59 34.64 34.11 35.44 36.04 35.55 35.20 36.46 36.59 36.40 36.00 37.08 37.04 35.68 34.02 33.50 34.83 35.12 34.77 35.93 34.80 33.99 33.93 32.33 35.08 32.41 31.49 31.26 31.27
46.88 48.06 47.96 45.88 44.30 46.28 45.13 43.13 40.80 39.36 38.74 38.20 37.06 36.69 36.33 35.68 35.66 35.44 34.90 36.03 37.58 37.45 36.71 36.70 36.63 36.09 36.76 36.93 36.21 35.37 35.77 32.71 35.66 36.22 35.35 34.74 33.97 33.95 34.24 33.86 33.66 34.40 32.35 31.15
44.77 46.28 45.59 45.92 44.92 42.27 41.32 39.60 37.36 35.47 35.58 35.70 36.61 36.09 36.27 35.74 36.01 36.82 38.44 37.60 36.94 36.52 36.47 36.53 36.10 36.19 38.48 38.77 37.02 36.81 36.65 36.83 36.78 36.15 35.46 34.07 34.28 34.35 33.67 33.67 33.23 33.57 34.45 32.06
44.05 43.91 41.98 39.77 37.93 37.85 37.98 37.13 36.27 36.37 37.75 38.11 37.92 38.07 38.40 38.97 38.71 38.38 38.14 37.88 35.30 35.28 36.86 34.04 34.90 37.33 38.89 38.79 38.39 38.13 37.97 33.75 33.36 35.01 34.37 33.95 33.28 33.59 33.38 33.24 32.66 32.73 32.90 33.13
37.46 35.10 35.85 35.58 36.12 37.61 38.35 38.70 38.93 38.98 39.00 38.54 37.48 36.65 36.56 35.59 35.87 36.14 36.85 37.29 36.43 33.65 35.07 35.17 35.43 38.42 38.95 39.00 38.57 38.20 38.17 36.66 33.65 35.13 33.93 34.50 34.32 33.53 33.23 33.01 32.70 32.91 33.12 34.24
40.15 38.86 39.46 39.10 37.76 37.65 37.79 38.15 37.45 36.44 35.87 35.74 33.90 32.17 31.48 31.30 33.26 34.85 35.80 36.81 33.83 33.29 35.63 36.86 37.63 38.01 37.99 39.02 38.85 38.62 37.23 36.49 35.08 33.95 34.88 35.19 34.21 33.90 33.66 32.95 32.42 32.56 33.15 34.41
39.73 38.86 39.21 39.04 39.03 37.69 36.49 35.89 35.71 35.73 34.05 33.83 31.78 31.48 32.54 31.84 34.68 34.61 34.61 33.08 32.02 33.37 36.98 39.10 33.62 34.92 37.58 36.85 35.51 37.58 37.27 35.98 35.12 33.69 33.90 33.43 33.65 33.58 33.21 33.29 33.14 33.07 33.47 33.36
38.13 37.97 37.42 36.28 36.08 35.86 34.83 34.90 36.36 35.89 36.24 33.03 31.84 32.02 32.01 32.93 32.02 32.02 32.70 31.64 34.56 36.50 37.19 36.74 35.95 36.64 37.14 36.91 33.95 36.36 35.73 35.56 34.26 31.89 32.00 33.25 33.17 32.57 32.99 32.10 32.84 33.05 32.38 32.38
36.61 36.15 34.88 34.89 34.47 34.20 33.53 33.36 32.97 32.48 32.78 31.09 30.09 29.43 29.15 30.89 32.56 30.70 30.43 30.12 32.99 34.37 32.63 32.10 32.33 32.21 34.15 34.68 34.77 35.48 35.40 34.38 33.28 32.68 32.84 32.57 32.02 32.28 32.38 32.20 32.20 32.02 31.66 32.02
36.77 34.02 33.82 35.38 34.68 34.15 33.20 31.92 30.86 29.54 29.21 28.68 29.03 28.77 28.39 29.30 29.92 31.11 31.63 30.40 32.78 31.00 32.22 32.53 32.87 31.73 31.63 31.04 32.49 32.36 32.88 33.08 32.72 33.46 32.99 32.00 31.41 30.88 30.69 30.80 30.30 30.22 30.74 31.08
36.33 35.18 33.69 32.40 33.41 32.94 31.02 29.31 30.77 28.70 27.37 27.20 27.48 26.61 26.36 27.25 28.18 27.08 26.57 29.03 29.54 29.06 29.67 30.75 29.84 29.27 29.59 31.14 32.10 32.01 31.96 31.98 32.38 32.20 31.28 29.59 28.25 28.33 27.82 27.55 27.26 26.91 26.95 27.31
35.66 34.53 33.22 31.75 30.67 29.48 28.13 28.44 28.68 28.66 27.56 27.62 27.86 26.48 25.52 25.01 25.93 27.50 27.98 27.11 26.27 26.68 27.42 28.64 27.55 24.42 27.63 30.85 31.30 31.30 31.30 30.69 29.90 29.12 27.58 25.76 26.35 25.51 25.40 24.96 24.11 24.16 23.73 23.39
32.28 31.19 30.22 29.67 29.58 29.33 27.99 27.30 27.39 27.36 26.04 25.80 25.93 26.02 25.31 25.93 24.45 24.91 25.05 25.05 23.61 24.22 25.21 23.87 21.57 20.30 23.77 24.37 23.96 23.24 24.15 22.91 22.57 23.44 22.47 22.68 22.15 21.39 21.65 21.85 20.90 20.47 20.15 21.03
31.31 30.96 29.58 27.85 27.35 27.03 26.24 25.30 24.15 25.29 23.80 23.82 24.02 24.20 25.07 24.88 23.92 22.97 22.42 21.59 21.49 20.77 20.46 21.23 20.24 18.74 18.86 18.77 18.79 18.35 18.52 18.47 17.02 16.53 17.34 17.80 17.54 17.80 17.38 16.70 16.74 17.12 17.82 18.58
27.27 27.05 28.63 28.13 26.45 24.79 23.58 22.54 22.53 21.64 22.59 22.03 20.00 23.10 23.22 23.23 21.76 20.88 20.30 19.86 19.57 18.85 18.79 18.79 18.35 16.47 15.32 15.51 15.59 15.16 15.07 14.79 13.96 13.00 13.85 13.81 14.06 14.10 13.56 13.37 13.88 14.81 16.05 16.50

GFSNGP_sfc_wetblb_033.txt.gz
Wetbulb
41.02 43.32 44.41 43.88 42.46 41.90 39.36 39.48 33.79 37.09 39.13 42.23 41.91 42.87 43.42 45.44 46.29 46.62 47.36 49.81 50.72 51.26 51.32 52.11 52.34 51.87 51.79 50.14 47.35 46.16 44.57 44.70 44.49 45.29 45.00 44.09 42.49 42.11 42.02 40.93 39.99 40.12 40.56 39.90
37.42 43.52 41.96 39.29 41.60 41.52 41.35 41.41 39.50 40.13 39.38 43.53 43.94 44.38 44.27 45.05 45.63 45.86 46.71 47.36 47.98 50.79 51.80 51.79 51.49 50.90 50.31 47.31 46.51 46.30 44.92 44.86 45.03 44.37 43.81 42.05 41.11 40.65 40.24 39.57 39.48 40.39 38.80 38.66
31.25 37.06 36.64 29.23 37.35 39.73 41.20 42.00 40.44 35.54 39.56 42.98 42.56 44.03 43.73 44.30 45.69 45.78 46.42 47.16 47.80 47.99 50.47 51.38 51.07 50.60 47.95 46.45 46.17 45.16 45.82 45.04 44.81 44.87 42.63 40.35 40.60 39.86 38.67 37.71 38.19 37.64 38.07 38.25
29.08 29.43 21.31 37.37 43.25 42.50 40.34 41.07 41.04 40.91 40.93 42.49 42.55 43.57 44.81 44.93 44.64 45.15 46.03 46.46 46.53 47.27 48.12 49.33 49.50 48.54 46.90 46.62 44.83 44.98 44.17 43.25 42.34 41.27 39.48 39.23 39.04 37.69 37.50 37.95 37.01 36.94 37.02 37.25
27.42 27.33 34.30 38.93 41.30 40.71 38.63 37.40 42.18 41.01 42.04 42.56 43.81 42.72 44.20 47.55 47.21 46.25 46.38 46.73 46.94 47.44 48.41 46.60 46.03 45.51 44.59 44.16 44.86 42.15 40.43 39.51 39.43 39.60 38.68 38.25 37.35 37.22 37.76 37.08 36.12 36.40 37.33 36.13
29.38 24.94 20.50 36.21 41.82 44.86 42.99 31.56 43.27 43.47 42.55 42.63 42.66 34.13 40.11 46.84 48.08 47.61 47.55 44.50 41.47 43.22 44.42 43.69 42.63 41.83 39.88 39.03 38.34 37.86 38.03 37.96 38.24 38.22 37.89 37.08 37.21 37.10 36.56 36.04 36.43 36.37 35.08 34.96
25.19 24.28 31.61 43.79 44.29 45.13 30.46 32.66 43.58 44.03 43.43 42.99 40.22 41.83 45.45 47.59 47.35 47.12 42.95 40.58 39.87 38.98 38.61 38.83 39.54 39.18 37.47 37.55 36.34 37.27 38.44 38.85 38.78 38.81 38.02 37.87 37.24 36.25 35.63 35.01 33.84 32.48 32.13 32.04
30.91 29.10 27.35 44.89 43.07 36.01 41.28 43.23 44.22 43.86 43.99 44.02 44.65 46.32 47.17 47.75 46.80 43.56 38.55 38.35 38.28 37.08 36.72 37.68 37.89 37.40 36.05 35.26 36.86 37.33 38.09 38.18 38.01 37.52 37.41 37.36 35.84 35.83 34.96 32.94 31.16 31.51 29.80 29.66
35.88 34.15 43.16 43.63 43.10 45.02 44.93 43.98 44.33 44.88 46.28 46.71 46.17 46.29 46.62 42.01 39.89 38.20 36.94 36.22 37.17 35.92 35.97 36.82 37.45 37.61 35.69 36.33 37.31 37.57 37.42 36.79 36.07 36.66 36.64 36.59 33.70 32.19 31.62 31.16 29.23 29.15 29.09 26.59
38.65 42.37 42.81 44.17 47.10 47.63 47.42 45.84 46.33 44.10 43.76 44.80 43.64 40.07 38.50 38.20 37.39 36.49 36.26 36.42 37.97 36.80 35.57 34.96 36.69 37.12 37.07 36.84 36.66 35.71 34.15 34.46 34.76 34.29 33.96 33.54 33.44 32.56 31.24 28.27 26.66 28.79 28.14 27.88
39.40 42.73 44.82 44.92 45.82 45.13 44.72 44.95 42.32 41.93 41.01 40.58 39.09 38.22 37.07 36.03 35.82 36.88 37.07 37.15 36.96 36.11 35.45 34.92 35.48 34.89 35.60 35.69 35.39 34.07 33.95 34.02 32.47 32.48 31.90 32.12 32.81 31.89 29.96 29.07 28.80 27.67 27.57 27.97
33.92 44.16 42.37 41.72 43.27 43.66 41.61 40.86 41.62 39.85 37.81 38.52 38.16 36.50 36.10 34.98 35.30 35.61 34.81 35.29 34.69 33.85 34.37 35.59 36.05 34.78 35.11 35.48 34.43 32.88 31.77 30.88 28.18 27.71 28.56 30.55 30.18 29.91 32.35 31.91 32.89 33.03 32.82 29.49
43.00 44.91 43.55 41.63 40.74 41.08 39.56 39.30 39.16 38.23 37.67 35.73 35.90 35.09 34.56 33.71 34.67 34.21 33.89 35.11 35.47 34.98 34.65 34.37 33.79 33.39 34.25 34.27 33.16 31.10 29.56 29.57 28.56 29.37 28.94 28.61 27.81 27.99 26.96 29.19 33.11 33.23 33.41 33.38
45.20 45.03 41.25 41.43 37.59 39.22 38.39 37.89 37.61 36.79 36.43 35.67 35.24 34.92 33.44 33.47 35.62 35.70 34.58 34.85 34.98 34.25 34.12 33.76 33.38 32.83 34.03 34.13 32.67 30.55 29.92 30.26 29.84 29.84 29.72 29.73 28.20 28.01 26.74 27.15 26.44 27.22 29.99 32.11
41.43 43.06 40.49 39.85 39.29 38.09 37.92 37.15 35.53 35.29 35.34 34.46 34.83 34.08 34.12 33.89 33.86 33.95 34.64 34.53 33.87 33.44 33.21 33.23 31.55 31.18 33.47 33.78 33.38 31.59 30.67 30.19 30.52 30.66 30.32 31.51 31.06 28.99 27.87 27.80 26.95 27.45 28.23 26.54
40.18 39.63 38.90 37.34 37.07 36.79 35.94 35.22 34.41 34.52 34.75 33.97 32.11 32.18 33.32 33.83 33.69 33.83 33.93 32.76 29.83 29.13 30.46 30.04 30.92 31.97 33.38 34.91 34.97 34.75 33.70 30.26 28.97 30.57 30.67 31.20 31.26 30.14 29.37 27.98 28.13 27.90 27.17 27.41
35.22 33.66 34.63 34.43 34.91 36.35 35.67 35.51 34.99 34.13 32.85 30.82 29.42 30.31 30.84 30.12 30.91 30.43 30.30 30.18 29.78 29.63 30.91 31.05 29.57 32.21 32.40 33.50 32.92 32.28 31.74 31.80 30.52 31.79 31.69 31.41 30.40 31.01 31.50 29.42 27.30 27.38 27.45 28.03
39.27 38.63 38.20 37.41 35.69 34.51 33.45 33.38 32.22 30.58 29.25 29.76 30.07 30.00 29.31 28.01 27.46 27.83 26.67 26.22 23.40 26.84 29.17 28.96 27.42 28.12 28.69 30.02 29.20 28.21 27.16 26.50 26.79 26.98 28.25 28.77 30.87 31.04 30.23 29.24 27.34 24.68 27.48 25.59
39.10 38.05 37.77 37.14 35.85 34.25 33.59 32.33 30.68 29.51 29.24 29.51 26.31 25.02 24.26 22.82 27.60 27.09 26.28 20.79 22.07 22.59 24.76 25.60 25.44 25.73 26.18 25.65 24.08 24.16 23.85 23.51 24.27 25.17 26.16 26.49 26.91 27.95 29.66 30.58 27.25 22.97 23.74 25.45
35.48 35.32 34.78 33.34 33.03 32.05 30.98 31.43 29.25 27.59 27.84 25.36 22.36 20.60 22.11 19.86 18.17 18.38 20.31 21.95 23.65 22.83 23.41 23.62 24.15 20.45 20.72 20.43 19.41 21.36 23.96 23.43 22.74 22.81 24.71 25.95 25.96 27.81 29.87 27.81 25.64 23.51 27.31 29.95
32.95 32.02 30.65 30.47 29.87 29.34 27.40 26.49 26.78 26.68 26.80 21.40 19.41 14.62 14.02 18.60 17.90 14.32 19.57 20.66 22.64 20.91 21.75 21.56 19.66 17.06 17.65 16.98 20.20 20.18 19.20 19.07 19.51 19.91 20.48 20.59 21.62 25.53 28.75 28.74 27.11 26.18 20.19 20.24
33.38 31.83 30.67 29.50 27.91 27.53 27.70 27.29 26.02 23.22 22.22 17.25 11.73 11.61 13.27 20.96 16.82 18.60 14.80 19.17 21.34 14.12 18.68 20.26 18.13 11.81 14.99 13.68 17.30 15.34 15.20 15.86 13.45 14.25 15.16 17.02 17.82 18.85 19.66 21.31 21.74 21.98 20.14 19.88
32.43 31.68 30.85 28.66 26.64 26.55 27.10 25.24 21.17 19.62 16.95 15.94 13.77 15.47 17.08 20.71 20.41 15.89 15.04 20.46 20.10 15.59 18.57 17.03 9.50 8.90 9.04 12.45 13.30 11.57 11.71 12.24 9.68 10.39 11.70 12.80 13.22 15.11 14.57 13.89 14.61 14.80 14.43 15.46
31.31 30.32 28.60 28.56 27.23 25.94 24.02 24.96 25.34 23.67 16.17 20.22 15.43 11.57 18.88 12.65 10.01 19.89 19.41 14.19 9.80 7.99 8.39 14.30 10.34 7.90 4.38 5.80 10.08 8.53 9.33 9.91 9.01 7.93 9.28 9.70 10.27 11.18 10.42 10.76 10.77 11.29 11.99 11.76
29.85 29.16 28.32 26.49 25.45 23.69 23.56 24.14 23.90 23.10 22.48 22.88 20.79 21.31 20.89 20.51 11.62 13.56 9.45 10.33 12.40 9.95 6.95 8.07 7.83 6.81 1.10 -0.51 1.45 6.80 5.86 6.99 7.54 5.95 6.35 6.46 7.43 6.69 7.42 8.14 8.53 9.31 10.38 10.53
27.61 25.07 24.35 23.96 23.00 22.08 21.96 22.16 20.40 19.72 18.81 14.15 14.72 8.75 12.29 14.68 13.52 12.77 10.06 9.20 10.90 10.17 7.49 3.04 2.52 5.24 2.27 -0.65 -0.62 -1.37 2.21 2.98 4.89 5.62 3.27 3.61 5.03 4.10 5.10 5.81 6.91 8.19 8.37 9.15
25.59 25.26 23.32 21.72 22.10 21.55 20.08 18.76 14.63 13.34 13.01 6.41 7.51 7.90 14.34 12.81 7.00 10.46 4.73 2.30 2.14 4.32 1.26 2.22 0.55 2.19 5.09 3.11 -1.74 0.64 -1.17 -2.22 0.47 4.15 -3.81 -0.60 0.77 0.99 2.59 3.44 4.67 5.67 6.31 6.45

GFSNGP_sfc_wetblb_036.txt.gz
Wetbulb
39.08 40.76 41.67 40.43 40.54 40.57 37.78 37.13 32.55 35.97 36.61 40.64 40.70 40.09 41.19 42.91 43.96 45.81 48.63 48.95 49.26 48.73 48.50 49.93 50.31 51.79 51.58 47.63 47.07 46.59 45.14 44.13 44.53 44.16 44.32 44.33 42.14 41.52 40.75 40.37 39.88 39.77 38.38 38.44
34.69 39.51 38.89 36.90 39.05 38.43 39.41 39.19 38.62 38.33 37.02 40.56 41.32 42.03 42.61 43.21 43.93 43.80 44.22 45.25 46.16 48.83 49.21 49.51 49.85 49.60 49.19 47.13 46.08 44.87 44.39 44.78 45.52 44.12 41.42 41.57 40.69 39.79 38.09 39.67 39.30 38.03 38.56 38.55
30.73 34.63 34.31 28.51 35.67 38.65 39.37 40.19 39.92 33.96 38.22 40.13 40.05 41.19 40.96 41.78 42.88 42.91 43.35 44.05 45.18 45.70 49.19 49.46 49.52 49.63 47.31 45.35 45.20 44.68 45.12 45.01 44.51 43.44 41.85 40.33 39.77 39.34 38.30 37.58 37.51 37.13 37.15 37.04
27.75 27.83 21.03 36.63 41.56 41.06 38.20 38.35 38.89 39.34 39.27 40.60 41.64 41.47 42.71 42.53 42.57 43.12 44.04 44.38 44.61 45.42 46.34 47.57 47.63 45.23 45.09 46.01 45.08 45.12 43.86 43.08 42.40 40.30 39.21 38.84 37.59 37.64 37.89 37.59 37.06 36.29 35.82 35.79
26.43 26.36 32.70 37.26 39.53 38.15 36.49 35.43 39.93 39.01 40.08 40.68 42.49 42.73 42.61 45.18 45.03 43.97 43.08 42.18 42.11 42.28 42.06 42.13 43.15 44.33 44.17 41.71 39.37 38.92 38.23 38.31 38.68 38.33 37.76 37.93 37.49 37.36 37.66 36.09 35.74 34.93 35.30 35.01
28.18 23.88 20.72 34.07 39.99 42.82 41.44 30.43 41.52 41.49 40.56 40.85 40.25 34.10 38.90 44.68 43.07 39.44 38.99 38.90 38.93 39.03 39.09 38.56 38.66 39.17 37.70 36.57 36.05 35.46 36.40 36.99 37.78 38.45 38.33 37.75 37.50 36.28 35.35 35.16 34.41 34.20 33.82 33.58
22.86 22.69 28.68 38.92 42.34 42.74 29.74 31.04 41.94 42.26 41.67 41.05 38.87 39.93 43.01 40.93 38.80 38.67 38.09 37.93 38.05 37.22 36.31 36.98 37.67 36.98 34.97 35.52 35.75 37.83 38.78 39.18 39.54 39.59 38.92 37.61 35.66 34.92 33.37 32.87 32.45 31.27 30.66 31.04
29.79 24.46 25.83 43.22 41.06 35.99 38.00 41.25 42.24 42.70 42.45 42.51 43.34 43.62 41.90 38.86 37.45 36.95 36.29 36.40 36.81 35.90 35.72 37.00 38.07 37.26 35.78 35.75 37.74 38.81 39.18 38.78 37.99 36.39 36.23 35.76 33.51 33.08 32.70 30.93 29.17 28.91 24.96 28.39
33.73 32.68 40.87 41.54 41.28 43.24 43.46 42.93 42.88 43.44 44.51 44.96 42.51 37.66 37.26 35.91 35.78 35.92 35.49 34.66 36.32 36.48 36.32 37.20 37.74 37.52 35.38 35.04 37.14 37.82 37.10 35.50 34.59 34.80 34.73 34.26 31.97 30.20 28.99 28.63 26.11 27.38 27.58 25.86
37.52 40.70 42.11 43.31 44.07 44.51 44.60 41.40 40.96 41.68 41.61 40.25 37.15 37.21 36.08 35.90 35.70 35.78 36.04 36.75 37.13 36.09 34.84 34.61 35.77 35.93 35.40 35.64 35.35 34.39 33.64 33.18 33.13 32.77 32.39 31.37 31.21 30.41 29.23 25.85 25.00 27.58 27.22 27.06
37.71 40.86 42.34 42.19 42.03 41.79 40.52 40.22 39.19 39.29 38.87 37.97 36.97 36.02 35.94 35.42 35.59 35.61 35.46 36.00 36.14 34.80 34.10 33.72 34.12 33.90 34.55 34.72 34.53 33.11 32.83 32.69 31.40 30.31 30.18 30.14 30.53 30.46 29.78 29.23 28.41 27.32 26.55 26.77
33.20 42.36 40.26 39.83 40.82 41.50 39.84 38.54 38.25 36.95 35.89 36.58 36.24 34.54 34.15 33.14 33.69 33.69 34.29 34.80 34.65 34.37 33.60 33.32 33.55 33.21 33.79 33.97 33.14 31.96 30.77 30.02 28.01 27.22 27.55 28.71 28.84 29.70 32.01 31.49 31.58 32.35 32.58 28.19
41.71 42.79 40.59 39.45 39.29 39.42 37.34 36.87 36.67 35.59 35.10 33.78 34.25 34.26 34.07 32.96 33.52 34.34 33.81 33.06 32.83 32.76 32.68 32.27 31.78 31.53 32.54 32.70 32.10 30.74 29.29 29.33 28.27 28.19 27.86 28.06 28.57 28.21 28.03 31.64 32.54 32.75 33.10 33.36
41.28 40.47 37.46 38.63 35.60 37.16 36.40 36.13 36.56 35.51 35.00 34.40 33.97 33.55 32.07 32.23 33.25 32.67 32.27 32.33 32.45 31.84 32.00 31.20 31.03 30.82 32.56 32.99 32.13 30.68 29.64 29.35 28.84 28.71 28.69 29.10 28.72 29.31 29.81 29.31 29.65 29.53 30.14 30.94
39.84 41.00 38.73 37.59 36.66 35.56 36.20 35.46 33.80 33.36 32.92 31.96 32.30 31.47 31.70 30.94 31.27 31.41 32.07 31.87 31.06 30.48 30.97 31.25 29.81 30.12 31.62 32.53 31.72 31.55 32.26 31.53 31.87 31.81 31.55 31.42 31.37 31.58 31.76 31.57 31.10 30.77 30.02 26.26
37.80 37.66 36.87 35.05 34.72 34.77 34.46 33.74 32.44 31.64 30.61 30.51 30.15 30.76 32.20 32.16 31.11 30.07 29.50 29.51 29.04 29.54 30.71 27.94 26.91 27.76 29.10 29.68 28.83 28.78 28.12 26.96 25.77 26.02 26.18 26.12 27.14 27.92 29.21 30.06 30.58 30.19 29.39 28.68
34.16 32.42 33.43 33.01 33.49 33.91 33.67 33.57 32.47 30.39 29.39 29.05 28.93 30.34 29.64 28.41 27.41 27.12 27.23 27.63 29.11 27.79 26.45 24.55 23.51 26.33 26.96 25.42 23.67 22.82 22.64 23.08 21.86 23.90 23.64 23.91 24.11 24.31 25.56 26.26 27.92 29.25 30.99 29.59
38.66 36.64 36.52 35.81 34.07 33.09 32.15 31.56 30.01 29.31 29.35 30.09 29.69 25.06 22.72 22.37 25.62 26.29 24.94 23.56 23.03 22.69 23.10 23.85 24.40 23.11 22.49 22.27 21.33 21.06 21.13 22.15 23.05 22.72 22.76 22.68 22.83 24.29 24.94 25.08 25.32 26.03 27.54 27.65
38.42 36.98 36.35 35.08 34.40 32.55 30.70 28.78 28.90 29.94 28.27 25.91 23.98 23.02 23.50 21.82 25.29 24.44 23.31 19.22 18.46 19.26 20.67 22.55 21.55 19.23 18.88 19.40 20.04 20.52 19.77 17.93 18.17 19.40 19.07 18.88 19.06 20.04 19.40 22.10 25.74 27.24 29.22 27.79
35.09 35.09 34.41 33.44 33.03 29.99 27.63 27.91 28.46 27.46 25.97 22.77 20.61 20.24 21.28 17.99 15.96 17.85 20.05 19.65 19.02 19.53 22.41 20.24 18.33 17.12 17.36 17.35 16.44 17.18 14.81 15.31 12.97 12.90 12.97 13.86 14.57 14.92 17.23 17.16 17.06 20.75 24.38 24.32
32.14 31.61 30.42 29.24 28.73 29.04 27.97 26.93 26.06 24.82 23.08 18.94 18.74 15.93 15.94 18.69 17.24 14.76 17.78 19.03 19.61 19.41 20.64 17.64 16.25 15.15 15.83 13.04 14.46 11.82 11.10 10.28 8.22 8.75 9.59 9.91 10.01 12.08 12.17 12.90 13.50 13.93 14.70 15.96
30.96 29.47 28.42 27.91 27.29 26.61 26.90 26.64 25.86 22.55 20.48 17.10 14.28 12.77 15.30 20.16 16.35 17.07 13.37 17.60 19.39 10.57 17.04 17.31 15.40 6.56 10.58 7.11 12.73 6.71 9.55 9.43 7.25 6.75 7.43 7.23 7.42 8.25 7.67 9.23 10.37 11.12 11.94 12.34
30.46 29.34 28.08 27.01 25.94 25.50 25.12 23.88 21.69 20.49 17.52 15.85 14.79 15.59 18.45 20.48 18.91 13.64 13.16 19.13 18.77 12.52 16.77 12.23 5.57 2.84 2.23 -0.79 -0.17 -2.14 -1.07 3.38 3.95 3.91 4.86 4.10 4.86 5.46 4.75 5.61 6.61 8.39 9.16 9.87
31.27 29.69 28.05 27.59 26.58 24.96 22.58 23.09 23.87 22.38 18.06 18.99 13.88 10.85 18.87 13.68 9.49 18.48 17.70 10.50 5.09 3.11 2.91 5.00 2.03 2.72 -1.06 -5.04 -5.23 -5.77 -5.04 -6.31 -0.58 -1.96 1.47 -1.51 2.74 1.27 1.90 3.63 3.76 5.07 7.21 8.06
29.43 28.51 26.68 25.76 23.86 22.98 24.54 23.90 22.88 23.18 21.64 19.99 18.53 19.03 19.60 19.20 10.41 12.30 5.99 6.58 8.52 6.49 2.97 1.27 1.48 1.30 -5.23 -8.13 -8.49 -9.03 -7.22 -9.21 -8.31 -1.62 -8.13 -5.12 -1.19 -1.41 -1.06 0.80 1.49 3.77 4.64 5.34
26.32 24.23 23.59 23.17 22.39 22.27 22.00 21.00 18.64 18.98 17.43 11.94 12.69 4.07 7.70 13.23 13.08 10.65 5.06 3.14 5.65 4.67 1.38 -3.41 -6.50 -5.77 -6.31 -3.41 -7.22 -9.03 -7.95 -5.72 -8.13 -2.87 -11.39 -9.59 -5.57 -4.39 -3.97 -2.11 -1.31 0.06 2.14 2.99
23.08 22.15 21.56 21.02 21.36 20.66 19.38 17.74 14.64 12.93 11.75 4.10 5.24 3.81 12.98 8.93 4.23 5.27 -3.07 -5.23 -4.86 -3.23 -6.13 -5.59 -7.95 -5.59 -5.61 -3.23 -0.22 -5.41 -8.85 -10.48 -10.48 -7.95 -15.74 -14.83 -11.24 -8.60 -6.07 -3.14 -2.83 -1.49 -0.35 0.19

GFSNGP_sfc_wetblb_039.txt.gz
Wetbulb
37.33 38.18 39.54 38.72 38.89 38.21 36.12 35.84 31.82 35.06 34.80 39.19 39.54 39.24 39.91 41.28 42.28 45.64 47.89 48.06 48.17 47.82 48.23 49.72 51.00 51.44 50.72 48.54 47.27 45.86 45.39 44.57 43.46 43.89 44.24 44.45 42.36 40.21 41.57 40.96 40.20 40.18 39.50 39.09
33.24 37.61 37.56 36.30 38.89 37.97 37.93 37.25 36.75 36.14 35.80 39.48 39.26 39.24 40.46 41.10 41.97 41.87 42.58 43.56 44.84 47.63 48.12 48.31 49.40 49.40 49.26 47.10 46.49 45.63 44.04 43.89 44.41 45.15 43.20 41.54 40.46 39.65 38.66 38.63 38.83 39.22 39.23 38.64
29.60 33.06 33.07 28.71 34.34 37.35 37.83 38.90 38.68 33.36 37.60 38.47 37.87 39.31 39.31 39.98 41.29 41.38 41.87 42.98 44.20 44.49 47.15 47.30 47.41 48.14 46.15 44.17 43.66 43.10 44.23 44.91 44.58 42.88 41.54 39.93 39.38 38.76 38.16 37.98 38.67 38.73 38.07 36.38
27.13 27.94 21.23 35.88 39.42 39.58 37.41 36.47 37.52 37.61 38.07 39.40 39.36 39.29 40.58 40.90 41.16 41.54 42.18 42.77 43.05 43.05 44.20 44.49 43.98 42.99 42.89 43.38 43.21 43.42 43.60 43.79 42.68 40.09 38.48 38.40 38.33 38.17 38.28 39.14 38.01 35.25 34.33 34.25
26.82 26.54 31.58 36.09 36.85 37.02 35.37 33.42 38.11 37.30 38.69 39.99 41.34 41.10 41.23 43.74 42.31 40.61 39.56 38.81 37.87 38.01 39.54 41.23 41.90 42.62 40.53 38.27 37.65 37.31 37.11 38.05 38.48 39.03 38.82 38.93 38.44 39.15 38.88 37.00 34.38 33.60 33.43 32.49
26.12 24.08 22.15 34.30 38.48 40.65 39.73 29.52 39.50 39.34 38.96 39.78 38.55 32.53 37.67 41.35 38.98 37.24 37.00 36.91 36.52 36.96 36.66 36.53 36.73 37.11 35.79 34.97 35.30 35.12 37.09 38.00 38.86 39.13 39.15 39.05 38.64 37.05 34.79 34.51 34.02 32.45 31.97 31.77
22.57 22.74 29.15 37.05 40.77 40.82 30.28 31.57 40.32 40.71 40.07 39.26 37.19 37.82 38.39 37.37 36.41 36.52 36.42 35.97 36.39 35.78 34.46 34.67 36.17 36.57 35.13 35.65 35.68 38.57 40.41 41.03 40.96 40.52 39.44 39.01 36.04 33.92 32.86 31.74 30.89 29.93 29.80 29.63
25.43 21.59 25.74 40.56 39.58 34.47 36.63 39.10 40.88 40.36 40.95 40.73 40.17 37.26 36.49 36.22 35.59 35.19 34.48 35.03 35.78 35.39 35.26 35.84 35.90 36.95 36.16 36.56 38.83 39.45 39.52 39.24 38.74 37.38 36.16 35.64 32.87 32.38 31.65 29.84 28.48 28.55 25.07 27.36
33.43 32.22 39.15 40.06 39.53 40.75 41.41 41.31 41.39 42.22 42.73 41.21 37.08 35.53 35.50 34.98 34.80 34.49 33.86 33.77 35.33 34.96 34.89 36.60 37.26 37.05 35.31 36.19 37.47 37.37 36.59 34.62 33.97 33.71 33.40 33.24 31.66 30.56 29.02 28.32 26.38 27.18 27.45 26.10
36.03 39.03 39.96 40.69 41.12 41.60 42.33 41.56 41.49 42.77 41.31 38.21 35.28 35.21 34.73 34.82 34.76 34.75 34.13 33.52 34.15 33.98 34.07 33.89 35.51 35.91 35.78 35.72 35.22 33.42 32.30 31.80 31.97 31.29 31.09 30.46 30.24 30.06 28.51 26.63 25.62 28.03 27.62 27.22
36.16 38.80 40.10 40.12 39.15 38.76 38.32 38.63 37.77 38.05 37.84 36.70 36.04 35.15 34.98 34.28 33.84 33.76 33.81 34.35 34.68 33.76 33.49 33.59 35.03 34.41 33.47 33.31 33.35 31.91 31.58 31.27 30.82 30.10 29.66 29.66 29.56 29.66 29.56 29.52 29.41 28.99 28.74 28.00
33.76 40.95 39.49 39.29 39.27 39.44 37.68 36.78 37.03 36.12 35.14 36.03 35.84 34.25 33.86 32.73 32.97 32.86 32.69 34.38 34.20 33.91 33.46 31.97 31.04 30.72 31.27 31.85 30.99 30.06 29.66 29.40 27.89 27.43 27.68 28.31 28.03 28.71 31.76 31.31 31.74 32.41 32.54 30.25
40.48 43.70 39.95 38.81 37.86 37.90 36.14 35.52 35.56 34.63 34.30 32.94 33.89 33.83 33.57 32.29 32.19 33.58 33.63 32.92 31.63 29.94 30.00 29.88 29.39 29.29 30.84 31.28 30.81 30.31 28.71 29.14 29.10 28.53 28.40 28.40 28.57 28.49 28.06 30.95 32.82 32.82 32.92 32.89
39.49 38.95 35.87 36.65 34.36 36.08 35.69 35.47 35.57 34.43 34.31 33.78 33.26 32.95 31.88 30.75 30.96 30.12 29.34 29.85 30.67 30.14 29.93 28.84 28.25 27.04 28.82 29.75 29.02 29.06 28.96 29.06 28.11 27.95 28.03 27.61 26.72 27.53 28.28 27.83 27.57 28.78 31.89 32.16
38.16 39.71 37.86 35.94 35.18 34.43 34.78 34.25 32.79 32.06 31.77 31.00 31.09 30.64 30.57 29.51 29.17 28.80 29.46 29.79 30.66 29.90 27.28 25.03 24.06 24.11 26.95 27.15 26.21 25.97 25.00 23.85 23.16 21.65 21.81 22.04 22.92 22.81 23.16 23.29 23.44 24.46 26.64 27.85
36.15 35.63 35.37 33.97 33.21 33.31 33.04 32.17 30.23 29.29 29.96 30.02 30.55 30.79 30.53 29.22 27.55 27.76 29.27 30.07 28.23 24.46 22.57 18.84 23.62 24.97 26.03 23.33 22.06 22.05 21.97 21.41 20.54 22.46 22.27 22.01 21.73 21.22 21.41 22.10 22.81 23.52 23.68 24.21
33.55 32.20 32.86 32.88 32.31 32.34 31.99 31.69 30.52 28.91 28.96 29.95 29.43 28.79 26.82 27.14 27.13 26.78 27.34 26.01 22.60 21.39 22.54 22.59 20.89 21.55 21.86 20.99 20.90 20.61 20.02 20.55 18.51 20.07 19.93 19.11 20.06 18.61 19.71 18.10 17.07 18.69 22.01 25.20
38.51 37.10 36.64 35.31 33.51 32.69 31.04 30.02 29.48 29.23 28.70 28.62 25.65 23.00 22.45 23.63 24.95 23.32 22.53 22.35 19.31 19.16 22.12 20.73 19.81 19.62 19.70 19.44 19.73 19.80 17.67 17.35 16.38 15.14 15.94 14.95 14.74 16.62 16.02 16.36 15.75 15.08 15.81 17.56
38.26 36.88 36.40 35.29 34.05 31.65 29.91 29.26 29.23 29.59 27.09 25.26 24.98 23.71 23.31 23.09 24.85 22.40 20.52 15.34 13.98 17.54 20.23 19.31 19.57 17.68 17.21 17.69 16.21 15.68 13.79 12.80 11.09 12.16 11.28 10.40 10.75 10.80 12.38 11.11 11.92 12.56 13.96 14.84
35.33 34.88 33.71 31.89 31.13 29.94 28.77 29.22 27.68 26.92 26.34 24.87 22.70 21.48 20.16 18.15 18.35 17.35 18.14 16.71 17.96 19.28 20.46 17.90 16.75 15.64 15.03 15.21 11.12 12.94 10.79 7.42 8.31 7.11 7.17 7.00 5.64 5.97 7.64 7.11 8.68 9.92 10.51 11.95
32.27 31.59 29.97 28.54 27.39 27.75 27.23 26.62 25.01 24.09 24.24 21.67 20.77 18.72 18.90 18.97 16.35 14.23 15.90 17.53 18.26 18.79 18.83 15.74 14.62 13.61 13.76 10.54 11.83 6.83 3.96 0.25 0.76 3.16 2.53 2.06 2.16 4.14 3.01 2.86 4.39 5.79 7.05 8.58
30.66 29.45 28.48 27.20 26.28 26.18 26.66 25.70 23.67 21.82 20.23 17.03 15.24 15.85 16.10 17.70 15.44 16.11 13.23 17.25 18.44 10.28 16.04 15.61 14.09 4.29 8.49 4.21 9.38 -1.56 4.36 3.47 2.68 -0.13 0.17 0.03 -0.50 0.71 -0.62 0.61 1.52 2.34 3.54 5.63
29.55 29.08 28.06 27.20 25.96 25.72 25.72 23.20 21.03 19.34 17.79 16.34 16.47 17.25 18.97 19.61 18.14 13.83 13.74 17.93 17.50 10.26 15.29 9.60 3.62 0.60 -1.02 -5.18 -5.90 -8.26 -7.72 -7.90 -6.08 -3.55 -8.44 -8.99 -5.58 -2.17 -2.66 -2.12 -0.41 -0.11 1.46 2.80
28.59 28.35 27.24 26.47 24.54 23.47 22.37 22.65 22.65 20.71 18.27 18.94 15.34 13.73 18.88 14.30 11.22 17.89 16.38 8.36 3.69 0.62 0.96 1.49 -0.65 0.08 -4.82 -9.17 -10.62 -10.98 -11.16 -13.52 -13.52 -9.71 -9.37 -10.08 -12.61 -9.35 -6.27 -5.33 -3.56 -2.63 -1.10 0.10
28.71 27.14 26.32 24.67 24.15 22.93 23.45 23.54 21.85 21.36 20.68 19.46 18.67 19.80 19.26 17.58 10.31 12.23 6.06 5.42 6.06 4.36 0.07 -2.64 -1.73 -3.55 -9.53 -12.43 -12.07 -13.34 -12.97 -14.61 -16.06 -13.15 -16.96 -17.87 -12.28 -11.92 -11.23 -8.93 -6.75 -5.34 -4.17 -2.68
26.76 25.07 23.82 23.69 23.06 22.86 21.46 21.18 19.74 19.13 16.48 11.99 12.55 5.69 11.54 12.46 11.18 9.65 3.32 0.73 3.10 1.30 -0.83 -8.08 -10.44 -11.34 -12.07 -8.26 -8.99 -11.16 -12.43 -9.78 -15.15 -13.15 -17.51 -17.87 -15.71 -13.57 -13.23 -10.25 -8.54 -6.81 -6.13 -4.21
22.95 22.29 21.40 20.61 20.64 19.44 18.49 17.70 16.93 16.11 13.73 8.48 8.13 6.46 10.39 7.46 4.95 4.05 -5.55 -8.44 -8.62 -8.80 -8.62 -10.62 -12.07 -9.71 -10.25 -13.34 -10.25 -6.99 -9.89 -14.06 -15.87 -14.61 -20.59 -21.13 -18.61 -18.96 -16.46 -12.90 -10.61 -8.83 -7.09 -6.22

GFSNGP_sfc_wetblb_042.txt.gz
Wetbulb
35.47 36.94 37.73 36.76 37.14 36.41 34.98 34.76 32.09 34.60 33.46 37.92 38.75 39.14 39.28 39.43 41.69 43.06 46.10 47.01 47.44 48.51 49.45 50.47 51.10 51.61 51.31 48.39 46.88 46.72 45.94 45.27 42.68 43.03 42.64 43.23 42.53 40.80 40.88 39.72 39.60 39.84 40.08 40.68
32.98 35.96 35.91 34.64 37.16 36.32 35.63 35.12 35.03 34.71 34.62 39.13 37.89 37.59 39.07 39.70 40.81 40.87 41.41 42.43 44.14 45.95 46.85 47.11 48.58 49.63 49.41 47.36 45.68 45.38 43.60 41.87 42.59 43.17 42.40 41.23 39.46 38.50 38.91 40.07 40.77 41.04 40.68 40.15
30.00 32.26 33.24 28.66 33.83 36.77 36.28 36.84 37.61 32.67 37.50 37.88 36.26 38.35 37.63 38.87 39.96 39.94 40.72 41.91 42.52 43.08 44.41 45.45 45.31 46.48 45.72 44.05 43.41 42.57 42.82 43.12 43.37 42.03 40.13 39.94 39.51 39.05 38.83 39.41 40.42 40.25 39.51 39.32
26.29 27.37 21.64 35.11 37.74 37.85 36.96 37.04 37.58 36.45 36.57 37.41 37.80 38.33 39.39 39.63 39.16 39.95 40.47 39.53 38.31 38.90 40.95 41.38 41.31 41.08 41.61 41.83 42.16 42.27 41.65 41.13 41.35 39.79 38.64 38.82 39.42 39.25 39.47 39.84 39.46 38.74 36.51 34.69
26.79 26.26 30.77 34.27 35.97 35.91 34.90 34.38 37.22 35.67 36.87 37.76 39.12 39.84 39.40 38.82 38.07 37.18 36.62 36.11 35.83 35.96 36.31 36.16 36.28 37.18 36.84 36.51 37.17 37.17 36.78 37.39 38.59 39.11 39.10 39.14 39.15 39.86 40.22 38.95 36.89 35.65 33.88 32.49
25.36 23.71 21.92 33.38 37.90 39.31 38.21 29.81 38.09 38.25 37.96 38.82 38.23 32.72 36.32 36.87 36.88 35.33 34.94 35.08 34.72 34.68 35.11 34.81 34.82 35.84 35.32 34.92 35.78 35.68 36.97 38.55 39.69 40.33 40.50 40.07 39.37 38.43 36.59 35.51 33.89 32.96 31.81 31.34
21.21 22.70 29.46 37.17 38.67 39.22 29.84 31.52 38.43 39.80 38.96 38.20 36.42 35.79 36.08 35.77 34.65 35.11 35.01 34.56 34.99 34.25 33.63 33.81 35.02 35.85 35.13 36.08 36.42 38.45 40.38 41.03 40.97 40.74 40.24 39.68 37.83 34.62 33.31 31.96 30.60 29.79 29.95 29.92
24.81 22.32 27.11 39.07 37.98 34.19 36.81 37.47 38.94 39.18 39.40 38.76 36.22 35.42 35.29 34.89 34.04 34.08 33.40 34.05 34.52 34.27 33.95 34.81 35.91 36.57 35.28 35.21 37.37 39.12 39.25 38.76 37.78 36.56 35.46 34.68 32.49 31.77 31.30 29.58 28.40 28.40 25.34 28.14
34.03 33.70 39.24 39.26 38.33 39.27 39.78 39.16 39.51 40.13 40.86 39.58 35.58 34.66 34.98 33.48 33.10 32.94 32.92 32.79 33.77 34.16 34.14 34.75 35.34 35.49 34.61 35.34 35.94 35.49 34.04 33.77 32.53 32.17 32.02 31.51 30.10 29.50 28.72 27.75 25.16 27.20 27.97 27.85
35.40 38.17 38.90 40.28 40.28 40.59 41.20 40.57 41.51 41.77 40.48 38.17 34.59 34.71 33.36 33.45 33.08 32.62 32.02 31.36 32.48 32.95 32.48 32.51 34.04 34.65 34.85 35.08 34.75 32.92 30.71 30.52 30.59 30.14 29.85 29.32 29.18 29.23 27.80 26.03 26.09 28.06 27.69 27.83
34.91 38.51 38.64 39.89 39.13 38.58 37.91 38.51 38.02 37.44 36.66 35.66 35.10 33.95 33.99 33.04 32.65 32.23 31.73 32.18 32.84 32.78 32.99 32.06 32.60 32.25 32.35 30.92 30.58 29.67 29.79 29.64 29.20 28.61 28.22 28.46 28.41 28.02 28.27 28.37 28.32 28.18 28.53 28.09
35.03 39.99 39.52 39.11 38.21 38.41 37.52 36.30 36.72 35.83 34.69 35.23 35.20 34.09 33.20 32.05 31.81 31.25 31.29 32.33 32.37 31.86 31.13 30.57 29.99 29.48 29.97 30.44 30.07 29.56 29.33 28.96 27.16 27.02 26.30 27.97 27.95 27.59 30.71 30.57 31.86 32.12 32.44 30.04
40.78 42.12 38.55 37.99 36.71 37.11 35.80 35.25 35.52 35.09 34.95 33.40 33.73 33.30 32.60 31.00 30.99 32.51 31.44 31.15 30.56 29.78 28.56 27.55 25.94 26.25 27.58 28.01 28.56 27.77 26.57 26.39 24.84 23.98 23.64 23.03 22.86 22.67 20.93 24.13 27.05 27.29 27.96 28.64
39.46 39.17 36.07 37.33 34.86 35.47 34.81 34.60 34.95 33.58 33.63 33.17 32.64 32.40 31.57 29.82 29.73 29.43 29.72 29.66 29.49 27.93 25.80 24.43 24.23 24.92 25.18 25.11 25.74 24.19 23.46 23.38 21.27 21.33 20.77 21.13 18.74 20.67 20.58 20.52 19.12 19.72 23.98 25.26
37.44 38.07 38.17 35.54 34.97 33.74 33.85 33.48 32.09 31.34 31.58 31.24 31.70 30.60 29.92 28.65 28.10 27.94 28.92 29.63 26.05 23.30 23.64 23.74 23.60 23.36 22.71 23.13 21.77 21.68 21.32 20.79 20.76 19.25 19.11 19.01 19.07 19.10 19.98 19.46 18.10 16.78 17.82 19.13
35.48 35.32 34.97 33.19 32.41 32.61 32.45 31.81 31.08 30.99 31.26 31.18 30.68 29.68 28.78 28.16 27.69 28.14 28.97 29.05 23.79 21.38 21.96 18.56 20.02 20.44 21.70 21.33 20.98 20.66 20.15 19.80 17.84 18.83 18.43 16.99 16.72 15.50 16.39 16.59 16.33 15.60 14.63 14.65
32.64 31.20 32.09 31.30 31.11 31.38 31.56 32.21 32.19 31.25 31.20 30.94 29.49 27.93 27.59 27.46 27.54 26.50 23.19 22.54 21.88 22.04 20.83 19.68 18.39 19.87 20.41 19.97 19.66 18.42 17.46 17.29 13.91 15.16 14.50 14.26 12.84 13.22 12.87 13.56 11.44 11.95 12.63 13.33
37.36 36.04 35.46 33.76 32.15 30.91 30.77 30.82 30.86 30.89 30.11 29.30 27.14 26.18 25.14 24.90 25.35 24.06 21.47 20.66 20.76 19.50 19.33 18.78 18.55 19.12 18.49 17.90 16.89 15.66 14.31 12.73 12.50 11.82 11.57 10.20 9.64 10.06 9.54 8.86 8.59 8.98 9.59 11.18
36.62 35.08 34.55 34.14 33.04 31.31 30.13 29.72 29.70 29.00 26.92 25.67 25.38 23.95 24.35 23.74 23.34 21.15 19.42 17.26 16.43 18.47 18.02 18.08 18.92 16.61 15.68 16.24 13.66 12.92 11.70 7.06 7.67 8.84 7.17 4.66 4.12 4.97 5.90 3.88 4.39 5.05 6.02 7.20
35.41 34.50 33.10 31.73 31.73 30.56 29.24 29.33 28.25 26.75 26.25 24.39 23.36 23.19 22.15 20.54 19.64 17.78 17.77 16.79 18.51 19.64 18.90 16.82 15.64 14.59 13.54 13.60 9.07 10.34 7.73 2.37 5.41 2.56 0.11 1.36 -5.99 -5.45 -2.95 -0.67 1.72 1.73 1.39 3.14
31.82 31.37 30.22 29.68 28.83 28.74 28.19 27.42 26.55 25.45 24.34 23.54 22.25 21.18 20.82 19.47 17.67 16.51 16.86 16.47 17.71 19.24 17.78 15.42 13.87 12.87 12.39 9.40 9.72 3.05 -2.25 -5.45 -5.27 -3.82 -5.63 -9.07 -10.35 -6.02 -7.08 -7.82 -3.48 -2.22 -1.22 -0.21
29.72 28.01 27.42 27.56 26.73 25.57 25.44 25.36 24.56 22.99 21.44 19.66 18.99 18.45 17.52 17.26 15.75 16.00 15.06 17.46 17.70 13.94 15.65 15.01 13.23 4.08 7.75 4.12 7.46 -3.65 1.62 -1.38 -3.13 -5.45 -8.17 -10.89 -11.98 -11.25 -9.45 -10.54 -6.86 -4.34 -3.39 -2.34
29.18 28.35 27.44 26.23 25.35 23.90 23.28 22.28 21.43 20.56 19.03 18.48 18.16 18.40 19.10 19.16 18.34 15.46 14.73 17.60 16.79 11.53 14.86 9.75 3.53 0.29 -1.83 -6.35 -7.99 -10.34 -10.16 -11.25 -11.97 -10.16 -15.42 -18.86 -18.32 -17.05 -13.42 -9.88 -8.52 -8.24 -6.90 -5.17
28.78 28.12 26.66 26.26 24.62 23.01 20.81 21.42 22.01 20.51 19.34 19.78 17.29 15.96 18.29 14.40 11.91 16.95 15.69 9.33 5.35 1.25 2.27 2.65 -0.37 -0.73 -5.99 -11.07 -12.52 -13.61 -14.15 -16.87 -17.23 -17.41 -13.61 -15.24 -21.76 -19.59 -16.34 -15.99 -12.28 -9.67 -8.91 -8.03
27.77 26.57 25.77 24.86 24.11 22.82 22.52 21.70 20.90 20.79 20.23 19.90 19.53 19.80 19.00 17.50 11.35 12.31 8.45 5.88 7.96 5.82 1.80 -2.00 -2.55 -6.17 -12.52 -14.15 -15.06 -14.51 -15.06 -17.59 -18.86 -19.04 -20.13 -22.31 -19.95 -19.42 -17.98 -17.45 -15.87 -12.83 -10.34 -9.33
26.23 24.64 24.29 24.17 22.58 22.39 22.10 21.61 19.53 17.86 16.09 14.24 15.11 13.38 12.41 12.59 11.24 9.17 5.35 3.48 3.68 1.74 0.35 -7.62 -11.25 -13.61 -14.87 -13.24 -14.15 -14.69 -10.34 -8.91 -16.69 -17.23 -20.68 -22.13 -22.31 -18.37 -19.44 -16.44 -16.08 -13.79 -12.37 -10.79
22.47 22.22 20.89 19.43 19.65 19.24 19.29 19.30 18.22 16.27 14.98 13.66 13.34 12.15 11.26 9.31 4.74 5.04 -2.94 -6.17 -7.99 -8.71 -10.16 -11.25 -13.61 -11.97 -12.88 -16.51 -15.60 -13.06 -11.07 -12.52 -17.23 -15.96 -22.85 -25.93 -25.57 -23.76 -21.61 -20.18 -17.53 -15.94 -13.83 -12.23

GFSNGP_sfc_wetblb_045.txt.gz
Wetbulb
38.75 39.19 40.24 40.57 40.35 39.41 39.17 40.26 37.85 40.39 37.79 43.12 45.07 45.37 45.42 44.66 46.48 48.31 49.67 50.93 51.64 52.94 54.83 56.32 56.88 57.35 57.28 56.62 54.18 53.05 51.20 50.41 49.09 48.08 47.98 47.71 46.28 44.14 44.15 42.72 41.91 42.40 41.46 42.37
36.99 38.66 39.68 38.95 40.13 39.79 39.45 39.35 39.29 39.31 39.19 44.83 44.98 44.24 43.75 44.09 45.41 45.26 45.44 46.59 48.01 48.88 49.53 49.71 51.76 54.07 53.92 52.23 50.50 50.31 49.37 47.56 46.67 46.52 44.29 41.77 40.70 40.34 40.63 41.03 42.02 43.04 41.82 41.19
34.06 35.71 36.90 33.39 37.81 39.66 40.35 40.94 41.86 37.81 43.73 43.55 42.49 42.77 43.46 43.81 44.26 44.34 44.37 44.19 44.56 45.14 45.35 45.83 47.34 49.33 49.13 48.50 48.22 47.34 46.47 45.74 44.53 42.58 40.69 40.46 40.97 41.06 41.41 41.24 42.34 41.72 41.66 41.51
32.57 31.83 29.07 40.44 41.36 42.04 41.23 41.35 42.09 41.23 42.41 42.65 42.97 42.72 43.27 44.18 44.94 43.20 42.30 41.99 42.05 43.21 43.20 43.35 44.52 45.03 46.07 46.71 45.99 45.31 44.69 43.80 42.55 40.86 40.03 40.62 40.85 41.06 41.16 41.14 40.81 40.83 40.71 41.13
32.62 32.38 35.76 38.29 39.89 40.02 39.15 40.48 42.58 42.46 41.84 41.66 42.45 43.86 41.25 40.56 42.20 41.00 40.21 39.83 39.92 40.70 40.87 41.22 41.47 42.50 42.53 42.19 42.32 41.94 41.12 41.05 41.44 41.83 41.09 41.02 40.71 40.55 41.04 40.73 40.77 41.78 40.98 39.99
30.27 30.92 29.52 39.08 41.77 42.41 42.76 35.49 42.88 42.13 41.22 41.19 42.96 40.49 42.74 40.00 39.39 38.71 39.08 39.50 39.16 39.49 39.89 40.00 39.91 41.44 40.98 40.35 40.64 39.94 40.89 41.42 42.17 42.34 41.67 41.61 41.20 39.70 38.98 39.75 38.95 38.60 37.78 38.38
29.91 33.40 35.51 40.70 41.86 42.97 35.68 39.22 42.70 42.70 42.96 43.48 42.23 42.77 42.32 39.33 38.06 38.51 38.09 37.67 38.71 39.14 38.36 38.90 40.63 41.28 40.08 40.31 39.77 41.41 42.48 42.91 42.37 41.00 40.15 39.34 38.11 38.02 38.50 37.87 37.15 36.93 35.59 37.03
31.82 32.74 32.58 42.28 40.11 38.83 44.36 42.60 43.23 43.60 44.45 43.60 39.71 38.06 38.07 37.68 36.91 36.95 37.04 37.34 38.61 38.00 37.82 39.29 40.78 40.59 39.71 39.45 41.32 41.51 39.61 37.44 37.01 37.32 37.06 37.04 36.97 36.71 36.43 35.99 35.00 35.04 34.54 34.74
38.71 39.18 44.71 43.02 45.71 44.74 43.94 44.41 43.35 44.41 43.96 41.34 38.51 37.69 37.04 35.94 36.28 36.43 36.93 37.15 38.24 37.88 37.62 38.50 39.34 39.68 37.36 37.15 38.06 37.41 36.52 35.73 35.71 35.39 34.87 34.90 34.75 34.62 34.63 34.93 34.05 33.71 33.27 33.61
40.79 42.65 42.68 43.39 44.22 44.50 44.45 44.46 44.12 45.38 44.41 41.75 38.98 37.53 35.95 35.82 35.64 35.54 36.44 36.45 37.10 36.50 35.15 34.55 35.70 35.56 35.22 35.40 35.40 35.52 34.46 34.17 34.40 34.19 34.01 34.20 34.27 33.91 33.34 32.79 31.87 31.34 31.26 30.78
39.29 41.07 42.04 43.88 43.89 44.30 42.43 42.78 41.71 42.02 41.75 40.32 38.30 36.48 36.15 35.22 34.98 35.24 35.23 35.54 35.92 34.51 33.87 33.15 33.29 32.61 33.27 34.28 35.36 33.83 32.90 31.96 31.59 30.91 30.39 30.29 30.16 29.71 28.90 30.07 29.79 28.38 28.43 28.05
38.66 44.27 44.89 45.22 46.10 42.38 41.38 41.16 41.12 39.16 37.90 38.78 38.35 36.46 36.24 34.90 35.02 34.84 34.26 34.62 33.83 33.26 31.43 30.18 29.43 29.63 30.96 31.79 31.76 31.12 29.06 28.19 26.77 27.24 27.06 27.10 26.60 26.60 26.97 26.33 26.46 26.39 25.84 26.04
43.52 43.46 40.14 38.78 39.58 41.02 39.98 39.49 39.05 38.92 37.96 36.44 36.66 36.19 35.00 33.28 33.87 33.36 33.16 32.95 31.52 29.42 28.27 28.25 27.94 27.02 28.18 28.51 28.00 26.52 25.53 25.32 25.48 25.04 25.17 24.55 24.07 23.57 22.60 25.12 24.83 24.24 23.35 23.49
40.79 41.27 39.14 38.72 38.71 38.00 37.75 37.28 37.25 36.59 36.64 36.05 35.29 35.03 34.11 33.04 32.51 31.76 30.57 30.30 28.84 27.73 27.65 27.59 25.74 24.15 25.32 26.06 25.48 24.64 24.55 22.88 23.74 24.10 23.76 23.26 22.45 22.34 22.52 21.34 20.46 21.40 22.48 21.40
38.54 39.50 39.82 36.89 36.09 35.20 35.66 35.70 33.95 33.05 32.94 32.94 33.86 32.88 32.42 30.96 29.68 29.49 29.24 27.67 27.23 26.97 25.94 25.32 23.28 22.40 24.22 24.64 23.86 23.24 23.12 21.93 21.88 22.33 21.88 20.32 20.60 19.97 20.14 19.35 18.83 18.47 19.31 19.49
36.23 36.58 36.73 35.66 34.06 33.87 34.40 34.11 32.61 31.92 32.35 32.10 31.84 31.55 31.17 30.14 29.73 28.41 26.57 27.16 25.74 23.34 22.39 20.23 20.68 22.00 23.07 23.16 22.77 21.77 21.72 18.91 18.33 19.63 19.06 18.09 17.72 17.25 16.73 16.82 16.07 15.58 15.73 15.56
34.09 32.76 32.76 32.67 33.03 32.88 32.59 33.55 33.07 32.51 32.00 30.92 29.58 29.44 29.29 28.67 27.30 25.58 24.55 23.96 22.30 21.33 20.62 20.23 20.04 21.76 21.55 21.18 20.31 19.82 19.48 18.10 15.07 17.40 16.36 15.40 14.96 14.54 14.19 13.90 12.76 12.90 13.24 13.90
38.20 36.61 36.33 34.71 33.32 32.34 32.15 32.91 32.65 32.38 30.24 29.31 28.91 28.16 27.47 26.69 24.66 23.00 22.70 21.80 20.55 19.68 19.71 19.48 20.07 19.85 19.29 18.46 18.04 17.07 15.41 14.70 14.92 14.26 14.10 12.57 11.21 11.88 11.97 10.89 10.34 10.17 10.78 11.50
36.67 35.28 34.79 33.91 33.86 32.47 31.76 31.54 30.71 29.56 28.33 27.96 27.78 26.34 26.17 25.13 23.58 22.19 21.85 20.36 19.07 18.12 17.94 19.08 18.59 17.62 17.12 16.35 15.63 14.37 13.31 11.65 12.02 11.97 10.97 8.52 8.96 8.64 8.65 8.44 8.13 8.42 8.29 8.12
34.14 33.79 32.88 32.18 32.19 31.36 29.47 29.51 29.60 28.12 27.91 26.77 25.70 24.42 23.05 21.56 20.95 20.03 20.75 20.04 20.75 19.98 19.23 17.69 16.89 15.62 15.09 13.61 12.40 12.95 11.04 10.30 9.40 9.19 8.06 6.92 6.36 5.80 6.36 4.85 4.88 5.74 6.18 6.31
31.44 31.14 30.50 29.94 29.13 29.37 29.13 29.06 27.32 25.79 25.92 26.25 25.24 23.24 22.30 20.28 19.51 18.96 18.70 17.78 19.09 19.46 18.00 16.32 15.71 15.09 14.40 13.55 12.75 10.97 9.90 8.80 7.91 7.41 5.87 4.73 3.82 4.07 3.79 3.53 3.71 3.75 4.16 4.46
29.27 28.23 27.84 27.76 27.32 27.09 27.74 27.28 25.69 24.36 23.49 22.16 21.42 20.94 20.02 19.00 18.60 18.17 19.32 18.80 19.34 17.81 17.67 16.71 15.16 10.48 11.78 10.81 12.01 10.80 9.71 7.94 7.25 6.73 5.62 4.15 3.12 1.90 1.53 1.68 1.21 1.58 2.24 2.60
28.76 28.26 27.26 26.18 25.34 24.39 24.35 23.36 22.55 22.50 21.31 20.87 20.37 20.46 20.53 19.91 19.69 18.21 16.75 18.09 18.36 16.42 16.91 15.42 10.59 7.90 6.09 11.32 10.65 9.27 7.76 6.01 5.36 4.83 4.14 2.82 1.65 0.57 -0.42 -0.64 -1.26 -0.49 -0.11 0.51
27.89 27.03 25.37 24.57 24.37 23.53 21.87 22.40 22.56 21.43 21.30 21.22 20.20 20.39 20.09 18.24 18.12 19.09 18.52 14.63 12.65 14.39 14.51 12.54 10.48 6.90 5.04 9.38 8.50 7.67 6.47 5.79 4.77 3.89 3.55 -3.29 1.20 -0.65 -0.83 -2.54 -3.25 -2.04 -2.30 -2.10
27.09 26.87 26.08 25.26 23.44 22.55 21.97 21.81 21.58 21.42 21.14 20.84 20.50 20.41 19.82 19.16 19.62 17.37 16.45 14.92 13.96 13.59 13.05 5.73 4.93 2.29 7.77 7.48 6.96 5.71 5.68 5.36 4.69 2.67 2.40 0.85 -0.32 -1.95 -1.91 -2.88 -4.72 -4.05 -4.56 -3.47
23.49 22.92 22.92 23.47 23.29 22.75 22.59 21.51 19.32 18.90 18.56 17.76 17.66 17.87 16.97 16.90 15.67 14.87 13.43 11.98 12.03 9.95 11.16 8.90 7.42 6.53 6.46 6.28 5.54 4.26 4.19 4.76 3.84 2.59 0.15 -0.35 -1.54 -2.72 -3.96 -5.27 -6.09 -5.93 -5.55 -5.02
20.40 20.94 20.12 18.88 19.56 19.62 20.26 20.22 18.71 17.14 17.53 17.75 16.73 16.54 15.46 14.58 12.98 12.29 9.96 10.55 9.52 8.55 7.49 6.97 6.57 4.95 6.03 4.62 4.02 4.31 3.69 3.79 0.73 1.24 0.56 -1.69 -3.19 -3.81 -6.00 -7.08 -7.09 -7.28 -7.11 -6.94

GFSNGP_sfc_wetblb_048.txt.gz
Wetbulb
44.14 44.70 44.58 43.62 43.47 44.53 43.25 44.32 41.32 43.66 44.18 47.08 49.46 50.80 51.52 51.56 50.28 51.61 52.75 55.46 57.29 58.98 60.10 60.92 61.29 61.66 61.58 61.12 60.09 59.44 57.27 55.07 53.32 51.78 51.45 51.65 52.49 51.56 49.69 47.26 45.51 44.90 43.81 42.11
41.99 44.55 43.88 42.06 43.94 44.37 44.86 44.82 45.31 45.48 44.88 50.09 51.83 52.00 50.47 49.82 50.78 51.57 52.51 53.53 54.90 55.80 56.40 56.02 57.07 58.52 57.80 57.06 56.36 56.84 55.41 53.32 51.71 51.29 51.05 49.17 47.42 46.61 46.06 43.87 44.57 43.36 44.25 43.70
38.04 42.89 42.33 36.70 42.61 44.41 45.27 46.87 46.52 43.22 47.52 50.36 49.59 49.72 50.68 50.51 51.14 51.12 51.08 51.53 51.81 51.92 52.37 53.44 54.56 55.62 54.88 54.40 54.40 53.44 52.09 50.60 48.95 47.43 45.95 45.55 45.64 45.08 44.20 45.34 44.60 44.05 43.12 43.15
38.77 36.71 32.69 43.82 47.52 48.23 46.30 47.50 48.87 48.11 49.00 49.77 50.08 50.71 50.02 51.65 51.15 49.50 49.23 49.40 49.93 50.52 50.84 51.67 52.73 52.94 52.93 52.80 51.95 50.99 49.63 47.99 46.85 46.49 45.53 45.55 45.54 45.26 44.40 44.28 43.11 42.53 41.91 42.82
38.22 37.07 41.67 41.69 43.80 44.95 44.61 45.34 49.57 48.54 49.34 49.57 48.60 48.50 46.20 49.68 51.21 49.79 49.39 49.18 49.20 49.63 49.66 50.27 50.22 50.68 50.28 49.57 49.18 48.22 47.06 46.53 46.32 46.46 45.59 45.84 44.26 43.59 44.08 42.18 41.29 42.59 43.56 43.45
37.51 35.86 34.21 43.69 47.98 49.60 48.15 41.96 49.66 49.44 48.59 48.69 47.83 44.18 48.03 47.28 47.21 46.80 47.56 47.83 47.44 48.11 48.25 48.36 48.60 49.43 48.29 47.43 46.92 45.82 46.03 46.10 46.49 46.40 45.74 44.88 43.06 40.69 39.90 41.30 43.65 43.04 41.67 41.91
39.60 38.89 42.50 47.31 47.97 48.71 39.91 43.73 49.89 50.18 50.14 48.81 46.83 49.64 49.91 47.43 46.25 46.85 46.42 46.17 47.04 47.57 46.90 47.29 48.15 48.10 46.57 46.00 44.98 45.78 46.13 45.89 44.88 44.18 41.56 39.66 39.52 41.93 42.95 42.55 41.53 40.71 39.30 40.38
40.87 38.28 36.00 47.78 45.63 44.29 50.08 50.49 51.23 50.74 51.01 49.81 50.18 48.06 46.55 45.87 44.61 44.23 44.34 44.54 45.68 45.40 45.41 46.56 47.33 46.92 45.46 44.30 45.43 45.28 43.89 41.04 39.38 40.13 40.34 40.87 40.61 40.68 40.31 40.04 38.88 38.51 39.65 38.44
43.23 43.86 50.58 49.28 50.68 51.51 52.94 52.02 50.41 51.39 50.98 50.96 46.75 46.08 45.35 44.05 43.84 44.01 44.31 44.75 45.30 44.57 43.95 44.89 45.66 45.64 43.28 43.02 43.39 42.40 41.17 40.14 39.48 39.09 39.17 39.52 39.57 39.08 39.11 38.76 37.68 36.48 35.26 35.05
43.26 48.45 48.91 50.10 51.02 50.74 50.87 51.33 51.01 51.83 51.35 49.62 47.00 45.73 44.48 43.78 43.31 43.36 44.16 43.99 44.12 42.83 41.44 40.62 41.64 41.48 40.92 40.64 40.52 39.68 38.53 38.20 38.57 37.42 37.86 37.63 38.08 36.56 35.22 34.05 32.61 31.54 31.16 30.70
45.95 49.07 46.89 49.09 51.01 52.05 49.79 49.44 49.23 50.44 50.78 48.84 47.45 45.12 44.43 43.06 42.75 43.30 43.29 42.64 42.80 41.07 39.71 38.48 38.64 37.97 38.83 39.43 39.56 37.75 36.98 35.98 35.38 34.76 33.69 33.78 33.09 32.14 31.12 31.30 28.71 28.73 28.77 28.34
44.12 50.23 49.29 51.62 53.13 52.84 50.04 48.37 48.95 49.13 48.20 48.72 47.29 44.80 44.26 42.87 42.98 42.11 41.38 41.29 40.06 39.28 37.45 36.02 35.86 35.19 36.26 37.51 37.50 35.80 33.21 32.13 30.75 31.98 31.97 31.91 31.65 31.97 26.26 25.76 25.07 25.01 24.13 24.67
48.71 47.85 47.93 46.12 46.44 50.75 50.15 48.83 48.69 47.92 48.23 46.00 46.20 44.99 44.00 42.02 41.75 39.33 39.97 39.33 37.44 35.87 34.62 33.34 32.58 32.77 33.08 32.85 32.52 31.48 30.49 29.78 29.80 29.58 30.10 29.11 29.29 28.86 27.88 28.46 25.35 24.46 23.26 22.89
46.93 44.93 44.88 43.51 44.75 44.17 45.74 45.67 44.72 46.29 45.69 45.26 44.24 43.55 42.03 40.32 38.30 38.51 37.54 37.06 35.65 33.91 31.75 31.35 31.10 29.69 30.71 30.87 30.19 29.27 27.77 24.92 29.35 29.28 28.65 28.16 27.60 26.67 26.98 25.35 24.22 25.27 24.56 22.31
45.50 44.07 44.14 43.22 42.56 41.84 41.67 42.28 41.68 41.44 41.53 41.18 41.71 39.66 38.56 36.62 36.18 35.56 34.47 33.18 32.42 32.04 30.99 30.14 28.62 27.72 29.42 29.38 28.38 27.88 27.71 27.11 27.20 27.40 25.72 24.48 25.40 25.20 24.76 23.81 23.31 22.82 23.31 23.23
41.71 41.83 41.34 41.05 40.35 38.94 39.73 39.79 38.98 37.59 38.10 37.63 37.11 37.05 36.77 34.90 33.59 32.44 30.05 29.91 27.93 26.33 27.43 24.32 24.83 26.43 27.92 27.92 27.31 27.11 24.99 20.84 22.22 25.35 24.87 23.78 23.59 22.70 21.98 21.83 21.03 20.90 20.72 20.39
40.27 39.04 39.01 38.46 38.61 38.09 37.91 38.84 37.21 36.63 35.92 35.70 34.25 33.10 32.22 29.91 28.54 26.96 25.72 25.25 23.74 22.78 22.81 23.18 23.33 24.85 25.06 25.43 25.29 26.04 25.97 23.49 18.66 23.91 22.69 21.25 20.89 20.53 20.12 19.92 18.94 18.56 19.08 19.08
44.30 43.40 42.54 41.16 38.67 37.74 36.21 36.64 36.22 34.59 32.77 32.23 31.22 29.94 28.63 27.94 26.04 24.97 23.79 22.96 21.92 21.14 21.38 22.05 22.80 22.59 22.31 22.71 22.86 22.42 21.55 21.07 21.00 20.29 20.55 19.34 17.47 18.51 18.28 17.63 16.97 16.46 17.13 17.13
41.79 41.09 40.23 39.37 38.80 36.94 35.22 33.72 32.72 31.36 30.43 30.13 29.57 27.98 27.36 26.78 25.53 23.15 22.78 21.40 20.21 19.14 19.64 21.10 20.10 21.07 19.86 18.37 19.89 20.00 19.09 19.16 19.01 18.35 17.66 14.62 17.03 16.43 16.11 15.73 15.23 15.00 15.10 14.97
35.44 35.45 34.96 34.16 34.34 32.69 30.17 30.32 30.14 29.47 29.39 28.58 27.37 26.04 24.01 23.92 23.89 23.31 23.56 22.54 23.12 21.61 21.47 20.36 19.96 19.28 18.13 16.35 16.53 18.50 17.26 17.27 16.23 16.64 15.44 14.71 14.88 14.08 14.50 12.43 12.00 13.27 13.66 13.76
31.01 30.76 30.09 29.47 29.34 29.80 29.78 29.95 29.30 28.56 28.85 28.65 26.75 25.18 23.51 22.91 22.91 22.50 21.29 19.23 19.84 20.80 19.96 19.10 19.67 19.36 18.75 18.09 18.23 17.94 17.11 16.86 16.18 15.48 14.52 13.57 13.09 12.93 12.32 12.21 12.06 11.97 11.86 12.01
29.77 29.13 29.47 30.01 29.62 28.98 29.32 29.03 28.07 27.14 26.42 25.23 24.13 23.24 21.90 21.22 21.50 21.37 22.63 21.79 21.12 20.28 20.48 20.38 18.96 15.02 16.34 13.35 17.71 17.57 16.09 15.00 14.60 14.33 13.92 12.71 11.61 10.65 10.43 10.24 9.57 9.94 9.94 10.33
29.76 29.30 28.57 27.42 26.44 25.90 26.38 25.81 25.76 25.51 24.37 24.06 24.04 24.16 23.55 23.17 23.27 21.65 19.17 20.63 21.46 19.44 20.54 19.71 14.70 12.65 9.96 17.04 17.15 15.92 14.83 12.88 12.59 12.44 12.08 11.52 10.50 9.79 8.91 8.36 7.81 7.31 7.79 7.92
27.60 27.17 27.06 27.46 27.67 26.45 24.36 24.59 24.55 24.28 23.78 23.18 23.02 23.45 23.15 22.05 22.09 22.65 21.80 19.59 18.10 19.07 18.87 16.91 15.20 9.98 10.47 16.18 14.89 13.97 12.71 13.05 12.41 11.98 11.39 7.12 9.98 8.82 8.45 7.14 6.06 6.68 6.03 5.46
27.82 27.66 27.10 25.82 24.52 23.78 23.96 24.17 23.49 23.05 22.79 22.49 22.42 22.45 22.62 23.55 24.21 21.64 21.08 19.24 16.76 17.49 18.11 11.88 9.40 7.84 14.42 14.21 13.13 11.75 11.87 12.04 11.77 10.79 10.05 9.60 8.64 7.83 7.31 6.90 5.04 5.07 3.38 3.42
24.03 23.57 23.96 24.72 24.75 24.64 24.29 23.62 22.24 22.83 22.89 21.93 21.94 22.64 22.41 21.65 20.53 19.93 18.77 17.15 16.84 14.10 16.59 16.38 15.06 13.84 13.37 12.80 11.50 10.94 10.64 10.87 10.37 10.06 8.49 7.78 7.71 6.83 5.88 4.80 3.34 3.16 3.07 3.08
20.95 21.66 21.35 20.57 21.17 21.22 21.55 21.79 20.99 19.90 20.97 22.02 20.69 21.17 20.83 20.42 18.87 18.02 16.43 17.04 16.37 15.38 15.05 14.55 14.16 12.22 11.85 11.37 10.91 10.83 10.17 10.36 8.52 7.68 6.79 6.93 6.52 5.77 4.75 3.40 2.39 1.90 1.04 0.37

GFSNGP_sfc_wetblb_051.txt.gz
Wetbulb
44.77 45.95 46.12 45.38 45.12 45.44 44.37 45.29 42.05 44.18 44.25 47.74 49.45 50.78 51.98 53.21 53.47 53.11 53.72 55.53 57.80 58.89 60.64 61.73 62.44 63.21 63.66 61.64 61.45 60.49 57.75 55.69 54.20 54.70 54.71 53.42 52.31 51.42 49.94 48.23 47.23 45.80 44.36 44.05
42.44 45.38 45.06 43.09 45.04 45.08 45.23 45.63 45.65 45.78 45.19 50.64 51.59 51.91 52.03 52.68 52.47 52.59 53.84 55.08 57.57 59.63 61.16 61.74 62.23 62.45 61.13 60.37 60.41 60.25 58.04 55.95 55.34 55.07 54.63 52.80 51.62 51.07 50.39 48.74 48.51 47.22 46.37 45.63
39.13 44.11 44.06 39.93 43.78 44.71 45.38 46.58 46.42 43.24 47.52 50.64 50.29 50.59 51.33 51.95 52.75 53.29 54.69 55.70 56.99 58.38 58.68 58.85 59.77 59.27 57.96 57.64 57.73 56.32 54.97 53.64 52.33 51.32 49.92 49.12 48.99 48.53 48.21 47.68 48.03 46.44 45.46 45.18
39.93 39.17 33.42 44.06 48.90 48.20 46.32 47.31 48.42 48.44 49.42 50.64 50.65 51.69 52.63 53.65 53.61 54.17 54.70 55.15 55.24 55.51 55.68 56.49 57.16 56.44 56.25 55.91 54.72 53.27 51.90 50.61 50.22 49.51 48.73 48.65 48.55 47.43 47.02 47.14 46.68 46.18 44.44 43.28
38.50 38.29 41.65 44.33 46.67 46.82 45.74 45.34 49.37 48.81 50.23 50.96 51.58 51.74 51.20 53.16 54.94 54.64 54.07 54.08 53.99 54.61 54.68 54.83 54.64 54.82 54.01 53.09 52.38 51.11 50.13 49.56 49.16 49.13 48.36 47.82 47.01 46.22 45.87 45.43 42.91 44.75 44.64 43.88
41.08 35.90 33.33 43.73 48.35 51.11 50.35 42.87 50.41 50.72 50.35 49.67 50.25 46.18 49.27 52.75 53.88 53.33 53.37 53.06 52.52 52.97 53.43 53.07 53.05 53.33 51.85 50.71 50.16 49.09 48.98 48.89 49.28 48.98 47.36 45.25 44.72 42.94 41.99 44.49 44.56 44.75 43.21 43.18
40.54 38.87 42.11 47.98 49.60 51.80 41.60 43.96 51.62 51.34 50.89 50.83 49.05 50.97 53.17 53.59 51.89 52.16 51.86 51.65 51.94 52.06 51.61 51.80 52.27 51.85 50.23 49.55 48.37 48.79 49.04 48.31 46.94 46.12 45.13 44.14 42.13 43.79 44.26 43.37 42.88 41.77 40.33 41.18
41.47 38.97 36.63 50.84 49.55 45.53 50.64 54.00 53.28 53.17 52.92 52.24 52.54 52.67 51.69 50.96 50.39 50.50 49.99 49.81 51.04 50.48 50.21 51.09 51.56 50.55 48.78 47.71 48.48 48.12 46.95 45.37 44.00 43.35 43.02 43.88 43.40 42.12 41.47 41.56 40.54 40.06 39.46 39.21
44.02 44.19 51.23 51.32 51.77 53.32 54.45 53.66 54.56 54.13 53.90 53.59 52.79 51.27 50.51 49.70 49.35 49.13 49.13 49.75 50.16 49.63 49.01 49.80 50.29 49.82 47.55 46.99 46.63 45.45 44.70 43.63 42.54 41.78 41.33 41.50 40.88 40.43 40.73 39.82 38.06 36.49 34.79 34.71
45.70 48.65 50.28 52.31 52.68 54.00 54.69 54.61 55.30 55.30 54.10 53.89 52.32 51.37 49.94 49.23 48.69 48.54 49.29 49.01 49.41 48.22 47.30 47.01 48.02 47.48 46.39 45.74 45.20 43.65 41.84 40.99 40.83 40.43 39.49 39.49 39.40 37.38 36.39 35.01 33.82 32.64 32.13 31.48
45.60 47.81 49.99 51.74 52.68 53.75 54.20 54.38 53.94 53.37 53.87 53.51 52.61 50.46 49.47 48.35 48.42 48.78 48.70 48.30 47.86 46.84 45.57 44.41 44.46 43.54 43.45 43.19 42.93 40.92 39.98 39.18 38.36 37.04 36.64 35.69 34.97 33.69 32.81 30.13 28.65 29.70 29.49 29.14
43.73 48.36 50.31 51.25 53.51 54.48 54.37 53.74 53.07 52.32 52.39 53.35 52.34 50.12 49.51 48.19 48.49 48.23 47.55 46.93 46.01 44.83 43.19 41.62 41.30 41.08 41.72 41.90 41.20 39.01 36.63 35.48 34.87 34.62 34.16 34.57 33.84 31.40 26.64 27.24 26.10 25.28 24.04 24.61
48.75 51.93 51.85 52.25 50.07 50.30 53.09 54.59 53.98 52.61 52.95 51.65 51.79 50.57 49.20 47.52 47.35 44.21 46.22 45.49 44.03 42.13 40.69 39.30 38.12 37.36 37.96 37.90 37.98 36.24 34.23 32.59 31.23 32.29 32.47 31.51 31.75 31.07 30.89 26.31 26.16 25.77 24.18 23.04
52.42 49.85 47.97 48.60 48.59 48.60 51.10 53.36 50.20 51.98 52.14 51.61 50.84 49.98 48.46 46.65 44.78 44.66 43.65 43.05 41.25 38.80 37.30 35.73 33.96 31.56 33.13 33.87 32.64 31.16 30.45 27.92 32.15 31.88 31.14 30.80 29.92 29.11 29.50 27.44 26.27 27.79 25.58 23.81
50.12 49.24 48.31 46.99 46.65 46.58 48.07 47.36 47.94 48.08 48.61 48.33 48.38 47.31 46.00 43.63 42.61 41.99 40.99 39.03 37.58 35.56 33.26 32.28 30.22 29.09 31.73 31.75 30.87 30.35 30.08 29.90 30.20 29.60 27.83 26.14 26.90 27.14 26.89 26.04 25.61 25.25 25.93 26.06
47.69 46.06 45.87 44.69 45.73 44.56 44.44 44.70 44.53 44.47 44.72 44.94 44.77 44.29 43.37 41.96 39.11 37.04 36.42 34.75 32.12 29.63 26.38 25.76 26.11 28.03 29.66 29.25 28.39 26.75 24.56 23.28 25.36 26.86 26.00 25.77 25.58 24.87 24.69 24.14 23.74 23.56 23.30 23.32
44.23 44.20 44.97 44.21 44.11 43.33 43.37 44.32 43.83 42.97 42.49 41.63 39.83 40.19 37.22 33.34 31.20 29.19 27.19 26.36 25.59 25.09 25.14 24.32 24.17 25.57 26.47 27.22 27.14 27.00 26.34 23.44 21.09 25.03 24.40 23.86 23.55 23.22 22.62 22.45 21.90 21.65 21.66 21.70
45.31 46.14 46.00 45.58 44.99 43.21 41.99 41.60 40.82 39.52 37.55 34.63 32.26 30.54 29.42 28.33 25.77 24.23 23.50 24.01 23.66 23.02 23.29 23.35 23.07 23.21 23.66 24.00 24.46 23.78 23.46 22.86 22.80 22.72 22.91 22.17 20.66 21.13 21.18 20.59 19.98 19.72 20.37 20.58
41.27 41.84 42.10 42.69 42.76 40.81 38.37 36.00 34.15 32.37 31.15 30.42 29.09 27.21 26.15 25.44 24.60 23.55 23.35 21.81 21.02 19.89 20.23 21.64 21.75 21.71 20.51 19.93 22.15 22.27 22.05 21.73 21.23 21.20 20.57 17.36 19.67 19.95 19.40 19.25 18.47 18.38 18.47 18.02
32.62 32.39 32.11 31.99 32.32 31.96 30.30 30.74 30.69 29.44 28.79 27.70 26.65 25.35 24.09 23.81 23.74 23.59 24.90 23.66 23.07 21.08 21.59 20.95 21.24 20.21 19.16 18.10 19.13 20.45 20.66 20.81 19.43 19.46 19.35 16.91 18.61 17.54 17.98 16.41 16.25 16.82 17.03 17.18
30.18 30.12 29.40 29.33 29.22 30.18 30.53 30.74 29.80 29.00 28.96 27.97 25.83 24.48 24.28 24.72 24.08 23.33 21.45 18.67 20.14 21.38 20.66 21.01 21.27 20.51 19.83 19.71 20.41 20.68 20.18 19.38 18.44 18.22 17.69 17.27 16.71 17.06 16.47 16.20 15.86 15.70 15.61 15.37
31.20 29.92 29.54 29.48 28.94 28.53 29.30 29.43 28.44 27.23 25.72 24.64 24.12 24.07 23.64 22.83 23.00 23.64 24.19 21.15 20.69 21.36 21.68 21.06 19.65 16.84 17.60 16.15 19.67 19.73 18.28 17.30 16.55 17.13 16.75 16.39 15.63 14.90 14.55 14.45 13.74 14.06 13.33 13.15
29.58 28.66 28.29 27.66 27.45 27.30 27.63 27.14 26.70 26.23 25.36 25.39 24.94 24.95 24.35 24.16 23.61 21.37 19.30 21.76 21.98 22.04 22.41 20.82 16.04 15.06 13.21 18.78 19.03 17.96 17.21 16.26 15.71 15.42 15.16 15.06 14.43 13.70 13.27 12.76 12.34 11.68 11.49 11.25
28.98 28.75 28.49 28.37 27.65 26.31 24.18 24.78 24.67 24.47 24.68 24.83 24.92 25.20 24.66 23.42 22.53 23.11 23.27 21.73 20.30 21.47 21.54 18.80 16.76 12.78 12.18 17.86 17.29 16.44 15.53 15.48 15.11 15.22 14.85 12.86 13.36 13.32 12.42 11.54 10.75 11.35 10.15 9.45
27.91 27.90 27.55 26.13 24.87 24.85 24.88 25.08 24.45 24.16 23.85 23.94 24.22 24.38 24.67 25.45 25.39 23.76 23.12 20.65 18.91 20.01 19.82 14.26 12.85 11.53 15.88 16.30 15.88 14.85 14.36 14.69 14.86 13.13 12.03 12.08 11.89 11.54 11.23 11.11 9.86 9.37 8.01 7.04
24.60 23.82 24.49 25.07 25.60 25.90 26.10 25.45 24.11 25.36 25.00 23.61 23.54 24.15 23.74 23.43 22.74 22.02 21.07 19.75 18.84 17.01 18.33 18.67 16.91 15.71 15.78 15.60 15.04 13.73 13.65 13.19 13.10 12.71 11.49 10.70 10.96 10.49 10.08 9.39 8.77 7.80 7.03 6.89
22.64 23.20 22.76 22.09 22.65 22.50 22.84 22.79 21.81 20.67 22.03 24.13 21.71 22.44 22.08 21.77 20.41 19.80 19.08 19.37 18.42 17.54 17.49 17.15 16.37 15.15 13.80 13.11 12.52 13.40 13.26 12.62 11.84 10.93 9.70 9.15 9.11 9.26 8.55 8.04 7.23 6.21 5.05 4.07

GFSNGP_sfc_wetblb_054.txt.gz
Wetbulb
44.70 45.16 45.84 45.35 44.68 45.22 44.32 44.76 41.17 43.63 44.10 46.94 49.35 50.21 51.69 52.72 53.25 52.92 53.03 54.71 56.04 58.12 60.18 61.15 61.55 62.19 62.70 61.82 60.11 58.86 57.85 56.23 54.68 54.27 53.33 51.98 50.41 48.93 47.88 47.06 46.22 44.98 44.12 43.41
42.32 44.55 44.40 42.79 45.16 45.09 45.03 44.88 44.66 45.43 45.29 50.37 51.19 51.51 51.83 51.86 52.94 52.35 52.76 53.22 54.72 57.49 59.27 60.37 61.09 61.45 60.72 59.35 58.37 57.86 55.97 54.75 54.76 53.70 53.28 52.12 49.90 48.53 47.34 45.98 45.06 44.60 44.14 43.37
37.55 43.58 42.60 36.72 43.43 44.67 45.20 46.73 45.72 42.41 47.09 50.36 49.40 49.99 50.80 51.35 52.08 52.42 52.77 53.79 55.56 57.48 59.33 60.72 61.26 60.53 59.52 59.13 58.80 56.48 54.74 54.67 53.80 51.96 50.40 49.01 48.83 47.71 46.24 45.86 45.78 45.25 44.29 43.87
37.89 38.33 30.88 43.09 48.32 47.46 45.56 46.40 47.54 47.08 48.03 49.26 50.03 51.31 52.04 53.58 53.71 53.34 54.29 55.52 56.83 58.39 58.55 58.94 59.05 58.39 57.53 56.85 55.08 53.61 52.11 50.99 50.36 49.14 47.89 47.84 47.45 46.15 45.28 44.97 44.57 44.62 43.71 42.95
36.31 36.01 40.66 43.42 45.92 45.70 44.52 44.09 48.57 47.68 48.77 49.61 50.76 52.37 52.82 53.79 55.21 55.36 55.64 56.23 56.43 56.75 57.18 57.29 56.00 55.76 54.82 53.36 52.07 50.73 49.47 49.09 49.06 48.35 47.60 46.73 45.72 44.97 44.49 43.85 42.69 43.45 43.79 42.60
40.51 33.83 30.93 42.67 47.67 49.98 49.63 39.82 49.67 49.66 50.06 50.14 51.07 45.79 48.87 53.17 54.47 54.96 55.22 54.78 54.33 54.95 54.80 54.21 54.05 53.96 52.10 50.61 49.78 48.82 48.63 48.47 48.78 48.33 46.95 44.48 44.05 43.38 42.78 43.32 44.17 43.51 41.83 40.70
37.75 36.34 40.79 46.91 48.60 49.86 39.15 40.88 51.44 51.71 51.61 52.34 49.68 51.40 53.48 53.65 54.03 54.37 53.80 53.23 53.50 53.27 52.30 52.36 52.65 51.82 49.83 49.15 47.88 48.64 48.87 48.31 46.90 45.81 44.84 44.10 42.29 42.30 42.74 41.31 40.72 37.61 36.83 37.41
38.92 36.39 34.03 50.19 48.83 43.49 47.76 51.12 53.91 53.21 54.06 54.42 53.54 53.57 53.07 53.10 52.56 52.42 51.78 51.56 51.96 51.17 50.94 51.47 51.58 50.42 48.69 47.43 48.36 48.16 46.92 45.59 44.82 43.77 43.12 43.12 42.15 40.45 39.88 38.95 36.95 35.53 34.32 33.89
41.89 42.23 49.84 49.90 50.01 52.68 53.15 53.11 53.86 53.99 54.46 54.73 53.32 52.28 52.27 51.26 51.07 50.70 50.65 50.17 51.26 50.33 49.87 50.37 50.60 49.92 47.51 47.08 47.23 45.85 44.25 42.89 42.74 42.51 42.08 41.28 39.38 38.19 37.65 36.97 33.39 30.95 30.23 30.23
43.72 45.90 45.97 50.09 52.00 52.67 53.56 53.12 54.43 54.98 55.35 55.94 52.68 52.06 51.09 50.70 50.13 49.78 49.77 49.30 50.27 49.20 48.25 48.08 49.24 48.90 47.24 46.31 45.44 44.41 42.26 40.71 40.00 38.96 38.47 38.27 37.19 35.44 33.71 30.75 29.66 29.33 29.18 27.75
44.72 46.95 47.61 48.13 50.06 51.91 52.93 54.28 54.44 54.66 54.18 53.38 53.74 52.08 50.92 49.93 49.43 49.21 49.11 49.21 49.12 47.95 47.19 46.98 47.32 45.98 45.90 45.15 44.22 41.49 40.05 39.23 37.69 36.61 35.42 33.61 30.18 30.66 28.20 26.16 26.70 27.49 26.00 26.39
42.55 48.44 48.56 49.72 51.40 54.63 51.32 52.08 53.90 52.81 52.83 53.22 54.09 52.27 51.42 49.78 49.38 49.20 48.76 48.16 47.17 46.75 45.78 44.47 43.68 42.70 42.81 43.03 41.78 39.29 36.81 35.01 32.91 32.19 31.50 32.52 29.71 27.71 28.69 26.70 26.33 25.72 24.85 24.17
46.66 49.57 50.59 51.77 50.71 51.53 49.95 50.88 53.77 53.91 53.31 51.88 53.75 52.72 51.25 49.20 48.98 46.03 47.93 46.92 45.64 43.99 42.44 41.24 40.32 39.69 39.72 39.98 38.44 34.94 31.41 32.05 30.72 31.15 30.56 29.79 29.28 29.11 24.42 25.35 26.55 25.86 25.04 24.09
51.69 50.67 49.48 49.96 48.11 48.44 48.24 50.31 51.54 53.03 52.53 52.31 52.64 51.66 50.07 48.52 47.20 47.03 45.70 45.54 43.95 41.24 39.71 37.88 34.76 32.60 33.81 32.71 30.97 29.33 29.07 30.69 30.49 30.05 29.37 29.35 28.11 27.70 27.69 26.42 24.93 24.18 24.97 24.61
49.51 51.41 49.38 48.94 48.18 48.27 48.01 48.36 47.43 49.42 48.97 49.77 50.37 48.70 48.09 46.24 45.05 44.58 43.72 41.43 39.55 37.20 34.47 32.45 31.04 30.33 31.95 31.84 30.19 29.59 28.82 28.37 28.40 26.95 25.57 25.45 26.30 26.35 25.97 25.36 25.14 24.61 24.75 23.88
46.69 46.83 46.99 46.00 45.75 46.45 44.98 45.05 44.60 44.40 45.38 46.33 45.65 45.65 44.62 43.79 40.21 38.09 37.62 36.02 32.64 28.28 26.69 26.02 26.32 27.83 29.68 27.76 25.74 24.12 24.36 24.60 26.74 25.88 24.85 24.96 24.98 24.23 24.25 23.78 23.47 23.11 22.23 21.84
43.37 43.19 44.25 44.19 45.92 45.28 44.00 44.99 44.94 44.50 42.67 38.62 35.87 35.07 30.27 27.78 25.95 25.31 25.28 25.43 24.56 24.06 24.28 24.24 23.78 25.28 26.39 26.77 26.62 25.54 23.59 22.05 21.92 24.31 23.87 22.77 22.77 22.72 22.51 21.94 21.40 20.83 20.16 15.78
42.89 42.90 43.22 43.81 44.80 43.98 41.25 40.07 37.31 34.48 32.27 30.75 29.42 27.58 25.65 24.15 22.87 22.47 22.35 22.65 22.04 21.80 22.75 23.22 23.51 23.57 23.33 23.71 23.66 23.49 23.08 22.76 22.78 22.01 22.27 21.58 19.71 20.37 20.58 20.05 19.84 19.13 18.83 19.06
35.42 36.02 36.11 36.21 36.10 34.32 32.68 31.22 30.66 30.54 29.69 28.09 25.74 23.87 23.52 22.77 22.22 21.75 22.12 20.86 19.99 19.21 20.80 22.52 22.45 20.70 20.40 21.24 22.23 22.00 21.55 21.31 20.92 20.42 19.97 17.47 18.82 20.04 19.28 18.92 17.94 17.32 16.68 16.63
30.13 30.40 30.38 29.97 30.35 29.94 28.13 28.04 27.66 26.73 26.52 25.51 24.48 23.19 21.97 22.06 23.13 23.33 23.30 20.92 21.22 20.69 22.41 21.72 20.43 18.93 18.41 18.84 20.84 20.34 20.23 20.06 18.69 19.08 19.38 16.50 17.60 17.99 17.12 16.76 16.63 16.07 15.77 15.53
29.25 29.19 28.67 28.61 28.51 29.05 28.68 28.10 26.95 25.78 25.92 25.64 24.24 23.06 22.47 22.57 22.53 21.80 19.72 17.91 20.27 21.57 21.11 21.05 20.48 19.57 19.06 18.98 19.88 20.50 19.76 18.93 18.51 18.24 17.84 17.77 17.17 16.62 16.46 15.77 15.36 14.38 14.00 13.97
28.60 27.64 27.16 26.90 26.43 26.02 26.77 26.34 25.58 24.62 24.11 23.76 23.44 23.23 22.80 22.87 22.34 21.94 21.88 19.49 20.55 21.13 21.04 19.76 17.64 16.68 16.59 16.67 19.37 19.76 18.57 17.63 16.91 17.03 16.63 16.46 15.71 14.56 13.93 13.97 12.96 12.60 12.40 9.60
27.89 27.30 26.50 25.08 24.37 24.43 25.22 25.27 25.29 25.05 24.35 24.37 24.03 24.02 23.55 23.98 23.36 20.45 18.31 22.21 22.70 22.31 20.38 17.34 15.76 15.35 14.55 18.29 18.81 18.27 17.59 16.27 16.01 15.99 15.33 15.06 14.61 13.39 12.31 11.91 11.06 10.17 8.78 9.58
26.94 26.67 26.31 26.79 26.00 24.64 23.18 24.28 24.56 24.72 24.35 24.87 25.18 25.77 24.49 22.02 21.92 22.96 22.36 21.13 20.70 19.77 18.53 17.38 14.92 13.53 11.47 17.79 17.47 16.70 15.53 15.07 14.51 14.61 14.46 12.85 13.37 12.90 12.40 10.77 9.36 9.27 8.31 6.62
26.32 26.85 27.10 25.98 24.80 24.45 24.79 25.24 24.90 24.80 24.24 23.66 23.63 23.70 23.20 24.70 22.99 21.95 20.75 19.69 19.80 20.47 15.87 13.25 12.75 12.16 16.22 16.44 15.59 14.10 14.15 13.93 13.59 11.64 10.94 10.53 10.60 10.05 9.80 9.91 8.83 8.27 6.26 3.57
23.71 22.89 22.93 23.20 23.93 24.74 24.50 23.73 22.53 24.28 23.40 22.03 22.44 23.05 22.95 22.92 21.96 20.69 19.82 18.74 18.28 17.38 17.34 17.76 15.32 14.42 15.02 13.97 12.64 12.56 12.98 13.15 12.24 11.91 10.20 9.31 8.66 7.86 7.92 8.39 7.15 6.96 5.84 4.58
21.21 21.82 21.17 20.93 21.69 21.16 20.47 20.48 19.88 18.68 20.12 22.15 20.02 20.90 21.16 20.87 19.94 19.49 19.24 18.31 17.62 17.06 16.56 15.89 16.09 13.94 13.71 11.88 11.86 11.76 11.36 11.27 10.74 9.80 8.54 8.10 7.53 6.98 6.38 6.14 5.36 4.28 2.73 1.66

GFSNGP_sfc_wetblb_060.txt.gz
Wetbulb
40.23 40.90 41.91 41.54 41.59 41.43 39.77 39.52 35.40 38.07 40.06 43.65 45.41 46.92 47.06 46.98 47.17 47.72 47.35 50.49 51.81 52.30 52.32 54.76 56.66 56.88 58.07 58.96 59.16 59.68 59.42 59.24 58.40 57.96 55.55 53.46 52.62 50.91 49.39 48.93 47.93 47.00 46.44 45.71
36.93 40.94 41.28 39.92 41.65 42.94 42.73 40.68 40.20 40.81 40.57 47.14 47.57 47.04 46.87 47.47 48.15 47.48 46.90 50.31 52.49 53.31 53.81 56.57 56.42 55.36 55.21 55.33 58.19 59.44 58.29 56.43 53.99 53.09 51.54 50.33 49.21 48.92 47.48 46.40 46.48 45.19 44.59 44.46
30.86 37.99 38.98 32.84 39.32 41.38 41.77 42.86 41.57 37.56 42.34 47.25 46.88 47.63 47.08 46.97 48.09 47.62 47.53 47.92 51.80 53.42 54.88 56.87 55.91 55.20 54.22 53.91 55.21 55.32 54.41 53.32 51.99 51.13 49.05 48.23 47.84 46.69 45.13 44.48 44.46 44.55 42.94 42.62
31.29 31.81 27.74 38.93 43.81 43.68 41.87 43.58 44.51 42.90 43.35 46.49 46.40 48.40 46.95 48.63 48.84 47.14 47.27 46.95 49.49 54.22 54.83 56.70 55.85 54.46 53.68 53.54 53.22 52.94 52.68 51.64 50.49 49.42 47.40 46.69 46.09 44.89 45.09 44.25 42.18 41.70 41.24 40.30
30.80 30.52 35.42 39.02 41.68 41.15 40.60 40.67 44.98 44.12 44.40 44.86 45.43 44.68 42.95 47.09 47.77 47.64 47.23 48.13 50.35 53.14 54.69 56.03 55.28 54.27 53.14 52.37 52.08 50.96 49.89 49.59 49.13 48.09 46.62 46.09 44.19 42.98 41.40 40.43 40.32 40.68 41.13 40.03
31.27 28.03 26.40 36.21 43.14 45.93 45.39 34.50 44.31 45.25 45.34 45.39 44.86 36.75 40.83 46.65 48.52 49.02 50.30 52.33 53.15 52.23 52.55 52.99 53.10 52.71 51.85 49.82 48.79 48.19 48.20 47.39 47.42 46.83 45.21 43.24 41.61 40.85 40.99 41.36 41.59 41.52 39.42 37.52
30.92 30.56 32.80 41.37 44.84 46.46 35.53 35.54 45.34 47.07 46.51 45.82 43.39 43.09 45.58 48.06 48.70 49.46 50.34 51.03 51.10 52.42 52.12 49.85 50.10 49.77 47.75 47.15 46.27 46.95 46.78 45.93 44.28 43.59 42.69 42.28 41.49 41.65 40.95 38.21 36.15 34.14 31.63 30.59
31.78 30.70 27.13 44.57 44.98 38.13 40.98 45.30 47.23 47.48 46.24 44.60 46.06 45.11 45.99 48.76 48.68 48.43 48.64 48.57 49.80 49.48 48.62 48.61 48.91 47.83 45.74 44.78 45.52 45.37 45.20 43.14 42.46 42.21 42.34 41.99 40.46 39.85 36.73 34.52 31.99 29.80 28.01 26.16
34.71 33.94 43.11 45.27 45.53 48.11 47.13 45.47 46.80 46.32 47.66 48.22 46.15 45.43 46.68 46.73 47.44 47.97 47.98 46.76 47.53 46.98 45.17 45.13 46.15 46.35 43.39 42.36 43.66 43.02 42.32 41.48 41.31 41.18 40.42 39.40 37.60 35.02 33.62 32.91 30.82 28.96 27.05 24.93
38.02 41.40 43.39 44.72 46.56 48.20 47.84 47.01 48.94 47.81 47.78 47.89 47.50 47.17 46.03 45.82 45.51 45.53 45.75 45.66 44.60 45.13 43.82 42.32 43.68 44.17 43.05 42.92 42.80 41.81 40.57 39.60 39.09 36.29 33.07 32.27 31.87 31.80 30.43 28.33 28.98 28.37 26.90 24.92
38.55 41.60 43.38 44.27 46.29 46.76 47.44 49.16 48.69 48.70 47.23 46.77 47.19 47.43 47.17 46.03 45.24 44.87 44.82 44.84 45.00 43.72 42.77 41.71 42.61 42.13 42.38 42.04 41.94 39.98 37.82 34.05 31.38 31.12 29.21 26.59 25.11 25.52 26.32 26.77 27.70 27.37 26.20 26.18
35.82 42.10 40.94 42.29 45.95 48.54 46.35 46.81 47.93 47.61 47.37 47.84 46.68 47.66 46.83 45.43 45.32 45.60 44.03 44.34 42.83 41.32 40.54 39.84 40.10 40.06 39.94 40.38 38.57 35.08 31.21 29.60 28.53 27.30 26.73 24.83 23.89 24.36 28.46 28.01 28.71 28.25 27.24 25.38
39.81 42.73 43.26 44.24 44.52 45.82 45.85 45.64 47.38 47.32 47.83 46.79 48.90 48.37 46.16 44.39 43.81 41.11 43.53 41.92 39.74 34.18 33.15 32.51 32.41 32.77 34.66 35.52 34.44 31.77 29.20 28.93 28.04 27.73 26.74 25.60 25.50 24.87 23.31 25.84 27.39 26.77 26.75 26.25
41.61 43.41 42.49 41.88 41.36 43.68 43.93 44.62 45.31 45.24 44.78 43.88 45.66 46.99 44.26 42.86 42.10 40.54 36.71 32.84 31.78 30.71 29.59 28.43 28.54 28.47 30.99 31.01 29.59 28.37 27.89 28.10 27.08 26.89 26.87 27.05 26.38 25.45 25.32 24.48 23.40 23.78 25.49 24.79
39.18 41.93 41.73 43.00 42.73 41.87 42.57 42.49 39.68 36.07 34.48 33.37 35.56 40.93 40.75 37.20 32.85 31.03 30.28 29.21 28.16 27.02 26.73 26.48 26.29 26.66 28.89 29.26 27.78 26.95 26.48 26.22 26.55 26.30 26.21 26.05 25.98 25.55 25.66 25.21 24.76 24.42 24.58 23.80
39.97 39.40 40.08 39.57 37.54 36.94 37.87 36.67 33.22 30.98 30.18 28.82 27.97 26.95 27.00 26.60 25.74 25.23 25.61 26.05 24.68 23.77 24.82 24.55 25.03 26.79 28.34 28.37 27.63 26.92 26.24 26.06 25.83 25.28 24.85 24.55 24.60 24.27 24.03 23.69 22.91 21.86 21.63 19.45
35.96 35.10 36.37 37.26 34.11 32.65 31.31 30.83 29.54 28.05 27.15 26.36 25.83 25.66 25.07 23.99 23.02 22.22 22.53 23.60 23.37 23.36 24.13 24.03 23.99 26.10 25.71 25.12 24.17 24.01 24.53 24.69 24.26 23.92 23.22 22.71 22.40 21.85 21.65 20.82 20.24 19.84 18.15 16.99
34.10 33.98 34.67 34.35 33.56 31.27 28.94 27.83 26.71 25.74 24.52 24.31 23.98 23.31 22.40 21.57 20.42 20.40 20.47 20.68 20.11 19.60 20.76 22.29 23.54 23.69 24.03 24.18 24.04 23.63 23.12 22.62 22.46 22.18 21.33 19.68 19.44 20.31 19.54 19.11 18.77 17.58 17.07 17.09
29.42 28.54 28.54 28.20 27.78 26.59 25.35 24.31 24.14 23.94 23.47 23.04 21.67 20.45 20.67 20.20 19.92 19.69 20.00 18.68 17.63 16.67 18.19 21.10 22.91 22.20 21.78 22.30 21.91 21.70 20.87 20.66 20.42 20.18 19.29 18.34 17.97 18.59 16.82 16.53 16.12 15.67 15.79 15.45
25.22 25.67 25.27 25.07 25.84 25.14 23.60 24.07 23.78 22.48 22.45 21.74 20.85 19.56 18.37 18.79 19.11 18.70 18.55 17.12 18.41 18.86 20.29 20.27 20.27 19.90 20.48 20.71 21.02 20.00 19.18 18.41 18.45 17.69 16.72 16.33 15.90 14.66 14.64 15.42 14.71 13.34 11.79 11.60
23.50 23.49 22.97 22.74 22.44 23.12 23.14 23.35 22.48 21.27 21.75 21.44 19.69 18.74 18.40 19.18 19.49 19.08 17.47 15.63 17.78 18.68 18.37 18.06 18.21 18.25 19.55 20.27 19.41 18.16 17.34 16.28 15.19 14.71 13.67 13.04 13.02 12.63 11.26 10.02 9.53 8.14 7.26 6.08
22.92 22.54 22.42 22.74 22.45 22.21 23.32 23.64 23.17 22.32 21.44 20.54 20.02 19.45 18.45 18.02 18.15 18.31 19.12 16.62 17.42 17.00 16.58 15.92 15.93 16.43 17.90 17.94 17.38 15.60 14.82 14.01 13.32 13.00 11.29 10.40 9.21 7.67 5.92 3.59 2.19 2.38 -0.47 -4.76
23.64 23.45 23.04 22.48 21.94 22.05 22.43 22.06 21.44 21.56 20.70 20.18 19.82 19.85 19.39 19.37 19.55 17.62 13.86 17.37 16.90 15.54 14.86 14.06 14.73 15.18 15.16 14.03 12.61 11.26 10.13 9.45 8.59 6.33 4.26 2.88 1.91 1.20 0.66 2.43 2.72 1.32 -4.40 -2.43
23.09 24.01 23.80 24.47 23.63 21.94 19.87 20.97 21.41 20.98 20.25 20.40 19.81 19.82 18.81 16.10 16.37 17.46 16.75 15.61 14.21 13.28 13.03 13.54 13.14 12.70 11.00 9.93 8.17 5.99 5.56 4.19 1.02 -4.40 -3.13 -4.76 -9.11 -9.48 -9.66 -12.38 -9.11 -8.75 -3.68 -2.80
19.73 19.44 19.94 19.73 18.75 18.75 20.75 20.51 19.74 19.22 18.73 18.39 18.42 18.64 18.38 18.17 15.25 15.85 14.62 14.00 13.51 10.87 9.08 6.83 5.83 3.27 1.23 -0.61 -0.91 -1.53 -3.68 -4.40 -4.22 -5.85 -8.39 -12.20 -14.19 -15.28 -15.64 -13.10 -11.11 -8.57 -9.48 -11.11
18.16 16.78 16.54 16.86 16.56 17.06 17.24 17.69 16.34 16.94 16.14 14.15 14.26 14.04 14.82 15.63 14.75 13.46 12.41 10.98 11.17 9.33 9.55 9.25 7.31 3.84 1.01 0.71 -3.33 -8.39 -9.84 -6.58 -8.21 -8.93 -13.65 -14.92 -15.82 -14.19 -14.37 -13.28 -14.73 -15.82 -17.27 -18.90
14.47 15.65 14.95 13.31 13.19 13.45 13.16 12.54 11.39 11.57 10.42 7.80 7.70 9.98 10.09 10.54 10.69 9.96 7.04 5.46 2.77 1.79 0.55 -2.41 -2.33 -2.82 -4.94 -8.93 -8.57 -10.38 -10.20 -9.66 -8.03 -9.30 -14.19 -17.27 -17.27 -16.37 -16.19 -17.45 -19.45 -21.26 -21.99 -19.63

GFSNGP_sfc_wetblb_063.txt.gz
Wetbulb
37.26 38.83 39.89 39.28 39.79 39.78 38.42 38.37 34.17 36.73 37.59 41.90 43.59 44.93 45.53 46.47 46.46 46.35 45.50 47.96 49.08 49.57 50.27 52.19 54.30 55.31 55.88 56.06 56.54 57.06 57.28 57.62 57.79 58.26 58.71 58.76 58.01 57.26 53.91 54.96 54.50 53.07 49.19 47.02
33.07 38.79 38.15 37.53 39.36 40.15 39.20 38.64 38.06 39.49 37.64 43.92 46.10 46.64 45.30 46.25 46.65 46.13 46.05 46.82 49.65 50.76 51.35 52.46 54.76 54.96 54.28 55.28 55.66 56.89 57.39 57.37 57.96 58.05 57.33 56.86 55.36 51.69 49.74 48.63 49.36 47.19 46.45 45.46
30.00 35.78 35.17 31.19 37.13 39.22 40.17 42.76 39.79 36.15 40.35 45.05 44.51 45.11 46.37 46.82 46.59 46.49 46.57 46.29 48.82 50.32 52.53 54.07 56.06 55.17 54.88 56.09 56.70 56.44 56.89 57.40 57.77 56.25 53.62 51.83 50.17 49.46 47.49 47.33 47.48 45.76 44.44 44.61
28.87 31.91 25.01 36.75 40.87 42.05 40.79 42.32 43.20 41.73 42.90 45.03 45.55 46.46 48.15 47.00 46.32 46.91 47.89 47.31 47.89 50.02 52.26 53.97 53.82 52.93 54.68 56.56 56.98 57.14 56.83 55.31 53.74 52.17 50.91 50.00 48.90 46.88 46.07 45.83 44.36 43.45 43.99 44.04
26.68 27.92 32.49 34.57 39.34 39.77 38.75 39.05 43.77 43.08 44.24 45.25 45.69 42.75 42.05 45.62 45.43 46.77 47.52 48.23 47.19 49.45 52.05 53.32 52.79 53.13 54.47 54.60 54.75 54.08 52.53 51.77 51.08 49.94 48.47 47.21 45.68 45.24 44.99 42.87 42.77 42.37 42.95 41.24
31.06 26.61 23.01 31.52 40.25 43.76 44.01 33.59 43.06 44.64 45.62 46.02 44.87 36.16 39.64 44.93 45.70 46.00 45.71 47.13 49.13 51.76 52.82 53.48 52.11 52.55 52.59 52.49 52.53 51.99 51.26 50.69 49.94 48.55 46.90 44.72 44.14 44.38 42.45 42.71 42.35 41.20 39.42 39.71
30.01 27.08 30.94 38.34 42.23 45.49 34.48 34.12 45.13 45.90 44.87 42.86 41.80 44.55 45.46 45.29 46.95 47.68 48.80 50.28 50.96 52.02 52.70 52.41 52.02 52.06 49.43 49.51 49.77 49.70 48.85 48.20 46.81 46.30 44.72 43.76 42.09 41.78 41.41 40.20 37.14 33.74 32.16 33.47
28.79 27.00 25.60 42.89 40.93 35.84 40.59 44.03 45.91 45.99 45.96 44.40 45.25 44.89 44.93 45.62 46.53 48.27 48.74 49.79 50.28 50.06 47.94 48.45 50.15 49.52 46.54 45.38 46.01 46.14 45.35 44.34 43.77 43.11 42.43 42.27 40.88 38.10 36.06 34.10 31.92 29.73 28.85 27.79
31.88 32.51 40.94 42.64 41.96 43.88 44.97 45.75 45.52 45.53 46.93 44.88 44.79 45.50 45.74 45.03 46.10 47.37 47.97 48.04 48.42 47.31 46.05 46.06 47.13 47.60 45.10 42.47 44.15 43.14 42.95 42.44 41.94 41.39 40.54 39.34 36.57 34.85 34.09 32.26 29.87 28.78 27.87 25.99
35.21 38.36 40.11 42.25 44.74 46.81 48.06 47.53 47.39 47.13 47.10 45.85 45.07 45.69 45.70 45.18 45.75 45.50 44.99 44.69 45.28 46.10 44.99 42.62 43.38 43.54 42.76 42.87 42.92 42.25 40.97 40.23 38.29 35.08 34.33 34.94 34.95 34.10 32.41 31.19 29.67 27.45 25.92 23.65
35.42 39.66 41.67 43.60 44.37 46.02 46.03 47.79 48.12 48.67 47.93 47.59 46.02 46.28 46.44 46.27 45.02 44.80 44.78 44.71 44.99 44.34 42.66 41.06 41.84 41.72 42.04 42.13 41.74 39.91 36.30 34.22 32.71 31.41 29.34 27.77 27.74 28.96 28.73 29.33 30.99 28.95 26.96 24.57
31.12 39.71 38.98 41.62 44.32 45.35 45.67 44.95 46.80 46.71 46.28 47.35 47.48 46.82 45.56 46.01 45.15 44.08 43.72 42.87 41.72 41.23 40.65 40.27 40.46 40.37 40.91 41.36 39.08 34.79 31.68 30.89 30.05 28.38 27.57 27.06 25.95 25.28 29.03 29.30 29.75 29.36 28.62 26.25
38.32 40.08 40.23 42.58 43.71 43.74 43.78 43.88 45.02 44.22 42.01 42.65 43.22 46.44 46.84 43.21 42.12 40.48 40.88 37.97 35.86 34.54 34.12 34.10 33.61 32.90 34.50 35.36 34.65 32.57 29.86 29.21 27.67 26.94 26.37 25.69 25.55 24.70 22.80 26.18 27.77 27.20 26.81 26.13
40.41 40.21 41.15 42.22 40.60 41.69 42.14 41.33 39.34 36.59 34.80 32.97 36.30 41.59 41.62 40.57 36.81 33.69 31.30 30.89 30.67 30.01 29.25 29.35 28.94 28.24 30.32 31.36 30.46 29.33 28.97 28.71 27.72 26.97 26.44 26.12 25.74 26.02 26.05 24.46 22.71 23.47 26.27 25.73
37.15 40.74 40.10 40.62 38.44 36.87 37.18 36.43 32.91 30.63 29.11 28.18 27.82 29.09 29.75 27.65 26.71 26.61 27.36 27.57 27.36 26.93 27.07 27.40 26.96 27.19 28.89 29.16 28.53 28.20 27.70 27.32 27.40 27.12 27.12 26.97 26.84 26.32 25.90 25.54 24.81 23.86 23.87 24.30
35.39 38.94 39.03 35.82 34.30 33.75 31.93 31.80 28.79 26.67 26.58 25.60 24.74 24.25 24.23 24.40 24.37 24.63 25.34 26.17 25.01 24.17 25.07 24.89 25.24 27.01 28.47 28.45 27.59 26.90 26.37 26.15 26.08 25.53 25.02 24.80 24.81 24.42 24.04 23.50 22.94 22.67 21.93 20.06
33.17 33.33 33.83 35.32 32.05 29.82 28.49 28.34 27.17 25.92 25.53 24.83 23.88 23.53 22.98 22.37 21.59 21.21 21.39 22.06 21.93 21.93 22.92 23.03 22.92 25.02 25.58 25.92 25.09 24.55 24.14 23.90 23.67 23.32 22.42 22.13 22.00 21.45 21.28 20.64 19.93 19.38 17.45 18.06
31.86 30.26 29.96 29.79 28.82 27.25 25.86 25.64 25.14 24.74 23.75 23.61 23.11 21.59 20.67 19.94 19.29 19.38 19.67 20.18 19.75 19.56 20.77 21.75 22.62 22.95 23.13 23.50 23.60 23.00 22.43 22.22 21.22 20.05 19.99 19.25 19.78 19.74 19.16 18.75 18.32 16.91 16.88 16.93
26.54 25.96 25.99 25.23 25.07 24.04 23.18 22.51 22.57 22.71 22.02 21.51 20.11 18.86 19.08 18.74 18.51 18.43 18.66 17.68 16.68 16.03 17.81 20.93 22.53 21.52 21.35 21.79 21.34 20.88 20.45 19.73 19.24 18.66 18.20 17.99 17.15 16.88 16.10 16.18 15.63 15.29 15.43 14.52
23.88 24.01 23.78 23.26 23.86 23.11 21.58 21.95 21.68 20.82 21.36 20.52 19.56 18.22 16.88 17.16 17.64 16.87 16.54 14.77 16.09 17.30 19.25 19.61 20.34 19.80 19.48 19.50 19.65 18.60 17.48 16.84 16.86 16.16 15.90 15.13 14.34 13.49 13.82 13.54 13.04 11.86 11.21 10.33
21.87 21.96 21.63 21.33 21.07 21.59 21.35 21.35 20.02 18.97 19.32 19.23 17.86 17.26 17.12 17.89 17.82 17.02 14.70 12.73 15.43 17.26 17.75 18.10 18.64 18.09 18.51 18.02 17.36 16.51 15.65 14.76 13.86 12.63 11.95 11.31 10.56 9.64 8.30 7.52 7.72 6.48 4.03 1.85
21.94 21.31 20.86 20.58 20.21 19.89 21.16 21.57 21.32 20.38 19.74 19.22 18.91 18.49 17.23 15.64 14.99 14.47 15.32 13.86 15.47 15.79 16.43 16.45 16.09 15.36 15.02 14.89 14.23 13.23 12.70 11.67 10.90 10.23 9.23 8.03 5.76 3.00 0.26 -0.11 -1.68 -2.76 -4.93 -6.74
22.64 22.13 21.79 20.63 19.82 19.77 20.55 20.08 19.74 19.27 18.11 17.78 16.74 16.40 15.94 17.34 16.74 13.18 10.96 15.11 15.48 15.17 15.00 13.63 12.34 11.68 11.25 10.87 10.08 8.86 7.78 6.38 4.88 3.18 1.38 -1.24 -3.88 -6.20 -7.11 -7.11 -7.47 -10.19 -11.64 -7.11
20.63 21.34 21.81 22.49 21.56 19.68 17.71 19.18 19.53 19.12 18.25 18.04 16.92 17.15 16.51 13.49 13.50 14.86 14.41 13.31 12.53 11.61 10.18 9.02 7.26 6.70 6.24 5.52 4.15 2.06 0.50 -1.06 -5.30 -9.10 -6.93 -10.73 -14.72 -14.00 -15.27 -16.72 -14.90 -17.44 -15.99 -13.63
18.42 18.23 18.76 18.23 17.63 17.74 17.99 17.85 16.93 16.41 15.39 15.04 15.55 15.56 15.41 15.46 11.87 12.49 11.40 10.40 10.42 7.76 6.29 3.05 2.42 0.48 -1.46 -3.21 -5.12 -8.74 -11.28 -12.00 -14.36 -14.90 -16.17 -17.08 -19.07 -19.98 -20.16 -18.35 -18.35 -17.80 -18.89 -20.16
15.36 14.55 14.29 15.06 14.98 15.10 15.45 14.39 11.63 12.19 11.78 10.05 10.06 9.68 10.74 11.36 10.59 9.36 6.97 4.77 5.25 3.73 2.24 -3.53 -5.48 -5.87 -7.29 -8.56 -14.18 -15.63 -14.00 -7.86 -13.09 -14.90 -17.98 -19.07 -19.80 -18.53 -19.80 -19.07 -21.07 -21.43 -23.42 -24.69
12.65 12.80 12.19 11.08 11.32 11.03 10.81 10.08 8.22 6.88 5.06 1.50 4.59 6.89 8.35 7.01 3.82 2.76 -2.62 -3.22 -5.34 -6.41 -9.28 -11.64 -12.18 -10.39 -12.92 -16.53 -14.90 -14.72 -14.18 -14.72 -15.99 -16.35 -21.79 -21.61 -20.70 -22.15 -22.52 -22.88 -24.51 -25.96 -26.69 -25.78

GFSNGP_sfc_wetblb_066.txt.gz
Wetbulb
38.36 38.13 38.25 36.77 35.48 36.39 36.78 36.43 32.96 34.35 36.07 39.44 42.17 43.70 44.89 45.97 45.36 45.46 45.33 44.67 45.90 46.75 50.25 52.47 53.12 53.77 54.36 54.18 53.91 54.22 53.70 54.21 54.05 54.99 55.04 55.11 55.23 55.80 55.47 57.33 57.90 57.81 55.58 52.08
32.65 37.30 37.26 34.57 36.38 37.14 38.08 37.79 37.24 36.67 37.00 42.62 44.32 44.65 43.79 44.96 45.35 45.04 45.78 46.25 46.25 48.09 48.48 50.24 52.56 53.43 53.89 54.37 54.48 54.76 54.45 54.46 55.54 55.89 56.15 56.11 56.78 57.27 56.92 56.77 56.66 54.77 52.48 51.86
27.50 34.15 34.33 28.32 34.74 34.34 35.57 38.48 38.42 34.84 38.91 42.88 42.69 43.68 43.85 45.16 45.16 45.95 46.50 47.47 46.32 48.10 50.30 50.37 50.65 52.66 53.15 53.91 54.45 54.86 54.89 55.27 55.71 56.08 56.35 56.74 57.27 56.10 53.83 53.67 51.61 49.44 48.02 48.09
26.49 28.23 22.88 32.40 40.70 39.58 38.38 38.31 39.02 38.93 41.09 42.76 43.34 45.22 45.88 45.95 45.72 45.85 46.10 46.72 47.79 47.20 49.17 51.17 51.88 52.89 52.57 53.30 53.63 54.35 54.78 55.16 55.57 55.65 55.64 53.05 51.72 51.16 49.24 47.76 48.09 46.98 46.64 44.85
23.49 25.03 29.25 32.40 35.70 37.68 36.66 35.41 40.00 40.40 42.33 43.33 44.69 42.31 41.08 44.10 45.45 46.91 47.38 47.97 47.81 47.65 47.69 49.83 52.54 52.36 53.95 54.10 53.86 53.59 53.59 54.22 54.60 54.66 51.66 50.22 48.63 47.18 45.94 45.52 44.67 43.97 43.66 43.16
29.29 22.97 18.51 28.77 38.96 44.32 43.11 30.75 42.01 43.09 43.30 42.84 43.06 38.11 43.33 45.97 45.08 44.76 44.83 44.35 44.28 45.00 49.31 50.84 51.20 53.72 53.49 54.06 54.46 54.86 54.10 53.01 51.91 51.19 49.42 48.21 46.03 44.78 44.09 43.96 42.07 40.98 40.14 40.00
30.30 28.57 29.03 35.95 41.10 44.79 33.25 29.83 40.87 43.51 43.17 43.29 40.91 41.31 43.84 44.48 45.17 45.12 47.30 47.38 48.40 49.70 49.95 50.55 52.47 53.99 53.44 53.17 52.64 52.13 51.27 49.92 48.60 47.78 45.69 44.86 43.02 42.96 42.25 39.96 37.70 35.35 33.86 34.34
29.17 28.21 24.01 40.46 39.94 35.33 39.89 40.92 41.15 42.49 43.77 43.22 44.70 44.39 44.96 44.57 45.35 47.02 47.90 48.75 49.19 49.13 48.94 51.07 51.67 52.01 51.22 50.12 48.66 48.04 47.27 46.50 45.60 43.69 42.95 42.33 41.13 39.50 37.64 35.32 32.79 31.45 30.20 29.05
30.58 29.24 37.23 40.33 39.84 43.16 42.69 41.53 42.24 44.85 45.79 45.07 44.05 43.91 43.99 44.93 44.54 45.91 47.14 47.67 47.42 46.37 46.21 47.40 47.94 48.24 45.92 44.93 46.08 45.97 44.18 43.00 41.91 41.47 40.56 39.69 37.56 35.76 34.44 33.83 32.51 31.02 29.55 26.86
32.63 35.61 37.89 39.06 41.02 43.28 43.88 44.09 45.86 47.14 46.35 46.67 44.40 45.08 44.61 45.11 44.90 44.64 45.73 45.06 45.97 44.96 43.53 42.66 44.39 44.85 44.15 43.55 44.36 44.20 41.72 39.42 38.98 37.32 36.45 36.59 36.55 35.68 33.44 32.22 31.10 29.94 28.01 25.68
33.36 36.67 38.64 39.90 40.81 42.20 43.10 45.62 47.05 48.41 47.58 45.74 45.75 45.63 45.30 45.89 44.62 43.82 43.84 43.44 43.85 43.00 41.42 41.07 42.67 42.63 44.42 44.05 42.40 39.43 37.12 35.91 34.21 32.80 31.32 29.60 29.58 30.79 31.72 31.93 32.41 30.39 28.55 26.01
31.12 37.62 37.50 38.13 41.09 42.76 41.94 42.85 43.54 44.53 45.56 43.00 40.84 40.50 43.84 44.35 44.50 43.72 41.87 41.41 40.08 39.60 40.29 39.60 39.99 40.17 40.57 40.52 38.57 35.47 32.69 31.79 31.34 30.84 30.12 29.55 28.57 27.64 30.42 30.36 30.42 29.65 28.22 26.22
37.10 40.12 38.56 39.60 40.85 39.50 40.46 39.11 37.73 35.62 34.71 34.52 35.79 36.01 41.11 37.98 35.01 34.79 34.07 32.92 31.64 30.95 31.05 30.67 30.31 30.59 32.84 35.20 35.10 33.52 30.74 29.75 28.93 28.87 28.03 27.00 26.57 25.60 23.20 26.84 29.17 29.18 28.57 27.74
39.11 37.40 37.86 38.64 37.23 35.95 36.15 36.75 34.57 32.09 31.06 28.72 30.11 30.39 28.82 27.77 28.26 27.69 28.26 29.89 29.99 29.02 28.25 27.88 27.83 27.96 30.22 30.82 30.33 29.34 28.75 28.71 27.86 27.19 26.83 26.13 25.60 25.26 25.26 23.96 22.59 23.58 26.59 26.33
35.76 36.20 39.06 38.32 35.42 33.54 33.38 32.43 28.98 27.27 26.58 25.35 25.90 25.30 25.30 24.28 24.53 25.82 27.22 27.33 27.21 26.73 27.02 27.48 27.21 27.59 29.33 29.68 28.76 28.22 27.74 27.36 27.63 27.49 27.41 27.06 26.87 26.32 25.74 24.59 23.27 22.76 23.71 24.46
32.87 34.80 36.67 34.62 32.45 30.87 29.87 28.43 27.04 26.02 25.79 24.20 23.55 23.30 23.06 23.28 22.94 22.87 23.42 23.99 22.64 21.98 23.22 23.34 23.99 25.99 27.69 27.73 26.76 26.03 25.66 25.76 25.89 25.34 24.99 24.78 24.80 24.03 23.67 23.33 23.16 22.63 21.35 19.15
29.74 30.50 29.78 30.93 28.76 26.46 26.13 26.36 25.72 24.86 24.21 23.57 22.85 22.93 22.23 21.46 20.72 20.16 20.34 21.08 20.69 20.50 21.31 21.38 21.64 23.75 24.44 24.81 24.40 23.67 23.08 22.27 22.31 22.13 21.69 21.57 21.44 20.88 20.88 20.20 18.97 17.69 16.87 17.84
29.19 27.90 27.45 27.65 26.44 25.28 24.10 23.97 23.47 22.74 21.42 21.09 20.38 19.74 18.40 17.41 17.00 17.29 18.07 18.87 18.54 18.38 19.82 20.65 21.32 21.47 21.85 22.37 22.30 21.64 20.90 20.35 20.12 19.51 19.83 19.04 18.65 18.56 17.97 17.41 17.04 16.51 16.31 16.05
24.80 24.44 24.53 24.16 24.32 23.28 22.12 21.18 21.15 21.20 20.37 19.61 17.92 16.46 16.59 16.32 16.35 16.45 17.22 16.20 15.76 15.69 17.29 19.65 21.21 19.83 19.89 20.65 20.24 19.74 18.65 17.96 17.67 17.70 17.17 16.39 15.97 16.07 15.12 14.28 13.43 13.10 12.81 12.10
22.69 22.60 22.40 22.01 22.55 21.34 19.91 20.43 20.19 19.43 19.72 18.83 17.67 15.61 14.87 15.16 15.51 15.10 14.98 13.31 15.22 16.82 18.94 18.92 18.68 17.77 17.65 17.84 18.14 17.07 16.40 15.95 15.16 14.41 13.93 12.84 11.40 10.79 11.81 11.66 11.01 9.55 8.03 6.65
20.17 20.35 20.23 20.15 19.70 20.14 19.60 19.65 18.72 17.42 17.92 17.60 15.22 13.93 13.65 14.61 15.26 14.88 12.90 11.54 14.76 16.96 16.70 16.19 16.13 15.59 15.73 15.80 15.44 14.67 13.50 12.17 11.14 10.11 9.43 7.74 6.25 5.73 4.78 3.93 3.08 0.27 -2.23 -4.56
20.77 20.02 19.70 19.66 19.17 18.40 19.34 19.67 19.25 18.39 17.84 17.10 16.39 15.46 14.25 13.33 13.06 12.87 13.87 13.14 14.92 14.70 14.12 13.46 12.99 12.46 12.41 12.80 12.24 10.86 10.58 9.48 8.41 7.54 5.67 3.92 0.83 -3.86 -7.82 -8.18 -9.27 -7.82 -9.99 -9.09
21.14 20.56 20.01 19.09 18.13 18.06 18.64 17.91 17.10 16.68 15.82 15.31 14.06 14.25 13.79 14.28 14.21 11.35 9.50 13.74 13.05 11.34 10.90 9.73 9.27 8.80 8.27 7.68 6.14 4.74 3.68 2.63 1.45 -1.13 -4.60 -8.73 -11.63 -14.35 -13.98 -15.07 -16.70 -15.61 -15.43 -12.17
19.82 20.69 20.17 20.52 19.78 17.85 15.60 16.89 17.19 16.97 16.02 15.83 14.84 14.44 13.58 11.10 10.95 12.64 11.26 8.24 6.51 5.64 5.87 5.13 4.49 3.67 1.93 1.84 -0.24 -3.37 -4.93 -7.09 -9.63 -12.89 -11.63 -15.98 -21.60 -20.33 -20.15 -20.69 -17.25 -21.05 -20.69 -19.42
17.72 17.85 17.87 17.61 16.35 15.63 15.53 15.01 13.87 13.36 13.01 12.61 12.63 12.89 12.68 12.80 9.11 9.18 8.07 6.79 7.29 3.93 0.79 -2.16 -2.75 -4.22 -6.05 -9.99 -11.08 -12.53 -14.35 -15.61 -19.42 -18.70 -19.60 -21.23 -22.87 -23.23 -23.77 -23.05 -23.41 -22.87 -24.14 -25.04
14.73 13.66 13.08 13.36 13.11 12.88 12.15 11.28 8.91 9.85 9.79 7.30 7.27 6.86 6.35 6.97 5.83 4.41 2.21 0.47 0.85 -2.20 -4.50 -9.48 -11.46 -13.09 -14.71 -14.35 -18.88 -18.33 -15.80 -12.41 -17.43 -18.88 -21.96 -21.96 -22.14 -21.60 -23.23 -22.32 -24.86 -25.40 -27.22 -27.94
10.68 11.27 10.92 9.62 9.48 8.89 8.26 7.31 5.15 3.98 1.26 -2.60 2.15 5.29 4.25 1.02 -1.61 -1.20 -6.77 -8.76 -11.99 -12.35 -14.89 -17.43 -16.89 -14.89 -16.88 -19.24 -17.79 -18.70 -18.15 -19.06 -20.51 -20.33 -25.77 -24.68 -24.14 -25.95 -25.95 -26.85 -28.49 -29.39 -30.30 -30.66

GFSNGP_sfc_wetblb_069.txt.gz
Wetbulb
37.98 38.50 38.96 37.72 37.51 37.96 36.10 37.81 34.71 37.78 38.31 41.87 44.75 46.10 47.98 49.31 49.98 48.81 49.25 49.87 49.65 50.92 52.76 55.38 56.30 56.35 56.61 56.45 55.92 56.34 55.36 55.27 55.37 56.59 56.19 56.11 56.15 56.49 56.78 56.91 57.09 57.70 57.68 58.28
34.41 38.22 37.95 35.46 37.77 38.00 38.00 38.58 38.19 38.45 38.82 45.20 47.11 47.34 46.16 47.53 48.25 48.50 49.46 50.35 51.06 50.64 51.50 52.84 54.99 56.25 56.33 56.41 56.34 56.37 55.63 55.19 55.80 56.22 56.18 55.73 55.86 55.90 56.53 56.93 58.03 59.08 58.98 58.05
29.67 34.83 35.37 30.03 34.88 37.08 39.29 39.79 39.49 35.69 40.28 42.68 42.69 44.64 46.24 48.17 49.31 48.68 49.73 50.39 51.02 51.66 52.25 52.72 54.04 55.91 56.46 57.10 57.14 56.26 55.86 55.86 55.95 56.18 56.09 56.69 56.09 56.22 56.87 57.29 58.33 58.64 57.32 55.57
30.20 31.22 23.53 34.88 39.87 40.60 39.10 40.56 42.16 40.90 41.78 45.01 45.40 46.62 47.56 49.29 49.46 49.69 49.77 50.38 51.68 52.39 52.43 53.27 54.82 55.08 57.11 57.36 57.15 56.49 56.19 56.02 56.38 56.78 56.61 57.04 57.26 56.91 56.90 57.43 56.05 54.48 51.75 50.00
29.09 28.11 31.74 34.89 37.66 37.26 37.41 37.55 42.34 42.29 44.23 45.28 46.04 46.18 46.52 48.26 49.02 48.99 50.20 51.21 51.93 52.66 52.59 52.87 53.82 54.71 54.83 55.69 56.55 56.63 56.26 56.64 56.80 57.14 57.07 57.51 57.25 54.65 49.13 48.95 47.34 46.60 46.17 44.51
30.91 25.77 23.27 33.51 39.58 44.69 43.34 33.08 43.24 43.15 43.48 44.41 45.17 40.51 44.20 48.86 48.78 48.10 49.40 48.82 49.13 49.92 49.74 50.46 52.75 55.15 54.96 54.98 55.26 55.56 56.36 57.01 57.67 57.71 57.19 53.54 50.93 47.56 46.13 46.04 43.80 43.16 41.59 41.04
29.95 28.32 32.20 38.77 41.13 45.55 32.64 35.79 43.92 44.07 44.23 44.73 43.04 45.31 48.04 48.67 48.90 49.18 49.58 50.61 52.73 52.14 50.44 52.25 53.87 55.54 55.53 56.07 55.11 55.33 55.22 53.67 52.03 51.55 49.76 47.96 45.03 44.82 43.40 41.45 39.29 37.02 35.20 35.73
30.66 28.38 25.52 41.12 41.73 37.16 40.82 44.80 44.35 45.30 45.63 45.73 46.54 46.92 47.40 48.22 48.60 48.24 48.97 51.27 51.89 51.73 50.88 51.60 53.59 55.26 54.38 52.65 50.80 50.39 49.20 48.08 46.91 46.39 45.32 44.75 42.88 40.64 38.66 36.26 33.84 32.29 31.19 30.10
34.30 34.21 40.32 42.97 42.68 44.29 44.74 43.62 44.68 45.01 46.68 46.99 46.60 46.75 47.34 47.24 48.29 48.07 48.60 49.89 49.68 49.82 48.74 49.00 51.27 51.73 47.52 47.49 48.23 46.84 45.37 44.53 44.39 43.13 42.15 42.37 40.09 37.60 35.05 34.45 32.35 30.82 29.63 27.95
34.75 37.91 39.69 41.82 43.20 44.40 44.39 43.67 45.14 46.45 46.84 47.60 47.34 46.96 46.79 46.66 47.90 47.00 47.55 47.77 48.17 47.34 45.76 44.67 46.52 46.91 46.82 46.23 45.88 44.28 42.28 41.20 40.48 38.96 37.82 37.78 37.04 36.02 34.95 33.42 32.25 30.59 28.91 26.71
35.61 38.56 39.59 41.78 42.17 42.37 42.40 44.04 42.54 42.06 42.62 44.81 43.02 43.71 43.76 44.77 43.35 44.84 44.45 44.16 44.25 43.35 41.85 41.07 43.10 43.91 44.29 44.10 43.26 40.59 38.84 37.12 35.88 34.80 33.36 31.44 31.54 33.76 33.48 33.43 33.82 31.64 29.63 27.63
33.38 37.70 37.12 38.03 41.76 40.95 39.63 39.26 37.82 36.45 35.64 36.42 35.69 36.34 41.61 36.06 35.80 35.75 36.30 38.10 38.65 36.37 34.73 33.95 33.96 34.54 38.32 39.68 39.75 37.68 34.95 34.16 33.80 33.35 32.19 30.87 29.49 28.10 30.34 30.17 30.57 30.52 29.21 27.14
36.92 38.98 39.52 40.50 41.77 37.62 36.87 37.25 35.90 33.82 32.09 31.29 31.53 31.63 32.22 31.50 30.77 31.42 31.80 31.62 31.12 31.60 31.97 30.93 30.41 30.61 32.22 33.77 34.19 33.28 32.18 30.84 30.57 30.48 29.54 28.45 27.55 26.99 24.90 28.25 29.86 29.49 29.03 28.60
36.69 37.25 38.51 39.11 37.06 36.17 34.87 34.61 33.28 31.36 29.80 28.68 28.74 29.19 28.84 28.81 28.83 28.19 27.43 27.83 28.47 28.52 29.16 29.66 29.26 29.00 30.61 30.96 30.17 29.27 28.83 28.64 27.90 27.45 26.99 26.48 25.87 25.45 25.36 24.05 23.09 24.48 27.73 27.35
32.31 34.36 34.81 37.99 35.24 32.61 32.56 32.43 29.51 27.61 27.11 25.74 26.29 26.06 26.26 24.88 24.23 24.30 25.47 25.78 25.75 25.46 25.51 26.09 25.90 26.57 28.82 29.40 28.97 28.67 28.00 27.58 27.72 27.55 27.63 27.44 26.84 26.10 25.83 25.59 25.31 24.58 24.70 25.26
30.54 32.57 33.89 33.42 29.37 28.59 28.54 28.11 26.99 25.19 25.51 24.56 23.99 23.27 22.87 22.45 21.76 21.62 22.02 22.46 21.32 20.39 22.02 22.34 22.63 24.76 26.30 26.24 25.59 24.84 24.78 25.47 25.71 25.71 25.38 25.49 26.13 26.40 26.14 25.18 24.16 23.16 21.60 20.85
26.95 27.02 27.38 28.53 27.03 25.60 25.21 25.58 25.36 23.67 23.10 22.06 21.95 21.97 21.23 20.09 19.74 19.38 19.61 20.11 19.92 19.61 20.27 20.42 20.60 22.89 23.42 23.57 23.39 22.94 22.92 23.06 23.51 23.38 23.08 23.72 23.86 23.35 23.32 22.63 21.61 20.83 19.96 20.07
26.92 26.11 26.05 26.22 25.28 23.93 23.19 23.39 22.77 21.61 19.95 20.26 19.92 19.04 17.87 17.15 16.81 17.31 18.68 19.84 19.05 18.11 19.13 20.33 21.38 21.49 21.68 22.59 23.08 22.96 22.46 21.34 20.98 21.02 20.97 20.65 20.66 20.92 20.73 20.10 19.32 18.37 17.61 16.42
24.34 23.58 23.54 23.13 22.67 21.96 21.23 20.40 19.79 19.64 18.66 17.87 16.50 15.18 15.56 15.56 15.71 16.14 17.31 16.69 16.27 15.86 16.94 19.32 20.66 19.69 19.99 20.64 21.23 21.08 20.35 19.24 18.71 18.24 18.04 17.34 17.50 17.46 16.89 16.19 15.50 15.36 15.15 14.63
22.04 22.40 21.57 20.69 21.04 20.40 18.92 19.61 19.25 18.20 18.46 17.76 16.64 15.61 14.85 15.35 15.86 15.63 15.23 13.57 14.71 15.90 17.58 17.72 18.00 17.87 17.66 17.64 18.32 18.12 17.72 16.90 15.30 14.74 14.58 14.16 14.34 14.23 13.53 12.19 12.77 12.59 12.69 12.01
20.22 19.98 19.50 19.26 19.02 19.53 19.35 18.99 17.54 16.22 16.34 15.99 14.39 13.18 13.05 14.15 15.13 15.59 13.56 11.71 13.76 15.38 15.22 14.76 15.37 15.66 15.17 15.54 15.67 15.23 14.36 13.34 12.11 11.47 10.95 10.58 10.70 10.16 9.59 9.39 8.88 9.09 8.92 9.03
20.03 19.09 18.45 18.25 17.68 17.34 18.47 18.44 18.15 17.52 16.96 16.17 15.83 15.33 14.31 13.82 13.29 12.20 12.54 11.81 12.52 12.46 12.70 12.57 11.75 10.66 11.39 12.09 12.03 11.56 10.90 10.24 9.70 9.35 8.09 7.94 7.29 6.49 5.87 5.88 5.48 5.77 5.93 5.57
20.09 19.83 18.95 18.06 17.31 17.21 17.59 17.03 16.45 16.01 14.44 13.93 13.04 12.99 12.56 12.67 13.05 10.74 7.81 10.88 11.29 10.33 10.50 9.46 8.13 7.69 8.13 9.51 8.82 8.28 7.50 6.63 5.97 5.29 5.15 4.72 4.83 4.51 3.81 3.46 3.03 3.38 2.98 2.82
19.67 19.63 19.00 19.30 18.49 16.76 14.74 16.05 16.48 16.00 15.02 14.42 13.09 13.61 12.71 10.64 10.53 11.83 10.78 7.92 6.46 6.40 6.93 6.28 5.49 4.42 5.08 6.91 6.03 5.22 4.97 4.28 3.91 3.91 2.67 -0.01 1.80 1.84 1.72 0.96 0.66 1.34 0.63 -0.75
17.29 17.25 17.17 16.42 15.41 14.67 15.00 14.79 13.80 12.98 12.32 11.74 11.56 11.74 11.57 11.86 9.92 8.95 8.62 7.00 6.02 5.43 5.25 0.65 0.06 0.39 4.29 4.31 3.75 3.01 2.74 2.30 1.97 2.28 1.69 1.39 0.54 -0.04 0.56 0.13 -1.25 -1.34 -2.05 -2.56
14.93 13.38 13.17 13.70 13.45 13.29 12.86 12.59 11.02 11.43 10.92 8.93 8.28 8.24 7.57 7.72 6.96 6.93 5.20 3.91 3.50 1.63 2.10 1.68 0.60 2.03 2.77 2.31 1.82 1.23 2.51 2.31 2.04 0.85 -0.01 -0.05 -0.44 -0.54 -1.59 -2.41 -3.44 -4.30 -5.26 -5.93
11.67 12.42 11.78 10.26 9.97 9.53 9.44 9.03 8.74 6.91 6.68 7.20 6.02 7.00 5.40 4.79 3.77 3.64 0.65 2.19 1.40 0.73 0.34 0.09 0.50 -0.10 1.43 2.12 1.87 1.52 1.79 1.30 -4.09 0.24 -0.82 -0.71 -1.51 -2.41 -4.36 -5.42 -6.11 -6.81 -7.50 -8.20

GFSNGP_sfc_wetblb_072.txt.gz
Wetbulb
38.82 39.18 39.35 38.92 39.03 39.95 38.90 40.21 37.25 40.68 41.47 45.24 47.77 48.73 50.04 51.21 51.28 51.66 52.92 54.30 55.24 55.83 56.86 59.08 60.30 60.78 61.11 60.92 60.60 60.77 59.84 59.35 59.98 59.93 59.83 59.51 59.19 59.12 59.55 59.67 59.42 59.47 59.68 60.22
35.57 38.51 39.17 37.35 39.48 40.28 40.31 40.58 41.89 42.99 42.07 48.41 49.61 49.74 49.18 50.08 50.89 50.57 51.52 53.45 55.10 55.80 55.80 56.25 58.41 60.21 60.49 60.62 60.67 60.70 59.67 59.15 59.95 60.02 59.88 59.33 59.05 59.00 59.53 59.21 59.21 59.62 60.00 59.62
31.35 36.91 37.05 32.60 37.87 39.79 41.06 42.49 43.36 39.74 43.48 47.03 46.88 47.64 49.42 50.49 51.23 50.93 52.06 53.12 54.25 55.18 56.02 56.58 56.91 58.78 59.96 60.98 61.52 60.08 59.60 59.81 59.46 59.62 59.46 59.56 59.23 58.86 58.63 58.79 59.53 59.38 58.89 58.84
32.82 34.16 25.45 37.82 42.29 42.02 40.84 42.64 44.53 43.77 45.53 47.05 48.16 50.10 51.53 51.53 50.54 51.09 51.96 52.61 53.60 54.83 55.38 56.44 57.83 57.88 59.47 60.56 60.84 60.02 59.61 59.66 59.59 59.14 58.98 59.35 59.13 58.61 58.84 59.23 58.91 59.22 59.27 59.37
30.00 30.52 34.49 36.78 40.19 39.86 38.77 38.75 44.26 43.85 46.06 47.52 49.04 50.07 50.40 52.56 52.06 51.62 52.38 53.27 54.01 54.80 54.52 55.05 55.53 56.64 57.82 58.90 59.85 60.11 59.39 59.35 59.62 59.79 58.92 58.99 58.81 59.28 58.90 58.03 57.58 56.92 55.84 53.98
32.88 27.20 25.57 36.56 42.66 45.93 45.47 35.73 44.93 45.26 45.06 45.53 47.59 43.20 47.30 51.71 52.31 52.37 53.50 53.62 54.99 55.95 56.03 55.56 55.67 55.83 56.04 56.99 58.40 58.88 59.57 59.86 60.23 60.15 59.59 59.25 59.46 57.94 52.53 54.11 50.39 45.47 42.98 43.22
31.55 30.84 34.77 41.81 43.71 46.97 34.34 37.07 45.51 46.17 46.15 46.03 44.91 48.01 50.64 51.89 51.95 53.00 53.53 53.63 55.46 56.40 56.27 56.33 57.04 56.63 55.53 56.80 56.68 58.59 59.99 60.27 60.20 60.22 59.87 58.83 52.41 51.47 48.53 43.59 41.06 39.16 38.35 37.30
32.69 28.79 26.73 44.29 43.97 38.89 43.50 45.94 46.23 47.05 47.52 47.24 48.75 49.74 50.76 50.55 51.63 52.63 52.50 53.51 54.58 54.43 51.84 52.18 54.86 57.20 57.17 57.04 55.93 56.00 56.23 54.83 54.12 53.20 49.74 49.75 47.20 44.76 43.19 39.83 36.17 34.07 32.98 32.19
36.49 36.29 44.12 46.15 45.36 46.93 47.58 45.98 46.83 47.47 48.41 48.98 49.24 49.55 50.51 50.39 51.19 51.10 51.25 51.65 53.26 50.15 46.82 45.68 47.68 52.57 52.64 50.53 51.40 51.31 49.89 48.30 46.29 44.97 44.51 44.70 42.46 40.39 37.75 37.12 34.48 32.36 31.01 29.26
38.21 40.98 42.75 44.01 45.84 46.87 46.89 46.43 46.95 46.81 46.52 47.02 46.63 49.55 49.28 49.36 48.51 48.70 47.73 46.64 46.49 46.58 43.00 39.86 40.23 42.63 45.70 46.47 46.24 45.58 43.40 41.76 41.43 39.81 38.81 39.34 38.65 37.53 35.72 34.35 32.54 30.90 29.26 27.49
38.48 41.59 43.04 43.78 45.32 45.63 45.52 46.61 45.00 44.54 43.71 42.58 42.35 44.35 44.26 45.79 42.35 41.61 40.76 40.36 40.87 39.29 38.41 36.97 36.89 36.39 38.07 40.90 42.45 39.75 38.19 37.15 35.77 34.59 32.91 31.22 31.41 34.13 33.87 33.99 33.64 31.13 29.30 27.78
36.01 42.05 41.27 41.72 44.92 44.89 43.61 43.92 43.21 41.03 40.39 40.53 39.14 39.74 40.72 38.68 36.83 37.97 35.83 34.50 34.41 33.28 33.73 34.36 34.00 32.93 33.60 35.19 37.71 36.76 35.02 34.10 33.34 32.55 31.74 30.68 29.27 28.41 30.51 30.70 31.13 30.90 29.87 27.79
39.44 40.19 40.15 41.64 43.71 41.62 41.05 42.01 40.47 38.69 37.08 36.23 37.29 36.67 37.41 34.35 31.90 31.20 31.39 30.42 29.89 29.66 30.57 30.87 31.46 31.67 32.35 32.26 32.37 31.43 31.55 32.03 31.35 30.86 30.29 28.98 28.53 27.37 25.11 28.08 29.79 29.49 29.29 29.25
38.40 37.81 38.63 39.23 36.70 36.91 36.93 39.04 38.42 36.82 35.01 32.96 32.53 31.92 30.78 31.48 28.74 27.25 27.02 27.11 27.66 27.53 27.60 28.82 29.60 28.52 30.35 31.45 31.28 30.34 29.24 29.16 28.85 28.23 27.47 27.38 26.85 26.48 26.05 24.75 23.60 25.00 28.27 28.58
33.67 34.76 34.11 36.24 33.57 31.50 32.36 32.83 31.33 29.57 29.06 28.01 29.21 26.31 26.18 25.31 22.89 22.97 24.52 25.13 24.54 23.85 24.11 24.62 25.24 25.96 28.62 28.76 28.30 28.15 27.79 27.54 28.11 28.06 27.73 27.14 26.78 26.59 26.52 25.89 25.27 25.51 26.34 26.57
31.93 34.65 33.16 31.35 29.33 28.55 28.17 27.09 26.49 24.94 25.36 24.09 24.49 22.73 22.65 22.05 21.24 21.11 21.42 21.79 20.46 19.71 21.07 21.37 22.06 24.17 26.23 27.04 26.84 26.36 26.30 26.32 26.83 27.17 27.68 27.83 27.44 26.80 26.76 26.37 25.09 24.69 24.39 23.95
28.18 30.24 29.49 29.12 28.83 26.87 26.00 26.48 25.62 24.03 22.55 21.54 22.26 22.66 22.01 21.22 20.42 19.99 20.25 20.58 20.28 20.09 21.15 21.70 21.62 24.28 26.28 27.72 27.00 27.67 26.89 26.41 25.27 25.49 25.22 25.66 25.85 25.35 25.13 24.42 23.04 22.10 21.31 22.85
27.33 26.80 27.60 27.02 26.91 25.51 23.97 24.08 22.48 21.91 19.77 19.57 19.37 18.79 18.32 18.07 17.48 18.18 19.36 20.34 20.05 19.21 21.35 22.06 23.28 23.65 23.73 25.21 26.45 26.71 25.96 24.63 24.43 24.42 24.43 23.59 23.15 23.42 23.58 22.14 20.95 19.87 19.32 19.67
26.19 25.29 25.28 24.88 24.96 23.74 22.93 21.57 20.79 20.41 19.94 19.59 18.51 17.36 18.08 18.40 18.43 18.37 19.01 19.10 18.62 17.62 18.98 20.86 21.21 21.19 21.57 23.08 24.15 24.33 23.09 22.42 22.00 21.36 21.04 20.65 20.53 20.19 19.96 19.88 19.15 18.86 18.71 17.89
23.63 23.80 23.33 22.59 22.96 21.83 19.77 20.34 20.20 19.13 19.47 19.05 18.56 17.80 17.17 17.38 17.86 17.01 16.59 15.11 15.86 16.73 18.50 19.71 20.50 20.08 20.19 20.60 21.45 21.78 21.54 20.26 18.76 18.45 19.03 18.65 18.39 17.66 16.67 15.68 16.46 16.53 16.34 15.71
21.00 20.64 20.01 19.93 19.72 20.02 19.53 19.42 18.53 17.18 17.55 17.99 16.35 15.01 14.30 14.66 16.18 18.03 16.89 14.73 15.12 16.24 16.59 15.82 16.10 17.65 18.10 18.86 19.40 19.37 18.95 17.98 17.34 16.88 16.91 16.67 15.96 15.12 14.94 14.59 14.35 14.68 14.40 14.00
21.06 20.02 19.58 19.34 18.87 18.56 19.22 19.40 18.80 17.86 17.49 17.14 17.17 17.26 16.45 15.41 14.27 13.03 13.12 13.78 15.21 14.14 15.34 15.10 14.35 12.59 14.65 15.27 16.27 15.66 14.91 14.61 14.44 14.51 13.87 13.43 13.16 12.37 11.72 11.77 11.48 11.65 11.78 11.43
21.16 20.71 19.93 18.74 18.19 18.25 18.47 17.74 17.22 16.75 15.70 14.96 14.22 14.24 14.14 14.96 15.88 14.25 11.34 13.67 14.71 12.77 13.70 12.00 9.85 10.51 11.64 14.43 14.12 13.43 12.44 11.73 11.30 10.70 10.64 10.89 10.85 10.16 9.40 8.84 9.02 8.97 8.67 8.22
21.18 20.76 20.13 20.47 20.01 18.54 16.56 17.62 17.83 16.99 15.59 15.24 14.67 15.39 16.32 15.06 14.52 15.38 14.17 10.96 9.58 9.94 9.18 9.02 8.74 9.22 10.62 12.71 11.85 11.33 11.09 10.81 10.47 10.14 9.41 7.55 9.45 8.29 7.93 7.09 6.84 8.40 6.86 5.95
19.94 19.75 19.81 19.23 18.00 17.05 17.15 17.05 16.50 16.14 15.27 14.75 14.55 14.53 14.46 15.30 13.62 12.89 12.71 10.90 8.82 10.38 10.14 6.36 6.76 8.12 10.98 10.33 9.79 9.38 9.38 8.43 8.43 9.15 8.80 8.18 7.82 7.12 7.78 6.70 5.38 4.93 4.57 4.71
17.96 16.65 16.44 16.81 17.12 17.72 17.60 17.51 16.11 16.42 15.42 13.34 13.20 13.48 13.40 13.05 12.30 11.86 10.13 8.55 8.70 7.97 8.80 8.77 7.98 9.68 9.38 8.76 8.44 7.93 8.69 8.48 8.33 7.31 6.83 7.01 6.50 6.29 5.02 3.95 3.69 3.54 3.10 2.44
16.94 17.07 17.00 15.72 15.54 15.20 15.60 15.62 15.00 13.35 13.87 13.52 11.35 12.30 12.22 12.07 10.73 10.48 9.08 10.21 9.56 9.04 8.97 9.06 8.93 7.34 8.05 8.80 8.16 8.27 8.22 8.28 2.68 5.85 6.75 6.45 5.56 5.30 3.27 2.42 2.24 1.92 1.25 0.24

GFSNGP_sfc_wetblb_075.txt.gz
Wetbulb
41.03 40.69 40.13 41.27 41.56 42.73 41.63 42.44 38.62 41.77 42.68 45.94 48.29 49.33 50.64 51.72 52.01 52.01 52.56 53.60 54.88 56.18 57.22 58.52 60.94 62.10 62.54 62.70 63.44 63.43 62.20 61.70 61.51 62.70 62.50 62.17 62.20 62.04 62.16 62.10 62.23 62.39 62.11 61.97
36.58 40.39 39.93 37.21 40.63 41.57 41.81 42.09 42.42 42.88 42.81 49.20 50.21 50.69 48.91 49.50 51.08 51.71 52.30 53.06 53.87 55.51 56.51 57.29 58.10 61.12 62.07 62.43 63.41 63.51 62.63 62.37 62.39 62.23 62.09 62.17 62.30 62.19 61.81 61.68 61.52 61.74 61.15 61.37
32.41 37.98 38.02 34.18 38.54 39.67 41.38 43.43 43.17 39.94 45.18 48.03 47.77 47.98 49.19 50.01 51.52 51.96 52.81 53.67 54.17 54.84 55.94 56.84 57.86 58.82 59.68 61.93 62.92 62.87 62.51 62.42 62.61 62.65 62.25 62.27 61.98 61.29 61.10 60.90 61.35 60.74 60.57 60.77
33.28 35.34 26.73 38.90 43.67 43.14 42.16 43.53 45.14 44.87 45.94 47.16 48.06 49.53 50.92 52.29 52.40 52.20 52.74 53.69 54.45 55.30 56.41 57.18 57.29 57.24 58.78 59.60 61.64 62.53 62.10 61.97 62.23 62.23 62.04 62.20 62.03 61.49 61.43 61.25 60.67 60.59 60.78 61.12
31.20 31.79 35.97 38.40 40.85 40.48 39.80 40.05 45.42 44.29 45.99 47.61 48.63 49.46 49.95 53.22 53.22 52.93 53.57 54.42 55.00 55.91 56.94 58.20 58.15 57.20 56.91 57.30 59.25 61.04 61.50 61.35 61.43 61.96 61.51 61.71 61.28 61.52 61.62 61.16 60.66 60.22 59.99 59.36
33.36 28.07 25.82 37.60 43.47 46.69 45.46 37.32 46.21 46.05 45.70 45.96 47.09 43.10 47.14 51.91 53.10 53.01 53.92 54.99 54.90 56.41 57.44 57.39 57.81 58.61 58.10 56.74 56.78 58.68 61.37 61.53 62.04 62.19 61.63 60.89 61.68 61.55 61.39 60.76 59.25 56.43 48.47 47.31
31.80 30.62 35.52 42.86 44.84 46.61 35.30 37.41 45.36 46.34 46.80 46.98 45.44 47.51 50.01 51.42 52.60 53.66 53.99 54.02 54.81 55.19 52.63 51.33 51.56 53.49 56.26 57.73 56.85 57.77 59.24 61.47 61.77 61.54 61.13 60.48 60.60 61.80 60.93 55.00 47.51 42.21 38.67 38.26
32.98 30.14 27.80 44.42 44.59 39.57 44.87 47.53 47.57 47.87 47.97 47.22 48.37 49.51 50.42 51.45 52.08 53.13 52.79 52.96 52.08 50.85 47.75 45.20 43.53 46.17 52.14 55.46 55.63 57.82 58.03 58.33 59.42 59.61 57.98 59.73 59.09 54.88 49.11 44.85 39.08 35.58 33.60 32.12
36.34 36.62 44.55 47.44 46.44 47.70 48.34 46.85 47.22 47.26 47.77 48.06 47.70 48.21 50.28 51.22 52.00 50.92 50.24 49.73 49.43 46.88 42.38 40.71 39.59 39.86 40.62 43.07 46.65 50.14 53.68 50.47 48.49 46.94 47.09 48.85 46.63 42.65 40.59 40.08 37.57 35.78 33.90 30.76
37.65 42.94 42.26 46.26 46.84 48.55 48.12 47.11 47.89 47.89 47.36 47.25 45.74 46.87 48.08 48.92 50.06 47.84 47.07 45.18 44.88 42.83 37.56 35.53 36.17 36.37 37.06 40.04 41.89 41.85 41.05 40.30 39.52 38.24 37.01 37.25 37.77 38.79 38.78 37.44 34.85 32.23 30.18 28.47
39.44 42.31 43.91 44.68 46.70 46.80 46.48 47.44 46.92 46.52 46.23 44.82 44.51 44.75 44.95 46.43 44.48 44.08 42.85 40.88 39.29 37.68 33.55 32.41 34.20 33.81 35.19 36.87 38.39 36.76 35.82 35.46 34.29 33.05 32.48 30.98 30.65 32.73 33.00 32.89 33.69 31.49 30.01 28.91
36.10 43.05 43.49 44.13 45.21 45.43 44.39 43.88 44.26 43.14 42.61 42.66 42.66 40.91 42.64 42.32 39.87 39.01 37.59 36.15 34.69 32.83 32.68 31.16 31.79 31.13 32.26 33.94 35.13 34.49 32.68 31.98 31.56 31.04 30.45 29.59 28.69 27.81 30.39 30.49 30.72 30.46 29.83 28.39
40.60 42.62 42.84 44.26 43.80 41.43 40.11 39.74 41.13 42.11 40.46 38.14 38.48 35.94 34.38 34.66 32.06 33.47 32.47 31.91 29.41 29.28 28.31 27.78 27.51 28.26 29.54 31.87 31.82 31.77 30.15 29.26 29.39 29.17 29.27 27.98 27.88 26.60 24.94 28.27 30.29 30.21 29.94 29.85
40.48 40.01 40.98 40.28 37.29 38.27 38.24 37.25 37.69 38.08 36.32 33.66 31.49 30.66 29.43 27.27 26.37 25.63 25.80 25.90 26.37 26.50 25.07 25.44 25.67 25.56 28.57 29.35 30.26 30.14 29.29 29.04 27.87 27.12 26.77 26.76 26.31 25.81 25.56 24.57 23.86 24.70 28.76 28.97
36.40 38.35 37.62 36.54 34.64 32.92 33.29 33.92 33.08 30.61 28.39 27.88 26.41 25.10 25.00 22.61 21.45 21.73 23.74 24.91 24.71 23.84 23.76 24.55 25.24 26.10 28.67 28.40 27.63 28.00 28.45 28.31 28.22 28.34 27.86 27.67 27.01 26.62 26.14 25.18 24.12 23.81 24.85 25.59
33.41 37.00 34.92 33.44 33.07 32.08 31.86 31.13 29.76 27.79 26.93 25.92 24.50 23.73 23.26 23.42 22.60 21.47 21.62 22.18 21.08 20.92 22.53 22.40 23.61 26.33 29.59 30.26 29.34 28.48 28.31 27.98 29.18 28.87 28.74 28.63 27.67 26.26 25.87 25.72 25.10 24.77 24.58 24.82
29.41 30.64 30.00 30.44 30.06 28.36 27.11 27.06 26.58 25.10 24.29 23.01 22.61 23.60 23.58 22.24 21.30 21.13 21.46 22.49 22.23 22.20 23.42 23.80 23.98 26.35 27.07 27.87 28.91 28.31 28.57 28.64 27.91 27.00 26.14 26.34 25.80 24.41 23.46 22.89 21.86 21.00 21.12 22.85
29.62 28.32 28.49 28.72 28.19 27.26 25.48 25.03 24.36 23.51 22.10 22.19 21.84 21.35 20.36 19.62 19.13 20.11 20.82 22.16 21.83 21.29 22.75 23.79 24.39 24.72 25.59 27.35 26.79 25.38 24.68 24.43 24.57 23.90 24.22 24.64 24.53 24.24 22.80 21.65 20.61 19.85 19.81 20.25
27.71 26.78 26.94 26.65 26.73 25.30 24.12 22.89 22.45 22.12 21.73 21.35 20.34 18.88 18.73 18.62 18.30 18.16 18.69 18.74 18.37 16.97 18.83 22.55 22.77 23.36 23.75 24.41 25.53 25.02 24.70 23.49 22.64 22.18 21.70 21.09 21.32 21.37 20.93 20.32 19.24 19.12 18.75 17.88
24.90 25.14 24.88 24.03 24.39 22.98 21.33 21.87 21.47 20.46 21.17 20.71 19.71 18.58 17.75 18.83 20.09 19.08 17.62 15.10 15.87 16.69 17.54 18.77 20.75 20.26 21.24 22.06 22.81 22.39 22.34 21.89 20.67 19.87 20.18 20.06 19.54 18.97 18.54 17.86 18.03 17.74 17.33 16.55
21.99 21.78 21.36 21.03 20.60 21.21 20.88 20.92 19.81 18.74 19.15 18.96 16.81 15.34 14.99 15.54 15.09 18.33 17.33 14.59 15.34 17.28 17.41 16.55 16.63 19.27 19.83 20.24 20.74 20.68 20.23 19.75 19.19 18.68 18.06 17.74 17.53 16.73 16.70 16.65 16.38 16.03 15.42 15.15
22.58 21.30 20.93 20.62 19.98 19.52 20.26 20.40 19.76 18.85 18.51 18.31 19.29 19.51 19.00 17.61 15.97 14.38 14.32 15.04 15.85 14.99 15.79 15.27 15.47 14.57 17.18 17.63 18.16 17.55 16.98 16.71 16.44 16.56 15.91 15.99 15.55 14.93 14.63 14.38 13.77 13.79 13.60 13.25
22.42 21.83 21.07 19.96 19.05 19.00 19.07 18.40 18.15 17.86 16.92 16.83 16.44 16.28 15.96 16.22 16.62 14.44 10.99 13.44 14.29 12.64 14.17 12.44 12.07 13.43 14.64 16.98 16.80 16.11 15.29 14.43 14.03 13.94 13.89 13.82 13.48 12.95 11.86 11.81 12.13 11.77 11.02 10.88
22.47 22.16 21.49 21.98 21.53 19.91 17.96 19.04 18.79 18.17 16.73 16.52 15.78 16.31 18.42 16.78 15.54 16.25 15.34 12.87 12.08 11.60 9.96 10.82 11.72 12.22 13.15 15.11 14.57 13.73 13.90 14.07 13.69 13.72 13.07 11.40 12.37 11.69 11.01 10.04 9.96 11.20 9.82 8.65
21.96 21.98 22.05 21.19 19.77 18.93 19.00 19.00 18.69 18.14 17.65 16.87 16.51 16.49 15.84 15.96 14.19 13.78 14.34 13.14 10.54 13.25 12.94 9.81 10.52 11.47 13.31 12.86 12.51 12.48 12.16 10.92 10.81 12.32 11.72 11.40 10.87 10.53 10.36 9.64 8.52 7.36 7.82 8.11
20.67 19.63 19.47 19.95 20.21 20.54 20.46 20.47 18.78 18.65 17.54 15.60 15.35 15.99 15.73 15.76 15.03 14.96 13.46 12.04 11.98 12.02 12.77 12.32 10.71 13.21 13.07 11.94 11.94 11.23 12.05 11.38 11.42 10.44 10.17 10.34 9.83 9.65 8.26 7.04 7.11 7.12 6.68 6.04
20.62 20.29 19.92 18.92 18.74 18.84 19.34 19.08 18.37 16.67 16.66 16.04 14.26 15.55 15.36 15.11 13.90 14.24 12.54 13.64 13.34 13.00 12.94 12.99 12.52 10.34 10.36 11.14 11.31 11.23 11.36 11.42 6.54 7.61 9.26 9.10 8.72 8.33 7.19 6.03 5.88 5.54 5.02 4.19

GFSNGP_sfc_wetblb_078.txt.gz
Wetbulb
37.91 40.11 40.23 38.51 39.50 40.50 38.60 39.72 36.72 39.77 40.47 44.32 46.64 48.13 49.72 51.20 51.24 51.48 52.22 53.13 53.96 54.22 54.79 56.06 57.53 61.25 61.75 62.07 62.48 61.98 61.09 60.41 59.49 60.15 60.64 60.59 60.16 60.04 60.27 60.53 60.66 60.36 59.60 59.10
34.46 38.94 39.22 37.60 39.87 40.76 41.24 41.32 41.13 41.64 40.65 47.31 48.77 50.19 48.72 49.54 49.92 51.02 51.56 52.46 53.53 54.24 55.09 55.42 56.43 56.80 60.18 61.63 61.83 62.48 61.48 60.89 60.76 60.12 59.94 60.24 60.22 59.88 59.75 59.52 59.67 59.92 59.74 59.28
30.55 37.02 36.90 33.20 38.10 39.43 40.55 42.56 41.82 37.98 43.35 47.75 46.98 47.86 48.45 48.90 51.02 50.69 51.31 52.05 52.89 53.22 54.19 55.59 56.47 57.80 56.57 56.50 61.15 61.92 61.70 61.62 61.46 60.80 59.98 59.75 60.31 59.91 59.28 58.75 58.78 58.77 59.01 59.11
31.71 34.31 25.58 38.10 43.82 43.10 41.21 42.46 44.14 44.63 45.80 46.76 47.18 48.61 49.30 50.89 50.88 50.47 50.99 51.99 53.23 54.04 54.96 56.29 56.90 55.47 56.36 57.87 56.86 58.33 61.21 61.35 61.62 61.42 60.54 60.51 59.89 59.51 59.15 59.08 58.37 58.20 58.22 58.45
30.21 30.13 34.74 37.66 40.84 39.75 38.97 39.09 44.32 44.01 45.64 46.79 47.48 47.95 47.72 50.57 51.74 51.67 51.78 52.69 53.77 54.84 53.89 52.79 50.94 50.93 52.64 54.62 56.92 57.69 56.12 60.72 61.16 61.13 60.56 60.32 59.85 59.46 59.26 58.72 58.26 58.12 58.10 57.40
32.94 27.26 24.98 36.54 41.81 46.06 44.90 35.21 45.71 46.09 45.30 45.33 45.96 41.03 44.38 49.62 50.76 51.96 52.83 52.59 52.21 52.47 50.11 47.13 45.12 46.20 48.89 52.46 52.49 51.35 53.63 57.53 59.74 61.02 60.57 59.85 59.73 59.33 59.34 59.30 58.37 57.97 56.50 52.04
30.80 29.11 33.95 41.10 44.47 46.42 34.08 36.42 45.37 46.06 46.14 45.69 43.67 45.23 48.08 50.23 50.92 52.68 52.01 50.70 50.65 49.78 46.01 42.67 42.23 42.96 43.46 44.67 43.28 46.41 50.60 55.42 54.64 57.02 59.99 59.83 59.27 59.03 58.67 58.16 50.35 42.35 37.98 36.86
32.04 28.50 26.71 44.23 43.20 37.47 43.27 45.72 46.32 46.23 46.20 45.80 46.67 47.40 48.26 49.55 50.79 50.06 48.71 48.42 47.85 46.06 43.19 40.00 39.52 39.91 39.74 39.10 41.25 44.01 45.48 46.03 46.26 46.49 47.47 54.02 56.30 50.67 49.08 45.18 39.60 35.52 33.83 32.40
34.86 34.47 43.70 46.77 45.30 47.07 47.37 45.52 45.10 45.49 45.85 45.82 45.25 45.59 46.91 47.04 48.84 47.66 46.51 44.33 43.77 42.53 40.22 37.86 37.96 37.09 36.28 37.08 40.07 39.78 38.54 36.96 36.79 37.36 39.27 42.93 44.45 43.25 41.57 40.57 37.81 34.59 33.28 31.25
37.83 41.05 43.00 44.03 46.10 46.71 46.55 45.86 45.87 45.44 45.18 44.71 43.36 44.27 44.26 45.75 43.60 42.95 42.33 39.73 38.84 38.30 35.42 34.95 35.59 34.93 34.23 35.05 38.15 36.87 35.10 34.04 33.58 32.52 31.98 32.35 36.42 37.12 36.40 34.93 33.85 33.32 31.35 29.51
37.56 39.60 42.00 42.32 42.96 44.43 44.61 44.58 43.91 44.23 43.47 41.80 41.50 40.25 40.17 41.01 38.27 37.81 36.88 35.29 34.92 32.10 32.06 31.10 31.38 31.71 32.63 33.98 35.37 34.70 33.29 32.80 31.52 30.85 30.00 29.08 28.88 30.13 31.27 32.16 33.64 31.47 29.55 29.31
36.06 40.78 41.23 39.65 41.80 42.86 41.58 40.90 41.60 41.58 40.55 40.32 38.18 36.02 35.57 33.46 31.91 31.18 30.24 29.56 28.95 28.28 27.86 27.60 28.10 29.02 30.08 32.46 33.15 32.95 31.18 30.41 30.04 29.61 29.14 28.41 27.56 27.20 30.55 30.30 30.94 30.89 30.57 29.25
37.57 40.18 42.04 41.58 39.57 39.56 38.98 38.82 39.45 38.66 36.78 35.09 33.66 32.02 30.24 28.10 26.72 26.95 25.82 25.24 24.77 24.83 25.95 26.77 27.07 27.17 28.51 30.61 30.94 29.30 28.76 28.49 28.22 27.94 27.39 27.17 26.82 26.08 24.74 28.23 30.18 30.28 30.37 30.39
38.44 39.32 39.95 36.93 34.65 36.06 36.55 37.43 37.51 35.10 32.91 30.53 29.25 27.91 26.05 24.31 23.92 23.18 23.47 24.03 24.55 24.36 24.83 25.62 26.96 27.43 28.76 29.36 29.62 28.85 28.64 28.33 27.58 26.96 26.24 25.92 25.52 25.29 25.18 23.86 22.34 23.73 28.12 28.60
34.48 37.94 36.71 36.69 36.31 34.48 35.41 34.99 33.95 29.95 29.02 27.23 27.06 25.08 24.19 22.00 21.35 21.77 23.33 24.07 24.40 23.65 23.79 24.23 24.83 25.33 29.88 29.99 28.54 28.11 28.47 28.51 28.12 27.65 27.37 26.86 26.50 25.38 24.83 23.99 23.05 23.12 24.33 25.17
33.21 35.49 35.10 33.74 31.86 30.59 29.62 28.93 27.57 25.95 25.65 24.58 23.76 23.21 23.12 22.73 21.87 21.72 21.91 22.40 20.84 20.30 22.06 22.31 22.54 26.16 26.95 27.56 28.67 28.22 27.34 26.97 26.98 26.35 25.29 24.16 23.48 22.30 21.54 21.13 21.16 21.46 22.73 22.28
28.42 27.80 28.88 29.09 29.03 27.47 25.96 26.20 25.32 23.82 23.01 22.48 22.63 23.28 22.64 21.87 21.03 20.87 21.07 20.81 20.19 20.36 21.52 21.84 22.18 24.25 26.43 26.99 25.71 25.26 25.11 24.61 25.01 25.84 24.31 23.06 21.74 20.65 20.20 19.32 18.47 18.28 18.43 19.73
29.43 28.49 28.31 28.25 27.75 26.14 24.74 24.49 23.67 22.86 21.61 21.98 21.00 19.53 17.88 16.94 16.33 17.39 18.35 18.70 17.91 16.30 18.69 20.65 22.08 23.01 23.72 24.64 25.05 24.65 23.43 22.21 21.98 21.54 22.08 21.54 21.30 21.56 20.91 19.78 18.84 17.62 17.47 17.96
27.08 26.16 26.18 26.12 25.97 24.48 23.00 22.16 21.93 21.93 21.53 20.88 19.31 18.03 18.31 17.08 16.52 16.09 16.49 15.15 14.29 13.13 14.13 18.28 21.26 20.96 21.16 22.69 23.28 23.29 21.86 20.92 20.93 20.53 19.71 18.91 18.90 19.12 18.55 17.95 17.15 16.67 16.39 15.59
24.01 23.89 23.12 22.58 22.88 21.77 20.49 21.02 20.60 19.88 20.22 18.98 17.55 16.26 14.72 15.94 18.49 16.35 14.89 12.74 13.86 15.01 16.29 16.13 18.99 18.86 19.48 19.75 20.43 20.68 20.07 19.80 19.04 17.72 17.43 17.28 17.35 17.20 16.88 16.25 16.39 15.50 14.55 13.68
21.37 21.33 20.90 20.45 19.92 20.59 20.28 20.04 18.89 17.67 18.36 18.30 16.40 14.74 13.71 13.94 13.08 14.51 14.85 11.69 13.36 15.32 15.42 15.47 15.26 17.04 17.91 17.73 17.75 17.76 17.14 16.54 16.18 16.18 15.53 14.88 14.43 14.06 13.91 13.52 13.06 12.85 12.55 12.49
21.51 20.31 20.06 19.68 19.05 18.70 19.42 19.17 18.57 17.89 17.40 16.70 17.24 18.55 17.22 14.94 13.42 12.02 11.56 12.08 13.30 13.17 13.63 13.87 14.48 13.24 15.56 15.88 16.43 15.37 14.96 14.60 14.33 14.18 13.52 13.17 12.70 11.91 11.53 10.96 10.72 10.76 10.76 10.30
21.70 20.84 20.22 19.13 18.15 17.81 18.44 18.18 18.15 17.85 16.86 16.94 16.80 16.21 15.06 14.83 14.35 11.50 8.68 12.31 11.93 11.30 12.33 12.07 11.45 12.65 13.46 15.03 14.64 14.28 13.67 12.63 12.22 12.07 12.02 11.00 11.05 10.32 8.86 9.02 9.58 9.20 6.20 8.12
21.77 21.56 21.10 21.44 21.30 19.61 17.36 18.24 18.04 17.17 16.81 16.20 15.32 14.94 16.93 14.92 14.30 14.42 12.89 12.06 11.98 10.29 10.08 11.08 11.26 12.17 12.00 13.49 12.80 10.99 10.25 11.13 11.93 11.50 11.30 8.87 10.63 10.02 8.55 7.08 7.20 7.12 6.13 4.85
22.02 21.70 21.40 20.42 19.32 18.41 18.66 18.55 18.42 18.04 17.34 16.37 16.02 15.80 15.18 14.89 12.67 12.08 13.25 12.37 11.80 13.04 11.94 8.76 10.53 10.83 12.26 11.99 10.92 11.38 11.13 9.64 8.37 9.87 10.02 9.43 8.60 7.86 7.19 6.50 4.76 2.89 4.14 4.10
21.18 20.26 20.14 20.65 20.76 20.89 20.72 20.70 18.36 18.23 17.21 14.99 14.92 15.51 15.39 15.55 15.00 14.83 13.38 12.48 12.60 11.86 12.82 11.99 10.04 10.47 11.10 11.42 10.98 10.00 10.76 9.20 7.89 7.92 7.81 8.07 7.46 7.45 5.41 3.74 3.98 4.05 3.02 2.02
20.96 20.79 19.88 18.88 18.65 18.26 18.33 18.22 17.90 16.25 16.47 15.94 14.32 15.60 15.21 15.35 13.82 13.70 11.75 13.57 13.38 12.83 13.03 13.04 12.61 9.39 9.09 9.71 10.01 9.97 9.98 9.73 4.40 5.40 7.03 7.05 6.39 5.76 4.49 3.26 2.59 1.56 1.10 0.43

GFSNGP_sfc_wetblb_081.txt.gz
Wetbulb
35.93 37.83 38.15 38.09 38.06 38.57 37.50 37.77 34.73 37.78 38.78 43.36 45.12 46.39 47.49 49.06 49.97 49.82 50.16 50.72 51.23 51.33 52.55 54.04 54.74 55.67 56.74 57.32 59.49 59.12 58.16 57.18 57.65 58.27 58.82 58.65 58.52 58.43 58.86 58.79 58.67 58.61 58.06 57.72
32.69 37.15 37.10 35.89 38.61 38.53 37.45 38.67 38.81 39.31 38.57 45.91 47.33 48.15 47.85 48.32 49.06 48.84 49.37 50.18 51.16 52.49 53.39 53.63 52.70 52.19 53.47 54.93 56.37 59.84 58.68 58.23 58.44 57.79 58.30 58.18 58.27 58.10 58.09 58.64 58.82 58.75 58.16 57.86
27.45 35.27 35.94 30.51 35.55 38.32 39.35 41.12 39.95 36.08 41.56 46.25 46.10 46.38 46.34 47.14 47.66 47.45 48.53 50.34 51.36 51.07 50.66 50.04 48.88 49.35 49.19 51.84 55.05 56.06 57.20 59.08 59.23 58.61 57.91 58.26 58.58 58.29 57.76 57.69 58.01 58.19 58.44 58.15
26.62 30.42 23.57 36.55 43.10 42.60 39.89 41.23 42.13 42.18 43.90 45.18 45.29 46.31 46.97 47.10 46.60 47.58 49.63 49.89 49.30 48.48 47.31 46.30 45.89 45.67 47.59 51.34 50.29 50.82 51.04 52.87 55.75 58.81 58.45 58.07 57.96 58.01 58.06 58.03 57.23 57.14 57.50 57.74
24.85 25.87 31.84 35.38 40.21 38.78 37.04 37.18 43.37 41.91 44.44 44.77 45.99 45.33 44.65 47.80 48.34 48.52 48.90 48.93 47.76 46.53 44.37 43.07 42.15 43.12 45.82 46.77 46.49 46.68 46.98 48.92 52.62 51.85 51.84 57.35 57.38 57.34 58.01 57.90 57.36 56.85 57.52 57.32
26.05 25.68 20.89 33.77 41.43 44.76 43.82 32.88 43.34 44.12 43.09 42.53 43.97 37.20 40.59 47.60 48.26 46.86 46.90 47.07 45.25 43.63 41.42 40.21 40.04 40.87 42.05 42.17 42.94 43.14 45.13 46.95 47.59 46.83 46.79 47.40 54.31 58.14 58.46 58.10 57.43 57.52 56.91 56.66
26.07 25.89 30.45 39.73 43.16 45.19 32.01 34.19 43.14 43.22 42.89 42.41 40.27 42.19 45.27 47.87 45.94 44.59 43.64 42.60 44.04 41.80 38.60 38.18 38.85 38.40 38.49 38.65 37.33 40.77 42.70 42.89 41.99 40.89 41.39 43.02 45.10 53.13 57.16 57.17 56.21 53.96 46.11 39.48
27.31 23.89 22.54 41.86 42.48 36.56 40.52 42.84 42.93 42.87 42.84 42.07 43.05 43.77 44.47 43.39 41.91 40.17 38.81 37.96 39.08 36.97 36.85 36.29 36.67 35.79 35.49 35.06 36.38 39.25 39.33 38.12 37.12 36.53 35.74 36.52 39.12 42.40 45.13 49.60 44.74 37.52 34.74 32.75
31.05 29.90 40.63 43.60 43.11 44.65 44.85 42.96 42.81 42.33 42.49 43.10 41.33 40.94 41.61 39.64 38.72 36.63 35.10 34.48 35.01 34.93 34.09 33.42 32.88 33.39 31.62 33.11 35.30 37.25 35.87 34.61 33.40 33.28 32.05 32.10 32.03 33.65 38.15 40.25 39.99 35.66 35.58 32.30
34.61 39.00 40.48 41.37 42.90 43.21 43.27 41.94 42.61 42.17 41.06 40.46 37.93 37.74 36.98 35.19 34.58 33.31 31.41 31.37 32.05 31.31 29.71 28.62 30.02 30.52 30.56 32.22 34.29 35.38 33.00 32.23 30.99 29.78 29.81 29.79 30.15 30.66 30.84 31.38 35.13 34.24 32.06 30.54
36.57 39.06 40.46 39.61 40.21 40.93 41.19 41.66 41.74 40.38 38.60 36.99 35.92 34.30 33.15 30.87 30.55 29.92 29.13 29.13 28.58 27.58 27.22 26.83 28.47 28.86 29.89 31.47 32.26 32.92 30.93 30.35 29.80 28.54 28.68 28.25 28.63 28.80 29.12 29.86 31.15 31.01 30.53 30.40
32.40 36.91 37.67 36.79 39.05 40.21 38.26 37.77 36.34 36.58 33.15 32.23 32.67 31.08 30.74 28.10 27.57 26.90 25.96 26.03 25.78 25.70 26.22 27.06 27.98 28.15 28.96 30.79 30.15 29.72 28.29 28.18 27.69 27.71 27.23 27.10 26.90 26.53 30.22 30.25 31.01 31.33 30.91 29.45
32.99 38.42 36.69 35.57 35.75 36.86 36.43 34.96 33.33 31.20 30.58 27.69 27.27 27.11 26.62 24.55 25.22 25.48 24.70 24.20 23.89 24.04 25.17 25.64 26.20 27.85 28.53 29.60 29.86 28.44 27.14 27.06 26.71 26.34 26.25 25.61 24.92 24.80 23.55 27.11 29.73 30.32 30.75 30.90
35.36 38.14 34.92 33.57 31.37 33.99 33.93 33.22 32.10 28.84 27.79 26.86 25.34 23.80 22.79 21.84 22.45 22.43 22.60 23.66 24.07 23.31 23.50 24.85 24.87 24.92 27.48 28.71 27.34 28.10 27.64 27.13 26.51 26.16 25.43 24.88 23.83 23.43 23.66 22.65 21.62 22.17 26.42 27.81
32.97 35.71 34.39 32.69 31.04 29.62 30.34 29.99 27.13 25.65 24.92 23.82 24.30 22.76 22.15 20.78 19.86 20.27 21.86 22.32 22.01 21.60 21.41 21.48 22.51 23.79 25.79 27.04 26.40 25.58 26.02 25.32 24.82 24.21 23.94 23.93 24.02 23.62 23.25 23.14 22.09 21.26 21.36 21.15
31.37 30.71 31.05 30.10 27.60 26.91 26.46 26.20 24.01 23.21 23.10 22.52 21.98 21.39 21.04 20.35 19.15 18.31 18.28 18.98 17.76 17.09 18.98 19.32 20.52 23.84 25.56 24.42 23.77 23.46 23.43 24.91 23.78 22.68 21.83 21.02 20.54 19.74 19.21 18.83 18.07 17.60 17.03 17.05
25.69 24.67 26.05 27.25 25.15 23.88 23.28 23.66 23.05 21.54 19.97 18.78 19.32 20.69 19.26 17.62 16.83 16.12 15.93 16.17 14.46 14.84 17.58 18.66 19.15 22.21 23.48 23.52 22.48 21.72 21.19 21.35 21.32 21.34 21.23 20.83 20.02 18.69 17.96 17.26 16.52 16.05 15.82 16.74
27.26 26.33 26.77 26.34 24.71 22.64 21.67 21.54 21.19 19.83 18.32 18.63 18.07 16.26 14.86 13.38 13.11 13.66 14.23 14.42 13.55 13.14 13.24 17.21 19.57 20.61 21.64 22.47 21.95 21.72 21.34 20.29 19.61 19.05 19.28 18.62 17.98 17.89 17.13 16.19 15.67 14.74 14.87 15.30
24.14 23.17 23.22 22.79 22.26 20.87 20.04 19.69 19.46 19.64 18.61 17.75 16.05 14.86 14.32 13.39 13.04 12.94 13.49 12.49 11.46 10.74 12.04 15.23 19.63 18.63 18.77 20.87 20.46 20.32 18.49 16.97 17.15 17.64 17.48 16.33 16.24 16.35 15.05 13.84 13.15 12.85 12.68 11.44
20.97 20.90 20.48 20.17 20.55 19.22 17.21 17.58 17.02 16.28 16.39 15.85 14.77 13.73 11.86 12.34 14.59 12.28 11.50 10.48 11.69 12.52 14.59 14.69 16.58 16.53 16.68 16.88 17.12 16.98 16.41 15.54 15.10 13.95 12.29 12.14 11.73 11.31 11.73 11.18 11.41 10.15 8.96 9.09
16.17 16.21 16.98 17.49 16.80 17.22 17.08 16.91 16.08 15.39 15.90 15.32 13.04 11.41 10.85 10.76 10.71 12.52 10.27 8.18 10.72 12.74 13.20 13.20 13.79 15.27 15.75 15.07 14.78 13.45 13.15 12.56 11.38 11.10 10.74 8.24 7.17 7.00 7.24 4.59 4.85 3.19 6.59 7.26
14.59 15.60 14.43 15.25 16.19 15.68 16.40 16.69 16.78 15.79 15.26 15.10 15.72 14.80 12.79 11.04 10.00 9.59 10.09 9.05 11.14 10.84 11.21 11.73 12.79 12.00 12.93 13.52 13.38 11.86 11.42 10.51 9.03 8.60 7.56 5.75 2.28 1.35 0.05 -0.58 -1.82 0.38 4.87 1.22
18.87 18.43 17.58 16.31 15.88 15.88 16.30 15.74 14.91 13.90 12.15 12.36 13.13 12.03 11.42 11.47 11.06 8.03 6.64 10.46 11.01 9.61 10.88 10.16 10.29 10.85 10.65 10.08 8.45 8.14 9.46 7.91 5.80 4.80 2.58 0.12 -2.18 -2.24 -0.78 4.27 1.71 -6.29 -6.13 -0.35
20.14 19.72 18.67 18.79 18.42 17.49 14.99 15.70 16.15 15.61 14.07 14.39 12.96 12.31 14.69 11.10 10.47 11.80 11.34 10.30 7.08 5.55 6.81 9.98 8.63 8.80 6.53 8.10 7.90 5.00 4.46 4.66 5.43 3.07 3.35 0.11 2.06 2.97 -3.61 -9.37 -9.41 -10.30 -8.09 -4.28
17.43 17.99 19.18 18.42 17.70 16.53 17.48 17.66 17.10 16.72 15.70 14.88 14.40 14.23 13.18 13.19 7.69 9.66 8.75 8.32 10.89 9.28 4.54 4.48 7.72 8.00 5.26 3.84 3.35 5.29 0.94 0.82 -0.58 0.48 1.93 -4.29 -4.10 -8.99 -9.91 -9.35 -10.26 -8.63 -3.92 -8.63
19.42 18.46 18.32 19.24 19.13 19.25 19.62 19.08 15.78 16.01 14.69 11.40 11.46 6.87 6.73 8.88 11.39 11.23 8.83 7.97 6.61 6.99 7.09 0.10 -4.09 -3.43 -3.34 1.85 -3.52 -4.34 2.11 -2.86 -7.38 -8.04 -3.73 -5.21 -5.55 -1.78 -7.93 -10.81 -7.00 -6.09 -10.26 -13.52
19.86 19.34 18.00 16.71 16.91 15.77 15.83 15.53 13.74 11.52 7.87 2.82 4.27 8.38 9.29 5.32 3.97 6.89 1.74 -1.21 -1.42 -2.05 -2.19 -0.00 0.76 -1.43 -4.85 -2.96 -5.53 -4.22 -5.24 -3.92 -5.97 -6.59 -4.10 -6.64 -8.81 -5.73 -8.99 -13.34 -13.34 -13.71 -12.44 -10.44

GFSNGP_sfc_wetblb_084.txt.gz
Wetbulb
34.72 36.52 36.71 35.81 36.44 37.40 35.62 37.77 34.77 35.86 37.43 41.24 44.02 45.34 46.97 48.42 48.91 48.88 49.90 51.09 51.52 50.40 49.23 49.15 49.14 49.97 51.61 53.27 56.61 57.28 56.39 56.90 56.85 56.85 57.22 57.00 56.85 56.97 57.46 57.55 57.69 57.88 57.50 57.16
29.94 35.28 35.42 34.01 35.93 39.11 37.71 37.32 37.54 38.52 36.33 44.69 47.36 47.72 47.25 47.94 48.41 48.42 49.21 49.30 49.00 47.97 46.96 46.69 46.72 47.01 49.15 50.78 52.04 54.92 55.86 57.37 57.65 57.68 57.49 56.97 56.88 56.91 56.97 56.90 57.21 57.27 56.92 56.66
26.33 32.98 32.93 29.01 34.78 37.31 38.18 39.37 37.97 35.68 40.30 45.20 45.07 45.21 46.42 46.80 47.98 48.34 47.94 47.29 45.93 44.92 44.09 43.17 42.97 44.41 46.61 47.52 48.82 49.20 49.42 51.29 54.52 54.33 56.94 57.88 57.81 57.51 56.99 56.86 56.99 56.93 56.87 57.07
26.67 28.80 21.22 33.86 38.75 39.60 39.70 40.64 41.96 42.30 43.45 45.46 44.11 45.00 45.95 47.81 47.63 46.84 45.64 44.16 43.06 42.17 41.13 40.48 40.78 41.61 44.02 44.36 45.00 45.17 45.69 47.49 48.87 49.10 49.47 51.03 52.64 57.43 57.49 57.40 56.99 57.27 57.38 57.52
23.34 24.36 29.27 32.16 36.77 37.83 36.53 37.07 41.59 42.59 43.77 44.49 44.87 44.08 42.39 45.38 46.09 45.17 44.10 42.72 41.01 40.46 39.25 38.36 38.09 39.79 40.57 39.56 40.17 41.00 41.17 42.24 43.65 44.43 45.06 46.37 46.29 47.27 52.23 57.82 57.26 57.02 57.27 57.25
23.94 22.75 18.74 31.39 39.84 43.88 42.91 32.57 41.47 42.95 42.86 42.12 43.36 37.63 38.90 41.81 41.21 40.40 41.51 40.05 38.08 37.26 36.67 35.75 36.08 38.35 38.26 37.86 37.89 37.98 38.89 38.81 39.25 39.54 39.61 41.58 42.18 44.05 46.46 48.76 57.17 57.79 57.03 57.07
23.62 21.82 27.64 37.08 41.39 43.74 31.56 32.66 41.07 41.93 41.56 41.36 39.12 40.11 39.84 39.81 37.77 37.11 37.06 36.82 37.70 35.77 33.11 32.70 34.19 35.81 35.75 35.92 35.03 37.37 37.51 36.72 35.37 34.77 35.17 36.46 37.37 39.78 42.55 43.87 45.45 54.96 54.57 41.50
25.30 22.76 21.74 40.85 40.97 34.86 38.54 40.43 40.78 41.43 41.17 39.93 39.91 39.27 37.43 36.23 34.56 33.89 33.00 33.89 34.70 34.00 32.06 31.78 32.27 32.56 32.57 32.23 34.32 37.03 35.15 33.56 32.17 31.78 31.44 32.75 33.18 34.41 35.96 38.01 39.13 37.21 35.96 34.27
29.04 27.99 39.21 41.78 41.41 42.92 42.63 40.45 40.45 40.14 41.02 40.36 38.32 36.12 35.48 33.31 32.16 30.94 30.35 30.13 31.49 30.52 29.83 29.42 30.53 30.76 29.79 31.10 33.05 34.90 33.13 31.12 29.70 29.88 29.50 30.26 30.74 30.49 31.07 33.95 33.92 32.83 32.09 30.74
34.77 37.41 38.16 39.44 40.60 40.96 41.35 39.99 40.11 40.38 38.86 37.80 36.13 34.25 31.82 31.49 29.37 28.39 28.07 27.58 28.18 27.23 26.78 26.63 28.50 29.53 29.91 30.89 32.31 32.35 30.45 29.92 28.96 28.64 28.14 28.70 29.68 29.84 29.18 29.21 30.93 30.82 30.56 28.89
34.83 37.10 38.28 38.02 38.26 38.76 37.25 38.60 35.85 34.57 34.53 34.03 33.19 30.17 29.24 27.64 27.50 26.60 26.16 26.46 26.47 25.71 25.87 26.45 27.70 27.82 28.96 29.98 30.53 29.80 29.16 28.65 28.23 27.93 27.37 26.73 27.95 28.60 29.03 29.61 29.71 28.53 28.19 28.20
29.87 33.63 35.67 34.03 36.97 38.13 34.57 32.10 32.38 31.29 28.53 28.56 29.74 27.87 27.35 25.74 25.56 24.63 23.89 24.61 24.58 24.85 24.79 24.94 25.92 27.25 27.37 29.41 28.44 28.06 27.19 26.82 26.98 26.92 26.43 25.28 25.23 25.51 28.38 28.60 30.44 31.39 31.37 29.59
34.03 34.33 32.93 32.95 32.76 34.77 31.95 30.03 29.49 28.03 26.98 24.67 24.66 24.20 23.76 23.13 23.29 24.02 23.14 22.75 22.27 22.33 23.28 23.90 24.07 24.32 27.13 26.18 27.77 26.59 26.28 26.05 25.33 24.48 24.04 23.11 22.76 22.33 20.64 23.94 25.85 26.24 28.15 29.69
36.38 37.57 31.62 31.66 28.79 32.30 30.42 29.10 28.26 25.94 25.47 23.95 22.20 22.51 22.02 20.89 20.87 20.37 20.28 21.13 21.61 21.01 21.20 21.93 22.55 22.36 23.99 23.55 23.44 22.91 22.95 23.13 23.44 23.45 22.76 22.12 21.62 21.60 21.00 20.06 18.81 18.93 22.10 23.85
31.27 32.61 30.66 30.00 29.18 28.78 29.28 27.87 25.08 23.58 23.28 22.32 22.69 20.78 19.46 17.23 16.49 16.60 18.84 19.78 19.69 18.61 18.55 19.24 20.01 21.13 22.52 22.20 21.16 21.87 22.10 21.91 21.55 20.33 19.71 18.93 19.01 18.24 17.86 17.68 17.34 16.78 17.85 18.73
29.75 29.66 29.70 26.88 25.59 25.24 24.88 24.57 23.08 22.22 21.77 20.61 19.64 19.06 18.01 17.03 15.85 15.48 15.17 14.91 14.61 14.55 16.66 16.28 18.16 20.82 21.76 20.02 18.60 19.11 19.64 20.54 19.63 19.10 18.16 17.38 17.33 16.43 16.50 16.18 15.29 14.63 14.13 14.41
25.00 23.88 26.38 24.64 23.51 22.56 22.14 22.03 20.47 18.62 18.12 17.75 17.14 17.29 16.57 15.48 14.24 13.16 12.97 13.60 12.89 12.20 13.54 16.22 16.34 19.21 19.85 17.36 16.90 17.40 18.19 18.62 18.11 17.99 17.58 17.40 16.67 15.15 14.70 14.44 13.47 12.82 12.45 14.18
24.36 24.24 24.25 25.03 22.67 21.35 21.12 20.61 19.85 18.94 17.20 17.08 16.01 14.11 12.73 11.97 11.61 11.97 11.66 11.83 12.21 11.71 11.89 14.06 17.21 17.30 18.69 18.45 17.45 17.63 18.01 17.97 17.86 17.48 17.37 16.17 15.58 15.09 13.53 13.07 12.36 11.25 10.80 10.37
22.75 22.16 22.22 21.79 21.18 20.23 19.47 18.61 17.99 17.28 16.02 15.49 13.75 12.12 11.97 11.09 10.91 10.28 9.78 9.75 10.03 9.93 11.16 13.90 18.68 16.15 15.77 18.21 17.24 16.99 15.94 14.78 14.30 14.73 14.96 13.51 13.34 13.35 11.48 9.47 8.66 8.48 8.15 7.07
19.41 20.12 19.99 19.11 19.00 17.86 15.68 16.14 16.07 14.82 14.72 14.07 13.18 11.76 10.91 10.76 9.70 8.43 9.43 8.08 9.56 11.21 13.17 13.81 15.71 14.83 14.78 14.42 15.06 14.14 13.01 13.13 12.95 10.66 10.10 10.20 8.08 7.24 8.24 7.64 7.04 6.69 5.81 4.64
11.91 12.15 12.73 14.15 13.71 14.56 14.56 15.10 14.93 13.75 13.64 13.04 11.36 9.65 9.13 10.02 10.11 8.05 7.52 7.04 8.67 11.46 12.39 13.46 13.42 13.73 13.90 13.26 12.73 11.58 10.51 9.51 8.00 6.82 5.92 5.11 5.55 4.67 2.81 2.62 2.64 0.05 -0.49 -0.63
9.91 12.01 10.98 12.13 13.78 14.06 15.16 15.59 15.49 14.49 14.49 13.06 12.18 11.07 9.43 8.45 8.16 8.16 7.55 8.33 10.48 9.52 11.39 12.20 12.26 10.14 9.86 10.67 10.80 9.47 9.28 8.16 6.59 6.01 3.58 0.67 -0.16 -0.37 -3.87 -4.09 -2.77 -4.94 -5.35 -9.66
14.56 14.98 15.23 14.18 14.29 14.56 15.51 14.95 13.96 13.39 12.37 12.38 11.02 10.34 10.30 10.51 10.44 7.95 5.89 9.98 11.05 9.82 11.03 8.93 7.28 7.76 7.30 5.72 5.07 4.44 4.90 4.56 2.35 0.43 -0.18 -2.68 -7.48 -8.39 -5.49 -7.30 -8.21 -8.02 -8.02 -7.48
11.93 13.55 13.07 15.78 16.60 15.62 13.60 14.55 15.31 14.17 11.98 12.94 12.04 12.61 12.14 8.46 6.44 11.69 11.10 7.16 4.54 4.65 5.10 7.27 6.73 4.86 2.29 2.14 1.32 -0.93 -2.55 -3.39 -3.32 -4.94 -2.62 -6.03 -10.20 -12.01 -13.64 -14.91 -12.92 -10.20 -11.65 -11.11
15.38 15.52 17.07 17.35 17.53 16.32 16.65 17.14 16.35 15.62 14.60 13.50 12.88 12.57 12.03 12.37 5.75 8.38 6.21 6.84 8.73 5.47 2.19 1.26 2.19 1.43 -0.23 -2.33 -1.58 -5.00 -7.70 -10.08 -10.56 -8.93 -10.02 -9.11 -12.38 -15.64 -17.27 -15.46 -14.73 -12.19 -15.64 -17.27
18.70 17.57 17.82 17.86 17.52 18.38 18.72 18.19 15.57 14.55 12.42 8.40 8.36 2.77 2.39 5.03 7.51 8.24 5.13 4.29 5.73 4.63 0.71 -5.80 -8.94 -10.06 -10.38 -9.32 -11.29 -9.29 -10.02 -7.22 -11.84 -10.74 -12.56 -11.65 -10.38 -14.01 -16.55 -16.73 -17.09 -17.27 -17.63 -18.72
18.54 18.10 16.74 15.75 16.06 15.41 14.60 13.54 10.38 10.13 9.27 1.29 1.68 1.68 1.31 -2.29 -1.39 1.26 -3.68 -6.39 -8.39 -7.12 -2.24 -1.51 -3.52 -1.40 -3.31 -8.04 -9.66 -10.74 -10.74 -10.56 -12.01 -11.47 -14.01 -13.83 -11.65 -11.65 -16.36 -17.63 -18.36 -19.26 -19.81 -19.26

GFSNGP_sfc_wetblb_087.txt.gz
Wetbulb
32.09 34.05 34.55 34.23 34.42 35.52 34.36 35.99 33.22 35.37 36.40 40.66 43.52 44.43 45.53 47.72 48.39 48.10 46.26 45.91 45.95 45.15 45.59 46.80 47.56 49.20 49.57 50.16 51.14 55.04 56.52 57.09 56.75 56.95 57.28 57.86 57.64 57.56 57.69 57.55 57.55 57.47 57.19 56.90
28.21 33.02 32.99 31.38 33.84 35.00 36.50 37.65 37.43 37.28 37.21 43.05 46.00 48.24 46.75 47.13 48.32 45.81 44.65 43.97 43.58 42.92 42.60 42.17 42.95 44.98 45.64 46.51 47.51 49.57 50.59 53.10 55.71 57.06 57.09 56.96 56.87 57.06 57.11 57.45 57.10 56.94 56.65 56.71
25.84 30.41 30.01 26.18 31.54 32.48 37.49 39.14 37.85 34.61 39.48 44.24 44.52 44.49 45.38 46.92 47.49 44.43 43.22 42.30 41.29 40.14 39.73 39.76 40.77 42.36 41.49 42.41 43.63 43.59 44.17 45.99 46.59 47.59 48.93 49.92 53.16 56.62 56.45 56.24 56.65 56.64 56.87 56.90
25.27 27.31 18.64 30.96 36.95 37.52 35.97 40.23 40.58 40.83 42.22 44.84 43.62 44.44 46.96 48.75 44.68 42.62 41.43 40.49 39.26 38.64 38.15 38.48 39.50 39.88 40.02 40.32 40.59 40.36 39.86 40.14 41.62 42.50 43.54 45.57 47.06 46.87 48.08 51.19 56.35 56.56 56.58 56.72
22.89 23.46 26.99 30.56 34.47 35.02 35.27 34.49 40.89 39.07 42.63 43.80 42.77 41.41 39.61 42.61 41.99 40.45 39.39 38.50 37.43 36.61 36.17 36.13 37.58 38.97 38.76 38.37 38.67 38.14 37.27 36.75 37.43 37.47 39.20 40.40 40.01 40.73 43.43 44.96 47.63 49.47 56.35 57.07
23.51 21.60 15.79 28.38 37.19 41.77 41.19 30.68 39.80 42.43 42.60 42.37 43.26 36.76 35.93 38.09 38.61 37.54 37.82 36.64 35.37 34.67 33.69 33.15 33.77 37.68 37.74 36.94 37.23 35.61 35.35 34.27 34.33 33.49 34.90 34.86 35.88 37.26 38.70 41.09 43.24 46.11 47.79 45.80
24.43 23.63 25.92 34.33 39.37 41.86 29.69 31.13 40.02 40.91 40.66 41.59 36.75 38.32 36.77 37.05 35.58 35.77 35.52 35.15 35.46 33.04 30.88 30.81 31.98 33.93 33.36 34.41 34.66 35.42 33.64 32.53 31.56 31.29 32.27 32.31 33.21 34.55 35.81 37.13 39.59 38.43 36.32 33.61
25.63 24.18 21.50 39.55 39.23 32.33 36.26 39.69 40.03 40.70 39.42 37.50 36.58 35.97 34.46 33.48 32.41 31.74 30.65 30.90 31.31 30.11 28.73 29.36 30.18 31.18 31.05 31.15 34.08 34.93 32.92 30.26 30.02 29.98 30.76 31.34 30.95 31.12 32.14 34.54 34.31 33.04 32.17 31.26
29.69 27.45 38.23 39.72 38.85 40.65 41.78 39.91 40.12 39.75 39.70 38.07 35.68 33.72 32.97 30.58 29.42 28.77 28.17 27.88 28.47 27.85 27.47 27.92 28.52 29.38 28.52 29.64 33.00 32.03 30.77 29.04 28.96 28.39 29.13 29.97 29.26 28.88 29.25 30.73 30.97 30.75 29.77 28.52
33.48 37.17 37.54 38.17 37.64 38.52 37.17 34.63 35.58 36.82 36.55 36.29 33.31 32.52 30.70 29.32 27.81 26.65 26.13 25.69 26.60 27.23 26.70 26.31 27.76 28.11 28.81 29.10 31.77 30.14 29.08 28.43 27.97 26.96 27.41 27.20 28.38 29.04 28.61 28.35 27.84 27.23 27.14 26.68
32.74 34.98 36.02 36.68 37.72 35.87 35.07 34.79 32.73 30.90 31.12 31.87 30.79 28.83 28.06 26.60 25.66 24.70 24.47 25.07 25.63 25.16 24.97 25.08 27.16 26.95 28.13 28.43 28.78 28.40 27.35 27.72 27.15 27.28 26.05 25.82 25.58 25.28 26.25 27.83 28.97 27.18 27.02 26.95
28.44 32.04 32.55 32.00 35.76 35.60 32.31 30.31 29.74 28.95 26.43 26.61 27.40 26.57 25.72 24.08 23.95 23.56 22.81 23.64 23.58 23.84 23.62 23.80 23.99 24.66 25.48 27.42 27.26 26.67 25.48 25.27 25.02 24.62 23.40 23.75 23.71 23.24 26.34 25.96 27.41 28.34 28.66 27.35
33.38 33.28 31.65 31.86 33.02 31.71 29.00 27.97 27.31 25.85 24.60 23.03 23.38 24.19 23.73 22.46 22.58 23.02 21.88 21.47 21.12 21.22 22.20 22.88 22.53 21.91 22.78 23.63 24.15 23.56 24.41 24.01 23.59 23.24 22.19 22.29 21.07 20.07 17.58 20.05 23.83 24.92 25.91 26.60
34.09 34.61 31.10 29.32 27.59 29.59 28.03 27.16 26.78 24.93 23.95 23.07 22.32 21.83 21.16 19.55 19.31 18.59 18.44 19.76 19.98 19.39 19.58 20.25 20.51 20.00 20.28 20.09 20.74 20.27 20.89 20.19 19.34 18.56 17.83 17.00 16.14 15.59 15.48 14.30 14.35 15.34 20.26 22.14
29.83 31.23 29.43 29.38 28.84 27.55 27.60 26.29 23.74 22.54 22.33 20.81 20.83 19.16 17.42 15.18 14.62 15.11 16.45 18.29 18.38 17.24 16.82 17.52 17.88 18.60 19.61 19.58 18.66 18.41 19.22 17.80 16.26 16.18 15.77 15.04 14.93 14.50 13.76 13.05 12.58 12.41 13.45 14.84
28.83 29.79 28.00 25.86 24.78 24.22 23.64 23.78 22.30 21.06 20.18 19.65 18.19 17.27 16.30 15.19 13.94 13.41 13.92 13.61 12.80 11.54 14.38 14.58 15.92 18.13 18.45 16.91 16.23 16.58 16.76 17.27 15.60 15.76 14.96 14.16 13.63 13.25 12.49 11.96 10.91 10.25 10.23 10.45
25.03 23.83 25.25 22.98 22.12 21.36 20.74 20.42 19.78 18.51 17.16 16.46 16.04 15.89 14.91 14.00 12.78 11.96 11.88 12.64 10.49 9.91 11.51 13.96 13.33 14.66 14.43 13.03 13.76 15.07 15.68 16.22 14.47 15.86 14.94 14.37 13.49 12.81 12.38 11.12 9.92 8.89 7.59 8.73
23.96 23.26 23.58 23.62 21.82 20.90 19.69 20.15 19.39 18.26 15.97 15.86 14.28 12.22 10.63 10.24 9.52 9.88 9.54 9.00 7.42 8.11 9.69 10.98 12.63 12.50 13.94 13.67 14.54 14.88 14.97 15.21 15.27 14.17 13.90 12.77 12.07 11.46 10.79 9.66 8.73 7.84 7.67 6.95
22.29 21.53 21.93 21.43 21.28 20.11 19.08 17.27 16.43 15.86 14.25 12.87 10.93 9.16 9.18 8.64 8.82 8.53 9.30 8.17 8.05 7.67 9.54 11.78 16.97 13.82 13.04 16.06 14.50 14.39 13.36 11.76 12.19 11.75 11.11 9.06 9.11 9.56 8.74 7.48 6.77 5.69 5.38 4.29
19.63 19.89 19.40 18.17 18.29 16.90 14.58 14.76 14.43 12.90 12.78 12.08 10.88 10.00 9.14 8.88 8.35 6.99 7.23 6.50 8.41 10.12 12.60 12.56 13.38 12.69 12.51 12.05 11.61 11.44 10.01 9.75 10.42 8.58 7.98 6.74 4.89 3.78 5.27 4.81 4.86 3.52 2.08 0.58
10.29 10.19 10.04 10.55 11.00 11.80 11.97 13.00 13.17 11.32 10.86 10.76 8.92 7.42 6.42 7.63 6.94 6.22 6.43 6.78 8.29 10.37 11.97 11.69 10.87 11.35 12.11 11.09 10.67 9.12 7.31 6.40 6.04 4.69 4.10 2.43 2.16 0.58 -0.55 -0.37 -1.39 -3.32 -5.30 -4.76
7.55 10.22 8.39 9.28 11.86 11.88 14.27 14.88 14.92 13.36 11.98 10.40 9.04 7.38 4.92 5.65 4.64 7.04 5.98 8.23 10.43 9.32 10.21 10.80 9.92 6.47 8.17 8.58 8.74 6.91 6.92 5.39 3.57 3.09 0.85 -0.94 -2.53 -5.32 -8.75 -8.93 -8.93 -10.20 -12.92 -14.37
7.57 9.00 9.67 7.47 7.54 8.81 11.62 11.22 9.90 10.79 9.29 8.42 6.56 6.70 8.42 9.78 10.26 6.55 4.84 9.95 11.13 9.24 10.06 7.79 5.34 4.72 3.60 3.71 3.43 2.05 1.71 0.33 -0.70 -3.02 -5.85 -9.29 -9.84 -10.56 -10.38 -11.65 -13.10 -13.10 -13.64 -11.47
9.58 11.07 9.95 11.52 12.25 13.80 11.74 13.10 13.88 12.82 8.03 10.68 7.72 4.95 10.09 5.54 5.23 10.94 9.56 4.76 2.48 2.16 2.57 5.14 3.87 2.76 0.65 -0.91 -1.52 -2.77 -4.60 -5.67 -7.84 -8.39 -4.95 -9.11 -13.82 -14.91 -14.55 -14.73 -11.65 -12.74 -15.27 -15.64
12.12 11.83 13.76 14.36 16.30 15.13 15.12 15.62 15.32 14.51 13.15 12.30 11.62 12.02 12.06 11.71 4.12 5.71 2.34 3.06 5.40 1.67 -1.71 -3.15 -2.80 -4.58 -8.57 -10.20 -10.97 -12.07 -12.60 -13.82 -13.46 -14.55 -14.73 -15.64 -17.63 -19.08 -20.53 -19.81 -19.81 -19.08 -20.89 -21.80
17.79 16.65 16.60 17.87 17.53 17.96 17.64 17.74 14.51 13.96 11.83 6.65 6.53 -1.51 -1.57 0.27 3.79 3.44 0.23 0.27 1.10 -0.31 -3.49 -10.58 -13.47 -14.19 -14.19 -12.56 -14.37 -14.19 -14.01 -10.40 -14.19 -14.55 -15.82 -14.01 -16.36 -17.27 -19.63 -18.72 -20.53 -19.99 -19.81 -20.71
18.19 17.49 16.82 15.73 15.68 15.19 14.11 13.57 12.25 9.87 9.10 3.72 0.55 -4.05 -2.43 -5.67 -5.67 -1.36 -6.39 -8.93 -10.20 -8.20 -6.57 -8.93 -3.32 -6.39 -9.65 -13.28 -11.65 -11.29 -11.10 -12.74 -15.27 -14.73 -18.72 -18.72 -18.54 -19.63 -20.53 -20.35 -21.08 -22.89 -24.34 -23.80

GFSNGP_sfc_wetblb_090.txt.gz
Wetbulb
31.47 32.22 33.07 32.29 32.05 33.63 33.67 33.79 30.42 31.51 34.02 38.06 41.07 43.84 45.14 46.76 45.53 43.20 42.14 41.33 41.10 40.87 42.34 44.16 45.37 46.98 48.30 49.21 51.50 57.28 57.14 56.50 56.06 55.87 55.96 56.24 55.98 56.50 57.31 57.07 56.55 56.68 56.65 56.43
28.42 31.75 30.71 28.36 31.13 31.29 32.20 33.76 34.80 36.00 35.43 42.82 44.79 46.28 45.91 46.71 44.37 42.38 41.29 40.44 39.66 39.13 39.56 40.06 40.79 41.70 42.78 43.04 44.42 46.82 47.64 47.72 48.13 49.55 54.48 55.43 56.78 56.99 56.91 56.77 57.07 57.10 56.58 56.00
24.67 29.21 28.31 24.55 28.52 29.94 30.62 36.70 36.28 32.48 37.68 43.47 42.63 44.46 45.39 44.21 42.93 41.71 40.62 39.25 38.41 37.75 37.74 38.40 39.01 39.81 39.67 40.38 41.09 40.76 41.41 42.07 43.11 44.92 45.95 46.26 47.89 47.82 48.81 51.39 56.16 57.00 57.01 56.87
24.90 27.13 16.47 29.03 34.14 33.93 33.66 35.53 39.38 39.23 39.58 43.50 41.65 40.72 42.01 43.46 40.99 39.12 38.21 37.26 36.65 35.92 35.96 36.42 38.70 39.10 39.37 39.24 38.44 37.64 37.00 36.69 37.18 39.27 40.70 41.55 42.05 42.37 43.43 44.94 46.67 48.97 50.35 54.50
21.95 22.92 25.67 29.35 33.09 33.74 31.58 31.73 37.90 38.16 40.55 43.55 40.69 39.42 37.53 39.20 39.01 37.35 36.62 36.05 34.45 34.28 33.86 34.16 34.21 38.77 38.61 37.87 36.40 35.31 33.97 33.61 33.60 34.87 35.11 36.07 37.16 37.88 39.46 40.91 42.89 44.77 43.68 39.41
23.65 20.70 14.48 27.08 34.44 39.14 37.51 25.87 38.76 39.33 41.04 41.42 42.58 37.01 34.47 37.34 37.49 36.12 36.03 34.84 32.81 32.34 31.83 31.37 31.87 35.61 36.08 36.11 35.39 32.54 32.32 31.58 32.00 32.50 32.59 32.58 32.99 33.39 36.35 39.00 40.17 40.25 36.26 34.44
24.29 23.10 25.69 33.10 38.21 39.94 25.60 27.05 38.17 38.21 40.82 40.03 35.31 36.96 35.51 35.04 33.13 32.87 32.05 31.30 31.84 30.71 29.10 29.33 30.73 33.36 32.59 33.23 33.36 33.07 31.45 30.94 31.06 31.49 31.73 32.00 31.82 32.72 33.76 35.60 35.65 34.54 32.64 31.40
26.75 23.61 20.02 37.62 37.41 30.25 36.26 39.00 38.71 37.84 36.52 34.45 33.41 32.54 31.74 31.10 29.67 29.02 27.83 28.10 28.75 28.14 27.98 28.92 29.88 30.53 30.02 29.68 32.72 32.17 31.02 29.20 29.41 30.10 30.76 30.93 30.53 30.74 31.66 31.97 31.70 30.40 30.15 29.38
28.96 27.45 36.91 37.48 35.80 37.34 38.41 36.12 37.35 37.10 36.37 34.70 32.87 31.24 30.76 28.88 27.41 26.48 26.15 26.27 28.38 27.86 27.54 27.84 28.54 28.72 27.42 28.55 31.25 30.42 28.93 27.78 27.57 27.12 27.29 28.85 28.53 28.35 29.07 29.09 28.44 27.86 26.88 25.98
31.33 33.29 35.10 36.56 36.87 35.10 34.29 32.84 33.85 34.42 34.04 34.47 31.88 31.01 28.69 27.38 26.22 25.26 25.50 25.54 26.42 25.95 25.08 25.51 26.95 27.01 27.69 28.19 30.56 29.44 27.36 26.74 27.09 25.76 24.77 25.02 26.09 26.84 27.02 27.50 26.70 26.72 25.76 25.44
32.24 32.95 34.72 33.59 34.23 35.10 33.55 32.47 29.59 28.86 29.23 29.23 28.40 26.50 25.73 24.59 24.05 23.77 24.01 24.47 24.83 24.18 23.72 23.11 24.23 24.64 25.40 27.14 28.18 27.06 26.73 26.28 25.46 25.33 25.35 24.13 24.50 24.72 25.47 26.95 27.61 25.80 25.53 25.97
27.26 30.79 31.68 29.58 31.66 32.33 29.22 27.98 28.58 27.54 25.43 25.68 25.97 24.51 24.10 22.76 22.84 22.45 21.98 22.60 22.26 22.79 22.69 21.82 21.83 21.58 22.36 24.52 26.12 26.16 24.76 23.96 22.86 22.67 22.29 22.20 22.03 21.94 25.60 25.79 26.77 27.51 27.42 25.78
32.33 33.32 31.48 31.06 30.58 30.06 27.20 26.29 25.02 24.10 23.92 22.78 23.83 23.25 22.32 21.19 21.15 21.73 20.33 20.26 19.85 20.03 20.66 20.77 20.43 19.78 20.00 21.50 22.97 21.85 20.72 21.10 20.43 19.45 19.31 19.11 17.34 16.46 14.30 18.66 22.80 24.12 25.01 25.71
31.86 32.38 31.38 28.64 26.19 27.99 26.72 25.35 25.31 23.41 22.82 21.66 20.62 20.51 19.81 18.07 17.96 17.61 17.84 19.02 18.67 17.97 17.93 18.61 18.56 17.72 18.51 17.55 17.34 17.34 16.32 16.64 16.26 15.59 14.85 14.07 12.98 12.30 12.22 11.38 11.02 11.65 17.81 20.39
28.75 29.97 28.30 28.40 26.67 25.54 26.07 24.67 22.30 21.09 20.70 19.48 19.49 17.90 16.97 14.99 14.13 14.20 15.80 17.69 17.43 16.01 15.77 15.78 15.85 15.92 17.86 18.47 16.83 15.37 16.71 14.52 11.03 12.01 12.27 11.22 11.48 11.39 10.84 9.95 9.32 9.16 10.11 11.91
26.93 28.35 26.06 24.10 22.71 22.25 22.02 22.37 20.66 19.67 18.61 17.65 16.32 15.63 14.91 14.35 13.46 13.11 13.17 12.84 11.88 10.58 12.85 13.01 13.64 14.56 16.59 14.70 13.21 13.24 12.71 14.08 12.29 11.59 10.87 11.11 11.07 10.32 9.59 8.51 7.28 6.11 5.61 6.62
23.65 23.96 22.87 23.06 21.11 20.16 19.36 19.78 18.88 16.75 15.55 14.83 14.64 14.90 14.22 13.39 12.35 11.66 11.08 12.29 11.53 10.91 11.52 12.24 11.61 12.94 13.31 12.08 10.94 10.21 11.45 13.37 11.93 13.41 12.08 11.37 10.80 9.53 8.43 7.16 5.94 4.75 3.09 4.19
22.96 22.55 22.97 23.10 21.60 19.95 19.24 19.41 18.54 16.90 14.83 14.39 13.21 11.58 10.01 9.81 9.25 9.50 9.20 9.64 9.19 9.30 9.95 10.56 10.11 9.87 11.19 10.29 11.42 11.97 11.69 12.80 12.63 11.35 10.97 9.17 8.75 8.44 6.61 5.64 5.47 4.27 3.61 4.01
21.61 20.76 20.85 21.17 20.17 18.53 16.77 15.44 15.08 14.52 12.32 10.59 9.22 8.30 8.30 7.43 7.26 5.57 4.41 7.40 7.63 7.40 8.41 9.39 16.00 12.44 11.30 14.35 12.44 11.77 10.28 9.11 9.80 8.93 8.54 5.14 5.06 6.13 4.41 2.59 1.36 0.82 2.07 1.87
19.28 19.19 17.95 16.40 16.60 15.56 12.58 11.85 11.04 10.19 9.67 9.45 8.45 7.90 7.43 6.61 6.32 4.90 5.96 5.94 7.38 8.95 10.78 10.76 11.96 11.42 11.36 10.47 9.67 9.56 7.80 6.16 8.07 4.51 3.64 2.57 -1.42 -2.26 -1.00 0.71 1.13 -2.66 -6.40 -3.26
8.71 8.97 8.48 9.36 7.57 7.16 4.68 4.15 6.15 6.73 4.84 4.88 5.49 1.85 2.80 3.39 4.52 3.99 5.53 6.35 7.71 9.73 11.03 10.55 9.68 9.98 10.38 9.69 9.16 7.10 4.23 1.59 1.57 1.18 -0.23 -4.96 -5.67 -4.07 -5.85 -8.02 -7.83 -9.27 -8.92 -8.55
4.57 6.79 4.86 6.36 9.91 10.14 9.79 8.96 9.72 6.40 5.14 2.17 -1.36 -2.52 -1.36 2.11 1.35 4.41 2.98 7.76 10.20 7.96 9.54 9.16 8.28 4.34 6.16 7.41 7.26 5.17 5.43 3.38 1.34 0.32 -2.84 -5.30 -8.03 -10.90 -14.34 -14.16 -14.70 -14.88 -16.33 -16.88
6.70 8.46 8.42 6.03 7.05 7.38 10.05 10.03 6.05 6.42 3.05 0.34 -0.95 0.29 3.49 6.56 6.85 2.63 2.48 8.73 10.35 7.10 8.82 6.01 3.22 2.36 1.62 1.52 0.87 -0.20 -0.75 -1.48 -2.50 -4.97 -11.08 -13.61 -14.16 -15.43 -14.16 -14.34 -14.88 -15.07 -15.97 -14.16
7.44 9.13 8.01 10.26 10.69 12.47 10.84 12.25 13.51 11.53 4.87 8.01 3.69 1.98 8.93 3.29 2.11 9.37 7.98 3.06 -0.09 -1.02 -0.45 0.45 -1.34 -1.66 -3.76 -6.63 -8.05 -9.45 -11.08 -12.71 -13.25 -13.43 -10.73 -14.34 -18.51 -18.15 -16.88 -18.33 -16.33 -18.87 -19.42 -20.14
10.83 10.27 11.33 11.37 13.42 11.02 13.44 14.67 14.27 13.96 12.27 11.91 11.22 11.26 10.73 9.47 0.32 2.55 -0.31 -0.33 2.72 -1.09 -5.90 -8.18 -7.81 -9.99 -14.34 -15.79 -16.33 -16.52 -17.42 -17.60 -17.78 -17.78 -17.97 -18.69 -19.42 -21.23 -22.86 -22.68 -22.50 -21.59 -23.22 -24.13
15.48 13.82 14.98 16.66 16.67 16.69 15.86 15.88 14.37 12.85 10.85 3.92 3.88 -5.28 -5.09 -3.28 0.96 1.12 -2.20 -2.92 -0.81 -2.06 -5.88 -12.53 -15.07 -15.79 -16.15 -14.16 -16.33 -17.06 -16.52 -12.56 -16.88 -16.88 -18.87 -17.78 -20.50 -19.05 -21.05 -19.78 -21.77 -21.23 -23.04 -23.95
13.80 13.34 13.94 14.06 13.63 12.84 11.18 11.28 10.83 9.56 8.97 3.81 0.75 -4.02 -3.64 -7.63 -8.36 -3.30 -8.54 -11.08 -12.89 -12.35 -13.07 -14.16 -11.62 -10.35 -12.53 -15.97 -14.16 -13.07 -14.88 -15.61 -16.88 -16.52 -19.60 -20.32 -21.41 -21.05 -19.78 -20.69 -22.32 -24.86 -26.49 -26.67

GFSNGP_sfc_wetblb_093.txt.gz
Wetbulb
32.98 34.17 34.89 33.43 32.84 33.74 33.09 34.39 30.52 32.64 33.40 37.99 41.30 43.32 45.47 45.01 43.92 42.18 40.54 40.04 39.40 39.45 39.88 40.35 41.21 42.33 43.72 45.69 49.17 56.38 56.26 55.94 56.62 57.58 58.13 58.85 59.11 59.19 59.21 59.23 59.19 59.32 58.67 57.95
29.33 32.88 32.42 30.48 32.77 32.88 33.50 34.37 34.39 35.34 35.55 43.04 44.70 44.44 45.45 43.62 42.19 40.07 38.67 38.63 37.81 37.22 38.60 38.97 39.29 40.02 40.96 41.16 42.72 43.93 44.64 45.37 47.09 48.54 48.96 49.38 50.68 55.09 57.15 57.33 57.56 57.86 58.22 58.68
25.00 30.70 30.03 25.81 30.52 31.61 32.66 34.58 36.94 33.14 38.79 43.76 40.39 39.35 41.91 41.57 39.98 37.92 36.65 36.17 35.66 35.53 35.07 36.26 39.18 39.54 38.73 38.92 39.42 38.23 37.98 39.50 40.87 42.84 43.26 43.85 45.57 46.19 46.17 47.02 49.40 50.90 52.76 54.65
25.89 28.28 17.96 30.39 36.38 35.81 34.38 36.08 38.79 39.79 41.75 43.56 40.62 38.61 37.41 39.80 38.14 36.59 35.28 34.39 33.79 33.58 34.05 34.57 37.73 38.95 38.88 37.33 36.90 35.89 35.15 35.65 36.87 37.92 38.49 40.08 40.94 41.30 41.64 43.80 45.52 46.00 41.44 39.87
24.06 23.76 27.52 30.55 35.25 34.29 33.10 32.85 38.60 38.33 41.53 42.84 40.23 38.36 34.21 36.97 36.97 35.49 34.34 33.74 32.57 32.73 32.74 33.47 35.56 37.48 37.77 36.66 35.30 33.89 33.29 34.32 34.92 35.86 36.27 37.18 37.53 38.28 39.80 42.10 41.57 38.65 36.86 34.96
26.62 20.64 17.95 29.29 36.26 40.46 39.35 28.48 37.62 39.11 43.04 42.06 41.57 37.05 32.40 33.76 33.31 32.10 32.36 32.30 30.94 31.22 31.42 31.64 33.37 35.54 35.24 34.60 33.10 32.01 32.39 33.31 34.50 34.77 34.41 34.15 35.09 35.78 38.04 38.68 37.27 35.52 33.04 32.54
24.84 23.10 27.20 34.96 38.47 40.04 27.36 29.41 37.20 37.59 36.48 37.87 32.32 33.92 32.34 31.69 30.47 30.37 30.45 30.47 31.31 30.50 29.38 29.69 31.74 33.26 31.88 32.53 31.03 31.78 32.24 32.23 32.53 33.23 33.11 33.30 33.70 34.23 35.09 35.40 34.74 32.96 31.24 31.16
26.50 23.75 20.75 37.20 37.83 32.50 36.36 38.31 37.95 36.20 34.42 32.30 32.14 31.63 30.42 29.55 28.38 28.04 27.94 28.89 30.05 29.14 28.18 28.98 29.70 30.61 29.52 30.14 31.36 31.85 31.10 29.27 29.09 30.00 30.83 31.19 31.85 31.97 32.08 32.20 31.28 30.57 30.62 30.66
30.13 29.97 35.07 36.12 34.53 35.27 36.91 34.44 35.16 34.81 34.45 33.27 30.97 29.10 28.59 27.27 27.01 26.94 27.00 27.29 28.03 27.97 26.78 27.34 27.72 27.95 27.26 29.42 30.85 30.07 29.40 27.89 27.70 28.18 28.63 29.20 29.24 29.86 29.89 30.02 29.55 28.60 28.38 27.98
31.76 32.72 31.66 33.56 34.70 34.37 32.99 30.23 31.57 33.40 33.44 32.62 29.52 28.71 26.91 26.21 25.70 26.00 25.66 25.55 26.61 26.17 25.14 24.81 26.01 26.17 26.90 28.58 29.80 29.07 27.95 27.79 27.72 26.88 27.14 27.74 28.43 28.81 28.32 28.32 27.99 27.82 27.46 27.15
31.59 31.59 33.38 30.67 32.19 32.15 31.04 31.32 29.54 28.50 29.39 28.84 28.00 26.21 26.06 24.90 24.36 24.23 24.22 24.97 25.24 24.34 23.85 23.27 24.67 24.54 25.40 26.89 29.12 27.84 26.95 26.44 26.26 26.16 25.75 25.18 26.02 26.42 26.74 27.87 27.95 26.49 26.82 27.28
26.80 30.44 29.94 28.28 30.22 30.35 27.85 26.50 26.74 26.93 25.72 26.49 26.83 24.78 24.43 22.89 22.68 22.76 22.53 23.63 23.19 23.16 22.94 22.74 22.98 22.72 23.47 25.54 26.78 27.26 26.04 25.41 25.24 25.31 24.58 24.63 23.95 22.54 24.97 25.46 26.44 26.92 27.13 27.05
31.16 33.26 30.27 29.70 29.30 29.16 26.53 25.43 25.42 24.46 24.41 22.76 23.49 23.53 22.67 21.39 21.62 21.87 21.16 20.78 20.46 20.58 21.09 21.68 21.32 20.69 21.49 22.62 23.26 22.63 23.13 23.49 23.41 22.83 22.61 22.32 21.45 21.27 20.22 20.45 21.53 22.30 24.11 24.93
30.87 32.34 28.67 27.54 25.60 27.48 26.16 24.71 24.51 23.24 22.88 21.74 20.89 21.10 20.07 18.87 18.83 18.87 18.81 19.63 19.78 19.59 19.32 19.53 19.23 18.54 20.27 20.69 20.14 18.94 20.11 18.06 21.05 20.50 20.45 20.00 19.55 19.04 19.13 18.95 18.50 17.45 18.47 20.03
28.87 29.63 28.46 27.41 25.87 25.08 26.01 24.79 22.53 21.47 20.87 19.79 20.01 18.83 18.04 16.33 15.58 15.65 17.98 18.41 18.55 17.27 16.82 17.27 16.98 17.16 20.04 20.94 19.79 19.99 21.28 19.60 19.33 19.18 18.63 17.92 18.48 18.13 17.73 16.97 16.17 16.02 17.46 16.77
27.33 27.32 26.28 24.26 22.73 22.35 22.47 22.42 20.73 18.89 18.28 17.69 16.87 16.32 16.03 15.68 14.82 14.48 14.58 14.73 14.42 13.07 14.17 13.71 14.95 15.84 17.42 18.49 19.46 19.92 19.25 17.09 18.03 19.38 18.69 18.42 17.80 16.96 15.85 15.00 13.95 13.05 12.81 12.77
24.97 23.46 23.49 22.53 21.50 20.48 19.65 19.73 18.55 16.99 16.18 15.56 15.22 15.42 15.07 14.24 13.26 12.48 12.35 13.04 12.46 12.51 13.87 13.89 13.24 13.97 14.82 15.15 18.20 19.54 19.59 18.65 16.23 18.45 17.54 16.99 16.12 15.05 14.24 13.42 12.05 11.22 10.25 9.22
23.46 23.06 23.50 23.18 21.72 20.29 19.44 19.11 18.25 17.03 15.36 15.07 13.86 12.49 11.15 11.04 10.62 10.30 10.56 11.93 11.74 11.61 12.48 13.44 15.36 14.54 15.35 16.18 17.47 18.36 18.27 17.66 16.94 15.93 15.65 15.11 14.28 13.59 12.81 11.98 11.16 10.28 10.12 8.46
21.88 20.83 21.13 20.40 19.96 18.62 17.53 16.57 16.05 15.13 13.39 12.87 11.72 10.01 10.11 9.75 10.34 10.38 11.22 10.46 10.27 11.17 11.47 13.71 15.85 15.04 14.81 16.05 15.90 16.58 16.20 15.67 14.72 14.16 13.64 11.17 12.50 11.83 10.97 10.38 9.37 8.95 8.87 8.33
18.25 18.29 17.85 16.82 17.20 16.00 13.26 12.93 13.26 11.87 12.48 11.78 10.44 10.22 9.47 8.62 9.45 9.38 10.24 9.25 10.39 11.87 13.18 13.17 13.92 13.83 13.69 12.92 13.39 14.43 14.10 13.82 12.44 11.36 11.47 10.72 10.70 10.17 9.41 7.23 8.12 7.74 7.75 7.05
12.05 12.30 11.28 11.49 10.44 10.32 9.57 10.09 10.45 10.17 9.30 9.52 9.63 7.18 6.28 6.57 7.01 7.63 9.62 10.08 10.60 11.93 12.28 11.75 11.91 12.62 12.90 12.82 12.97 12.74 12.29 11.25 10.42 9.82 9.33 8.85 8.82 8.12 7.57 7.56 7.16 7.14 6.67 6.58
11.64 11.77 10.53 11.28 12.00 11.64 11.30 12.17 11.32 9.03 8.60 6.46 3.56 3.85 5.68 7.67 7.70 8.98 9.46 10.70 11.98 10.54 11.58 11.64 11.01 7.58 9.95 10.56 11.58 11.17 10.72 10.08 9.39 9.06 8.07 7.80 7.36 6.92 6.13 6.23 5.58 5.43 5.53 5.28
12.55 12.79 12.13 10.62 11.66 12.66 12.85 12.56 10.56 11.04 9.27 8.07 7.56 9.17 10.73 11.64 12.00 9.76 8.69 11.11 12.39 10.01 11.30 9.98 6.37 5.37 5.27 9.83 9.69 8.98 8.42 7.70 7.40 6.59 6.29 6.14 6.10 5.96 6.30 5.84 5.40 5.21 5.02 4.86
13.08 13.70 13.03 13.55 14.00 14.47 13.12 13.73 14.37 12.86 9.73 10.58 8.60 8.00 12.02 11.15 10.68 11.74 11.14 7.08 5.06 7.78 8.43 7.82 6.05 3.02 4.02 7.39 7.06 6.78 6.80 6.68 6.27 6.39 5.72 -0.48 5.73 4.84 5.41 4.33 4.69 5.14 3.47 1.90
14.51 14.27 14.71 14.39 15.10 15.46 14.97 15.55 14.85 14.62 13.78 13.57 13.25 13.04 12.45 12.53 11.65 11.91 11.71 9.57 6.79 7.12 9.11 -0.03 0.64 -0.65 7.40 7.30 6.66 5.59 6.31 6.72 6.28 6.62 6.19 6.30 5.58 4.59 4.72 3.92 2.55 3.74 2.43 1.73
16.59 16.88 16.89 17.19 17.98 18.59 17.69 16.95 15.84 16.00 14.30 11.82 11.18 10.32 10.43 10.43 11.29 11.64 10.18 6.90 9.05 5.39 9.52 8.05 6.97 7.03 7.45 7.19 6.51 5.18 6.25 6.82 6.21 6.45 3.99 5.24 4.41 4.51 3.31 3.19 2.44 2.85 2.85 2.10
17.85 17.24 17.13 16.54 15.76 15.46 15.12 14.48 15.89 15.42 14.83 13.73 12.37 10.23 9.93 9.78 9.24 8.97 3.95 9.19 8.87 7.35 7.00 7.39 6.89 5.32 6.92 6.31 6.26 6.29 5.60 5.91 1.48 4.63 4.55 4.58 3.69 3.82 2.46 2.30 2.62 2.36 0.43 -1.15

GFSNGP_sfc_wetblb_096.txt.gz
Wetbulb
36.88 37.55 37.95 36.55 35.54 35.97 35.22 36.34 32.70 35.97 36.54 41.10 44.05 44.69 46.37 42.78 40.99 40.31 40.22 38.16 36.02 35.35 37.02 39.80 40.40 41.33 42.21 42.81 45.20 52.27 53.51 53.71 55.97 57.52 58.25 58.26 59.99 60.09 59.88 59.66 59.27 59.43 58.99 58.91
32.43 35.76 35.20 32.79 34.47 35.13 35.54 36.03 36.47 37.43 38.19 45.71 45.79 43.86 39.82 39.64 38.87 37.45 35.54 36.11 35.78 34.94 34.92 38.12 38.49 39.20 39.50 39.55 40.69 41.90 42.17 42.63 45.15 46.48 48.30 48.98 49.89 50.43 54.25 54.68 56.72 58.90 58.92 59.08
28.60 33.00 32.18 29.27 33.49 34.65 36.17 38.46 38.03 34.87 40.25 45.48 42.72 39.67 38.39 37.77 37.40 36.02 35.67 35.03 33.14 33.18 33.44 36.50 38.74 37.61 36.83 37.77 38.96 38.63 39.42 38.81 39.55 41.14 42.35 43.59 44.83 45.32 46.16 47.66 48.61 45.96 45.18 42.11
29.41 30.28 21.79 33.63 39.31 39.54 37.30 38.80 40.59 41.19 43.48 44.24 40.33 37.06 36.55 37.53 36.47 34.76 33.89 33.23 32.28 32.09 32.99 34.13 36.98 37.71 36.47 36.64 36.25 37.93 37.56 36.71 38.03 38.36 38.48 40.40 40.82 41.92 44.22 43.99 41.52 39.58 39.05 39.95
27.52 27.62 30.50 34.13 36.82 36.13 34.97 35.16 39.66 39.38 42.24 40.34 38.88 37.76 33.84 34.53 33.91 33.00 32.72 33.18 32.99 33.29 32.46 33.18 35.05 36.62 36.26 34.89 34.13 34.26 34.02 34.74 37.39 36.49 36.59 37.91 38.20 39.93 41.15 40.06 37.16 35.67 35.23 35.13
30.14 23.87 21.26 32.98 38.84 42.43 41.42 32.02 37.69 38.24 39.83 41.49 39.06 37.54 31.85 31.29 31.49 31.75 32.10 32.27 32.92 33.99 32.57 33.02 33.72 35.38 34.48 33.52 33.39 32.35 32.65 33.47 35.84 35.55 36.01 35.84 37.19 39.23 38.97 37.35 35.39 34.64 33.42 33.57
28.42 26.73 30.49 36.25 40.41 42.47 30.21 31.57 38.01 37.00 34.29 32.90 29.14 29.87 31.20 30.97 29.96 31.95 32.30 32.52 33.87 34.26 33.24 31.80 33.10 34.64 33.17 32.41 31.15 31.75 32.64 34.16 33.37 33.26 33.85 35.32 35.90 36.86 37.57 36.82 36.20 35.14 33.87 33.75
30.25 26.24 22.77 35.01 39.19 33.20 33.93 36.99 36.36 35.33 33.86 31.19 30.34 30.51 29.38 28.91 28.37 30.41 31.39 31.12 32.42 31.47 30.85 31.76 31.70 32.14 31.31 30.86 33.04 32.77 31.67 30.88 31.18 31.53 32.44 33.58 33.77 34.88 35.82 35.36 34.58 34.48 33.92 33.02
29.79 28.17 33.65 33.63 32.70 33.50 34.38 32.92 34.70 35.05 34.94 33.47 31.24 30.01 29.56 28.58 28.08 28.45 28.60 30.06 31.47 30.30 29.56 29.43 29.98 30.68 29.51 30.28 32.29 32.39 32.17 31.11 31.21 30.73 30.74 31.09 31.37 32.37 32.26 32.60 32.42 31.18 30.95 31.25
32.80 31.21 31.17 33.33 33.44 33.29 32.97 31.94 31.83 33.56 33.77 33.14 30.30 29.83 28.44 28.52 28.22 28.22 28.33 29.07 31.07 30.57 28.95 27.82 28.84 28.57 29.15 30.93 31.59 31.06 29.95 30.26 30.24 28.63 28.81 29.76 29.87 29.54 29.87 30.32 29.81 29.85 29.85 29.41
31.73 33.03 33.01 32.20 32.00 32.74 32.10 32.66 31.35 31.76 32.04 31.91 31.55 30.03 29.99 28.62 28.20 28.18 28.41 29.12 29.70 28.51 27.49 27.08 27.80 27.99 28.76 30.09 32.18 30.54 29.11 28.64 29.17 28.97 26.81 26.02 26.15 27.07 26.95 27.93 28.12 28.18 28.23 28.61
28.97 31.75 32.10 29.96 31.29 31.47 29.31 28.70 29.97 30.54 29.50 30.05 30.51 28.70 28.30 27.00 26.99 27.12 26.70 27.60 27.76 27.26 26.87 26.28 26.75 26.21 27.13 29.08 30.44 30.56 29.36 29.27 28.91 29.13 28.92 28.03 26.04 24.02 24.84 25.18 26.26 26.52 26.76 27.80
31.05 33.11 31.55 30.64 31.33 31.06 29.04 28.87 29.18 29.10 29.01 27.49 27.77 28.22 27.13 25.93 25.50 24.59 25.54 25.41 25.05 24.79 25.66 25.73 24.92 24.46 25.68 26.55 27.06 27.42 27.68 28.59 28.49 28.56 28.72 27.84 27.72 27.30 24.04 22.91 22.40 23.01 24.11 24.67
33.50 33.64 29.71 30.81 29.05 30.40 29.46 28.76 27.90 27.83 27.38 26.52 25.86 25.47 24.40 23.70 23.56 23.14 22.41 22.86 23.69 23.56 23.15 23.48 23.20 22.37 24.60 25.73 25.80 25.69 26.14 25.29 27.74 27.43 27.31 26.71 26.31 25.72 25.94 25.36 23.62 22.38 20.45 21.10
31.11 32.62 31.65 30.59 29.60 28.98 29.47 28.46 26.94 25.84 25.05 24.15 24.36 23.35 22.73 20.84 20.09 20.23 21.83 22.59 22.61 21.72 21.18 21.52 20.81 21.07 23.52 24.99 24.66 24.89 26.99 26.37 26.44 25.99 25.53 25.64 26.02 25.72 25.45 24.70 23.80 23.38 23.84 22.84
29.88 29.78 29.20 27.49 26.60 26.26 26.30 25.83 24.25 22.87 22.71 22.01 20.98 20.29 20.39 20.16 19.46 19.00 19.12 19.03 19.56 18.04 18.40 17.52 18.19 18.90 21.03 23.55 25.55 25.91 24.66 22.56 24.63 25.95 25.44 25.03 24.84 24.33 23.69 22.96 22.23 21.00 18.87 17.93
27.73 25.89 26.53 24.39 24.02 23.40 22.57 22.82 22.39 20.90 20.22 19.58 18.89 19.33 19.11 18.25 17.56 16.60 16.17 17.13 16.51 17.10 18.18 18.33 17.54 17.68 19.63 20.53 24.31 24.88 25.45 24.49 22.38 24.82 24.09 23.73 23.26 22.47 21.78 21.18 19.78 18.38 15.26 13.95
26.95 25.95 25.61 25.63 24.35 23.20 22.02 21.69 21.44 20.71 19.41 18.97 17.37 15.95 14.83 15.18 14.99 14.42 15.06 15.63 15.70 14.76 16.37 17.48 18.05 18.79 19.10 20.33 22.69 24.22 24.52 23.78 23.14 22.44 22.35 21.62 20.94 20.57 19.95 18.84 18.16 17.20 16.95 14.43
25.38 24.31 23.86 23.24 23.42 22.88 21.86 20.70 19.91 18.51 16.75 16.28 15.12 13.76 13.78 14.03 14.80 14.32 14.92 14.61 15.13 15.59 15.17 16.89 17.51 18.61 18.61 18.16 21.22 23.11 22.51 21.86 21.27 20.56 19.80 18.20 19.16 18.52 17.99 17.65 16.63 16.25 15.91 15.08
21.85 22.32 21.88 21.06 21.09 20.24 17.49 17.52 17.24 15.95 15.58 15.07 14.03 14.10 13.11 11.61 12.42 12.86 14.26 12.96 13.76 15.27 16.60 16.17 17.84 18.02 18.05 16.97 17.96 21.04 20.50 20.08 18.55 18.00 18.17 18.38 17.95 17.03 15.10 12.63 14.83 15.21 15.22 14.29
17.80 17.73 16.64 15.99 15.35 15.36 15.60 16.02 15.47 14.58 13.92 14.15 13.90 10.93 10.73 11.91 11.81 12.33 15.56 17.51 14.98 14.63 15.40 15.30 16.02 17.84 17.91 17.46 19.20 19.44 18.95 18.04 17.41 17.25 16.66 16.26 16.17 15.37 15.06 14.75 14.58 14.48 14.19 13.77
17.73 16.48 15.85 15.93 16.19 15.56 16.10 17.10 15.56 13.80 13.26 10.92 9.34 9.73 10.84 13.13 12.24 13.06 12.30 14.66 16.99 12.68 15.97 16.83 15.74 11.46 14.30 14.82 17.41 17.07 16.57 16.01 16.07 16.17 15.23 15.16 14.92 14.31 13.82 13.93 13.62 13.52 13.67 12.98
18.55 18.26 17.48 16.60 17.48 17.77 17.68 16.68 15.61 15.29 13.58 12.06 12.14 13.99 15.64 16.37 16.82 16.01 15.70 14.83 17.27 13.21 16.21 14.83 10.30 9.70 11.12 15.50 15.87 15.34 14.71 13.95 13.66 13.39 13.52 13.46 13.40 13.25 13.33 12.99 13.23 13.26 12.99 12.51
19.21 19.12 18.52 18.93 18.54 18.96 18.36 18.50 18.71 17.23 14.86 15.03 13.44 13.23 16.04 18.26 18.20 17.80 16.35 12.11 10.22 12.60 13.46 12.91 10.81 8.51 10.21 14.21 13.53 13.26 14.02 13.94 13.94 14.19 12.69 6.74 13.16 12.38 12.78 11.31 11.17 12.09 10.40 8.74
19.12 18.99 18.70 18.52 19.54 21.85 19.51 19.66 19.08 18.58 17.63 18.20 17.26 16.88 15.92 17.75 16.92 17.94 17.36 15.34 9.61 12.69 15.37 6.52 6.07 7.29 13.71 14.07 12.85 12.15 12.81 13.83 12.53 13.53 13.31 13.36 12.63 11.48 11.60 11.73 9.05 10.00 9.49 8.64
20.70 22.10 22.57 20.56 20.75 21.36 21.82 20.82 19.34 20.52 19.16 18.17 18.62 19.40 19.06 18.25 17.58 16.69 16.03 12.63 13.30 11.46 14.69 15.47 14.37 13.43 14.08 13.53 12.44 11.83 11.74 12.55 11.69 12.09 10.02 10.92 11.05 10.09 9.81 9.22 8.79 8.79 9.13 8.78
21.89 19.98 21.32 20.74 21.69 21.44 20.63 19.65 19.06 18.93 19.48 19.36 17.97 17.93 17.75 17.61 17.11 14.58 11.74 15.64 15.51 14.89 14.59 14.67 14.19 12.23 13.24 12.37 12.31 12.21 11.89 12.08 9.01 10.47 10.87 10.76 10.37 10.26 9.38 8.74 9.06 9.20 8.55 7.30

GFSNGP_sfc_wetblb_102.txt.gz
Wetbulb
36.57 38.51 38.57 36.85 37.07 37.93 37.22 37.43 32.23 35.82 37.11 38.44 38.99 38.07 38.20 38.16 37.31 36.29 35.82 35.48 34.96 34.85 35.03 35.98 36.17 35.87 36.25 37.40 39.05 41.19 43.00 44.91 47.95 53.96 58.03 58.62 58.94 59.97 59.78 59.39 59.30 59.50 59.22 58.47
32.47 38.98 36.98 33.91 36.74 37.05 37.61 38.43 38.86 38.65 36.52 41.01 40.37 39.34 37.00 36.28 35.30 34.33 34.15 34.08 33.86 33.99 34.24 34.20 35.01 35.48 35.38 35.95 37.27 38.54 38.76 39.81 41.99 44.82 46.46 48.85 50.41 52.86 52.13 50.99 49.81 48.00 48.13 44.74
27.94 35.63 34.74 29.99 35.32 37.42 37.05 37.50 37.40 33.46 37.66 40.08 35.80 33.52 33.53 34.20 33.44 32.91 33.58 34.36 32.93 32.28 33.09 33.82 33.63 34.37 34.37 34.75 36.33 36.50 36.63 37.47 38.35 40.29 41.20 42.65 42.77 42.65 42.65 43.23 42.19 40.23 39.16 37.80
29.08 31.60 23.62 34.74 41.45 39.79 36.57 36.67 37.97 38.33 38.61 35.76 32.64 32.36 32.69 33.16 32.59 32.06 33.04 33.92 34.41 32.48 32.64 32.90 33.32 33.27 33.85 34.50 34.56 34.61 35.36 36.15 37.59 37.62 38.59 38.34 38.18 37.23 36.87 37.47 37.39 36.27 35.46 35.25
29.48 28.70 32.10 35.03 36.02 34.66 35.00 32.28 37.13 37.01 37.39 36.22 33.39 33.44 30.41 32.88 34.21 34.30 34.72 35.76 35.46 35.12 33.81 34.13 33.37 32.66 32.64 32.24 32.74 32.97 32.76 34.36 35.27 36.72 35.99 35.69 35.34 34.98 35.46 34.66 34.13 33.92 34.08 33.28
33.18 26.97 23.97 29.82 34.49 39.65 39.85 27.75 35.90 36.44 35.13 35.85 36.04 34.04 28.18 31.55 32.96 34.39 35.16 35.72 34.92 34.57 33.89 33.42 34.05 34.71 32.54 31.44 31.18 30.98 32.37 32.26 33.86 35.24 35.72 34.49 32.99 33.53 34.61 33.12 32.28 32.83 31.59 31.78
31.34 29.05 28.98 31.77 36.19 38.85 29.75 26.80 35.40 35.25 33.45 32.15 28.55 29.39 31.06 31.76 31.72 33.88 34.55 35.55 35.59 33.87 31.59 31.68 33.46 33.11 31.50 32.36 31.06 31.89 32.55 33.17 32.60 32.82 33.09 32.64 32.66 33.55 32.84 32.64 32.64 32.23 31.13 30.88
30.20 27.66 23.46 33.32 35.65 29.20 30.85 34.28 35.33 35.63 35.12 32.50 32.17 31.61 30.73 30.20 30.47 32.41 33.09 34.72 34.97 32.79 31.61 31.84 32.24 32.61 30.62 30.52 32.62 31.54 31.34 32.04 31.33 31.40 31.57 32.34 32.67 32.96 33.06 32.61 32.14 31.68 30.86 30.85
28.84 26.69 32.85 33.74 32.34 34.82 35.34 32.85 34.78 34.53 34.94 33.40 31.34 30.27 30.05 29.48 30.40 32.30 32.61 33.36 33.68 32.22 31.05 31.09 31.59 31.38 30.30 30.82 31.92 32.27 29.85 28.22 27.26 27.06 29.14 29.85 28.44 28.40 31.03 31.60 31.00 30.15 29.29 28.01
31.38 31.41 31.44 32.86 34.43 34.78 35.33 34.39 35.22 35.59 35.54 35.52 32.72 32.43 32.06 33.75 33.48 32.40 32.65 32.03 32.50 31.15 29.32 28.09 29.36 29.72 30.58 32.47 32.70 31.54 30.05 28.17 26.91 25.24 24.79 25.69 26.88 26.48 26.04 27.21 27.12 27.02 26.85 25.49
30.47 31.76 32.45 31.77 32.41 33.78 33.95 35.05 34.90 35.49 34.96 34.45 34.27 32.59 32.21 31.39 31.37 31.08 31.01 31.31 30.63 28.77 27.62 26.99 27.35 27.60 29.14 30.55 32.78 31.45 30.86 30.30 28.61 27.02 24.59 23.16 24.18 24.40 24.96 25.89 27.25 24.84 24.27 24.94
27.47 32.30 31.79 30.37 31.82 33.32 31.48 31.99 33.69 33.51 33.35 33.38 33.50 32.05 31.39 29.45 29.73 29.31 28.57 28.79 27.82 27.19 26.31 25.62 25.66 25.71 27.25 29.10 29.90 30.16 29.35 29.15 29.39 29.81 28.37 24.51 22.58 21.96 26.06 25.85 26.79 26.95 27.15 25.45
32.36 33.41 32.22 32.72 33.30 33.66 32.24 31.66 32.81 32.29 31.81 30.94 30.09 30.15 28.80 26.24 26.55 26.47 26.05 25.96 25.36 24.62 24.93 24.30 23.65 23.72 26.90 27.80 29.24 28.31 27.87 28.38 28.63 28.51 28.09 27.80 28.51 24.09 19.94 22.92 25.11 25.21 25.77 26.09
35.79 34.99 32.49 33.08 31.69 34.37 34.09 33.54 33.20 31.96 31.09 30.18 28.45 26.68 25.85 24.82 24.66 24.10 24.30 24.54 24.35 23.50 23.03 22.44 22.00 21.74 24.37 27.76 26.85 27.71 28.07 27.17 27.06 27.16 27.19 27.12 27.14 26.71 26.50 24.47 21.83 21.28 23.92 23.69
34.21 35.25 34.25 34.42 34.30 33.36 33.95 33.22 31.55 28.66 28.02 26.82 26.77 24.98 24.52 22.43 21.28 20.92 21.71 23.70 23.73 22.40 21.37 21.01 19.58 20.18 23.24 24.85 27.03 25.48 26.24 27.24 27.89 27.64 27.53 27.59 27.29 26.71 26.11 24.64 22.34 20.97 21.47 23.24
33.61 33.82 32.88 31.35 30.36 29.67 29.25 28.30 26.21 24.45 24.32 23.47 22.53 22.37 22.23 21.93 20.56 20.02 19.90 18.86 18.56 17.62 18.74 16.97 18.30 19.01 20.92 22.05 25.51 27.56 26.25 25.24 26.99 27.14 26.75 26.31 25.94 25.01 24.51 22.82 19.85 17.12 15.46 16.07
30.31 29.12 29.24 28.25 27.81 26.27 25.13 25.16 24.16 23.24 22.68 21.55 19.64 19.20 20.25 22.22 20.06 19.01 18.79 19.33 16.64 16.76 17.56 17.09 16.74 17.00 17.88 19.65 20.65 26.52 26.64 25.66 24.98 25.32 24.45 24.38 23.97 23.05 22.70 21.82 18.40 15.18 13.25 13.66
30.88 29.93 29.64 29.04 27.36 26.14 24.65 24.45 23.73 22.27 19.78 19.31 18.83 17.59 15.84 16.23 17.06 17.07 16.94 17.03 16.93 15.92 16.83 16.51 17.13 18.47 16.82 18.49 19.71 25.14 24.72 24.56 23.71 22.61 22.01 20.86 21.78 21.62 20.75 19.46 18.74 17.61 16.05 15.11
29.38 27.40 27.00 26.62 26.57 25.26 23.64 21.40 20.14 19.72 19.42 18.93 17.92 16.38 14.73 12.93 14.36 15.00 16.10 14.37 14.96 16.67 15.86 16.95 18.86 20.15 20.03 18.98 19.93 23.74 23.01 22.34 22.18 21.49 21.75 20.18 19.58 18.62 18.75 18.55 17.31 16.37 16.30 15.26
25.42 25.19 24.09 22.61 22.94 21.87 19.64 20.36 20.01 18.33 18.29 17.10 15.76 13.97 13.77 11.27 11.62 12.15 15.39 15.05 14.70 14.94 17.67 17.88 18.45 18.97 19.38 19.05 17.00 22.02 21.59 21.27 20.26 18.73 18.16 18.82 19.22 18.16 14.82 11.81 15.82 16.91 15.64 14.22
20.87 20.19 19.14 18.71 18.39 18.54 18.06 17.57 17.26 16.56 14.78 13.33 13.51 11.06 11.07 13.29 12.71 11.60 16.03 19.41 16.64 15.29 16.41 16.99 15.88 13.78 17.74 15.02 15.29 20.72 20.07 19.66 18.69 18.55 18.08 18.13 17.93 16.65 16.13 15.97 15.48 14.52 14.75 14.00
20.46 19.01 17.88 18.07 18.72 18.75 19.50 20.02 17.98 15.09 13.98 11.54 8.90 9.21 10.97 15.24 15.87 15.11 13.16 15.21 18.39 11.10 15.80 17.19 13.83 9.23 11.46 9.71 18.88 18.61 17.67 17.47 17.42 17.56 16.79 16.13 15.89 15.52 14.36 13.58 12.97 12.42 13.15 12.11
20.96 20.50 20.20 18.37 19.11 20.22 20.46 19.50 16.24 16.69 13.23 12.38 12.67 16.04 17.15 18.08 19.15 17.08 16.29 16.62 17.35 13.29 16.68 13.15 7.68 6.86 8.29 14.63 17.33 16.79 16.66 15.45 15.32 15.11 14.90 14.63 14.15 13.23 13.23 9.96 10.09 11.55 11.74 10.04
21.94 21.75 21.03 22.19 21.71 20.50 18.74 19.78 19.53 19.96 16.45 18.11 16.28 13.36 16.19 17.50 19.71 21.21 17.75 11.94 9.66 9.65 13.45 12.32 9.93 7.05 4.84 15.24 15.71 15.09 14.85 15.30 15.13 14.62 14.01 2.25 12.56 11.21 11.76 8.48 8.34 8.89 8.32 5.99
22.80 22.30 22.24 21.55 21.67 23.33 22.30 22.96 22.19 22.25 21.51 21.03 21.47 19.38 18.64 20.73 18.83 18.47 18.32 17.58 12.71 11.54 16.26 9.10 6.63 6.02 11.96 15.50 14.81 13.27 13.57 15.15 11.85 10.67 12.34 13.13 11.69 11.38 11.16 11.30 8.25 9.24 5.15 4.76
23.04 24.34 24.67 23.01 22.64 23.03 23.19 23.29 21.70 22.67 22.40 21.90 22.88 24.37 22.76 20.85 19.96 17.94 19.04 15.43 15.60 14.07 15.10 16.58 16.01 13.32 13.88 14.75 13.55 12.26 13.29 13.38 13.45 12.05 11.41 9.81 11.57 11.46 9.84 10.19 7.15 7.98 9.46 8.99
23.62 21.98 23.81 23.46 24.22 23.47 22.33 20.72 19.48 20.05 20.42 20.48 19.21 21.20 22.42 20.73 19.83 16.85 14.15 17.12 17.59 17.78 17.38 17.14 17.12 15.21 15.03 13.16 12.30 13.35 13.79 13.60 12.29 11.74 10.53 9.28 9.53 10.65 9.66 9.68 9.21 8.21 6.10 5.74

GFSNGP_sfc_wetblb_105.txt.gz
Wetbulb
35.64 36.56 35.82 35.33 35.33 35.85 34.77 36.46 32.71 33.49 33.52 35.37 36.14 35.85 35.89 35.87 35.46 34.95 34.27 33.82 33.72 33.45 33.66 34.14 34.80 34.96 36.61 36.98 37.18 38.70 39.26 39.68 42.41 46.61 52.11 53.85 54.86 59.21 59.75 59.37 58.97 58.27 57.69 57.15
33.61 33.87 34.77 32.77 33.41 34.65 34.72 36.85 36.50 35.26 34.19 37.13 36.99 36.29 34.12 33.54 33.55 33.28 33.70 33.23 32.66 32.62 33.18 33.21 33.43 33.82 33.93 35.28 35.98 36.50 37.13 38.25 39.42 41.11 42.00 43.63 45.28 45.96 48.67 47.36 46.29 44.80 44.34 43.59
27.87 34.15 34.49 29.02 32.30 32.67 32.84 34.85 34.73 30.92 34.97 35.22 31.60 30.65 30.62 31.61 31.91 31.81 32.47 32.95 31.79 31.72 32.58 32.98 32.80 33.27 32.71 32.97 35.34 35.29 34.63 35.93 37.93 38.68 38.78 39.32 39.06 38.82 38.83 39.68 39.16 37.72 37.27 37.06
27.03 30.77 23.78 30.29 36.31 35.91 31.82 32.54 34.99 35.10 33.52 32.46 30.47 30.46 30.80 32.43 32.25 32.98 33.64 32.75 31.52 31.60 32.46 32.98 33.72 33.04 33.11 33.21 33.02 33.61 33.66 33.56 34.79 37.19 37.16 37.15 37.21 37.27 35.05 35.45 35.16 34.28 34.17 35.09
27.45 27.15 30.77 31.51 31.37 30.66 32.33 29.60 33.63 32.56 34.59 32.11 32.04 31.77 27.97 31.68 33.06 33.55 32.85 32.26 31.38 32.32 31.96 33.07 32.70 33.80 32.69 31.70 32.07 31.46 31.42 32.05 32.74 33.72 34.99 35.51 34.84 35.77 35.56 33.42 32.41 31.91 32.35 32.22
29.75 25.42 22.08 27.57 31.11 34.83 36.01 23.97 34.04 32.58 31.11 31.38 34.31 27.67 25.42 30.76 31.82 33.63 34.68 32.98 30.67 30.34 31.08 31.65 32.52 33.07 32.00 30.38 29.72 29.80 30.94 31.25 31.75 32.65 32.54 32.73 32.89 33.61 34.17 33.06 31.69 31.40 30.60 30.91
27.13 26.21 26.22 29.50 32.38 35.13 25.77 24.71 35.01 32.96 30.56 28.47 25.90 27.52 29.54 31.17 31.60 33.63 33.82 32.88 31.71 30.09 29.05 30.15 32.21 31.72 30.52 29.99 28.57 29.99 30.99 30.25 30.62 31.25 31.03 32.00 32.23 32.94 32.91 32.46 32.20 31.23 29.95 29.88
26.16 23.61 19.15 31.88 31.82 26.28 30.93 34.43 34.89 34.40 32.84 30.44 29.96 29.90 29.57 30.16 30.48 31.74 32.01 31.81 31.04 28.78 27.92 29.65 30.37 31.22 28.45 29.14 31.29 29.43 28.60 27.67 27.41 29.08 29.19 29.74 29.74 31.61 32.06 31.77 30.41 29.52 28.62 28.61
26.90 25.40 32.08 32.88 31.83 34.45 34.95 33.48 34.64 34.76 33.26 32.37 30.55 29.70 26.24 28.92 30.42 29.22 29.19 28.93 29.42 27.60 26.72 27.35 28.30 28.11 28.06 30.58 31.22 29.40 27.36 25.90 25.51 26.19 26.79 27.32 26.63 27.29 28.34 28.40 28.11 26.87 26.42 26.08
28.97 30.59 30.81 32.25 33.94 34.56 35.90 33.75 33.96 34.21 35.17 34.46 32.14 32.37 31.22 31.04 27.11 27.68 27.78 27.07 27.64 26.57 25.52 25.19 26.87 27.12 27.96 30.01 31.78 30.11 27.65 25.93 25.13 24.30 24.36 25.10 25.78 25.96 26.10 25.63 25.09 25.36 24.98 24.52
29.16 30.63 30.58 31.38 31.93 33.10 32.80 34.45 34.51 33.93 32.63 32.93 32.29 30.47 29.60 28.34 27.39 26.94 26.57 26.86 26.51 25.43 24.45 24.08 25.39 26.14 27.61 28.94 30.20 29.49 28.86 29.40 25.52 23.95 23.14 23.79 24.62 24.54 25.04 26.22 25.94 24.20 24.60 25.32
25.08 32.41 30.58 29.87 32.27 33.12 31.47 31.52 31.70 31.06 28.94 28.22 29.52 28.07 26.47 25.17 25.02 24.82 24.57 24.95 24.28 24.22 22.84 22.88 23.23 23.36 25.36 27.67 28.50 28.15 27.67 27.40 27.57 26.98 23.58 22.45 22.05 22.76 26.65 26.43 27.54 27.92 27.95 25.82
29.90 32.67 30.49 30.73 33.06 33.72 30.49 30.64 30.72 29.65 28.86 25.95 26.13 26.12 24.90 23.47 23.95 24.56 23.49 23.01 22.25 21.91 21.38 21.51 20.57 20.20 22.15 25.26 27.33 27.09 26.06 26.86 26.64 26.26 26.31 26.50 21.75 20.90 19.03 22.85 25.72 26.18 26.85 27.42
34.86 33.62 31.30 33.22 30.84 33.59 32.96 32.23 31.14 28.54 27.48 26.31 25.05 24.24 22.60 21.06 20.47 19.50 19.46 22.43 21.09 20.33 19.91 18.80 18.33 17.22 19.57 21.57 21.29 25.05 26.31 25.49 24.47 25.85 25.72 24.92 24.13 23.61 22.34 16.73 16.19 18.86 24.44 24.86
34.28 34.52 32.97 33.05 31.68 29.78 29.57 29.52 26.07 23.84 23.35 22.39 22.86 22.31 21.45 18.93 17.68 17.66 18.24 20.36 20.40 18.06 16.36 15.70 15.45 15.05 18.07 20.65 22.50 19.53 22.99 25.06 25.96 20.66 20.75 23.10 19.52 20.93 20.69 17.63 15.54 13.35 15.32 17.65
33.43 32.82 30.47 28.95 26.75 25.54 25.23 24.50 22.20 21.27 21.27 20.77 20.27 20.87 20.35 19.31 17.86 16.73 16.59 15.88 15.81 14.05 14.44 11.17 14.42 14.29 16.77 16.20 16.58 24.30 20.72 21.20 22.31 21.95 20.99 18.72 17.41 18.39 16.92 14.41 12.13 10.83 11.21 11.75
29.37 28.28 28.50 24.99 23.42 22.84 21.97 22.14 22.04 20.60 17.73 15.57 14.17 15.03 16.09 18.22 14.84 14.60 11.96 12.19 10.07 7.24 8.04 7.92 9.17 11.62 12.03 11.89 12.56 17.10 18.43 15.43 19.43 17.97 16.56 18.48 17.13 16.78 17.91 12.02 6.78 5.51 5.11 6.27
27.29 26.03 25.62 26.14 24.52 23.02 22.35 21.55 20.18 18.73 16.29 16.55 14.97 10.53 8.03 7.58 7.80 5.83 6.23 6.76 11.82 7.65 4.84 5.90 8.15 11.69 10.18 12.26 15.63 19.78 18.40 19.99 18.76 15.41 15.90 16.61 17.72 16.48 14.13 14.36 14.00 9.20 7.13 12.13
25.20 23.37 23.22 23.62 22.83 21.29 19.69 18.12 17.02 16.73 13.16 10.29 7.92 4.24 2.47 0.96 2.32 1.93 1.76 3.63 2.61 3.26 5.84 8.82 17.93 15.41 15.34 15.95 15.16 19.26 17.81 15.76 16.82 15.95 19.29 14.26 10.44 12.75 12.95 11.02 8.48 8.68 8.53 8.88
21.47 21.19 20.33 19.55 20.21 18.85 15.56 13.38 11.31 9.72 7.93 8.72 4.55 1.29 1.58 0.43 -0.31 -0.40 1.22 6.94 5.66 8.05 10.16 12.01 14.14 13.16 13.78 14.17 12.05 16.68 15.50 15.00 17.71 10.55 8.88 10.04 9.05 2.26 2.77 8.11 12.14 9.32 4.98 2.37
13.60 13.15 12.00 11.64 8.61 7.62 6.89 5.88 7.43 6.23 2.93 0.33 1.55 -0.57 -0.07 1.99 2.08 -0.28 5.42 12.79 7.16 8.21 12.12 12.13 10.92 9.70 11.51 9.31 13.56 12.56 10.70 12.56 11.33 11.28 9.24 11.84 9.16 9.42 5.52 6.48 2.86 4.01 5.03 4.38
10.85 9.80 7.35 7.84 9.42 8.33 10.67 8.35 9.48 4.37 3.22 0.37 -1.82 -2.48 -0.82 7.36 5.71 5.14 3.84 10.05 12.04 5.70 12.67 11.32 9.77 2.73 7.01 4.34 14.47 7.62 10.19 8.82 9.48 10.12 7.60 4.28 6.78 8.06 5.59 3.49 3.62 3.84 4.75 4.05
11.98 11.67 11.29 9.14 9.89 10.18 10.26 10.01 5.72 5.83 2.98 1.47 1.90 4.00 6.88 11.02 12.63 9.52 9.65 12.60 13.26 7.19 12.47 6.95 2.60 -0.26 -0.18 2.12 1.56 0.81 6.13 5.25 1.51 3.83 -0.12 -1.52 -2.60 -2.85 -0.49 -2.59 0.60 1.88 -3.34 -2.75
12.84 13.99 12.75 14.83 14.14 16.77 13.81 12.30 13.62 16.06 7.86 10.45 9.71 6.53 11.22 8.29 6.16 16.65 12.37 6.24 3.24 0.34 0.69 2.58 -0.86 0.90 -2.27 3.44 2.74 -1.01 -0.20 3.72 2.69 -0.05 2.35 -1.40 -2.22 -3.57 -3.14 -6.71 -5.83 -6.75 -2.22 -6.13
15.45 15.03 16.10 14.40 18.88 20.19 22.06 22.17 20.31 21.57 20.56 19.18 19.92 19.68 15.47 17.57 8.64 10.25 6.99 6.27 7.69 4.58 3.65 2.07 3.32 0.41 -4.74 0.11 3.27 -2.09 -2.57 2.10 -0.67 -6.97 -5.88 -1.42 -0.44 -1.26 -4.24 -1.73 -5.12 -6.48 -8.25 -9.81
19.83 21.04 21.40 21.46 18.69 17.73 18.07 18.47 15.01 15.46 16.35 11.29 13.84 15.88 18.09 16.67 14.08 10.08 6.84 8.40 7.84 6.87 3.74 3.54 0.19 1.99 -1.37 -2.08 5.35 -2.08 0.11 3.10 -0.06 3.11 0.12 -2.92 -1.33 3.14 0.84 -1.79 -5.20 -7.31 -3.13 0.78
21.00 17.39 19.57 19.29 21.76 20.52 17.02 14.95 11.21 11.30 9.25 3.78 4.37 5.26 8.55 16.96 16.34 11.29 4.35 1.63 1.84 6.44 8.09 6.27 9.81 9.43 6.28 3.08 -1.81 -2.39 0.43 2.66 4.92 3.35 -2.24 -6.21 -7.61 -4.15 1.83 1.67 -0.29 -6.26 -7.86 -7.70

GFSNGP_sfc_wetblb_108.txt.gz
Wetbulb
35.01 35.00 35.69 33.88 33.63 35.42 35.09 33.83 29.44 30.91 29.83 31.92 33.06 32.94 33.66 34.27 33.92 33.62 32.26 31.86 32.08 32.32 32.45 33.09 33.30 33.97 34.43 34.91 35.79 37.45 36.95 37.42 38.57 40.42 42.20 44.58 50.35 59.31 58.88 58.26 58.34 58.11 57.26 56.88
31.58 34.06 33.54 30.95 31.98 33.29 34.11 33.96 33.55 31.56 28.39 33.64 34.06 33.30 31.68 32.02 32.31 31.41 30.38 29.96 30.75 31.97 32.18 32.31 32.58 32.49 33.22 33.66 34.15 35.70 36.14 35.69 36.68 38.19 38.81 40.00 40.77 43.68 45.37 45.01 44.75 44.29 43.31 42.90
27.91 33.09 32.36 24.99 29.49 30.15 30.79 33.08 32.96 29.02 31.15 32.31 29.17 28.72 29.39 30.84 31.94 31.16 30.03 29.85 29.34 30.41 31.63 32.10 32.37 32.93 32.07 32.77 33.93 33.33 33.20 35.02 35.50 35.90 35.69 36.62 37.26 36.79 37.52 38.42 40.35 37.91 38.09 39.38
27.81 31.12 18.92 28.65 33.82 33.42 30.06 30.32 32.30 33.13 31.47 29.79 28.26 29.03 30.01 31.83 31.44 31.15 29.80 28.93 29.01 28.84 31.15 31.62 32.51 32.67 32.11 31.89 31.92 31.92 31.78 32.02 33.27 34.71 34.18 34.59 33.97 33.66 33.18 33.67 33.91 34.36 34.66 35.86
27.78 26.75 28.57 28.98 29.67 28.53 30.02 27.97 31.52 30.99 31.90 30.27 30.05 30.12 27.30 31.04 32.47 32.17 30.19 29.51 28.80 29.72 31.01 32.11 31.42 32.60 30.56 29.83 29.07 29.33 28.88 29.86 31.21 32.51 33.04 32.92 32.73 32.11 32.27 32.62 31.62 31.81 32.69 33.28
29.50 22.91 20.01 26.58 29.41 33.44 33.27 23.32 32.44 30.50 29.54 28.55 32.77 25.10 24.79 30.33 31.88 31.37 30.18 29.12 28.08 28.42 30.18 29.71 31.30 31.59 30.86 27.44 26.98 26.44 27.68 28.14 29.88 30.82 30.61 31.63 31.91 31.94 32.01 31.80 31.12 31.17 30.85 31.59
26.12 23.87 25.60 28.26 30.97 34.48 25.05 23.30 33.78 31.27 29.26 27.55 25.18 26.51 29.17 31.06 29.90 29.93 29.59 28.84 28.57 27.21 27.02 27.92 28.91 30.12 29.13 27.45 24.89 25.92 27.63 27.67 28.04 28.63 29.26 29.68 31.18 31.66 31.71 31.07 30.48 29.83 29.33 29.88
25.04 21.22 18.17 31.02 30.93 25.84 30.66 34.08 34.06 32.34 30.87 28.94 28.99 29.26 28.16 29.87 26.66 27.55 27.02 26.94 27.05 25.63 25.05 27.16 27.84 27.86 28.33 28.12 27.99 26.99 25.79 25.06 25.80 27.03 27.67 28.15 28.55 29.26 29.45 29.22 28.16 27.91 28.27 28.58
26.22 24.35 31.26 33.72 32.20 34.96 35.59 33.60 33.96 32.80 31.99 31.01 29.94 29.24 27.30 23.96 24.29 25.63 25.47 25.07 25.84 24.80 24.62 25.75 26.54 26.98 26.74 29.73 29.65 27.65 25.54 24.23 24.61 25.43 26.02 26.59 26.49 26.74 26.19 26.88 26.64 26.48 27.00 27.19
25.80 29.42 30.21 32.32 33.93 34.18 34.19 32.01 32.18 33.19 34.36 33.86 31.36 30.55 26.06 25.29 24.54 24.30 24.46 23.97 24.19 23.77 23.49 23.49 24.63 25.17 26.60 28.66 30.67 29.52 25.90 24.07 23.65 24.16 24.23 24.87 25.43 26.05 25.15 24.82 25.04 25.40 25.60 25.91
27.94 29.78 30.43 30.46 31.35 31.50 31.51 33.00 30.08 28.74 28.40 29.96 26.98 25.31 24.74 23.82 23.89 23.67 23.41 23.61 23.20 21.85 21.79 21.74 22.92 23.26 24.12 27.13 27.80 27.64 27.58 27.29 23.94 23.22 22.89 23.54 25.12 25.08 25.42 26.91 26.54 24.48 24.68 26.60
24.63 31.84 30.42 29.57 31.56 32.69 29.21 27.73 28.66 27.13 25.54 26.19 25.76 23.90 23.76 22.35 22.89 22.54 22.06 22.10 20.98 20.57 20.32 19.98 20.49 20.63 21.77 23.50 26.91 26.06 25.90 26.13 26.13 23.97 22.22 22.07 21.85 22.56 27.10 27.13 28.22 28.64 29.22 26.97
29.11 31.85 26.69 27.28 30.21 31.60 28.45 28.02 27.85 26.44 25.54 23.89 24.64 23.38 22.29 20.37 20.71 22.02 21.20 20.44 19.54 18.58 18.19 18.17 18.42 17.75 18.49 20.58 24.01 25.75 23.17 24.98 25.11 25.24 25.50 21.58 19.90 19.57 17.48 21.19 25.84 25.71 27.16 27.67
32.77 32.57 30.36 31.40 26.42 30.30 29.07 27.08 27.09 25.62 25.23 23.96 22.41 21.80 20.44 18.90 18.84 17.96 18.52 20.17 18.53 17.32 17.05 17.03 16.94 15.74 17.24 18.13 18.16 19.22 20.61 21.49 19.25 18.74 19.64 19.21 16.70 15.84 13.07 11.86 10.76 12.21 19.40 24.30
34.39 32.59 29.34 28.15 27.52 26.14 26.31 24.90 22.47 21.36 21.47 21.13 21.62 20.34 19.22 17.11 15.66 15.75 16.94 19.12 18.56 16.36 14.76 13.85 13.72 13.39 16.80 18.62 18.66 18.74 21.20 22.28 20.38 17.07 17.04 15.44 15.81 13.22 10.87 9.75 8.90 9.15 11.36 15.17
31.71 30.28 28.27 25.56 24.28 24.45 23.53 22.65 20.68 19.85 19.34 18.50 18.74 19.29 18.66 17.76 16.13 14.72 14.24 14.57 14.08 11.12 11.49 8.26 12.02 11.29 14.20 14.15 13.40 15.51 14.90 16.47 14.84 13.30 14.88 15.60 14.48 12.66 10.10 8.83 9.12 8.95 8.96 5.47
27.96 26.57 24.20 22.63 22.09 21.52 21.06 21.28 19.82 17.57 15.13 13.59 12.02 13.37 16.44 12.82 11.20 9.65 7.25 10.12 6.92 4.42 3.92 4.14 6.06 7.31 8.92 10.44 11.05 12.51 14.57 13.05 12.83 13.97 14.58 13.94 13.36 11.45 7.85 6.28 6.39 8.35 7.88 3.88
24.66 24.18 25.38 23.86 22.17 21.56 20.67 20.05 18.81 17.67 14.20 14.30 11.34 5.04 2.43 2.97 3.75 2.28 2.29 2.06 3.93 4.59 3.75 4.38 6.26 8.75 9.96 12.15 13.76 17.13 15.55 17.32 16.77 13.58 14.11 13.72 12.75 13.13 11.31 9.92 8.86 8.40 5.91 9.83
23.47 22.42 22.51 22.63 21.84 20.46 18.94 17.28 15.70 15.01 8.54 5.12 4.05 1.58 -1.34 -3.14 -1.89 -2.08 -3.86 -1.87 -1.50 0.90 3.99 7.30 15.56 12.42 12.74 13.43 14.34 16.37 15.30 12.79 14.35 14.97 15.63 9.57 7.59 13.55 8.27 6.35 8.47 4.02 3.97 4.84
20.18 20.55 20.26 19.16 19.32 17.64 13.03 8.44 7.86 6.63 1.19 2.76 -3.17 -2.26 0.02 -1.44 -4.05 -3.50 -4.05 3.61 4.49 6.19 7.90 9.67 11.95 11.11 11.73 12.28 10.78 14.17 12.90 11.23 15.93 9.32 7.31 7.10 2.25 -2.60 2.48 7.83 6.51 0.67 -4.77 -3.50
11.50 11.28 10.77 11.12 6.27 4.34 3.91 3.24 4.22 4.11 0.78 -3.03 -0.57 -1.47 -1.05 0.47 -1.76 -4.41 1.90 7.84 4.66 5.69 10.03 9.79 8.68 8.04 9.98 7.44 11.66 7.65 4.96 5.84 9.36 7.76 7.99 7.05 6.46 4.75 2.28 1.56 3.83 4.00 5.07 1.38
6.77 8.18 4.22 4.72 8.30 6.83 5.15 4.80 7.21 1.05 -0.06 -2.44 -5.50 -7.85 -6.40 4.12 2.89 1.19 1.12 8.42 10.71 4.91 10.64 9.74 8.24 0.63 4.86 2.91 9.76 2.54 7.43 5.11 5.03 7.23 4.19 3.85 4.15 3.06 1.85 2.38 2.40 0.30 -1.51 -2.41
8.71 9.26 9.09 6.15 7.71 9.24 6.79 6.77 1.78 2.58 0.49 -0.74 -0.37 0.48 3.60 9.02 10.21 7.12 6.56 11.65 12.11 6.07 10.31 6.21 0.66 -2.19 -2.71 2.43 -3.86 -5.13 0.46 1.70 -1.33 -2.11 -3.76 -7.67 -7.49 -5.52 -2.96 -0.49 0.44 -0.53 -2.63 -0.27
10.80 11.92 12.18 13.35 11.37 14.40 12.68 10.26 11.71 14.03 6.99 9.12 8.76 8.74 11.46 10.56 6.32 13.76 11.74 5.92 3.24 -0.60 -1.56 1.01 -2.78 -0.21 -5.14 -6.61 -4.77 -8.03 -6.95 -2.43 0.34 -3.00 -1.73 -3.68 -4.41 -8.94 -10.75 -12.57 -9.48 -12.20 -12.57 -10.93
15.05 14.13 13.65 12.51 17.21 16.39 19.07 20.32 20.78 20.23 20.01 19.64 19.54 20.14 15.67 16.38 9.90 10.15 8.54 6.48 6.07 3.57 1.63 -0.81 0.64 -0.45 -8.02 -9.48 -5.86 -6.40 -8.22 -7.31 -8.05 -10.31 -9.30 -6.78 -2.69 -1.02 -1.71 -5.51 -7.67 -9.52 -12.77 -14.56
18.93 17.62 17.23 19.21 17.65 16.81 16.77 18.07 13.49 13.80 14.13 8.59 9.43 3.14 6.06 8.94 14.44 13.90 10.23 5.66 6.76 5.41 2.42 -1.84 -3.72 -3.65 -3.85 -6.04 -5.68 -5.50 -6.95 -2.26 -5.13 -6.04 -6.04 -7.67 -9.67 -5.50 -1.35 -2.82 -6.22 -10.57 -12.75 -12.75
18.46 16.76 18.10 18.68 19.94 18.28 15.51 13.65 9.56 8.06 6.29 -0.30 2.79 3.40 3.96 1.08 10.39 13.97 10.10 5.48 1.39 1.13 1.86 3.29 2.28 4.10 4.47 2.72 0.55 -1.79 -6.12 -5.68 -3.86 -3.14 -5.31 -8.40 -11.12 -11.12 -8.22 -0.49 0.90 -5.86 -9.30 -9.85

GFSNGP_sfc_wetblb_111.txt.gz
Wetbulb
32.64 33.31 31.90 30.92 32.27 36.08 33.47 31.91 26.83 27.60 26.59 28.82 30.48 30.73 32.54 32.33 31.64 29.84 29.07 29.31 30.85 30.82 31.27 32.00 32.51 32.53 32.82 33.51 34.42 35.35 34.83 35.79 36.73 38.24 39.19 39.06 38.88 39.30 42.23 57.04 58.01 57.93 57.48 57.18
30.04 30.93 30.25 27.37 29.81 29.87 33.01 32.12 30.18 28.40 25.77 30.74 32.17 31.93 30.69 30.92 30.47 28.41 27.68 27.79 28.97 30.63 30.54 31.03 31.24 31.00 31.41 31.60 32.41 33.82 33.84 33.43 35.41 36.53 37.00 36.80 36.76 36.80 36.41 37.71 41.34 46.93 47.07 47.76
26.45 32.59 30.84 23.66 27.30 28.23 29.00 30.50 31.63 26.46 28.57 30.45 27.84 27.59 28.50 29.45 29.58 27.42 26.65 27.03 27.70 29.61 30.46 30.45 31.32 30.33 29.94 30.24 31.41 30.86 31.30 32.64 33.17 34.70 34.88 35.15 35.44 35.33 34.76 34.48 34.55 35.42 37.05 39.21
28.00 30.09 18.86 27.67 32.13 33.13 28.22 28.57 31.46 30.08 28.94 28.14 27.20 28.32 29.63 31.28 30.02 27.34 26.73 26.51 27.83 29.15 29.78 30.74 31.02 30.96 29.03 29.15 29.22 29.46 29.26 29.98 31.46 32.22 32.95 33.70 33.49 33.10 33.19 33.46 32.84 32.28 32.75 34.19
27.48 24.25 27.12 28.11 28.62 27.53 28.45 26.54 30.27 30.72 29.46 29.24 29.72 30.31 26.98 30.83 31.22 28.01 27.10 27.03 26.88 28.99 29.04 29.15 29.74 30.84 26.95 27.11 27.10 27.33 27.14 27.73 28.72 30.53 31.09 31.43 31.49 31.79 32.03 32.08 31.65 31.83 31.91 32.02
28.89 22.51 19.25 24.80 28.67 32.65 32.33 23.29 30.64 29.93 28.48 28.72 31.22 23.71 23.46 29.94 30.06 28.94 27.53 26.93 25.59 26.72 27.83 27.43 27.94 29.79 26.81 24.64 24.54 24.27 25.40 26.54 27.32 28.25 28.24 29.69 29.83 30.50 31.01 31.12 30.68 31.30 30.36 31.26
26.00 23.50 24.62 27.86 31.23 34.18 24.06 23.52 32.05 29.68 28.01 26.20 24.54 25.88 28.93 27.49 25.42 26.74 26.15 25.86 26.07 25.27 25.58 26.48 26.77 28.47 27.76 25.90 23.53 23.76 24.60 25.47 25.86 26.04 27.01 27.62 28.74 29.36 29.62 29.35 29.59 29.33 29.26 29.84
24.90 20.00 16.55 30.01 30.83 25.46 30.04 33.44 31.70 30.60 29.17 27.57 28.33 27.51 25.46 23.62 21.88 24.06 23.87 24.31 24.82 23.69 24.12 25.09 25.60 26.48 26.88 27.92 27.60 25.51 24.57 24.17 24.11 24.42 25.51 26.01 26.23 26.35 27.08 28.07 27.91 28.13 28.31 28.42
25.38 23.14 30.84 33.62 31.68 33.76 33.85 31.25 33.80 30.90 30.63 30.21 27.44 25.09 21.04 20.25 21.67 23.20 23.02 22.46 23.54 22.69 22.79 23.27 23.95 24.42 24.94 27.09 28.94 27.04 24.98 23.37 23.66 24.63 25.06 25.20 24.76 24.25 25.01 26.25 26.29 26.61 27.35 27.23
25.21 28.96 29.46 31.10 31.03 32.84 33.46 28.98 28.98 33.32 33.10 31.79 25.84 24.50 22.53 22.66 22.65 22.50 22.10 21.09 21.75 21.49 20.72 21.01 22.73 23.19 23.82 26.00 27.16 27.14 26.50 23.88 23.25 22.89 23.93 24.73 25.12 25.77 25.28 24.74 24.37 25.39 25.98 26.20
26.69 29.08 28.74 29.41 29.90 29.95 29.67 29.17 27.35 27.32 27.11 25.95 24.88 23.22 22.86 21.94 21.95 21.33 20.93 20.94 20.37 19.87 19.96 19.36 20.43 20.61 21.08 23.46 26.19 25.97 25.94 26.15 23.33 22.66 22.20 22.19 24.37 25.18 25.44 26.95 27.65 25.71 25.25 26.94
20.99 29.45 29.23 27.22 30.32 29.67 27.67 26.92 26.84 25.16 23.60 24.34 24.18 22.60 22.16 21.12 21.59 20.22 19.65 19.77 18.53 18.17 17.82 17.84 18.19 18.31 19.07 21.13 24.02 24.83 24.61 24.77 24.85 22.50 21.11 21.32 20.19 20.55 25.79 25.90 27.38 28.39 29.28 26.47
30.20 30.77 27.52 29.38 30.61 29.22 26.62 25.95 25.44 24.59 24.14 21.90 21.91 20.94 20.36 19.18 20.25 21.57 19.26 17.85 16.50 16.49 17.01 17.39 17.22 16.35 16.87 19.13 21.57 23.81 23.42 23.63 22.80 22.93 23.84 20.28 18.26 17.80 13.90 17.31 23.51 24.52 26.50 27.13
31.81 31.72 28.69 26.11 25.06 27.19 26.59 25.84 25.71 23.80 22.93 22.01 20.60 20.03 19.04 17.70 17.15 16.62 17.10 18.58 16.98 15.88 15.36 15.03 15.08 13.47 14.08 15.58 15.90 16.23 19.69 18.99 17.41 18.05 16.96 16.43 12.85 9.84 8.39 6.48 6.73 10.12 16.94 22.40
31.02 30.72 27.29 25.87 25.52 24.47 24.75 23.59 21.73 20.79 20.94 20.14 20.36 19.09 17.78 15.24 13.89 13.91 15.62 17.49 16.37 14.18 12.65 11.75 12.15 11.24 13.74 15.86 16.53 15.05 17.96 15.31 11.74 9.99 13.06 14.21 11.55 7.60 3.75 4.96 4.51 5.78 10.18 12.59
29.67 28.87 27.67 25.68 23.54 23.33 22.84 21.78 20.00 18.95 18.70 17.91 18.11 17.70 17.11 16.15 13.86 12.07 12.22 12.88 12.64 9.28 8.91 5.96 10.32 8.46 11.44 12.38 12.74 13.55 10.72 12.61 10.05 7.18 6.88 8.21 6.64 6.53 6.88 6.75 7.38 6.81 6.91 4.72
25.04 23.55 23.23 22.04 21.69 21.17 20.10 19.86 18.86 16.47 13.85 12.01 10.67 14.90 12.39 10.74 9.61 8.11 6.38 6.80 4.25 1.30 1.02 1.40 2.24 4.57 7.44 8.26 9.72 10.99 10.14 12.01 10.29 11.77 11.31 9.47 7.54 5.82 4.44 4.49 4.79 5.18 1.55 -0.62
25.30 26.23 25.72 23.82 21.96 20.60 19.58 19.21 18.00 16.63 12.99 12.21 9.49 3.78 2.22 2.56 1.98 0.50 1.63 1.11 2.25 2.62 -0.01 1.84 3.67 4.18 7.20 8.48 12.19 14.90 13.23 15.52 15.31 12.41 12.62 9.82 9.80 12.17 8.36 6.99 7.00 6.39 2.64 5.61
23.67 22.93 22.97 22.74 21.89 20.29 18.64 16.68 14.67 13.70 6.67 3.11 2.99 -0.21 -3.89 -5.88 -4.61 -4.97 -6.79 -3.38 -3.04 0.42 3.79 4.86 14.07 10.78 10.98 12.25 14.20 14.23 12.68 10.70 12.18 13.76 12.87 8.06 5.30 9.45 9.04 7.60 2.75 -1.00 1.15 2.49
20.56 20.97 20.26 18.95 18.64 16.85 11.49 6.60 5.66 4.45 -0.99 0.17 -5.15 -2.81 -0.81 -3.17 -6.61 -5.70 -6.61 -0.53 2.55 5.53 6.39 8.45 10.49 9.76 9.77 11.04 9.83 12.08 10.53 8.23 12.14 8.07 3.89 5.80 -3.34 -2.62 2.98 6.70 7.15 -0.44 -6.24 -5.52
11.00 10.77 10.40 10.56 4.45 3.25 3.17 1.81 2.94 4.27 -0.59 -5.52 -1.69 -3.28 -4.24 -2.79 -3.73 -7.87 0.32 6.48 5.16 4.74 8.43 8.55 7.70 6.96 8.24 6.06 11.10 7.81 1.60 0.28 2.26 4.25 3.70 2.22 1.81 3.05 -3.70 -3.52 0.61 -0.30 -2.26 -4.25
5.33 7.07 2.25 2.87 6.38 5.00 2.46 1.61 4.90 -0.41 -1.17 -3.91 -8.46 -10.59 -7.15 3.53 0.93 0.47 1.21 7.78 10.24 5.00 9.74 9.11 7.58 1.06 3.32 1.52 8.76 0.61 5.52 4.68 4.01 3.33 0.98 0.47 0.78 -0.14 -1.41 -1.20 -5.70 -7.15 -5.34 -3.54
7.43 7.78 7.14 4.39 6.31 6.43 5.69 5.30 -0.29 -0.01 -1.21 -3.36 -2.87 -0.58 1.19 8.78 8.68 6.20 6.72 11.42 11.29 6.87 8.61 6.57 1.75 -2.88 -3.73 -4.14 -3.90 -7.51 -5.52 -3.89 0.24 1.45 -3.91 -9.14 -9.32 -8.78 -3.71 -0.01 -1.05 -0.17 -1.20 -2.64
8.18 10.00 10.10 10.79 9.57 13.03 11.85 8.93 10.54 12.55 5.42 7.66 7.24 5.80 9.95 10.14 7.40 14.04 14.98 8.63 4.53 1.03 -2.66 0.27 -2.48 -1.43 -5.78 -8.45 -8.96 -10.05 -9.14 -9.14 -8.08 -6.95 -4.98 -7.15 -5.70 -9.32 -10.05 -12.59 -10.23 -12.77 -14.76 -13.31
13.55 12.39 12.39 11.02 15.35 14.25 17.05 18.72 19.19 19.00 18.15 18.56 17.65 17.50 16.03 15.35 11.79 10.79 10.31 9.96 6.45 3.34 2.92 0.19 -1.71 -1.43 -8.86 -11.52 -11.32 -10.05 -10.96 -11.50 -10.96 -12.77 -9.19 -8.06 -6.42 -3.89 -6.24 -7.51 -6.42 -7.87 -14.22 -15.67
17.34 15.51 15.29 17.70 16.30 15.50 16.04 17.21 13.69 13.04 13.82 9.06 8.14 2.37 3.70 3.67 7.33 11.01 11.61 11.53 8.51 5.89 4.18 3.08 -3.23 -3.75 -5.88 -6.44 -7.16 -8.42 -7.69 -5.00 -7.87 -6.97 -9.32 -6.61 -10.05 -10.23 -10.05 -4.79 -1.27 -4.43 -10.06 -7.52
16.81 15.60 16.53 16.96 18.37 17.68 15.37 14.25 12.19 11.26 8.91 0.75 1.60 4.95 2.30 -0.58 0.28 4.63 7.51 5.49 1.71 1.29 1.60 2.60 2.74 0.65 1.20 -0.22 -0.57 -0.18 -2.82 -4.62 -8.24 -4.97 -9.69 -10.59 -14.04 -12.04 -13.31 -11.14 -5.52 -1.99 -5.52 -12.41

GFSNGP_sfc_wetblb_114.txt.gz
Wetbulb
31.24 31.03 30.15 28.19 30.55 31.64 28.80 29.10 23.88 24.75 23.81 26.45 28.39 28.90 29.97 30.13 28.62 27.52 27.71 28.30 29.47 29.61 29.81 30.76 30.01 30.36 31.04 31.39 32.25 33.29 33.69 34.18 35.08 36.34 37.10 37.72 38.40 39.32 39.71 39.38 39.61 41.96 52.71 57.66
30.53 33.40 32.38 25.64 27.85 28.22 29.83 29.85 27.51 26.37 23.73 29.49 29.88 30.03 29.11 28.29 26.85 25.61 26.09 27.32 28.41 29.14 29.66 29.55 29.69 28.40 29.21 29.60 30.62 32.17 31.73 31.82 33.69 34.68 34.81 34.95 35.75 36.43 37.32 37.32 36.96 36.82 37.17 39.32
26.89 30.69 29.16 22.27 25.72 26.47 27.07 29.45 30.21 24.05 26.87 28.98 26.30 26.37 27.24 27.93 26.28 25.08 25.57 26.46 27.30 27.49 28.22 29.15 29.30 27.51 27.36 28.21 29.67 29.69 29.82 30.48 31.13 32.66 33.01 33.45 33.87 33.81 34.04 34.84 35.94 35.49 35.42 35.30
28.66 29.05 18.24 25.93 31.44 31.18 27.23 27.29 30.00 27.81 27.49 27.40 26.24 27.45 28.56 28.99 26.36 24.85 25.09 25.27 26.13 27.18 27.64 27.79 29.45 27.44 26.71 27.42 27.30 27.30 27.51 28.15 28.92 29.96 30.92 31.73 31.99 31.62 32.04 32.48 32.70 33.08 33.29 34.40
26.93 23.99 26.23 27.68 27.41 26.92 26.89 25.27 29.13 30.11 30.23 29.29 29.29 29.32 25.54 29.59 27.31 25.63 24.58 24.88 25.34 27.01 27.16 26.21 27.72 28.57 25.91 24.48 24.77 24.90 24.99 25.89 26.83 27.97 28.66 29.28 29.46 30.00 30.77 30.85 30.51 31.01 31.62 31.85
27.60 22.33 17.53 23.98 28.24 32.64 31.81 22.30 29.12 28.36 26.79 28.30 30.71 22.41 21.80 25.25 25.11 24.46 24.54 24.60 24.21 24.82 24.97 25.49 26.93 29.81 27.36 24.08 23.30 22.84 23.87 24.39 25.32 26.94 26.92 27.51 28.12 28.52 29.91 30.77 30.13 30.17 29.62 30.47
25.44 22.72 23.60 27.42 30.78 34.18 23.31 22.07 29.50 27.91 25.90 25.02 23.51 24.37 25.08 24.95 23.23 23.96 23.72 23.91 24.50 23.96 23.26 23.83 25.51 27.61 27.03 27.20 23.26 23.85 24.10 24.82 24.49 24.27 25.65 25.55 26.73 28.39 28.62 28.87 29.62 29.35 29.07 29.44
25.60 21.10 18.53 31.06 31.43 25.33 29.93 31.28 30.30 28.55 28.17 26.92 25.00 23.85 22.32 21.63 20.12 22.07 20.98 21.56 22.59 22.06 22.21 22.92 23.69 24.44 24.87 25.10 27.65 25.84 24.63 23.66 24.11 24.88 24.98 25.34 24.67 24.88 26.23 27.22 27.65 27.70 27.25 27.85
24.58 22.84 30.36 32.21 30.70 32.34 31.39 32.84 30.85 29.84 29.24 26.73 23.98 20.00 19.26 17.47 18.76 20.87 20.48 19.88 21.32 20.46 20.66 21.11 21.89 22.24 22.28 24.53 26.80 27.21 25.04 23.50 23.12 24.61 25.39 25.39 25.62 25.84 25.31 24.46 25.09 25.79 26.41 26.20
26.18 28.32 29.25 30.12 30.59 32.04 29.99 28.45 30.82 32.15 29.82 26.11 23.47 22.83 20.47 21.41 20.89 20.48 19.63 18.93 19.29 19.56 18.92 18.86 20.19 21.16 22.04 23.67 26.08 26.14 25.40 24.29 23.23 22.54 22.71 24.73 25.12 25.38 25.54 25.83 25.04 24.44 25.14 24.36
26.33 28.30 28.89 29.29 29.13 29.21 28.04 27.81 25.93 25.80 25.89 24.83 23.81 21.99 21.67 20.68 20.08 19.49 18.76 18.55 18.29 17.96 18.07 17.60 18.48 18.82 19.63 21.88 25.04 24.76 24.99 24.83 24.06 22.51 21.77 20.90 22.40 24.41 24.05 25.58 27.24 25.36 24.34 25.28
24.78 29.58 28.40 28.09 29.48 30.31 27.35 25.57 25.38 23.84 22.68 22.93 22.62 21.21 20.81 20.54 19.84 18.25 17.32 17.34 16.58 16.76 16.83 16.69 16.88 16.66 16.95 19.01 22.50 23.92 23.65 23.82 23.30 23.45 20.69 20.36 18.99 17.92 23.98 24.86 25.87 26.68 26.86 25.11
30.30 30.48 28.32 29.55 28.43 27.78 24.90 24.36 24.58 23.39 22.17 20.11 20.29 19.83 19.48 18.77 19.26 19.97 18.31 16.38 15.26 15.41 15.48 15.64 15.39 14.46 14.65 16.88 19.83 21.65 22.11 22.41 21.26 20.70 20.91 19.08 16.24 14.76 12.49 15.78 21.91 22.78 23.95 24.75
31.57 30.26 26.79 26.57 24.47 26.06 25.15 24.36 24.15 21.93 21.54 20.45 19.29 18.97 18.09 16.30 15.79 15.39 15.24 16.17 15.67 14.33 13.68 13.38 13.13 11.01 11.54 13.47 14.04 13.41 14.18 14.71 13.91 13.39 10.34 9.63 5.80 4.75 4.59 4.14 3.08 6.89 14.21 18.58
29.63 30.11 26.19 25.20 24.60 23.15 23.22 22.47 21.04 19.99 19.92 19.10 19.47 17.86 16.67 14.20 12.77 12.79 14.47 16.15 15.46 12.47 10.66 9.84 9.97 9.07 11.18 14.69 15.21 13.40 15.78 11.50 5.35 4.39 6.91 6.21 3.12 1.70 1.57 3.67 4.89 4.03 7.02 10.07
28.10 26.80 25.80 24.56 22.63 22.81 22.16 21.28 19.60 18.66 18.22 17.81 17.12 16.62 15.68 14.18 11.78 10.10 9.84 11.16 11.15 8.02 7.46 3.39 8.76 6.69 9.58 10.06 10.82 12.31 9.77 10.44 7.77 4.13 4.03 5.33 3.46 4.74 5.80 5.26 5.23 4.01 4.72 2.71
24.39 23.19 23.47 22.41 21.88 20.96 19.83 19.58 18.52 15.83 12.79 11.30 10.27 12.35 10.36 8.58 7.76 6.54 3.70 5.07 2.09 -1.07 -0.30 -0.26 -0.20 1.89 4.93 5.72 6.62 8.80 8.94 11.39 9.28 10.13 8.91 7.11 5.78 4.41 3.18 2.13 1.50 1.87 -1.40 -3.21
26.33 26.86 27.14 24.73 21.90 19.83 18.97 18.39 17.07 15.61 11.34 10.83 8.24 1.95 0.02 0.21 1.34 -0.29 -2.03 -1.91 -2.03 0.17 -2.54 -1.21 1.21 2.24 4.81 6.80 10.85 13.41 12.17 12.61 13.16 10.63 11.01 7.64 8.71 9.94 6.09 5.52 5.37 3.65 0.77 3.48
23.75 22.86 23.23 23.12 21.86 19.80 17.99 16.13 13.86 12.88 5.67 1.42 0.25 -1.33 -5.20 -7.20 -6.47 -6.47 -7.57 -6.47 -4.46 -0.62 2.19 2.46 13.43 9.38 8.94 10.33 13.11 12.40 11.74 10.52 11.19 11.02 9.51 6.13 3.46 9.96 8.22 4.84 0.22 -2.30 -0.56 0.28
20.93 20.89 20.05 18.68 18.11 16.31 11.08 6.04 5.60 3.91 -2.66 -2.20 -6.65 -4.86 -3.44 -4.95 -8.47 -7.74 -8.47 -2.16 1.92 5.50 4.83 6.98 9.45 8.71 8.40 9.56 8.15 10.79 8.82 6.23 9.53 5.56 3.11 5.55 -1.58 -2.12 4.05 6.73 3.60 -2.30 -7.56 -6.47
11.64 11.04 10.42 10.00 4.29 2.43 2.39 -0.03 1.68 2.92 -2.85 -7.02 -2.86 -4.45 -4.49 -3.74 -5.57 -9.19 0.21 5.82 5.57 3.54 7.44 8.03 6.64 6.27 6.40 4.42 7.68 6.81 1.44 -1.58 -1.04 0.96 -1.94 -4.84 -3.03 1.60 -0.59 -0.93 -2.32 -0.55 -1.96 -3.93
5.31 7.34 4.86 4.30 7.85 3.32 0.42 0.12 2.91 -2.24 -2.84 -5.90 -10.85 -12.27 -9.01 2.99 1.12 0.69 1.93 8.23 10.07 5.35 7.81 8.67 7.26 1.51 2.37 -2.16 7.15 -2.32 4.01 2.52 0.95 0.23 -0.69 -5.38 -7.74 -8.28 -5.20 -1.65 -2.35 -3.41 -3.94 -3.07
6.98 7.33 6.85 5.49 6.33 5.78 3.93 3.86 -1.24 -0.26 -1.10 -3.05 -2.91 -2.09 0.29 7.32 8.50 8.51 8.34 11.76 10.88 7.63 7.68 5.71 1.98 -1.58 -3.64 -8.44 -6.83 -9.01 -8.28 -7.02 -6.29 -4.66 -6.65 -11.37 -13.36 -13.54 -9.37 -5.20 -5.93 -7.38 -9.55 -7.56
7.58 8.86 7.96 9.11 8.25 12.25 11.30 8.29 9.64 12.37 4.04 6.52 6.72 3.64 8.38 7.40 6.95 12.22 13.28 12.39 8.63 6.59 0.87 0.67 -3.39 -1.22 -5.04 -10.02 -10.83 -11.73 -11.37 -12.27 -11.73 -13.18 -8.90 -10.10 -15.17 -9.55 -4.49 -9.92 -9.92 -11.37 -15.54 -14.63
11.19 10.25 10.73 10.66 14.27 12.17 15.65 17.06 17.80 18.07 16.99 17.23 16.64 16.43 13.33 12.95 7.95 10.33 5.79 9.26 10.48 9.18 4.94 0.91 -1.85 -3.40 -9.55 -11.91 -12.09 -10.46 -9.19 -10.82 -10.82 -14.63 -7.56 -5.20 -4.84 -10.82 -11.19 -14.09 -11.37 -4.49 -6.83 -16.08
15.72 14.04 13.79 15.94 14.41 13.55 14.44 15.10 12.55 11.29 12.01 8.33 7.52 2.29 1.64 0.41 4.27 4.29 5.81 5.27 7.73 9.63 3.94 2.73 -4.66 -3.77 -3.43 -4.69 -4.51 -4.34 -4.00 -1.97 -5.20 -7.74 -8.83 -7.02 -8.65 -6.65 -3.21 -5.93 -9.37 -5.03 -1.88 -4.34
15.03 14.38 15.39 15.47 16.42 16.23 13.61 11.72 9.19 9.58 6.77 -1.25 -0.55 2.92 0.88 -1.33 -0.61 0.97 0.20 -0.85 -0.13 0.60 1.28 0.65 3.20 6.16 3.55 5.43 5.74 3.22 1.82 -1.12 -4.12 -3.57 -5.77 -6.47 -9.55 -7.92 -5.93 -7.58 -10.46 -11.55 -3.61 -1.86

GFSNGP_sfc_wetblb_117.txt.gz
Wetbulb
32.44 31.72 30.39 28.73 27.60 29.40 27.72 29.42 24.12 24.40 23.02 25.64 27.30 28.09 27.54 28.07 28.04 27.01 27.32 27.11 27.72 27.56 28.39 28.62 28.01 28.82 29.96 30.85 31.90 33.22 33.37 33.76 33.91 35.69 36.58 36.58 36.89 37.64 38.93 39.28 39.95 40.50 40.29 40.35
29.92 33.65 32.48 26.91 27.80 28.25 29.74 28.44 26.37 26.16 23.64 29.02 29.49 29.29 27.25 26.44 25.92 25.09 25.46 25.94 26.65 27.61 27.63 28.29 27.92 27.38 28.11 28.98 30.40 31.34 30.97 31.51 33.27 33.88 33.76 34.09 34.59 35.18 35.78 35.89 36.72 37.23 37.62 37.82
27.17 32.19 29.93 24.08 26.01 26.78 27.57 29.08 29.51 24.50 26.74 28.32 25.90 26.25 25.41 25.52 24.99 24.06 24.72 25.36 25.92 26.48 26.84 27.94 28.78 28.12 27.21 27.97 29.83 29.61 29.70 29.85 30.87 32.26 32.57 32.94 33.02 33.56 32.92 33.87 34.07 34.09 34.31 35.27
28.58 29.73 19.91 27.89 31.35 30.76 26.91 27.52 29.82 28.11 27.83 27.21 26.04 26.90 26.91 26.44 24.78 24.05 24.67 25.03 25.15 26.11 26.27 27.63 30.05 29.66 28.23 27.99 27.95 27.97 27.37 27.66 28.54 30.12 31.47 32.07 32.02 31.96 31.95 32.29 32.55 31.57 31.63 32.56
27.40 25.20 27.11 27.81 27.93 27.92 27.33 25.16 28.84 28.44 29.82 28.27 28.35 29.17 24.41 26.07 25.83 24.79 24.96 25.57 25.62 26.37 26.15 27.30 28.32 30.41 29.29 26.90 26.76 26.25 25.62 26.47 27.25 28.50 28.94 29.92 30.35 31.27 32.06 31.62 31.30 30.59 30.46 30.57
28.70 24.01 20.42 24.49 29.14 32.71 32.60 22.86 28.91 28.24 27.54 27.25 31.48 25.01 22.91 24.94 24.66 24.71 25.25 25.64 25.18 25.75 25.86 25.78 26.93 29.21 28.74 27.46 25.64 24.73 25.29 26.30 26.94 28.40 27.64 27.76 29.12 30.03 31.91 32.70 31.82 32.49 31.24 30.66
25.24 24.07 23.88 27.83 31.52 34.80 23.74 23.80 29.06 28.24 27.42 27.47 24.26 25.18 24.97 25.14 23.67 24.05 24.16 24.82 25.48 25.34 23.94 24.08 25.84 27.37 26.13 26.96 27.11 26.85 27.33 27.17 27.50 27.65 28.25 28.51 29.86 30.32 30.25 31.67 31.73 31.27 31.48 31.46
25.34 22.59 19.81 30.75 32.45 26.88 28.95 31.52 29.88 29.70 28.32 26.23 25.80 24.99 23.75 22.88 22.03 22.87 22.35 23.31 24.26 24.09 23.63 24.15 25.05 25.38 24.59 25.02 27.53 29.12 28.02 26.96 27.12 27.48 28.00 28.84 28.31 29.65 30.03 28.93 29.09 28.80 29.13 29.58
24.85 23.53 30.18 32.83 30.41 32.26 34.55 31.39 30.90 29.84 28.62 27.79 25.16 22.95 22.50 21.63 21.45 21.65 21.89 22.20 23.45 23.20 23.25 23.50 23.99 24.00 22.70 24.36 27.21 27.45 28.24 26.95 26.56 26.84 27.03 27.97 27.90 28.20 28.20 28.42 27.01 26.88 27.33 27.47
27.12 28.79 29.15 30.30 31.80 30.35 31.02 30.53 32.07 30.44 28.48 27.63 25.22 24.51 23.11 22.77 21.92 21.55 21.18 20.87 21.98 22.32 21.58 21.16 22.80 23.14 23.59 24.79 27.41 27.49 26.30 26.87 26.85 25.99 26.17 26.20 26.77 27.12 26.89 27.61 26.84 26.02 25.94 26.53
26.64 28.23 28.62 29.25 29.85 29.42 28.48 28.83 27.57 27.33 26.94 25.89 25.22 23.32 23.01 21.33 20.93 20.40 20.19 20.37 20.83 20.54 20.19 19.99 21.41 21.72 22.59 23.85 25.98 26.22 26.08 26.03 26.43 26.22 25.64 25.10 24.96 24.79 25.09 26.64 26.65 25.20 25.36 25.86
26.17 30.23 29.44 28.29 30.34 30.18 27.75 26.39 26.50 25.64 23.91 24.28 24.51 22.57 22.91 21.77 21.29 20.50 19.10 19.44 19.16 19.06 18.80 18.94 19.53 19.85 20.50 22.39 24.64 24.96 24.50 24.80 24.64 25.31 25.19 24.44 23.65 24.23 23.81 23.61 24.13 24.47 25.17 25.13
30.83 31.33 30.47 30.04 28.95 28.55 26.36 25.49 25.01 23.92 23.34 21.76 21.96 22.03 21.24 20.31 20.26 19.42 19.39 18.27 17.66 17.38 17.58 17.74 17.19 16.71 17.49 19.68 22.11 22.59 22.44 23.33 24.21 23.80 23.50 21.69 21.28 20.15 20.03 22.66 20.61 20.63 21.37 23.02
31.70 30.97 28.14 28.10 25.97 26.87 26.23 24.99 24.47 22.83 22.53 21.55 20.77 20.77 19.44 18.27 18.09 17.36 16.70 17.96 17.77 16.80 16.07 15.84 15.26 13.46 14.85 17.43 18.86 18.46 21.37 18.42 22.26 22.85 22.03 20.80 19.44 19.15 18.73 17.72 17.69 17.96 18.36 17.96
31.24 31.82 29.66 27.33 26.27 25.04 24.86 24.24 22.42 21.40 20.89 20.31 20.84 19.32 18.55 16.41 15.47 15.32 16.62 17.53 17.04 15.53 13.97 13.66 13.33 12.54 14.84 16.60 18.05 18.77 20.96 21.86 21.06 21.80 21.06 18.08 19.57 19.56 18.63 18.00 16.98 16.61 17.48 17.20
27.43 27.23 26.98 25.86 24.14 23.91 23.68 22.73 21.70 20.47 20.25 19.40 18.66 17.92 17.12 16.38 14.93 13.62 13.74 14.32 14.43 13.17 12.24 9.45 12.49 11.45 12.15 13.88 16.06 19.28 19.85 18.22 17.77 21.09 20.82 20.41 19.55 18.99 18.38 17.54 16.46 15.71 14.34 13.85
25.65 24.08 24.78 23.77 23.84 23.26 22.50 21.98 20.84 19.19 17.00 16.16 15.05 14.98 14.31 13.44 13.05 12.01 10.29 10.11 10.42 9.21 9.32 9.78 9.76 9.67 9.67 12.11 15.60 18.56 19.80 20.32 16.98 20.66 19.98 19.60 18.83 18.13 17.61 17.24 16.03 15.07 13.65 11.78
29.36 29.52 28.68 27.21 24.07 21.54 20.17 19.47 18.70 17.49 15.51 14.58 12.85 8.91 7.45 9.09 10.79 9.39 8.36 6.15 7.84 9.70 10.64 10.60 9.47 11.65 11.69 13.01 16.06 17.44 17.95 18.20 18.83 18.50 18.77 18.18 17.61 17.94 17.68 16.97 16.19 15.11 14.61 12.54
26.99 25.96 25.83 25.04 23.80 21.71 20.03 18.43 17.18 15.62 11.21 8.73 8.14 8.23 6.38 5.40 7.30 7.65 5.19 7.14 8.77 11.79 14.75 12.07 14.34 13.14 13.36 13.65 15.16 16.57 16.48 16.31 16.77 16.82 16.73 15.38 16.61 16.14 17.12 17.25 16.15 15.53 14.56 13.63
23.33 22.94 22.22 21.01 20.64 19.00 14.93 13.39 12.26 9.91 6.64 7.25 4.40 6.28 9.91 8.32 5.77 5.97 5.70 11.01 14.70 17.38 14.08 14.01 13.67 13.64 12.52 13.04 11.74 15.55 15.15 15.20 14.52 14.74 14.86 14.59 15.03 15.07 14.85 13.51 14.71 15.07 14.98 13.95
17.65 16.91 14.98 13.83 11.07 10.82 10.64 9.79 10.13 11.03 6.47 5.25 8.95 8.61 8.26 7.93 7.61 5.04 12.00 16.28 18.15 13.08 14.20 12.63 14.43 14.66 13.89 11.10 13.87 14.59 14.14 13.89 13.59 13.37 12.83 12.49 12.80 13.48 13.69 13.51 13.72 14.25 14.22 13.74
13.97 12.82 10.44 10.08 12.26 10.08 8.41 9.71 10.92 7.29 7.36 5.82 1.94 1.15 3.73 11.55 12.42 12.20 10.37 14.08 18.49 12.01 15.07 16.10 15.64 10.56 11.97 4.77 14.05 13.80 13.32 12.69 12.63 12.98 12.83 12.70 12.17 11.71 11.94 12.15 12.25 12.64 12.67 12.53
13.13 12.85 11.91 11.15 13.04 14.64 11.14 11.51 8.67 10.32 9.39 8.34 8.85 10.74 11.80 15.78 15.88 15.22 14.75 17.81 17.26 17.44 15.81 16.33 11.96 7.65 6.64 12.03 12.86 12.33 11.84 11.38 11.85 11.94 11.72 11.24 10.69 10.20 10.36 10.75 11.70 11.69 11.53 11.59
12.77 13.99 13.69 13.87 13.65 15.84 16.30 16.93 14.35 16.06 11.41 12.81 13.01 10.70 14.53 17.65 17.30 18.26 18.05 15.13 12.82 14.22 16.46 16.32 12.49 7.43 3.72 13.02 11.85 11.65 11.14 12.00 11.89 12.01 11.41 5.42 11.27 10.19 10.48 10.33 10.29 11.69 10.18 7.64
14.83 14.78 14.90 14.59 17.45 18.89 19.06 19.77 20.40 20.26 19.83 19.86 19.66 18.69 16.43 16.78 15.95 16.75 15.07 15.06 13.59 15.04 17.15 15.82 9.66 7.86 10.05 11.24 11.22 10.33 10.48 11.49 11.64 11.52 11.57 11.52 11.36 11.01 11.33 10.76 9.48 10.23 10.24 9.77
17.28 18.29 18.82 19.41 20.32 20.38 20.59 20.10 20.23 19.69 18.81 18.85 18.57 17.40 16.30 14.29 14.24 13.80 14.42 11.24 12.85 11.98 14.34 14.55 13.36 12.18 13.17 12.51 11.66 10.95 11.30 11.04 10.48 9.99 9.42 10.59 11.39 10.47 9.95 10.32 10.26 10.35 9.83 10.06
19.21 17.39 19.34 19.91 20.88 21.14 20.62 19.17 19.25 19.00 16.14 15.52 14.84 15.08 13.60 13.15 11.83 11.41 9.10 12.57 12.61 11.96 11.87 11.19 10.63 9.31 9.08 9.77 10.99 11.76 11.96 12.37 10.59 10.55 10.59 10.19 10.42 11.02 10.43 10.33 10.66 10.07 8.50 8.09

GFSNGP_sfc_wetblb_120.txt.gz
Wetbulb
33.51 33.35 33.93 30.82 29.69 31.26 29.74 31.46 29.32 27.06 24.93 26.30 28.23 27.96 28.21 29.01 28.95 28.41 27.51 27.49 28.06 28.98 29.29 30.73 29.50 29.32 31.88 33.43 34.04 35.46 35.66 36.27 37.36 36.79 36.85 37.23 37.38 37.41 38.13 37.90 38.80 39.18 39.54 38.58
31.51 35.25 34.52 29.21 30.04 31.20 31.28 30.76 28.63 28.34 25.23 29.61 30.01 29.68 28.12 27.48 27.35 26.43 26.88 26.80 27.14 27.80 28.09 28.89 29.77 29.72 29.79 31.11 32.38 34.47 34.38 34.05 35.52 37.08 36.55 35.22 35.99 36.40 36.42 35.82 36.22 36.25 36.38 35.53
28.99 33.93 32.47 28.35 28.05 29.45 30.00 31.16 31.54 27.64 28.16 30.02 28.36 26.88 25.97 26.41 27.18 26.30 26.70 26.85 26.65 27.03 27.96 28.28 30.12 30.77 29.87 30.67 31.84 31.98 32.60 33.05 33.89 34.60 34.85 35.34 34.64 34.37 33.31 33.77 34.04 34.08 34.31 34.77
30.25 32.00 24.77 29.41 33.48 33.15 29.83 29.79 31.71 30.82 29.68 29.38 28.07 27.61 27.78 27.91 26.57 26.40 26.71 27.31 27.00 27.56 27.85 28.80 30.44 31.06 31.70 31.07 30.92 30.34 30.06 30.38 31.50 32.72 33.08 33.92 34.29 34.39 34.54 33.62 33.17 32.02 32.07 33.36
28.34 30.03 28.16 29.01 30.52 30.68 29.81 26.88 31.07 30.25 30.77 30.21 29.75 31.00 26.76 27.63 27.83 26.89 27.02 28.07 28.62 29.32 28.87 29.51 30.26 30.80 30.94 30.62 29.96 29.38 29.15 29.12 29.84 30.93 31.52 32.16 31.85 32.60 34.02 33.81 33.92 32.56 32.73 32.29
31.31 26.29 23.64 28.15 31.19 33.98 33.91 25.59 31.15 31.55 30.86 31.93 31.38 29.05 25.99 26.89 26.96 27.65 28.80 29.09 28.56 29.73 29.51 29.51 30.12 30.95 29.41 29.81 29.86 28.54 29.53 29.93 29.92 30.84 30.53 30.76 32.22 31.90 33.45 33.77 32.38 33.78 32.40 32.22
28.91 27.77 26.93 29.84 32.44 35.45 25.48 25.86 32.67 32.95 32.71 32.80 29.42 29.44 26.68 27.67 26.54 28.15 28.86 28.60 30.23 30.53 29.28 29.51 30.91 31.57 28.84 28.80 28.89 31.29 30.94 31.21 30.75 30.73 30.93 31.51 31.98 32.76 32.03 32.58 32.75 32.22 32.22 32.22
28.88 26.64 23.00 32.28 33.41 29.09 30.75 33.23 33.72 33.46 32.60 30.06 27.85 26.73 25.80 25.44 25.23 26.78 27.96 28.63 29.42 29.17 28.69 29.87 30.64 30.66 28.58 27.26 30.65 32.22 32.64 30.86 30.75 31.36 32.35 32.81 32.43 33.27 33.11 32.58 31.85 31.67 31.82 31.91
27.97 26.95 32.01 33.54 32.14 35.16 35.28 32.97 32.88 33.49 33.15 32.02 28.46 25.75 25.25 24.77 25.03 26.02 27.50 28.31 28.98 28.76 28.41 29.03 29.56 29.39 27.91 27.89 31.62 32.29 32.39 31.99 31.61 31.39 31.31 31.67 31.53 31.16 30.96 32.14 31.04 30.52 29.79 29.95
29.84 29.93 30.81 31.21 32.98 34.68 35.02 33.72 34.12 34.17 32.99 31.95 28.44 27.21 25.96 26.45 26.49 26.76 27.28 27.01 28.38 28.00 26.85 26.39 28.21 27.99 28.06 29.54 31.39 31.38 30.80 30.64 31.63 31.15 31.07 31.18 30.72 30.48 28.46 27.29 27.63 27.24 26.79 26.98
28.58 29.87 30.59 31.32 32.07 32.34 32.15 32.27 31.32 31.96 31.40 30.25 29.62 27.84 27.28 26.84 26.46 26.43 26.35 26.46 26.35 25.77 25.24 25.12 26.65 26.50 27.43 28.49 29.87 29.65 29.84 29.66 29.48 30.07 29.88 29.59 29.67 27.52 26.42 25.86 24.72 24.61 24.85 25.64
30.39 31.74 32.55 30.62 31.93 31.95 30.22 29.91 30.26 29.23 28.36 28.95 28.69 27.21 27.21 26.15 26.48 25.73 24.86 25.42 25.02 24.39 23.89 23.65 24.19 24.17 24.91 26.78 27.82 27.61 27.35 27.87 27.88 28.77 28.55 27.93 27.78 28.31 23.48 22.90 22.20 22.44 22.81 23.80
32.35 34.70 33.09 32.35 31.67 31.64 30.11 29.64 29.63 28.93 28.59 26.58 27.02 27.34 26.74 25.59 24.97 22.40 24.23 23.80 23.30 22.56 22.63 22.65 21.46 20.12 21.12 23.45 24.71 24.46 25.42 24.99 27.04 26.91 27.04 25.95 25.79 25.12 24.36 26.16 23.52 21.92 20.78 20.80
34.85 32.73 29.31 29.90 28.33 30.50 29.81 28.62 28.08 27.55 27.20 26.48 26.02 25.84 24.58 23.35 22.63 22.33 21.00 21.98 22.13 21.72 20.73 20.51 19.51 17.45 18.66 20.78 22.39 22.86 24.97 24.33 25.84 26.43 26.16 25.71 25.21 24.94 24.78 23.57 22.90 23.59 23.07 20.67
34.62 35.27 33.87 31.46 30.43 29.08 29.29 28.77 26.91 25.54 24.98 24.59 25.41 24.12 23.49 21.38 20.25 19.93 21.32 21.50 21.62 20.61 19.45 18.55 17.58 16.55 17.81 18.73 20.30 22.46 24.06 24.68 24.40 26.01 25.76 24.66 24.97 25.04 24.40 23.78 22.71 22.50 22.47 21.60
32.31 32.37 31.42 30.04 28.82 28.24 28.34 27.59 25.97 24.52 24.08 23.31 22.70 21.77 21.48 21.40 20.08 19.29 19.25 18.92 19.45 17.77 16.81 14.75 16.41 15.73 15.80 16.74 18.85 22.75 23.53 22.52 22.34 24.50 24.43 24.21 24.02 23.26 22.86 22.42 21.94 21.40 20.38 18.14
30.23 28.62 29.64 28.35 28.21 27.40 27.08 26.65 25.44 23.58 22.23 21.24 19.86 19.78 19.17 18.33 17.94 17.06 16.44 15.95 16.22 15.38 15.81 16.84 15.61 15.85 14.57 16.38 18.41 22.09 22.89 22.90 20.98 23.37 23.07 22.65 22.38 21.77 21.69 21.30 20.57 20.11 19.63 16.68
34.96 34.31 33.46 32.02 29.15 26.25 24.59 23.99 23.40 22.49 20.99 20.45 18.28 15.05 14.22 15.49 16.60 15.81 15.39 14.97 14.88 15.61 17.31 17.53 15.73 16.61 16.77 16.84 18.33 20.82 21.28 21.24 21.34 21.08 21.10 20.95 20.32 20.67 20.73 20.06 19.49 18.71 18.72 18.04
34.18 33.15 31.95 30.49 29.12 26.80 24.61 23.18 22.16 20.41 17.13 15.44 14.54 14.41 14.52 14.15 15.93 16.42 15.26 14.45 15.69 17.82 20.19 18.20 17.30 17.55 18.19 17.03 17.58 20.49 20.17 19.54 19.74 19.72 19.46 18.45 19.63 19.62 19.41 19.82 19.85 18.84 17.81 17.36
30.15 30.18 29.13 27.47 26.54 24.86 21.37 19.80 18.15 15.74 14.58 15.16 13.27 13.79 15.76 15.55 14.78 14.41 15.62 17.15 20.13 21.79 20.75 19.46 18.52 18.86 17.74 17.55 16.03 19.93 18.97 18.65 18.13 18.29 18.29 17.30 17.92 17.51 17.97 17.09 17.49 17.56 17.69 17.21
25.60 24.68 22.34 20.37 18.83 18.59 17.99 17.80 16.84 15.54 14.37 14.21 15.43 16.34 16.04 16.44 15.86 13.92 18.29 20.98 23.08 21.03 20.19 18.56 19.25 20.44 20.35 16.94 18.70 19.46 18.89 17.99 17.40 16.90 16.56 16.42 16.34 16.42 16.40 16.55 16.80 17.01 17.09 17.09
22.49 20.19 17.98 16.74 17.24 16.47 16.51 18.55 18.88 15.80 14.50 13.38 11.49 11.43 13.34 18.92 19.82 19.56 18.96 19.47 21.79 19.24 20.40 21.30 21.67 18.79 18.35 13.04 19.47 19.25 18.60 17.89 17.50 17.19 16.64 16.31 15.80 15.11 15.13 15.05 15.00 16.04 15.94 15.60
21.33 19.78 18.75 17.88 18.29 19.26 18.01 18.08 16.15 16.67 15.82 15.97 16.51 18.58 20.33 21.91 22.04 20.15 19.22 21.63 21.71 20.85 20.55 20.98 20.99 16.57 14.64 16.95 20.08 19.75 18.88 17.92 17.54 17.30 17.05 16.77 16.26 15.58 14.85 14.32 14.55 14.71 14.77 14.58
20.50 20.53 20.20 21.17 20.13 19.67 19.22 20.14 19.87 21.13 18.46 19.90 19.69 18.39 20.58 22.07 22.46 23.78 22.68 20.75 19.14 18.73 20.39 20.88 20.32 18.04 14.56 19.36 19.51 19.06 18.46 18.63 18.11 18.24 17.80 16.13 16.72 16.20 15.73 14.89 13.89 14.59 14.41 13.76
20.76 20.45 20.25 19.81 21.18 22.92 23.52 23.72 23.57 23.54 22.95 23.35 22.99 22.68 20.50 22.48 20.84 21.38 21.16 20.76 18.67 18.81 19.90 19.88 17.94 16.68 18.32 19.12 18.54 17.76 17.45 17.56 17.29 16.79 16.22 16.59 17.06 16.66 16.59 16.09 15.07 14.53 14.19 13.71
21.94 23.12 23.41 23.20 25.38 25.89 25.64 25.05 25.46 25.23 24.76 23.79 24.03 23.63 23.06 22.10 20.80 19.88 19.58 18.17 18.21 16.91 17.96 17.83 17.10 16.33 16.90 16.52 16.26 15.94 16.32 15.91 15.78 15.84 15.24 15.10 15.51 15.38 16.28 16.31 15.61 15.06 14.64 14.22
23.95 23.62 24.23 24.24 25.27 25.65 26.14 25.72 24.82 23.21 23.15 23.14 21.47 21.60 20.44 19.82 18.81 17.16 15.27 16.95 16.01 15.76 15.51 15.60 14.99 13.67 12.70 12.62 13.26 13.38 13.31 13.46 13.26 13.34 13.38 14.13 14.32 14.34 14.68 15.39 16.51 15.84 15.32 14.08

GFSNGP_sfc_wetblb_126.txt.gz
Wetbulb
35.51 36.42 37.01 34.42 32.21 33.14 31.05 32.19 29.81 29.81 27.71 27.14 28.52 28.90 29.08 31.60 31.84 30.57 29.83 29.20 28.86 28.52 28.84 29.72 30.89 31.00 31.93 32.16 32.30 33.46 34.19 34.73 35.04 34.98 36.76 35.51 35.10 34.84 35.08 34.66 35.13 35.62 34.96 34.28
30.80 35.17 36.15 33.71 32.66 32.30 33.14 31.65 30.41 30.48 27.00 31.25 31.91 31.88 29.78 30.07 30.29 29.07 29.05 29.20 28.46 28.88 29.55 29.94 30.60 30.72 31.58 31.96 31.44 32.44 32.48 33.16 34.68 34.88 35.32 35.46 35.23 35.16 34.52 34.04 33.63 33.79 33.61 32.72
28.23 36.25 34.38 29.60 32.30 32.15 33.52 35.02 33.85 29.94 31.51 32.84 30.90 29.23 28.00 28.93 29.28 28.48 28.95 29.66 29.05 29.43 30.21 30.81 31.07 31.44 31.03 31.84 32.46 31.20 31.05 31.95 32.93 33.63 33.66 34.21 34.78 34.39 33.69 32.73 33.15 32.48 32.67 32.50
29.36 33.45 24.35 30.93 37.80 37.02 34.92 34.84 35.17 33.05 32.51 33.56 30.86 29.90 29.50 29.93 29.06 28.70 29.32 30.00 31.02 31.39 31.27 32.22 32.46 32.66 32.67 32.70 32.10 31.35 30.32 30.87 31.74 32.47 32.45 32.60 32.90 33.25 32.92 32.91 32.21 31.59 31.29 31.55
27.17 28.67 29.43 31.33 34.88 34.79 33.02 31.63 35.97 33.98 33.78 33.01 32.03 30.61 27.61 29.65 30.32 30.68 31.02 32.08 32.41 32.62 32.43 33.25 32.25 33.07 33.14 32.27 31.86 31.33 30.76 30.11 31.56 31.81 31.68 32.32 31.90 32.31 32.95 32.57 32.59 32.22 31.46 30.20
30.71 25.59 23.09 30.83 36.32 38.61 38.00 28.39 36.31 36.28 34.09 32.66 32.65 27.86 26.15 28.95 29.20 31.28 32.83 32.77 32.26 32.66 32.33 31.95 32.60 32.95 32.41 31.88 31.72 31.07 31.49 31.58 31.31 32.09 31.15 30.62 31.33 31.68 32.90 32.64 32.03 32.63 31.97 30.80
29.25 26.74 28.74 33.16 35.05 37.16 26.58 28.50 36.49 37.03 36.33 34.90 31.27 29.52 29.13 30.26 29.56 32.42 32.55 32.61 33.42 32.10 30.57 30.72 32.10 32.37 30.04 31.03 30.42 32.12 33.37 32.83 31.92 31.87 30.99 31.19 30.46 30.17 29.74 30.82 29.89 29.62 30.39 30.84
30.56 27.10 24.47 34.35 33.62 30.17 33.73 36.70 36.24 35.38 33.69 30.25 29.14 28.77 27.77 27.58 27.85 31.18 31.96 32.03 32.23 30.54 29.62 30.17 30.59 30.17 28.77 28.55 32.03 33.25 32.51 31.94 31.18 31.52 31.67 31.14 29.42 28.00 27.05 27.11 26.49 25.73 26.17 26.37
29.55 28.22 32.51 34.34 35.48 37.58 37.51 35.53 34.59 32.91 32.51 31.00 28.95 27.61 27.65 27.17 28.66 31.06 31.45 31.31 31.36 29.37 28.58 28.77 28.75 28.36 26.93 28.11 30.98 31.97 31.25 29.91 30.69 30.19 30.57 30.12 28.48 26.75 23.86 23.49 22.86 22.71 22.57 22.35
31.28 30.53 31.25 34.65 36.14 36.95 36.56 35.24 35.03 34.38 32.79 30.83 27.74 28.08 27.77 29.12 30.14 30.18 29.81 29.22 29.75 28.44 26.91 25.92 26.60 26.33 26.38 27.67 29.25 30.07 28.79 28.97 29.08 28.93 29.01 29.26 28.39 27.59 24.20 22.34 21.52 20.95 19.78 19.69
30.25 31.06 31.47 33.89 34.98 35.31 35.36 35.54 34.41 34.58 33.56 31.94 30.96 30.96 31.39 30.15 29.76 29.55 29.36 28.82 28.37 26.71 25.74 24.78 24.99 23.63 24.36 25.19 26.69 26.42 28.05 27.64 27.05 28.24 27.57 27.21 26.27 25.01 25.50 22.13 22.16 20.51 18.99 18.92
31.89 33.74 33.70 31.91 34.41 34.88 33.31 32.28 32.14 31.79 31.43 32.69 32.26 30.79 30.79 28.68 28.85 28.23 27.25 27.57 26.53 25.60 24.79 23.99 22.78 21.19 21.19 22.54 23.61 24.21 24.79 25.47 25.67 26.61 26.56 25.91 25.44 25.35 25.46 23.59 23.96 23.81 23.83 20.69
34.54 36.02 33.14 33.29 34.53 33.92 32.16 32.24 32.19 31.42 31.35 30.30 31.19 30.80 29.23 26.59 26.67 26.93 26.55 25.76 24.90 23.87 23.46 22.54 20.90 18.63 18.95 20.17 21.60 22.05 23.01 24.94 24.42 24.98 25.45 24.57 24.23 24.27 22.85 26.37 25.59 24.75 24.79 23.53
35.71 33.75 30.48 31.99 30.83 33.47 32.79 32.29 32.54 31.51 31.11 30.09 29.50 28.66 27.21 25.49 24.91 23.62 22.61 23.43 23.94 22.73 21.36 20.59 19.43 17.12 17.87 19.02 19.71 19.39 23.16 24.46 23.40 23.77 24.17 24.26 23.79 23.74 23.53 22.33 21.47 22.00 25.65 22.13
35.16 37.28 34.52 34.54 33.67 32.63 32.50 31.20 29.06 27.95 27.83 27.28 27.65 25.87 25.33 23.94 22.73 22.59 23.57 23.97 25.23 22.58 20.32 18.67 17.87 16.69 18.00 18.85 18.94 19.49 23.80 23.56 22.79 23.22 23.58 23.11 23.56 23.03 22.60 22.28 21.38 21.28 21.83 21.05
36.30 35.57 34.69 32.34 31.53 30.99 30.88 30.14 28.10 26.89 27.39 26.82 26.05 25.34 24.68 24.07 22.80 21.37 20.31 20.30 18.78 17.49 18.44 15.13 17.92 17.07 17.46 17.89 17.59 20.93 22.65 21.26 20.20 22.04 22.59 22.30 21.94 21.15 20.31 20.19 20.21 20.18 19.94 17.76
32.76 31.06 31.73 30.81 30.36 30.58 30.24 30.65 28.94 27.48 26.18 24.10 22.61 22.95 22.22 21.16 20.41 19.17 17.92 18.34 18.42 16.02 17.18 18.06 15.68 13.94 14.51 15.60 17.12 19.48 21.87 22.28 18.47 21.63 21.19 20.87 20.26 18.62 18.91 19.51 18.73 18.83 19.36 14.83
37.03 36.18 35.29 33.42 31.53 30.70 29.95 29.41 28.04 26.66 24.84 23.79 21.65 18.50 16.86 17.13 18.33 16.57 16.27 17.36 15.81 15.67 18.53 19.19 15.80 15.64 16.01 17.79 17.63 19.32 20.97 21.14 20.84 19.97 20.55 19.44 18.70 19.02 19.05 17.90 17.89 17.46 17.77 18.83
37.32 35.80 35.30 34.13 33.33 30.90 28.89 27.58 26.68 25.26 20.82 18.04 16.37 16.35 16.90 16.33 18.23 18.45 17.71 14.66 14.74 18.80 20.65 19.93 22.24 19.69 21.21 20.38 18.42 19.93 19.53 20.41 19.68 19.43 19.19 17.50 17.53 18.20 17.44 16.83 16.89 16.60 16.69 16.79
34.83 34.63 34.08 32.94 31.98 29.51 25.33 22.47 21.44 19.19 18.16 18.03 17.24 16.20 16.84 15.49 15.48 14.96 16.84 18.41 20.74 22.90 22.51 22.27 21.94 21.38 21.68 22.27 17.54 19.73 20.05 19.87 19.37 18.60 18.48 17.42 17.64 16.64 16.64 14.88 15.39 15.84 16.11 16.64
30.33 28.04 24.97 23.75 22.51 21.93 20.96 20.18 17.83 16.62 17.37 16.37 17.59 16.49 17.23 18.72 17.78 15.50 18.81 21.54 22.69 20.90 21.93 19.86 21.65 22.26 22.88 19.40 18.62 19.99 19.53 18.92 19.21 18.74 18.15 17.45 17.11 17.47 17.07 16.74 16.43 15.94 15.29 15.54
26.32 23.86 21.67 20.78 20.67 20.20 20.13 20.19 19.67 17.19 16.83 15.51 12.79 13.62 14.27 18.52 19.27 19.81 19.53 21.53 23.67 19.26 20.36 21.60 22.46 20.10 19.54 14.76 19.34 19.05 18.77 18.87 18.98 19.12 18.38 18.13 17.73 17.12 16.67 16.73 15.61 15.15 13.93 13.35
25.88 22.86 21.88 20.46 20.19 21.36 22.28 20.92 19.04 18.74 16.82 15.89 15.04 18.47 21.28 22.61 23.38 22.30 20.79 23.24 23.01 18.24 20.58 21.14 19.94 17.84 17.25 18.79 18.57 18.26 18.33 18.57 18.75 18.13 17.37 17.08 17.15 16.77 15.41 14.92 15.96 16.53 14.96 13.13
24.52 23.68 22.78 23.93 22.63 21.80 19.81 19.50 20.92 20.82 20.01 20.87 20.36 18.54 21.64 22.60 24.18 24.98 23.83 20.87 19.35 16.79 19.13 19.66 18.13 16.34 11.38 17.24 16.91 16.19 14.71 14.51 15.13 15.23 14.76 14.45 14.74 14.73 15.66 14.40 13.49 13.80 15.51 15.68
24.62 23.83 24.30 22.27 22.59 22.62 23.10 22.46 23.65 23.46 23.35 24.38 24.23 22.93 23.17 23.76 22.30 21.92 22.09 21.78 19.43 17.71 18.46 17.63 14.42 14.64 15.50 15.30 14.22 12.01 11.72 12.58 12.10 11.88 11.72 10.82 10.72 10.48 10.87 11.37 12.23 12.14 12.84 13.79
24.59 24.96 24.92 25.68 26.65 27.14 26.73 25.68 25.64 26.51 25.81 25.72 26.00 25.54 24.70 23.82 22.87 21.27 20.79 17.94 18.45 15.16 16.71 16.05 14.81 13.89 13.27 12.12 10.37 10.10 9.68 9.50 9.53 8.87 7.39 6.96 7.18 7.57 7.72 7.55 7.19 7.33 9.24 9.95
27.09 26.78 26.47 27.03 28.93 28.86 28.59 27.39 27.80 25.70 25.53 25.44 24.03 24.00 22.60 22.21 20.71 18.84 16.19 17.39 16.02 14.99 13.86 12.69 12.52 10.76 9.79 8.40 8.93 7.68 7.53 7.60 5.73 4.79 4.25 5.06 6.28 4.74 4.22 3.45 4.44 6.14 7.39 8.27

GFSNGP_sfc_wetblb_129.txt.gz
Wetbulb
33.81 34.88 34.80 34.23 33.37 33.07 30.70 30.14 27.53 27.57 25.54 27.75 28.76 28.35 29.22 30.76 28.79 28.22 27.80 27.73 27.66 27.72 28.28 29.70 30.25 30.66 30.98 31.07 31.14 32.41 32.49 32.96 33.16 34.36 34.63 34.36 33.32 33.49 33.56 33.08 32.92 32.86 32.85 33.01
27.71 33.04 33.28 30.84 31.25 30.38 32.63 31.13 29.13 29.76 25.79 31.23 31.42 30.67 28.90 28.07 28.50 27.20 28.00 27.98 28.08 28.96 29.09 29.42 30.25 30.58 31.06 31.05 30.48 31.73 31.30 31.84 33.01 33.43 33.60 33.21 33.06 32.36 32.40 32.36 32.39 32.19 31.62 31.68
25.96 33.60 33.50 27.81 29.07 28.95 32.46 33.87 32.88 26.75 29.37 30.69 29.92 28.19 27.27 27.58 27.57 27.09 27.82 28.59 27.67 27.62 30.27 29.10 29.94 31.32 30.64 30.97 31.22 30.37 30.53 30.73 31.91 32.55 32.45 32.70 32.57 32.67 32.29 31.04 31.27 30.44 30.25 30.16
27.23 27.91 19.70 30.43 37.16 36.03 34.96 35.07 32.04 30.05 29.55 30.60 28.75 28.37 28.57 28.64 27.43 27.66 28.46 28.67 28.22 27.60 28.05 30.17 30.22 31.03 31.47 31.67 31.02 30.50 29.73 30.32 30.57 30.73 30.50 31.67 31.81 31.50 31.70 32.30 30.32 29.55 28.83 28.75
23.94 24.37 28.19 31.15 34.03 33.85 33.32 30.75 33.34 30.85 29.41 28.41 28.32 27.72 26.50 28.91 29.11 28.43 28.77 29.04 28.28 28.66 27.97 29.34 29.90 30.32 30.72 30.22 29.83 29.66 29.22 29.48 30.18 29.95 28.52 28.70 28.78 30.05 30.06 30.75 30.96 29.73 28.87 27.65
26.47 23.51 19.09 28.42 33.26 36.73 36.79 25.92 34.68 33.27 29.79 28.46 28.20 25.46 24.38 28.32 28.99 29.05 30.12 29.36 28.73 28.80 28.00 27.19 28.34 28.99 28.53 27.98 28.06 27.73 28.38 27.91 28.67 29.48 27.61 25.45 25.90 26.51 27.78 27.43 27.55 28.09 28.25 25.93
26.07 24.59 26.48 32.06 34.11 36.12 25.10 24.35 36.12 36.18 33.68 31.24 27.15 26.22 27.66 29.03 28.86 29.83 29.37 29.67 29.39 27.76 26.08 26.31 27.33 27.36 25.39 26.46 27.17 28.48 29.35 29.50 29.23 28.61 27.30 25.47 24.11 24.14 24.13 24.61 23.73 23.82 23.79 23.91
27.13 24.48 20.86 34.09 32.75 28.90 31.61 33.92 31.81 31.18 30.03 27.24 27.67 27.43 27.35 27.55 26.54 28.60 28.01 27.68 27.89 26.18 25.01 25.50 25.51 25.63 23.73 23.47 27.50 29.02 28.40 28.04 27.73 27.94 28.15 26.85 23.74 23.46 22.67 21.71 19.78 19.88 20.49 20.63
27.74 25.93 31.66 35.17 34.88 35.92 36.00 31.09 30.37 30.14 30.40 29.23 27.32 26.53 27.17 26.47 26.48 27.56 26.87 25.25 25.82 24.36 23.79 23.42 23.47 22.78 21.40 23.10 26.29 28.42 27.12 25.71 26.39 26.57 26.69 26.29 24.07 22.40 20.91 20.60 18.73 18.31 17.92 17.08
27.51 30.18 31.05 34.49 35.89 35.89 35.68 34.11 33.22 32.22 30.98 29.41 26.75 27.28 26.82 27.70 28.23 26.60 25.89 24.14 24.41 23.72 21.78 20.28 20.68 21.02 20.73 22.43 24.69 25.97 24.93 24.90 25.75 25.02 24.40 23.54 24.26 23.00 20.42 18.85 18.73 18.61 16.83 13.18
28.33 30.88 32.13 33.79 34.68 34.90 34.90 35.78 34.19 33.67 31.52 29.79 29.40 28.73 29.44 28.17 27.21 26.81 25.85 25.09 24.12 21.85 20.67 19.23 19.04 18.30 19.22 20.65 22.20 22.89 24.45 23.83 23.40 24.56 23.65 23.01 22.76 20.64 21.35 18.57 20.79 17.67 11.99 12.23
24.81 29.97 28.89 30.50 33.52 33.94 31.63 31.57 32.56 32.65 31.46 31.94 31.62 28.83 28.11 26.41 26.53 25.61 24.09 24.10 22.37 21.04 19.69 18.43 17.71 16.87 17.69 19.15 20.69 21.07 22.28 21.82 22.07 22.78 22.79 22.50 21.74 21.82 25.39 22.22 24.87 25.25 24.21 16.66
30.42 32.81 31.48 32.70 33.67 32.53 31.13 31.77 32.41 31.58 31.31 29.87 29.82 27.56 26.05 24.61 24.68 24.67 23.37 22.97 21.09 19.93 19.75 18.39 16.98 15.81 16.08 18.18 19.64 19.71 19.64 21.67 21.11 21.78 21.87 21.62 21.56 20.86 18.30 21.54 25.93 25.95 24.27 23.86
32.86 32.36 30.36 31.43 30.29 32.69 32.50 32.13 32.70 31.17 30.15 28.15 26.61 25.81 24.22 22.71 22.73 21.65 21.23 21.64 21.13 19.73 18.70 18.25 16.56 13.10 13.07 13.23 14.32 13.34 15.60 18.58 16.76 16.52 16.25 16.23 15.03 15.18 12.99 10.45 9.88 12.80 20.39 21.11
32.39 34.95 31.89 33.22 32.52 31.41 31.28 30.02 28.14 26.78 26.18 25.12 25.05 23.61 23.38 22.00 20.90 20.35 20.73 21.51 21.69 19.02 16.91 14.81 12.50 9.87 13.18 16.50 16.00 15.08 19.24 15.10 9.81 11.67 12.32 10.25 13.04 12.84 9.48 9.09 9.01 8.35 9.60 12.36
34.50 32.76 32.22 30.73 30.26 28.98 28.44 27.68 25.70 24.71 24.98 24.49 24.09 23.47 22.88 22.13 20.16 18.79 18.90 18.51 17.52 15.94 16.06 9.57 13.67 10.23 12.39 11.73 10.83 13.50 14.92 14.74 12.79 14.12 13.81 12.73 11.35 10.95 13.15 12.79 13.46 10.94 9.66 11.22
31.63 30.37 29.64 27.56 27.09 26.76 26.88 26.40 25.75 24.42 21.94 20.50 19.84 20.13 19.40 18.00 17.05 14.63 12.74 13.73 11.13 9.49 9.17 8.51 7.10 5.66 6.71 5.61 5.79 8.05 11.85 15.09 12.54 16.11 13.97 13.67 10.36 11.46 11.41 10.89 10.11 10.23 9.59 4.90
34.18 31.69 30.74 29.00 27.24 26.77 26.09 26.27 25.10 23.70 20.65 20.29 18.86 16.21 14.88 14.74 13.79 10.58 9.94 8.60 7.18 8.63 6.91 7.81 7.60 8.68 7.57 7.48 9.73 14.62 14.19 16.04 16.43 14.29 15.38 11.19 10.91 13.60 10.09 9.35 10.95 9.56 8.26 11.35
34.65 32.03 30.04 29.50 28.08 26.85 26.04 25.07 23.99 21.98 18.43 15.22 12.94 10.51 9.14 7.19 8.29 7.29 6.15 5.14 5.58 11.34 12.57 9.19 17.44 17.84 17.89 14.98 15.96 15.74 14.64 13.05 14.88 16.00 13.44 11.39 7.83 10.78 7.66 4.43 5.81 3.51 5.83 8.01
32.34 31.68 30.84 29.08 27.20 25.40 19.48 19.35 18.81 17.18 14.93 13.69 12.24 10.51 7.79 6.74 6.46 6.30 5.13 9.42 10.94 15.71 15.24 16.95 18.83 19.31 19.36 17.03 14.24 15.63 14.90 11.43 14.71 14.67 11.83 11.73 4.25 2.14 5.29 7.11 7.71 4.58 0.20 1.96
27.35 25.07 22.68 20.29 16.76 15.77 16.99 15.64 15.83 13.95 11.81 11.42 11.55 9.78 9.03 8.15 6.89 4.86 8.63 15.82 14.39 12.87 16.11 15.84 18.02 18.00 18.65 14.78 14.61 11.24 10.15 8.77 8.33 10.63 11.05 9.81 12.11 9.16 8.17 8.11 9.40 10.54 6.24 2.04
19.18 18.58 16.85 17.36 17.04 13.62 12.29 13.66 13.67 11.23 10.22 7.14 4.60 3.78 5.76 8.51 6.88 8.56 9.80 16.66 17.79 10.80 15.75 17.49 17.75 12.84 13.34 9.34 15.05 9.20 12.69 13.94 13.99 14.53 14.23 12.88 11.68 10.07 11.11 10.79 11.20 10.90 9.51 10.67
17.59 17.33 16.62 16.01 15.90 14.27 14.67 12.83 9.52 10.68 8.94 7.35 8.46 8.01 11.16 16.52 17.08 15.06 15.70 20.03 18.66 12.87 16.33 15.04 9.61 6.45 6.14 6.50 5.73 6.39 4.25 5.53 8.96 10.11 8.81 9.55 10.30 9.53 9.46 9.07 9.24 10.06 8.69 9.40
17.32 17.77 17.66 19.67 19.49 18.49 15.12 13.52 17.35 16.72 13.49 14.08 11.57 10.61 16.94 13.50 16.05 20.24 19.57 14.00 7.24 8.01 7.92 12.27 11.45 7.69 3.19 3.44 4.76 0.97 -0.06 -2.61 5.89 3.85 6.75 3.94 4.16 2.70 3.31 5.43 6.06 4.93 4.40 4.79
20.63 20.52 20.45 19.30 19.82 18.87 19.60 19.88 20.55 20.33 20.61 21.21 21.42 20.46 19.80 19.99 12.10 11.95 11.81 10.82 11.66 9.25 7.36 5.18 4.95 2.98 2.31 1.56 -3.27 -5.12 -4.22 -4.61 -3.68 2.28 0.05 -1.89 -3.99 -2.84 0.78 1.88 0.45 0.33 1.77 3.53
22.45 22.07 21.07 22.43 21.69 21.94 20.74 21.01 20.15 20.34 20.70 18.00 20.46 20.97 17.46 17.06 14.95 14.04 10.96 9.03 9.26 7.16 5.18 0.14 -0.95 -1.45 -4.26 -4.72 -6.57 -5.57 -5.89 -2.20 -0.97 -3.90 -8.87 -5.32 -0.81 -0.96 -1.95 -3.77 -3.16 -1.76 1.86 3.52
23.84 22.34 22.63 22.61 24.31 24.05 22.71 21.51 21.67 20.41 20.56 21.56 17.48 17.22 15.64 11.34 9.88 9.52 5.28 3.03 2.75 0.57 -4.05 -5.49 -3.59 -1.18 -3.52 -5.33 -4.35 -6.75 -8.02 -6.04 -6.91 -7.11 -12.10 -3.40 -4.03 -12.46 -8.61 -5.83 -3.17 0.05 1.84 -1.01